﻿<?xml version="1.0" encoding="utf-8" standalone="yes"?>
<gpx version="1.0" creator="CanWay - http://www.canwaygps.com" xmlns:xsi="http://www.w3.org/2001/XMLSchema-instance" xmlns="http://www.topografix.com/GPX/1/0" xsi:schemaLocation="http://www.topografix.com/GPX/1/0 http://www.topografix.com/GPX/1/0/gpx.xsd">
<time>2023-05-14T21:29:20Z</time>
<bounds minlat="47.587535" minlon="8.169072" maxlat="47.616733" maxlon="8.226059" />
<trk>
<name>Leibstadt-Full-Reuenthal-Gippingen</name>
<trkseg>
<trkpt lat="47.590484" lon="8.175156">
<ele>342.5</ele>
<time>2003-05-23T07:19:24Z</time>
<speed>0.0</speed>
</trkpt>
<trkpt lat="47.590514" lon="8.175170">
<ele>346.3</ele>
<time>2003-05-23T07:19:29Z</time>
<speed>0.3</speed>
</trkpt>
<trkpt lat="47.590476" lon="8.175181">
<ele>343.4</ele>
<time>2003-05-23T07:19:34Z</time>
<speed>0.0</speed>
</trkpt>
<trkpt lat="47.590451" lon="8.175179">
<ele>341.8</ele>
<time>2003-05-23T07:19:39Z</time>
<speed>0.0</speed>
</trkpt>
<trkpt lat="47.590439" lon="8.175177">
<ele>341.7</ele>
<time>2003-05-23T07:19:44Z</time>
<speed>0.0</speed>
</trkpt>
<trkpt lat="47.590420" lon="8.175175">
<ele>340.9</ele>
<time>2003-05-23T07:19:49Z</time>
<speed>0.0</speed>
</trkpt>
<trkpt lat="47.590426" lon="8.175175">
<ele>341.7</ele>
<time>2003-05-23T07:19:54Z</time>
<speed>0.0</speed>
</trkpt>
<trkpt lat="47.590426" lon="8.175175">
<ele>341.7</ele>
<time>2003-05-23T07:19:59Z</time>
<speed>0.0</speed>
</trkpt>
<trkpt lat="47.590425" lon="8.175188">
<ele>341.8</ele>
<time>2003-05-23T07:20:04Z</time>
<speed>0.0</speed>
</trkpt>
<trkpt lat="47.590424" lon="8.175202">
<ele>341.9</ele>
<time>2003-05-23T07:20:09Z</time>
<speed>0.0</speed>
</trkpt>
<trkpt lat="47.590437" lon="8.175203">
<ele>341.9</ele>
<time>2003-05-23T07:20:14Z</time>
<speed>0.0</speed>
</trkpt>
<trkpt lat="47.590436" lon="8.175202">
<ele>343.3</ele>
<time>2003-05-23T07:20:19Z</time>
<speed>0.0</speed>
</trkpt>
<trkpt lat="47.590443" lon="8.175203">
<ele>342.7</ele>
<time>2003-05-23T07:20:24Z</time>
<speed>0.0</speed>
</trkpt>
<trkpt lat="47.590442" lon="8.175217">
<ele>342.8</ele>
<time>2003-05-23T07:20:29Z</time>
<speed>0.0</speed>
</trkpt>
<trkpt lat="47.590447" lon="8.175232">
<ele>342.2</ele>
<time>2003-05-23T07:20:34Z</time>
<speed>0.0</speed>
</trkpt>
<trkpt lat="47.590441" lon="8.175232">
<ele>341.5</ele>
<time>2003-05-23T07:20:39Z</time>
<speed>0.0</speed>
</trkpt>
<trkpt lat="47.590447" lon="8.175247">
<ele>340.9</ele>
<time>2003-05-23T07:20:44Z</time>
<speed>0.0</speed>
</trkpt>
<trkpt lat="47.590447" lon="8.175247">
<ele>340.9</ele>
<time>2003-05-23T07:20:49Z</time>
<speed>0.0</speed>
</trkpt>
<trkpt lat="47.590448" lon="8.175235">
<ele>339.4</ele>
<time>2003-05-23T07:20:54Z</time>
<speed>0.0</speed>
</trkpt>
<trkpt lat="47.590449" lon="8.175222">
<ele>339.3</ele>
<time>2003-05-23T07:20:59Z</time>
<speed>0.0</speed>
</trkpt>
<trkpt lat="47.590449" lon="8.175222">
<ele>339.3</ele>
<time>2003-05-23T07:21:04Z</time>
<speed>0.0</speed>
</trkpt>
<trkpt lat="47.590451" lon="8.175211">
<ele>337.8</ele>
<time>2003-05-23T07:21:09Z</time>
<speed>0.0</speed>
</trkpt>
<trkpt lat="47.590445" lon="8.175211">
<ele>337.1</ele>
<time>2003-05-23T07:21:14Z</time>
<speed>0.0</speed>
</trkpt>
<trkpt lat="47.590445" lon="8.175211">
<ele>337.1</ele>
<time>2003-05-23T07:21:19Z</time>
<speed>0.0</speed>
</trkpt>
<trkpt lat="47.590445" lon="8.175211">
<ele>337.1</ele>
<time>2003-05-23T07:21:24Z</time>
<speed>0.0</speed>
</trkpt>
<trkpt lat="47.590444" lon="8.175224">
<ele>337.1</ele>
<time>2003-05-23T07:21:29Z</time>
<speed>0.0</speed>
</trkpt>
<trkpt lat="47.590445" lon="8.175211">
<ele>337.1</ele>
<time>2003-05-23T07:21:34Z</time>
<speed>0.0</speed>
</trkpt>
<trkpt lat="47.590444" lon="8.175224">
<ele>337.1</ele>
<time>2003-05-23T07:21:39Z</time>
<speed>0.0</speed>
</trkpt>
<trkpt lat="47.590438" lon="8.175224">
<ele>336.4</ele>
<time>2003-05-23T07:21:44Z</time>
<speed>0.0</speed>
</trkpt>
<trkpt lat="47.590425" lon="8.175222">
<ele>336.3</ele>
<time>2003-05-23T07:21:49Z</time>
<speed>0.0</speed>
</trkpt>
<trkpt lat="47.590425" lon="8.175222">
<ele>336.3</ele>
<time>2003-05-23T07:21:54Z</time>
<speed>0.0</speed>
</trkpt>
<trkpt lat="47.590419" lon="8.175220">
<ele>337.0</ele>
<time>2003-05-23T07:21:59Z</time>
<speed>0.3</speed>
</trkpt>
<trkpt lat="47.590404" lon="8.175245">
<ele>337.1</ele>
<time>2003-05-23T07:22:04Z</time>
<speed>0.3</speed>
</trkpt>
<trkpt lat="47.590410" lon="8.175260">
<ele>336.6</ele>
<time>2003-05-23T07:22:09Z</time>
<speed>0.0</speed>
</trkpt>
<trkpt lat="47.590408" lon="8.175286">
<ele>336.7</ele>
<time>2003-05-23T07:22:14Z</time>
<speed>0.0</speed>
</trkpt>
<trkpt lat="47.590407" lon="8.175299">
<ele>336.8</ele>
<time>2003-05-23T07:22:19Z</time>
<speed>0.0</speed>
</trkpt>
<trkpt lat="47.590405" lon="8.175326">
<ele>337.0</ele>
<time>2003-05-23T07:22:24Z</time>
<speed>0.0</speed>
</trkpt>
<trkpt lat="47.590405" lon="8.175326">
<ele>337.0</ele>
<time>2003-05-23T07:22:29Z</time>
<speed>0.0</speed>
</trkpt>
<trkpt lat="47.590406" lon="8.175297">
<ele>338.2</ele>
<time>2003-05-23T07:22:34Z</time>
<speed>0.0</speed>
</trkpt>
<trkpt lat="47.590402" lon="8.175271">
<ele>337.3</ele>
<time>2003-05-23T07:22:39Z</time>
<speed>0.0</speed>
</trkpt>
<trkpt lat="47.590398" lon="8.175245">
<ele>336.4</ele>
<time>2003-05-23T07:22:44Z</time>
<speed>0.3</speed>
</trkpt>
<trkpt lat="47.590378" lon="8.175254">
<ele>337.1</ele>
<time>2003-05-23T07:22:49Z</time>
<speed>0.0</speed>
</trkpt>
<trkpt lat="47.590378" lon="8.175254">
<ele>337.1</ele>
<time>2003-05-23T07:22:54Z</time>
<speed>0.0</speed>
</trkpt>
<trkpt lat="47.590398" lon="8.175245">
<ele>336.4</ele>
<time>2003-05-23T07:22:59Z</time>
<speed>0.0</speed>
</trkpt>
<trkpt lat="47.590391" lon="8.175243">
<ele>337.1</ele>
<time>2003-05-23T07:23:04Z</time>
<speed>0.3</speed>
</trkpt>
<trkpt lat="47.590379" lon="8.175241">
<ele>337.0</ele>
<time>2003-05-23T07:23:09Z</time>
<speed>0.3</speed>
</trkpt>
<trkpt lat="47.590384" lon="8.175256">
<ele>336.4</ele>
<time>2003-05-23T07:23:14Z</time>
<speed>0.0</speed>
</trkpt>
<trkpt lat="47.590385" lon="8.175243">
<ele>336.3</ele>
<time>2003-05-23T07:23:19Z</time>
<speed>0.0</speed>
</trkpt>
<trkpt lat="47.590398" lon="8.175245">
<ele>336.4</ele>
<time>2003-05-23T07:23:24Z</time>
<speed>0.0</speed>
</trkpt>
<trkpt lat="47.590378" lon="8.175256">
<ele>335.7</ele>
<time>2003-05-23T07:23:29Z</time>
<speed>0.3</speed>
</trkpt>
<trkpt lat="47.590378" lon="8.175256">
<ele>335.7</ele>
<time>2003-05-23T07:23:34Z</time>
<speed>0.0</speed>
</trkpt>
<trkpt lat="47.590391" lon="8.175258">
<ele>335.7</ele>
<time>2003-05-23T07:23:39Z</time>
<speed>0.0</speed>
</trkpt>
<trkpt lat="47.590429" lon="8.175264">
<ele>336.0</ele>
<time>2003-05-23T07:23:44Z</time>
<speed>0.0</speed>
</trkpt>
<trkpt lat="47.590429" lon="8.175264">
<ele>336.0</ele>
<time>2003-05-23T07:23:49Z</time>
<speed>0.3</speed>
</trkpt>
<trkpt lat="47.590417" lon="8.175249">
<ele>335.8</ele>
<time>2003-05-23T07:23:54Z</time>
<speed>0.3</speed>
</trkpt>
<trkpt lat="47.590404" lon="8.175260">
<ele>335.8</ele>
<time>2003-05-23T07:23:59Z</time>
<speed>0.6</speed>
</trkpt>
<trkpt lat="47.590413" lon="8.175301">
<ele>336.2</ele>
<time>2003-05-23T07:24:04Z</time>
<speed>0.3</speed>
</trkpt>
<trkpt lat="47.590412" lon="8.175314">
<ele>336.3</ele>
<time>2003-05-23T07:24:09Z</time>
<speed>0.3</speed>
</trkpt>
<trkpt lat="47.590399" lon="8.175326">
<ele>336.3</ele>
<time>2003-05-23T07:24:14Z</time>
<speed>0.3</speed>
</trkpt>
<trkpt lat="47.590385" lon="8.175337">
<ele>336.3</ele>
<time>2003-05-23T07:24:19Z</time>
<speed>0.0</speed>
</trkpt>
<trkpt lat="47.590373" lon="8.175335">
<ele>336.2</ele>
<time>2003-05-23T07:24:24Z</time>
<speed>0.3</speed>
</trkpt>
<trkpt lat="47.590358" lon="8.175359">
<ele>336.4</ele>
<time>2003-05-23T07:24:29Z</time>
<speed>0.0</speed>
</trkpt>
<trkpt lat="47.590370" lon="8.175374">
<ele>336.5</ele>
<time>2003-05-23T07:24:34Z</time>
<speed>0.3</speed>
</trkpt>
<trkpt lat="47.590387" lon="8.175309">
<ele>337.5</ele>
<time>2003-05-23T07:24:39Z</time>
<speed>0.8</speed>
</trkpt>
<trkpt lat="47.590423" lon="8.175247">
<ele>337.9</ele>
<time>2003-05-23T07:24:44Z</time>
<speed>0.6</speed>
</trkpt>
<trkpt lat="47.590442" lon="8.175235">
<ele>338.6</ele>
<time>2003-05-23T07:24:49Z</time>
<speed>0.3</speed>
</trkpt>
<trkpt lat="47.590463" lon="8.175226">
<ele>338.0</ele>
<time>2003-05-23T07:24:54Z</time>
<speed>1.1</speed>
</trkpt>
<trkpt lat="47.590462" lon="8.175147">
<ele>336.6</ele>
<time>2003-05-23T07:24:59Z</time>
<speed>1.1</speed>
</trkpt>
<trkpt lat="47.590428" lon="8.175089">
<ele>336.0</ele>
<time>2003-05-23T07:25:04Z</time>
<speed>0.8</speed>
</trkpt>
<trkpt lat="47.590406" lon="8.175030">
<ele>336.9</ele>
<time>2003-05-23T07:25:09Z</time>
<speed>0.6</speed>
</trkpt>
<trkpt lat="47.590390" lon="8.174987">
<ele>337.2</ele>
<time>2003-05-23T07:25:14Z</time>
<speed>0.6</speed>
</trkpt>
<trkpt lat="47.590362" lon="8.174929">
<ele>337.4</ele>
<time>2003-05-23T07:25:19Z</time>
<speed>1.4</speed>
</trkpt>
<trkpt lat="47.590335" lon="8.174844">
<ele>337.3</ele>
<time>2003-05-23T07:25:24Z</time>
<speed>1.4</speed>
</trkpt>
<trkpt lat="47.590296" lon="8.174771">
<ele>337.3</ele>
<time>2003-05-23T07:25:29Z</time>
<speed>1.4</speed>
</trkpt>
<trkpt lat="47.590269" lon="8.174686">
<ele>337.3</ele>
<time>2003-05-23T07:25:34Z</time>
<speed>1.1</speed>
</trkpt>
<trkpt lat="47.590237" lon="8.174600">
<ele>337.9</ele>
<time>2003-05-23T07:25:39Z</time>
<speed>1.1</speed>
</trkpt>
<trkpt lat="47.590203" lon="8.174528">
<ele>337.2</ele>
<time>2003-05-23T07:25:44Z</time>
<speed>1.4</speed>
</trkpt>
<trkpt lat="47.590183" lon="8.174444">
<ele>337.9</ele>
<time>2003-05-23T07:25:49Z</time>
<speed>1.1</speed>
</trkpt>
<trkpt lat="47.590150" lon="8.174372">
<ele>337.2</ele>
<time>2003-05-23T07:25:54Z</time>
<speed>1.4</speed>
</trkpt>
<trkpt lat="47.590130" lon="8.174288">
<ele>337.9</ele>
<time>2003-05-23T07:25:59Z</time>
<speed>1.1</speed>
</trkpt>
<trkpt lat="47.590116" lon="8.174205">
<ele>337.9</ele>
<time>2003-05-23T07:26:04Z</time>
<speed>1.1</speed>
</trkpt>
<trkpt lat="47.590090" lon="8.174120">
<ele>337.8</ele>
<time>2003-05-23T07:26:09Z</time>
<speed>1.4</speed>
</trkpt>
<trkpt lat="47.590070" lon="8.174036">
<ele>338.5</ele>
<time>2003-05-23T07:26:14Z</time>
<speed>1.1</speed>
</trkpt>
<trkpt lat="47.590044" lon="8.173951">
<ele>338.5</ele>
<time>2003-05-23T07:26:19Z</time>
<speed>1.4</speed>
</trkpt>
<trkpt lat="47.590031" lon="8.173855">
<ele>338.4</ele>
<time>2003-05-23T07:26:24Z</time>
<speed>1.1</speed>
</trkpt>
<trkpt lat="47.590004" lon="8.173784">
<ele>338.5</ele>
<time>2003-05-23T07:26:29Z</time>
<speed>1.1</speed>
</trkpt>
<trkpt lat="47.589985" lon="8.173701">
<ele>337.7</ele>
<time>2003-05-23T07:26:34Z</time>
<speed>1.1</speed>
</trkpt>
<trkpt lat="47.589964" lon="8.173629">
<ele>338.5</ele>
<time>2003-05-23T07:26:39Z</time>
<speed>1.1</speed>
</trkpt>
<trkpt lat="47.589969" lon="8.173550">
<ele>337.9</ele>
<time>2003-05-23T07:26:44Z</time>
<speed>1.1</speed>
</trkpt>
<trkpt lat="47.590004" lon="8.173502">
<ele>338.4</ele>
<time>2003-05-23T07:26:49Z</time>
<speed>0.8</speed>
</trkpt>
<trkpt lat="47.590033" lon="8.173453">
<ele>338.2</ele>
<time>2003-05-23T07:26:54Z</time>
<speed>0.8</speed>
</trkpt>
<trkpt lat="47.590031" lon="8.173398">
<ele>338.5</ele>
<time>2003-05-23T07:26:59Z</time>
<speed>0.8</speed>
</trkpt>
<trkpt lat="47.590036" lon="8.173319">
<ele>337.9</ele>
<time>2003-05-23T07:27:04Z</time>
<speed>0.8</speed>
</trkpt>
<trkpt lat="47.590048" lon="8.173240">
<ele>338.1</ele>
<time>2003-05-23T07:27:09Z</time>
<speed>0.8</speed>
</trkpt>
<trkpt lat="47.590062" lon="8.173135">
<ele>338.0</ele>
<time>2003-05-23T07:27:14Z</time>
<speed>1.1</speed>
</trkpt>
<trkpt lat="47.590072" lon="8.173069">
<ele>338.3</ele>
<time>2003-05-23T07:27:19Z</time>
<speed>1.1</speed>
</trkpt>
<trkpt lat="47.590101" lon="8.173020">
<ele>338.1</ele>
<time>2003-05-23T07:27:24Z</time>
<speed>0.6</speed>
</trkpt>
<trkpt lat="47.590115" lon="8.173009">
<ele>338.0</ele>
<time>2003-05-23T07:27:29Z</time>
<speed>0.0</speed>
</trkpt>
<trkpt lat="47.590128" lon="8.173011">
<ele>338.1</ele>
<time>2003-05-23T07:27:34Z</time>
<speed>0.0</speed>
</trkpt>
<trkpt lat="47.590128" lon="8.173011">
<ele>338.1</ele>
<time>2003-05-23T07:27:39Z</time>
<speed>0.0</speed>
</trkpt>
<trkpt lat="47.590134" lon="8.173011">
<ele>338.8</ele>
<time>2003-05-23T07:27:44Z</time>
<speed>0.0</speed>
</trkpt>
<trkpt lat="47.590134" lon="8.173011">
<ele>338.8</ele>
<time>2003-05-23T07:27:49Z</time>
<speed>0.0</speed>
</trkpt>
<trkpt lat="47.590128" lon="8.173011">
<ele>338.1</ele>
<time>2003-05-23T07:27:54Z</time>
<speed>0.0</speed>
</trkpt>
<trkpt lat="47.590128" lon="8.173011">
<ele>338.1</ele>
<time>2003-05-23T07:27:59Z</time>
<speed>0.0</speed>
</trkpt>
<trkpt lat="47.590128" lon="8.173011">
<ele>338.1</ele>
<time>2003-05-23T07:28:04Z</time>
<speed>0.0</speed>
</trkpt>
<trkpt lat="47.590128" lon="8.173011">
<ele>338.1</ele>
<time>2003-05-23T07:28:09Z</time>
<speed>0.0</speed>
</trkpt>
<trkpt lat="47.590128" lon="8.173011">
<ele>338.1</ele>
<time>2003-05-23T07:28:14Z</time>
<speed>0.0</speed>
</trkpt>
<trkpt lat="47.590128" lon="8.173011">
<ele>338.1</ele>
<time>2003-05-23T07:28:19Z</time>
<speed>0.0</speed>
</trkpt>
<trkpt lat="47.590128" lon="8.173011">
<ele>338.1</ele>
<time>2003-05-23T07:28:24Z</time>
<speed>0.0</speed>
</trkpt>
<trkpt lat="47.590128" lon="8.173011">
<ele>338.1</ele>
<time>2003-05-23T07:28:29Z</time>
<speed>0.0</speed>
</trkpt>
<trkpt lat="47.590128" lon="8.173011">
<ele>338.1</ele>
<time>2003-05-23T07:28:34Z</time>
<speed>0.0</speed>
</trkpt>
<trkpt lat="47.590128" lon="8.173011">
<ele>338.1</ele>
<time>2003-05-23T07:28:39Z</time>
<speed>0.0</speed>
</trkpt>
<trkpt lat="47.590115" lon="8.173009">
<ele>338.0</ele>
<time>2003-05-23T07:28:44Z</time>
<speed>0.0</speed>
</trkpt>
<trkpt lat="47.590115" lon="8.173009">
<ele>338.0</ele>
<time>2003-05-23T07:28:49Z</time>
<speed>0.0</speed>
</trkpt>
<trkpt lat="47.590102" lon="8.173007">
<ele>338.0</ele>
<time>2003-05-23T07:28:54Z</time>
<speed>0.3</speed>
</trkpt>
<trkpt lat="47.590102" lon="8.173007">
<ele>338.0</ele>
<time>2003-05-23T07:28:59Z</time>
<speed>0.0</speed>
</trkpt>
<trkpt lat="47.590095" lon="8.173020">
<ele>337.3</ele>
<time>2003-05-23T07:29:04Z</time>
<speed>0.3</speed>
</trkpt>
<trkpt lat="47.590057" lon="8.173015">
<ele>337.1</ele>
<time>2003-05-23T07:29:09Z</time>
<speed>0.0</speed>
</trkpt>
<trkpt lat="47.590020" lon="8.172996">
<ele>336.8</ele>
<time>2003-05-23T07:29:14Z</time>
<speed>0.8</speed>
</trkpt>
<trkpt lat="47.589993" lon="8.172924">
<ele>336.8</ele>
<time>2003-05-23T07:29:19Z</time>
<speed>1.1</speed>
</trkpt>
<trkpt lat="47.589976" lon="8.172815">
<ele>335.9</ele>
<time>2003-05-23T07:29:24Z</time>
<speed>1.1</speed>
</trkpt>
<trkpt lat="47.589956" lon="8.172733">
<ele>335.2</ele>
<time>2003-05-23T07:29:29Z</time>
<speed>1.4</speed>
</trkpt>
<trkpt lat="47.589930" lon="8.172648">
<ele>335.2</ele>
<time>2003-05-23T07:29:34Z</time>
<speed>1.1</speed>
</trkpt>
<trkpt lat="47.589917" lon="8.172552">
<ele>335.1</ele>
<time>2003-05-23T07:29:39Z</time>
<speed>1.1</speed>
</trkpt>
<trkpt lat="47.589898" lon="8.172454">
<ele>335.7</ele>
<time>2003-05-23T07:29:44Z</time>
<speed>1.1</speed>
</trkpt>
<trkpt lat="47.589891" lon="8.172371">
<ele>336.5</ele>
<time>2003-05-23T07:29:49Z</time>
<speed>1.1</speed>
</trkpt>
<trkpt lat="47.589870" lon="8.172287">
<ele>337.1</ele>
<time>2003-05-23T07:29:54Z</time>
<speed>1.1</speed>
</trkpt>
<trkpt lat="47.589851" lon="8.172189">
<ele>337.7</ele>
<time>2003-05-23T07:29:59Z</time>
<speed>1.4</speed>
</trkpt>
<trkpt lat="47.589839" lon="8.172093">
<ele>337.7</ele>
<time>2003-05-23T07:30:04Z</time>
<speed>1.1</speed>
</trkpt>
<trkpt lat="47.589819" lon="8.172010">
<ele>336.9</ele>
<time>2003-05-23T07:30:09Z</time>
<speed>1.1</speed>
</trkpt>
<trkpt lat="47.589799" lon="8.171928">
<ele>336.2</ele>
<time>2003-05-23T07:30:14Z</time>
<speed>1.4</speed>
</trkpt>
<trkpt lat="47.589793" lon="8.171832">
<ele>336.9</ele>
<time>2003-05-23T07:30:19Z</time>
<speed>1.4</speed>
</trkpt>
<trkpt lat="47.589774" lon="8.171736">
<ele>336.1</ele>
<time>2003-05-23T07:30:24Z</time>
<speed>1.1</speed>
</trkpt>
<trkpt lat="47.589747" lon="8.171663">
<ele>337.5</ele>
<time>2003-05-23T07:30:29Z</time>
<speed>1.1</speed>
</trkpt>
<trkpt lat="47.589727" lon="8.171580">
<ele>336.8</ele>
<time>2003-05-23T07:30:34Z</time>
<speed>1.1</speed>
</trkpt>
<trkpt lat="47.589694" lon="8.171493">
<ele>337.4</ele>
<time>2003-05-23T07:30:39Z</time>
<speed>1.4</speed>
</trkpt>
<trkpt lat="47.589668" lon="8.171409">
<ele>337.4</ele>
<time>2003-05-23T07:30:44Z</time>
<speed>1.1</speed>
</trkpt>
<trkpt lat="47.589663" lon="8.171302">
<ele>336.5</ele>
<time>2003-05-23T07:30:49Z</time>
<speed>1.1</speed>
</trkpt>
<trkpt lat="47.589670" lon="8.171211">
<ele>334.5</ele>
<time>2003-05-23T07:30:54Z</time>
<speed>1.1</speed>
</trkpt>
<trkpt lat="47.589697" lon="8.171093">
<ele>335.8</ele>
<time>2003-05-23T07:30:59Z</time>
<speed>1.1</speed>
</trkpt>
<trkpt lat="47.589744" lon="8.171044">
<ele>337.8</ele>
<time>2003-05-23T07:31:04Z</time>
<speed>0.6</speed>
</trkpt>
<trkpt lat="47.589804" lon="8.171029">
<ele>335.8</ele>
<time>2003-05-23T07:31:09Z</time>
<speed>1.1</speed>
</trkpt>
<trkpt lat="47.589864" lon="8.170986">
<ele>335.0</ele>
<time>2003-05-23T07:31:14Z</time>
<speed>1.1</speed>
</trkpt>
<trkpt lat="47.589918" lon="8.170956">
<ele>333.6</ele>
<time>2003-05-23T07:31:19Z</time>
<speed>1.1</speed>
</trkpt>
<trkpt lat="47.589973" lon="8.170913">
<ele>332.1</ele>
<time>2003-05-23T07:31:24Z</time>
<speed>1.1</speed>
</trkpt>
<trkpt lat="47.590020" lon="8.170881">
<ele>331.4</ele>
<time>2003-05-23T07:31:29Z</time>
<speed>0.8</speed>
</trkpt>
<trkpt lat="47.590062" lon="8.170834">
<ele>331.2</ele>
<time>2003-05-23T07:31:34Z</time>
<speed>0.8</speed>
</trkpt>
<trkpt lat="47.590116" lon="8.170789">
<ele>331.1</ele>
<time>2003-05-23T07:31:39Z</time>
<speed>1.4</speed>
</trkpt>
<trkpt lat="47.590177" lon="8.170745">
<ele>330.3</ele>
<time>2003-05-23T07:31:44Z</time>
<speed>0.8</speed>
</trkpt>
<trkpt lat="47.590218" lon="8.170712">
<ele>330.3</ele>
<time>2003-05-23T07:31:49Z</time>
<speed>1.1</speed>
</trkpt>
<trkpt lat="47.590266" lon="8.170667">
<ele>329.4</ele>
<time>2003-05-23T07:31:54Z</time>
<speed>0.8</speed>
</trkpt>
<trkpt lat="47.590307" lon="8.170633">
<ele>329.4</ele>
<time>2003-05-23T07:31:59Z</time>
<speed>0.8</speed>
</trkpt>
<trkpt lat="47.590361" lon="8.170588">
<ele>329.3</ele>
<time>2003-05-23T07:32:04Z</time>
<speed>1.1</speed>
</trkpt>
<trkpt lat="47.590403" lon="8.170541">
<ele>329.1</ele>
<time>2003-05-23T07:32:09Z</time>
<speed>1.1</speed>
</trkpt>
<trkpt lat="47.590445" lon="8.170494">
<ele>328.9</ele>
<time>2003-05-23T07:32:14Z</time>
<speed>0.8</speed>
</trkpt>
<trkpt lat="47.590487" lon="8.170447">
<ele>328.7</ele>
<time>2003-05-23T07:32:19Z</time>
<speed>1.1</speed>
</trkpt>
<trkpt lat="47.590529" lon="8.170387">
<ele>328.5</ele>
<time>2003-05-23T07:32:24Z</time>
<speed>0.8</speed>
</trkpt>
<trkpt lat="47.590572" lon="8.170326">
<ele>328.2</ele>
<time>2003-05-23T07:32:29Z</time>
<speed>1.1</speed>
</trkpt>
<trkpt lat="47.590608" lon="8.170266">
<ele>327.2</ele>
<time>2003-05-23T07:32:34Z</time>
<speed>1.1</speed>
</trkpt>
<trkpt lat="47.590632" lon="8.170202">
<ele>327.5</ele>
<time>2003-05-23T07:32:39Z</time>
<speed>1.1</speed>
</trkpt>
<trkpt lat="47.590657" lon="8.170127">
<ele>326.4</ele>
<time>2003-05-23T07:32:44Z</time>
<speed>1.1</speed>
</trkpt>
<trkpt lat="47.590662" lon="8.170046">
<ele>327.2</ele>
<time>2003-05-23T07:32:49Z</time>
<speed>0.8</speed>
</trkpt>
<trkpt lat="47.590678" lon="8.169996">
<ele>326.9</ele>
<time>2003-05-23T07:32:54Z</time>
<speed>0.6</speed>
</trkpt>
<trkpt lat="47.590706" lon="8.169960">
<ele>326.7</ele>
<time>2003-05-23T07:32:59Z</time>
<speed>0.6</speed>
</trkpt>
<trkpt lat="47.590732" lon="8.169964">
<ele>326.9</ele>
<time>2003-05-23T07:33:04Z</time>
<speed>0.3</speed>
</trkpt>
<trkpt lat="47.590744" lon="8.169966">
<ele>326.9</ele>
<time>2003-05-23T07:33:09Z</time>
<speed>0.3</speed>
</trkpt>
<trkpt lat="47.590763" lon="8.169969">
<ele>326.3</ele>
<time>2003-05-23T07:33:14Z</time>
<speed>0.3</speed>
</trkpt>
<trkpt lat="47.590782" lon="8.169971">
<ele>327.2</ele>
<time>2003-05-23T07:33:19Z</time>
<speed>0.3</speed>
</trkpt>
<trkpt lat="47.590806" lon="8.170001">
<ele>327.5</ele>
<time>2003-05-23T07:33:24Z</time>
<speed>0.6</speed>
</trkpt>
<trkpt lat="47.590836" lon="8.170020">
<ele>327.1</ele>
<time>2003-05-23T07:33:29Z</time>
<speed>0.6</speed>
</trkpt>
<trkpt lat="47.590867" lon="8.170039">
<ele>326.6</ele>
<time>2003-05-23T07:33:34Z</time>
<speed>0.3</speed>
</trkpt>
<trkpt lat="47.590879" lon="8.170054">
<ele>326.8</ele>
<time>2003-05-23T07:33:39Z</time>
<speed>0.0</speed>
</trkpt>
<trkpt lat="47.590903" lon="8.170071">
<ele>327.0</ele>
<time>2003-05-23T07:33:44Z</time>
<speed>0.6</speed>
</trkpt>
<trkpt lat="47.590914" lon="8.170099">
<ele>327.3</ele>
<time>2003-05-23T07:33:49Z</time>
<speed>0.3</speed>
</trkpt>
<trkpt lat="47.590919" lon="8.170127">
<ele>326.8</ele>
<time>2003-05-23T07:33:54Z</time>
<speed>0.3</speed>
</trkpt>
<trkpt lat="47.590948" lon="8.170158">
<ele>327.9</ele>
<time>2003-05-23T07:33:59Z</time>
<speed>0.6</speed>
</trkpt>
<trkpt lat="47.590965" lon="8.170201">
<ele>327.6</ele>
<time>2003-05-23T07:34:04Z</time>
<speed>0.6</speed>
</trkpt>
<trkpt lat="47.590975" lon="8.170242">
<ele>327.9</ele>
<time>2003-05-23T07:34:09Z</time>
<speed>0.3</speed>
</trkpt>
<trkpt lat="47.590978" lon="8.170284">
<ele>327.6</ele>
<time>2003-05-23T07:34:14Z</time>
<speed>0.6</speed>
</trkpt>
<trkpt lat="47.590989" lon="8.170312">
<ele>327.8</ele>
<time>2003-05-23T07:34:19Z</time>
<speed>0.3</speed>
</trkpt>
<trkpt lat="47.590992" lon="8.170366">
<ele>327.5</ele>
<time>2003-05-23T07:34:24Z</time>
<speed>0.8</speed>
</trkpt>
<trkpt lat="47.591006" lon="8.170436">
<ele>327.4</ele>
<time>2003-05-23T07:34:29Z</time>
<speed>0.8</speed>
</trkpt>
<trkpt lat="47.591000" lon="8.170528">
<ele>328.1</ele>
<time>2003-05-23T07:34:34Z</time>
<speed>1.1</speed>
</trkpt>
<trkpt lat="47.591027" lon="8.170601">
<ele>326.6</ele>
<time>2003-05-23T07:34:39Z</time>
<speed>1.1</speed>
</trkpt>
<trkpt lat="47.591076" lon="8.170652">
<ele>324.4</ele>
<time>2003-05-23T07:34:44Z</time>
<speed>1.1</speed>
</trkpt>
<trkpt lat="47.591152" lon="8.170665">
<ele>323.4</ele>
<time>2003-05-23T07:34:49Z</time>
<speed>1.1</speed>
</trkpt>
<trkpt lat="47.591222" lon="8.170675">
<ele>324.5</ele>
<time>2003-05-23T07:34:54Z</time>
<speed>1.1</speed>
</trkpt>
<trkpt lat="47.591297" lon="8.170684">
<ele>326.3</ele>
<time>2003-05-23T07:34:59Z</time>
<speed>1.1</speed>
</trkpt>
<trkpt lat="47.591353" lon="8.170707">
<ele>326.1</ele>
<time>2003-05-23T07:35:04Z</time>
<speed>0.8</speed>
</trkpt>
<trkpt lat="47.591404" lon="8.170714">
<ele>326.3</ele>
<time>2003-05-23T07:35:09Z</time>
<speed>0.8</speed>
</trkpt>
<trkpt lat="47.591467" lon="8.170724">
<ele>326.7</ele>
<time>2003-05-23T07:35:14Z</time>
<speed>0.8</speed>
</trkpt>
<trkpt lat="47.591517" lon="8.170745">
<ele>327.1</ele>
<time>2003-05-23T07:35:19Z</time>
<speed>1.1</speed>
</trkpt>
<trkpt lat="47.591579" lon="8.170767">
<ele>327.5</ele>
<time>2003-05-23T07:35:24Z</time>
<speed>0.8</speed>
</trkpt>
<trkpt lat="47.591617" lon="8.170773">
<ele>327.7</ele>
<time>2003-05-23T07:35:29Z</time>
<speed>0.6</speed>
</trkpt>
<trkpt lat="47.591636" lon="8.170777">
<ele>327.1</ele>
<time>2003-05-23T07:35:34Z</time>
<speed>0.3</speed>
</trkpt>
<trkpt lat="47.591674" lon="8.170782">
<ele>327.3</ele>
<time>2003-05-23T07:35:39Z</time>
<speed>0.6</speed>
</trkpt>
<trkpt lat="47.591719" lon="8.170775">
<ele>328.2</ele>
<time>2003-05-23T07:35:44Z</time>
<speed>0.6</speed>
</trkpt>
<trkpt lat="47.591783" lon="8.170773">
<ele>327.1</ele>
<time>2003-05-23T07:35:49Z</time>
<speed>0.6</speed>
</trkpt>
<trkpt lat="47.591815" lon="8.170779">
<ele>326.5</ele>
<time>2003-05-23T07:35:54Z</time>
<speed>0.3</speed>
</trkpt>
<trkpt lat="47.591828" lon="8.170781">
<ele>326.6</ele>
<time>2003-05-23T07:35:59Z</time>
<speed>0.0</speed>
</trkpt>
<trkpt lat="47.591880" lon="8.170762">
<ele>326.7</ele>
<time>2003-05-23T07:36:04Z</time>
<speed>0.6</speed>
</trkpt>
<trkpt lat="47.591924" lon="8.170767">
<ele>327.6</ele>
<time>2003-05-23T07:36:09Z</time>
<speed>0.6</speed>
</trkpt>
<trkpt lat="47.591970" lon="8.170747">
<ele>328.4</ele>
<time>2003-05-23T07:36:14Z</time>
<speed>0.6</speed>
</trkpt>
<trkpt lat="47.592017" lon="8.170728">
<ele>327.8</ele>
<time>2003-05-23T07:36:19Z</time>
<speed>0.6</speed>
</trkpt>
<trkpt lat="47.592083" lon="8.170698">
<ele>327.8</ele>
<time>2003-05-23T07:36:24Z</time>
<speed>0.8</speed>
</trkpt>
<trkpt lat="47.592136" lon="8.170668">
<ele>326.4</ele>
<time>2003-05-23T07:36:29Z</time>
<speed>0.6</speed>
</trkpt>
<trkpt lat="47.592203" lon="8.170625">
<ele>326.4</ele>
<time>2003-05-23T07:36:34Z</time>
<speed>0.8</speed>
</trkpt>
<trkpt lat="47.592258" lon="8.170580">
<ele>326.3</ele>
<time>2003-05-23T07:36:39Z</time>
<speed>0.6</speed>
</trkpt>
<trkpt lat="47.592311" lon="8.170548">
<ele>326.3</ele>
<time>2003-05-23T07:36:44Z</time>
<speed>0.8</speed>
</trkpt>
<trkpt lat="47.592365" lon="8.170503">
<ele>326.2</ele>
<time>2003-05-23T07:36:49Z</time>
<speed>0.8</speed>
</trkpt>
<trkpt lat="47.592413" lon="8.170471">
<ele>325.4</ele>
<time>2003-05-23T07:36:54Z</time>
<speed>0.8</speed>
</trkpt>
<trkpt lat="47.592479" lon="8.170441">
<ele>325.5</ele>
<time>2003-05-23T07:36:59Z</time>
<speed>0.8</speed>
</trkpt>
<trkpt lat="47.592521" lon="8.170394">
<ele>325.3</ele>
<time>2003-05-23T07:37:04Z</time>
<speed>0.8</speed>
</trkpt>
<trkpt lat="47.592567" lon="8.170375">
<ele>324.7</ele>
<time>2003-05-23T07:37:09Z</time>
<speed>0.8</speed>
</trkpt>
<trkpt lat="47.592632" lon="8.170358">
<ele>324.8</ele>
<time>2003-05-23T07:37:14Z</time>
<speed>0.8</speed>
</trkpt>
<trkpt lat="47.592677" lon="8.170353">
<ele>324.3</ele>
<time>2003-05-23T07:37:19Z</time>
<speed>0.6</speed>
</trkpt>
<trkpt lat="47.592728" lon="8.170362">
<ele>323.2</ele>
<time>2003-05-23T07:37:24Z</time>
<speed>0.6</speed>
</trkpt>
<trkpt lat="47.592754" lon="8.170366">
<ele>323.3</ele>
<time>2003-05-23T07:37:29Z</time>
<speed>0.6</speed>
</trkpt>
<trkpt lat="47.592818" lon="8.170362">
<ele>323.6</ele>
<time>2003-05-23T07:37:34Z</time>
<speed>0.6</speed>
</trkpt>
<trkpt lat="47.592876" lon="8.170358">
<ele>323.1</ele>
<time>2003-05-23T07:37:39Z</time>
<speed>0.8</speed>
</trkpt>
<trkpt lat="47.592928" lon="8.170355">
<ele>321.9</ele>
<time>2003-05-23T07:37:44Z</time>
<speed>0.8</speed>
</trkpt>
<trkpt lat="47.592974" lon="8.170336">
<ele>321.2</ele>
<time>2003-05-23T07:37:49Z</time>
<speed>0.6</speed>
</trkpt>
<trkpt lat="47.593038" lon="8.170332">
<ele>321.5</ele>
<time>2003-05-23T07:37:54Z</time>
<speed>0.8</speed>
</trkpt>
<trkpt lat="47.593090" lon="8.170327">
<ele>321.7</ele>
<time>2003-05-23T07:37:59Z</time>
<speed>0.8</speed>
</trkpt>
<trkpt lat="47.593148" lon="8.170323">
<ele>321.2</ele>
<time>2003-05-23T07:38:04Z</time>
<speed>0.8</speed>
</trkpt>
<trkpt lat="47.593200" lon="8.170304">
<ele>321.3</ele>
<time>2003-05-23T07:38:09Z</time>
<speed>0.8</speed>
</trkpt>
<trkpt lat="47.593272" lon="8.170289">
<ele>320.8</ele>
<time>2003-05-23T07:38:14Z</time>
<speed>1.1</speed>
</trkpt>
<trkpt lat="47.593337" lon="8.170272">
<ele>320.9</ele>
<time>2003-05-23T07:38:19Z</time>
<speed>1.1</speed>
</trkpt>
<trkpt lat="47.593415" lon="8.170272">
<ele>319.9</ele>
<time>2003-05-23T07:38:24Z</time>
<speed>1.1</speed>
</trkpt>
<trkpt lat="47.593474" lon="8.170255">
<ele>319.3</ele>
<time>2003-05-23T07:38:29Z</time>
<speed>1.4</speed>
</trkpt>
<trkpt lat="47.593552" lon="8.170242">
<ele>318.1</ele>
<time>2003-05-23T07:38:34Z</time>
<speed>1.4</speed>
</trkpt>
<trkpt lat="47.593604" lon="8.170224">
<ele>318.2</ele>
<time>2003-05-23T07:38:39Z</time>
<speed>1.1</speed>
</trkpt>
<trkpt lat="47.593662" lon="8.170220">
<ele>317.7</ele>
<time>2003-05-23T07:38:44Z</time>
<speed>0.8</speed>
</trkpt>
<trkpt lat="47.593722" lon="8.170190">
<ele>317.1</ele>
<time>2003-05-23T07:38:49Z</time>
<speed>1.1</speed>
</trkpt>
<trkpt lat="47.593786" lon="8.170201">
<ele>316.0</ele>
<time>2003-05-23T07:38:54Z</time>
<speed>1.1</speed>
</trkpt>
<trkpt lat="47.593844" lon="8.170197">
<ele>315.5</ele>
<time>2003-05-23T07:38:59Z</time>
<speed>0.8</speed>
</trkpt>
<trkpt lat="47.593903" lon="8.170181">
<ele>314.9</ele>
<time>2003-05-23T07:39:04Z</time>
<speed>1.1</speed>
</trkpt>
<trkpt lat="47.593955" lon="8.170175">
<ele>315.1</ele>
<time>2003-05-23T07:39:09Z</time>
<speed>1.1</speed>
</trkpt>
<trkpt lat="47.594020" lon="8.170158">
<ele>315.3</ele>
<time>2003-05-23T07:39:14Z</time>
<speed>0.8</speed>
</trkpt>
<trkpt lat="47.594065" lon="8.170151">
<ele>316.2</ele>
<time>2003-05-23T07:39:19Z</time>
<speed>0.8</speed>
</trkpt>
<trkpt lat="47.594116" lon="8.170145">
<ele>316.3</ele>
<time>2003-05-23T07:39:24Z</time>
<speed>0.8</speed>
</trkpt>
<trkpt lat="47.594153" lon="8.170085">
<ele>315.3</ele>
<time>2003-05-23T07:39:29Z</time>
<speed>1.1</speed>
</trkpt>
<trkpt lat="47.594159" lon="8.169993">
<ele>314.7</ele>
<time>2003-05-23T07:39:34Z</time>
<speed>1.1</speed>
</trkpt>
<trkpt lat="47.594132" lon="8.169921">
<ele>314.7</ele>
<time>2003-05-23T07:39:39Z</time>
<speed>1.1</speed>
</trkpt>
<trkpt lat="47.594125" lon="8.169839">
<ele>315.5</ele>
<time>2003-05-23T07:39:44Z</time>
<speed>1.1</speed>
</trkpt>
<trkpt lat="47.594112" lon="8.169743">
<ele>315.4</ele>
<time>2003-05-23T07:39:49Z</time>
<speed>1.1</speed>
</trkpt>
<trkpt lat="47.594092" lon="8.169660">
<ele>314.7</ele>
<time>2003-05-23T07:39:54Z</time>
<speed>1.1</speed>
</trkpt>
<trkpt lat="47.594080" lon="8.169564">
<ele>314.6</ele>
<time>2003-05-23T07:39:59Z</time>
<speed>1.1</speed>
</trkpt>
<trkpt lat="47.594072" lon="8.169481">
<ele>315.4</ele>
<time>2003-05-23T07:40:04Z</time>
<speed>1.1</speed>
</trkpt>
<trkpt lat="47.594072" lon="8.169387">
<ele>315.4</ele>
<time>2003-05-23T07:40:09Z</time>
<speed>1.4</speed>
</trkpt>
<trkpt lat="47.594078" lon="8.169308">
<ele>314.8</ele>
<time>2003-05-23T07:40:14Z</time>
<speed>0.8</speed>
</trkpt>
<trkpt lat="47.594137" lon="8.169276">
<ele>315.5</ele>
<time>2003-05-23T07:40:19Z</time>
<speed>1.1</speed>
</trkpt>
<trkpt lat="47.594197" lon="8.169244">
<ele>316.3</ele>
<time>2003-05-23T07:40:24Z</time>
<speed>1.1</speed>
</trkpt>
<trkpt lat="47.594256" lon="8.169228">
<ele>315.7</ele>
<time>2003-05-23T07:40:29Z</time>
<speed>0.8</speed>
</trkpt>
<trkpt lat="47.594328" lon="8.169199">
<ele>315.1</ele>
<time>2003-05-23T07:40:34Z</time>
<speed>1.1</speed>
</trkpt>
<trkpt lat="47.594375" lon="8.169181">
<ele>314.4</ele>
<time>2003-05-23T07:40:39Z</time>
<speed>0.8</speed>
</trkpt>
<trkpt lat="47.594440" lon="8.169164">
<ele>314.6</ele>
<time>2003-05-23T07:40:44Z</time>
<speed>1.4</speed>
</trkpt>
<trkpt lat="47.594499" lon="8.169147">
<ele>314.0</ele>
<time>2003-05-23T07:40:49Z</time>
<speed>1.4</speed>
</trkpt>
<trkpt lat="47.594565" lon="8.169117">
<ele>314.1</ele>
<time>2003-05-23T07:40:54Z</time>
<speed>1.1</speed>
</trkpt>
<trkpt lat="47.594592" lon="8.169094">
<ele>314.0</ele>
<time>2003-05-23T07:40:59Z</time>
<speed>0.6</speed>
</trkpt>
<trkpt lat="47.594606" lon="8.169083">
<ele>314.0</ele>
<time>2003-05-23T07:41:04Z</time>
<speed>0.0</speed>
</trkpt>
<trkpt lat="47.594613" lon="8.169072">
<ele>313.2</ele>
<time>2003-05-23T07:41:09Z</time>
<speed>0.3</speed>
</trkpt>
<trkpt lat="47.594625" lon="8.169089">
<ele>312.0</ele>
<time>2003-05-23T07:41:14Z</time>
<speed>0.3</speed>
</trkpt>
<trkpt lat="47.594648" lon="8.169132">
<ele>312.4</ele>
<time>2003-05-23T07:41:19Z</time>
<speed>0.3</speed>
</trkpt>
<trkpt lat="47.594679" lon="8.169151">
<ele>312.0</ele>
<time>2003-05-23T07:41:24Z</time>
<speed>0.3</speed>
</trkpt>
<trkpt lat="47.594707" lon="8.169115">
<ele>311.9</ele>
<time>2003-05-23T07:41:29Z</time>
<speed>0.3</speed>
</trkpt>
<trkpt lat="47.594747" lon="8.169094">
<ele>311.9</ele>
<time>2003-05-23T07:41:34Z</time>
<speed>0.6</speed>
</trkpt>
<trkpt lat="47.594766" lon="8.169098">
<ele>311.3</ele>
<time>2003-05-23T07:41:39Z</time>
<speed>0.0</speed>
</trkpt>
<trkpt lat="47.594772" lon="8.169113">
<ele>310.7</ele>
<time>2003-05-23T07:41:44Z</time>
<speed>0.0</speed>
</trkpt>
<trkpt lat="47.594783" lon="8.169128">
<ele>310.9</ele>
<time>2003-05-23T07:41:49Z</time>
<speed>0.0</speed>
</trkpt>
<trkpt lat="47.594789" lon="8.169128">
<ele>311.6</ele>
<time>2003-05-23T07:41:54Z</time>
<speed>0.0</speed>
</trkpt>
<trkpt lat="47.594782" lon="8.169141">
<ele>311.0</ele>
<time>2003-05-23T07:41:59Z</time>
<speed>0.0</speed>
</trkpt>
<trkpt lat="47.594769" lon="8.169138">
<ele>312.3</ele>
<time>2003-05-23T07:42:04Z</time>
<speed>0.0</speed>
</trkpt>
<trkpt lat="47.594794" lon="8.169141">
<ele>312.5</ele>
<time>2003-05-23T07:42:09Z</time>
<speed>0.3</speed>
</trkpt>
<trkpt lat="47.594825" lon="8.169160">
<ele>312.0</ele>
<time>2003-05-23T07:42:14Z</time>
<speed>0.0</speed>
</trkpt>
<trkpt lat="47.594820" lon="8.169147">
<ele>311.2</ele>
<time>2003-05-23T07:42:19Z</time>
<speed>0.0</speed>
</trkpt>
<trkpt lat="47.594819" lon="8.169160">
<ele>311.3</ele>
<time>2003-05-23T07:42:24Z</time>
<speed>0.0</speed>
</trkpt>
<trkpt lat="47.594806" lon="8.169173">
<ele>309.9</ele>
<time>2003-05-23T07:42:29Z</time>
<speed>0.3</speed>
</trkpt>
<trkpt lat="47.594811" lon="8.169204">
<ele>308.0</ele>
<time>2003-05-23T07:42:34Z</time>
<speed>0.6</speed>
</trkpt>
<trkpt lat="47.594833" lon="8.169262">
<ele>307.1</ele>
<time>2003-05-23T07:42:39Z</time>
<speed>0.8</speed>
</trkpt>
<trkpt lat="47.594868" lon="8.169320">
<ele>307.7</ele>
<time>2003-05-23T07:42:44Z</time>
<speed>0.8</speed>
</trkpt>
<trkpt lat="47.594895" lon="8.169392">
<ele>307.7</ele>
<time>2003-05-23T07:42:49Z</time>
<speed>1.1</speed>
</trkpt>
<trkpt lat="47.594928" lon="8.169463">
<ele>308.4</ele>
<time>2003-05-23T07:42:54Z</time>
<speed>1.1</speed>
</trkpt>
<trkpt lat="47.594967" lon="8.169550">
<ele>308.5</ele>
<time>2003-05-23T07:42:59Z</time>
<speed>1.1</speed>
</trkpt>
<trkpt lat="47.595001" lon="8.169608">
<ele>309.1</ele>
<time>2003-05-23T07:43:04Z</time>
<speed>1.1</speed>
</trkpt>
<trkpt lat="47.595042" lon="8.169668">
<ele>309.0</ele>
<time>2003-05-23T07:43:09Z</time>
<speed>1.1</speed>
</trkpt>
<trkpt lat="47.595081" lon="8.169742">
<ele>309.1</ele>
<time>2003-05-23T07:43:14Z</time>
<speed>1.1</speed>
</trkpt>
<trkpt lat="47.595115" lon="8.169800">
<ele>309.6</ele>
<time>2003-05-23T07:43:19Z</time>
<speed>1.1</speed>
</trkpt>
<trkpt lat="47.595155" lon="8.169873">
<ele>309.7</ele>
<time>2003-05-23T07:43:24Z</time>
<speed>1.1</speed>
</trkpt>
<trkpt lat="47.595202" lon="8.169933">
<ele>310.3</ele>
<time>2003-05-23T07:43:29Z</time>
<speed>1.1</speed>
</trkpt>
<trkpt lat="47.595243" lon="8.169994">
<ele>310.3</ele>
<time>2003-05-23T07:43:34Z</time>
<speed>0.8</speed>
</trkpt>
<trkpt lat="47.595290" lon="8.170056">
<ele>309.5</ele>
<time>2003-05-23T07:43:39Z</time>
<speed>1.1</speed>
</trkpt>
<trkpt lat="47.595338" lon="8.170105">
<ele>308.7</ele>
<time>2003-05-23T07:43:44Z</time>
<speed>1.1</speed>
</trkpt>
<trkpt lat="47.595384" lon="8.170178">
<ele>309.5</ele>
<time>2003-05-23T07:43:49Z</time>
<speed>0.8</speed>
</trkpt>
<trkpt lat="47.595431" lon="8.170238">
<ele>310.1</ele>
<time>2003-05-23T07:43:54Z</time>
<speed>0.8</speed>
</trkpt>
<trkpt lat="47.595485" lon="8.170287">
<ele>310.0</ele>
<time>2003-05-23T07:43:59Z</time>
<speed>1.1</speed>
</trkpt>
<trkpt lat="47.595539" lon="8.170336">
<ele>309.9</ele>
<time>2003-05-23T07:44:04Z</time>
<speed>1.1</speed>
</trkpt>
<trkpt lat="47.595600" lon="8.170402">
<ele>307.9</ele>
<time>2003-05-23T07:44:09Z</time>
<speed>0.8</speed>
</trkpt>
<trkpt lat="47.595650" lon="8.170440">
<ele>305.5</ele>
<time>2003-05-23T07:44:14Z</time>
<speed>1.1</speed>
</trkpt>
<trkpt lat="47.595697" lon="8.170487">
<ele>306.1</ele>
<time>2003-05-23T07:44:19Z</time>
<speed>1.1</speed>
</trkpt>
<trkpt lat="47.595753" lon="8.170522">
<ele>305.9</ele>
<time>2003-05-23T07:44:24Z</time>
<speed>1.1</speed>
</trkpt>
<trkpt lat="47.595800" lon="8.170584">
<ele>305.2</ele>
<time>2003-05-23T07:44:29Z</time>
<speed>1.1</speed>
</trkpt>
<trkpt lat="47.595855" lon="8.170620">
<ele>305.0</ele>
<time>2003-05-23T07:44:34Z</time>
<speed>1.1</speed>
</trkpt>
<trkpt lat="47.595885" lon="8.170652">
<ele>304.6</ele>
<time>2003-05-23T07:44:39Z</time>
<speed>0.6</speed>
</trkpt>
<trkpt lat="47.595908" lon="8.170682">
<ele>305.0</ele>
<time>2003-05-23T07:44:44Z</time>
<speed>0.6</speed>
</trkpt>
<trkpt lat="47.595950" lon="8.170729">
<ele>304.8</ele>
<time>2003-05-23T07:44:49Z</time>
<speed>0.8</speed>
</trkpt>
<trkpt lat="47.596003" lon="8.170790">
<ele>306.2</ele>
<time>2003-05-23T07:44:54Z</time>
<speed>1.1</speed>
</trkpt>
<trkpt lat="47.596058" lon="8.170825">
<ele>306.0</ele>
<time>2003-05-23T07:44:59Z</time>
<speed>1.1</speed>
</trkpt>
<trkpt lat="47.596119" lon="8.170861">
<ele>306.6</ele>
<time>2003-05-23T07:45:04Z</time>
<speed>1.1</speed>
</trkpt>
<trkpt lat="47.596155" lon="8.170908">
<ele>305.7</ele>
<time>2003-05-23T07:45:09Z</time>
<speed>1.1</speed>
</trkpt>
<trkpt lat="47.596203" lon="8.170955">
<ele>306.2</ele>
<time>2003-05-23T07:45:14Z</time>
<speed>1.1</speed>
</trkpt>
<trkpt lat="47.596251" lon="8.171002">
<ele>306.8</ele>
<time>2003-05-23T07:45:19Z</time>
<speed>1.1</speed>
</trkpt>
<trkpt lat="47.596299" lon="8.171051">
<ele>306.0</ele>
<time>2003-05-23T07:45:24Z</time>
<speed>0.8</speed>
</trkpt>
<trkpt lat="47.596335" lon="8.171083">
<ele>306.4</ele>
<time>2003-05-23T07:45:29Z</time>
<speed>0.8</speed>
</trkpt>
<trkpt lat="47.596383" lon="8.171130">
<ele>306.9</ele>
<time>2003-05-23T07:45:34Z</time>
<speed>1.1</speed>
</trkpt>
<trkpt lat="47.596438" lon="8.171166">
<ele>306.7</ele>
<time>2003-05-23T07:45:39Z</time>
<speed>1.1</speed>
</trkpt>
<trkpt lat="47.596505" lon="8.171217">
<ele>306.7</ele>
<time>2003-05-23T07:45:44Z</time>
<speed>1.1</speed>
</trkpt>
<trkpt lat="47.596566" lon="8.171253">
<ele>307.3</ele>
<time>2003-05-23T07:45:49Z</time>
<speed>1.4</speed>
</trkpt>
<trkpt lat="47.596621" lon="8.171288">
<ele>307.1</ele>
<time>2003-05-23T07:45:54Z</time>
<speed>1.4</speed>
</trkpt>
<trkpt lat="47.596670" lon="8.171324">
<ele>306.1</ele>
<time>2003-05-23T07:45:59Z</time>
<speed>1.4</speed>
</trkpt>
<trkpt lat="47.596725" lon="8.171373">
<ele>306.0</ele>
<time>2003-05-23T07:46:04Z</time>
<speed>1.4</speed>
</trkpt>
<trkpt lat="47.596786" lon="8.171424">
<ele>305.3</ele>
<time>2003-05-23T07:46:09Z</time>
<speed>1.1</speed>
</trkpt>
<trkpt lat="47.596833" lon="8.171471">
<ele>305.9</ele>
<time>2003-05-23T07:46:14Z</time>
<speed>1.1</speed>
</trkpt>
<trkpt lat="47.596875" lon="8.171518">
<ele>305.7</ele>
<time>2003-05-23T07:46:19Z</time>
<speed>1.1</speed>
</trkpt>
<trkpt lat="47.596917" lon="8.171565">
<ele>305.5</ele>
<time>2003-05-23T07:46:24Z</time>
<speed>1.1</speed>
</trkpt>
<trkpt lat="47.596979" lon="8.171588">
<ele>306.0</ele>
<time>2003-05-23T07:46:29Z</time>
<speed>0.6</speed>
</trkpt>
<trkpt lat="47.596985" lon="8.171588">
<ele>306.7</ele>
<time>2003-05-23T07:46:34Z</time>
<speed>0.0</speed>
</trkpt>
<trkpt lat="47.596999" lon="8.171576">
<ele>306.7</ele>
<time>2003-05-23T07:46:39Z</time>
<speed>0.3</speed>
</trkpt>
<trkpt lat="47.597005" lon="8.171578">
<ele>306.0</ele>
<time>2003-05-23T07:46:44Z</time>
<speed>0.0</speed>
</trkpt>
<trkpt lat="47.597004" lon="8.171591">
<ele>306.1</ele>
<time>2003-05-23T07:46:49Z</time>
<speed>0.8</speed>
</trkpt>
<trkpt lat="47.597060" lon="8.171614">
<ele>305.8</ele>
<time>2003-05-23T07:46:54Z</time>
<speed>1.1</speed>
</trkpt>
<trkpt lat="47.597108" lon="8.171661">
<ele>306.4</ele>
<time>2003-05-23T07:46:59Z</time>
<speed>0.6</speed>
</trkpt>
<trkpt lat="47.597126" lon="8.171678">
<ele>305.9</ele>
<time>2003-05-23T07:47:04Z</time>
<speed>0.3</speed>
</trkpt>
<trkpt lat="47.597125" lon="8.171691">
<ele>306.0</ele>
<time>2003-05-23T07:47:09Z</time>
<speed>0.0</speed>
</trkpt>
<trkpt lat="47.597118" lon="8.171702">
<ele>306.8</ele>
<time>2003-05-23T07:47:14Z</time>
<speed>0.0</speed>
</trkpt>
<trkpt lat="47.597118" lon="8.171702">
<ele>306.8</ele>
<time>2003-05-23T07:47:19Z</time>
<speed>0.0</speed>
</trkpt>
<trkpt lat="47.597118" lon="8.171702">
<ele>306.8</ele>
<time>2003-05-23T07:47:24Z</time>
<speed>0.0</speed>
</trkpt>
<trkpt lat="47.597110" lon="8.171714">
<ele>307.5</ele>
<time>2003-05-23T07:47:29Z</time>
<speed>0.0</speed>
</trkpt>
<trkpt lat="47.597111" lon="8.171716">
<ele>306.1</ele>
<time>2003-05-23T07:47:34Z</time>
<speed>0.6</speed>
</trkpt>
<trkpt lat="47.597160" lon="8.171749">
<ele>306.6</ele>
<time>2003-05-23T07:47:39Z</time>
<speed>1.4</speed>
</trkpt>
<trkpt lat="47.597234" lon="8.171774">
<ele>307.1</ele>
<time>2003-05-23T07:47:44Z</time>
<speed>1.4</speed>
</trkpt>
<trkpt lat="47.597309" lon="8.171798">
<ele>307.6</ele>
<time>2003-05-23T07:47:49Z</time>
<speed>1.1</speed>
</trkpt>
<trkpt lat="47.597352" lon="8.171817">
<ele>308.7</ele>
<time>2003-05-23T07:47:54Z</time>
<speed>0.0</speed>
</trkpt>
<trkpt lat="47.597309" lon="8.171798">
<ele>307.6</ele>
<time>2003-05-23T07:47:59Z</time>
<speed>1.1</speed>
</trkpt>
<trkpt lat="47.597246" lon="8.171789">
<ele>307.3</ele>
<time>2003-05-23T07:48:05Z</time>
<speed>1.1</speed>
</trkpt>
<trkpt lat="47.597170" lon="8.171778">
<ele>306.8</ele>
<time>2003-05-23T07:48:10Z</time>
<speed>1.4</speed>
</trkpt>
<trkpt lat="47.597108" lon="8.171755">
<ele>306.4</ele>
<time>2003-05-23T07:48:15Z</time>
<speed>1.1</speed>
</trkpt>
<trkpt lat="47.597070" lon="8.171764">
<ele>304.9</ele>
<time>2003-05-23T07:48:20Z</time>
<speed>0.0</speed>
</trkpt>
<trkpt lat="47.597064" lon="8.171764">
<ele>304.1</ele>
<time>2003-05-23T07:48:25Z</time>
<speed>0.0</speed>
</trkpt>
<trkpt lat="47.597064" lon="8.171764">
<ele>304.1</ele>
<time>2003-05-23T07:48:30Z</time>
<speed>0.0</speed>
</trkpt>
<trkpt lat="47.597070" lon="8.171766">
<ele>303.5</ele>
<time>2003-05-23T07:48:35Z</time>
<speed>0.0</speed>
</trkpt>
<trkpt lat="47.597084" lon="8.171755">
<ele>303.4</ele>
<time>2003-05-23T07:48:40Z</time>
<speed>0.0</speed>
</trkpt>
<trkpt lat="47.597084" lon="8.171755">
<ele>303.4</ele>
<time>2003-05-23T07:48:45Z</time>
<speed>0.0</speed>
</trkpt>
<trkpt lat="47.597084" lon="8.171755">
<ele>303.4</ele>
<time>2003-05-23T07:48:50Z</time>
<speed>0.0</speed>
</trkpt>
<trkpt lat="47.597084" lon="8.171755">
<ele>303.4</ele>
<time>2003-05-23T07:48:55Z</time>
<speed>0.0</speed>
</trkpt>
<trkpt lat="47.597084" lon="8.171755">
<ele>303.4</ele>
<time>2003-05-23T07:49:00Z</time>
<speed>0.0</speed>
</trkpt>
<trkpt lat="47.597084" lon="8.171755">
<ele>303.4</ele>
<time>2003-05-23T07:49:05Z</time>
<speed>0.0</speed>
</trkpt>
<trkpt lat="47.597127" lon="8.171776">
<ele>303.1</ele>
<time>2003-05-23T07:49:10Z</time>
<speed>1.1</speed>
</trkpt>
<trkpt lat="47.597215" lon="8.171802">
<ele>303.7</ele>
<time>2003-05-23T07:49:15Z</time>
<speed>1.4</speed>
</trkpt>
<trkpt lat="47.597289" lon="8.171840">
<ele>304.3</ele>
<time>2003-05-23T07:49:20Z</time>
<speed>1.4</speed>
</trkpt>
<trkpt lat="47.597370" lon="8.171864">
<ele>305.6</ele>
<time>2003-05-23T07:49:25Z</time>
<speed>1.4</speed>
</trkpt>
<trkpt lat="47.597450" lon="8.171902">
<ele>306.9</ele>
<time>2003-05-23T07:49:30Z</time>
<speed>1.4</speed>
</trkpt>
<trkpt lat="47.597524" lon="8.171940">
<ele>307.5</ele>
<time>2003-05-23T07:49:35Z</time>
<speed>1.7</speed>
</trkpt>
<trkpt lat="47.597604" lon="8.171979">
<ele>307.5</ele>
<time>2003-05-23T07:49:40Z</time>
<speed>1.7</speed>
</trkpt>
<trkpt lat="47.597678" lon="8.172017">
<ele>308.1</ele>
<time>2003-05-23T07:49:45Z</time>
<speed>1.4</speed>
</trkpt>
<trkpt lat="47.597732" lon="8.172066">
<ele>308.0</ele>
<time>2003-05-23T07:49:50Z</time>
<speed>1.4</speed>
</trkpt>
<trkpt lat="47.597793" lon="8.172115">
<ele>308.6</ele>
<time>2003-05-23T07:49:55Z</time>
<speed>1.4</speed>
</trkpt>
<trkpt lat="47.597851" lon="8.172190">
<ele>309.5</ele>
<time>2003-05-23T07:50:00Z</time>
<speed>1.4</speed>
</trkpt>
<trkpt lat="47.597912" lon="8.172239">
<ele>310.1</ele>
<time>2003-05-23T07:50:05Z</time>
<speed>1.4</speed>
</trkpt>
<trkpt lat="47.598006" lon="8.172252">
<ele>311.4</ele>
<time>2003-05-23T07:50:10Z</time>
<speed>1.7</speed>
</trkpt>
<trkpt lat="47.598067" lon="8.172301">
<ele>312.0</ele>
<time>2003-05-23T07:50:15Z</time>
<speed>1.4</speed>
</trkpt>
<trkpt lat="47.598115" lon="8.172350">
<ele>311.2</ele>
<time>2003-05-23T07:50:20Z</time>
<speed>1.1</speed>
</trkpt>
<trkpt lat="47.598188" lon="8.172401">
<ele>311.9</ele>
<time>2003-05-23T07:50:25Z</time>
<speed>1.4</speed>
</trkpt>
<trkpt lat="47.598256" lon="8.172439">
<ele>311.8</ele>
<time>2003-05-23T07:50:30Z</time>
<speed>1.4</speed>
</trkpt>
<trkpt lat="47.598324" lon="8.172463">
<ele>311.5</ele>
<time>2003-05-23T07:50:35Z</time>
<speed>1.4</speed>
</trkpt>
<trkpt lat="47.598397" lon="8.172512">
<ele>313.7</ele>
<time>2003-05-23T07:50:40Z</time>
<speed>1.4</speed>
</trkpt>
<trkpt lat="47.598460" lon="8.172537">
<ele>312.7</ele>
<time>2003-05-23T07:50:45Z</time>
<speed>1.4</speed>
</trkpt>
<trkpt lat="47.598522" lon="8.172559">
<ele>313.2</ele>
<time>2003-05-23T07:50:50Z</time>
<speed>1.4</speed>
</trkpt>
<trkpt lat="47.598589" lon="8.172610">
<ele>313.1</ele>
<time>2003-05-23T07:50:55Z</time>
<speed>1.7</speed>
</trkpt>
<trkpt lat="47.598646" lon="8.172634">
<ele>311.4</ele>
<time>2003-05-23T07:51:00Z</time>
<speed>1.4</speed>
</trkpt>
<trkpt lat="47.598707" lon="8.172670">
<ele>312.0</ele>
<time>2003-05-23T07:51:05Z</time>
<speed>1.4</speed>
</trkpt>
<trkpt lat="47.598774" lon="8.172721">
<ele>312.0</ele>
<time>2003-05-23T07:51:10Z</time>
<speed>1.4</speed>
</trkpt>
<trkpt lat="47.598842" lon="8.172759">
<ele>311.8</ele>
<time>2003-05-23T07:51:15Z</time>
<speed>1.4</speed>
</trkpt>
<trkpt lat="47.598883" lon="8.172806">
<ele>311.7</ele>
<time>2003-05-23T07:51:20Z</time>
<speed>1.1</speed>
</trkpt>
<trkpt lat="47.598932" lon="8.172855">
<ele>310.8</ele>
<time>2003-05-23T07:51:25Z</time>
<speed>1.4</speed>
</trkpt>
<trkpt lat="47.598980" lon="8.172904">
<ele>310.0</ele>
<time>2003-05-23T07:51:30Z</time>
<speed>1.1</speed>
</trkpt>
<trkpt lat="47.599034" lon="8.172953">
<ele>309.9</ele>
<time>2003-05-23T07:51:35Z</time>
<speed>1.1</speed>
</trkpt>
<trkpt lat="47.599089" lon="8.173003">
<ele>308.4</ele>
<time>2003-05-23T07:51:40Z</time>
<speed>1.4</speed>
</trkpt>
<trkpt lat="47.599143" lon="8.173052">
<ele>308.3</ele>
<time>2003-05-23T07:51:45Z</time>
<speed>1.1</speed>
</trkpt>
<trkpt lat="47.599198" lon="8.173101">
<ele>308.2</ele>
<time>2003-05-23T07:51:50Z</time>
<speed>1.4</speed>
</trkpt>
<trkpt lat="47.599252" lon="8.173150">
<ele>308.1</ele>
<time>2003-05-23T07:51:55Z</time>
<speed>1.1</speed>
</trkpt>
<trkpt lat="47.599305" lon="8.173212">
<ele>308.1</ele>
<time>2003-05-23T07:52:00Z</time>
<speed>1.1</speed>
</trkpt>
<trkpt lat="47.599352" lon="8.173273">
<ele>308.8</ele>
<time>2003-05-23T07:52:05Z</time>
<speed>1.1</speed>
</trkpt>
<trkpt lat="47.599413" lon="8.173323">
<ele>308.0</ele>
<time>2003-05-23T07:52:10Z</time>
<speed>1.1</speed>
</trkpt>
<trkpt lat="47.599466" lon="8.173385">
<ele>308.0</ele>
<time>2003-05-23T07:52:15Z</time>
<speed>1.1</speed>
</trkpt>
<trkpt lat="47.599508" lon="8.173432">
<ele>307.8</ele>
<time>2003-05-23T07:52:20Z</time>
<speed>1.1</speed>
</trkpt>
<trkpt lat="47.599535" lon="8.173504">
<ele>307.8</ele>
<time>2003-05-23T07:52:25Z</time>
<speed>0.8</speed>
</trkpt>
<trkpt lat="47.599527" lon="8.173609">
<ele>308.6</ele>
<time>2003-05-23T07:52:30Z</time>
<speed>1.4</speed>
</trkpt>
<trkpt lat="47.599496" lon="8.173698">
<ele>309.1</ele>
<time>2003-05-23T07:52:35Z</time>
<speed>1.4</speed>
</trkpt>
<trkpt lat="47.599463" lon="8.173801">
<ele>308.3</ele>
<time>2003-05-23T07:52:40Z</time>
<speed>1.4</speed>
</trkpt>
<trkpt lat="47.599426" lon="8.173874">
<ele>309.4</ele>
<time>2003-05-23T07:52:45Z</time>
<speed>1.4</speed>
</trkpt>
<trkpt lat="47.599393" lon="8.173978">
<ele>308.6</ele>
<time>2003-05-23T07:52:50Z</time>
<speed>1.4</speed>
</trkpt>
<trkpt lat="47.599393" lon="8.174072">
<ele>308.6</ele>
<time>2003-05-23T07:52:55Z</time>
<speed>1.4</speed>
</trkpt>
<trkpt lat="47.599427" lon="8.174143">
<ele>309.3</ele>
<time>2003-05-23T07:53:00Z</time>
<speed>1.4</speed>
</trkpt>
<trkpt lat="47.599473" lon="8.174219">
<ele>308.7</ele>
<time>2003-05-23T07:53:05Z</time>
<speed>1.1</speed>
</trkpt>
<trkpt lat="47.599527" lon="8.174267">
<ele>308.6</ele>
<time>2003-05-23T07:53:10Z</time>
<speed>1.4</speed>
</trkpt>
<trkpt lat="47.599593" lon="8.174331">
<ele>308.7</ele>
<time>2003-05-23T07:53:15Z</time>
<speed>1.1</speed>
</trkpt>
<trkpt lat="47.599646" lon="8.174394">
<ele>308.7</ele>
<time>2003-05-23T07:53:20Z</time>
<speed>1.1</speed>
</trkpt>
<trkpt lat="47.599707" lon="8.174442">
<ele>309.3</ele>
<time>2003-05-23T07:53:25Z</time>
<speed>1.4</speed>
</trkpt>
<trkpt lat="47.599766" lon="8.174505">
<ele>310.0</ele>
<time>2003-05-23T07:53:30Z</time>
<speed>1.4</speed>
</trkpt>
<trkpt lat="47.599814" lon="8.174567">
<ele>309.3</ele>
<time>2003-05-23T07:53:35Z</time>
<speed>1.1</speed>
</trkpt>
<trkpt lat="47.599854" lon="8.174627">
<ele>309.2</ele>
<time>2003-05-23T07:53:40Z</time>
<speed>1.1</speed>
</trkpt>
<trkpt lat="47.599907" lon="8.174702">
<ele>309.3</ele>
<time>2003-05-23T07:53:45Z</time>
<speed>1.1</speed>
</trkpt>
<trkpt lat="47.599955" lon="8.174751">
<ele>308.5</ele>
<time>2003-05-23T07:53:50Z</time>
<speed>1.1</speed>
</trkpt>
<trkpt lat="47.600008" lon="8.174813">
<ele>308.5</ele>
<time>2003-05-23T07:53:55Z</time>
<speed>1.1</speed>
</trkpt>
<trkpt lat="47.600061" lon="8.174888">
<ele>308.6</ele>
<time>2003-05-23T07:54:00Z</time>
<speed>1.4</speed>
</trkpt>
<trkpt lat="47.600114" lon="8.174951">
<ele>308.6</ele>
<time>2003-05-23T07:54:05Z</time>
<speed>1.4</speed>
</trkpt>
<trkpt lat="47.600167" lon="8.175013">
<ele>308.6</ele>
<time>2003-05-23T07:54:10Z</time>
<speed>1.4</speed>
</trkpt>
<trkpt lat="47.600207" lon="8.175086">
<ele>308.6</ele>
<time>2003-05-23T07:54:15Z</time>
<speed>1.4</speed>
</trkpt>
<trkpt lat="47.600266" lon="8.175163">
<ele>308.0</ele>
<time>2003-05-23T07:54:20Z</time>
<speed>1.4</speed>
</trkpt>
<trkpt lat="47.600319" lon="8.175225">
<ele>308.0</ele>
<time>2003-05-23T07:54:25Z</time>
<speed>1.1</speed>
</trkpt>
<trkpt lat="47.600360" lon="8.175286">
<ele>308.0</ele>
<time>2003-05-23T07:54:30Z</time>
<speed>1.1</speed>
</trkpt>
<trkpt lat="47.600400" lon="8.175359">
<ele>308.0</ele>
<time>2003-05-23T07:54:35Z</time>
<speed>1.1</speed>
</trkpt>
<trkpt lat="47.600440" lon="8.175432">
<ele>308.0</ele>
<time>2003-05-23T07:54:40Z</time>
<speed>1.4</speed>
</trkpt>
<trkpt lat="47.600479" lon="8.175506">
<ele>308.1</ele>
<time>2003-05-23T07:54:45Z</time>
<speed>1.1</speed>
</trkpt>
<trkpt lat="47.600525" lon="8.175579">
<ele>308.8</ele>
<time>2003-05-23T07:54:50Z</time>
<speed>1.1</speed>
</trkpt>
<trkpt lat="47.600574" lon="8.175628">
<ele>308.0</ele>
<time>2003-05-23T07:54:55Z</time>
<speed>1.1</speed>
</trkpt>
<trkpt lat="47.600620" lon="8.175688">
<ele>308.6</ele>
<time>2003-05-23T07:55:00Z</time>
<speed>1.4</speed>
</trkpt>
<trkpt lat="47.600667" lon="8.175763">
<ele>308.0</ele>
<time>2003-05-23T07:55:05Z</time>
<speed>1.4</speed>
</trkpt>
<trkpt lat="47.600713" lon="8.175839">
<ele>307.4</ele>
<time>2003-05-23T07:55:10Z</time>
<speed>1.1</speed>
</trkpt>
<trkpt lat="47.600759" lon="8.175912">
<ele>308.1</ele>
<time>2003-05-23T07:55:15Z</time>
<speed>1.4</speed>
</trkpt>
<trkpt lat="47.600793" lon="8.175985">
<ele>307.4</ele>
<time>2003-05-23T07:55:20Z</time>
<speed>1.1</speed>
</trkpt>
<trkpt lat="47.600820" lon="8.176057">
<ele>307.4</ele>
<time>2003-05-23T07:55:25Z</time>
<speed>1.1</speed>
</trkpt>
<trkpt lat="47.600859" lon="8.176130">
<ele>307.4</ele>
<time>2003-05-23T07:55:30Z</time>
<speed>1.1</speed>
</trkpt>
<trkpt lat="47.600897" lon="8.176230">
<ele>307.6</ele>
<time>2003-05-23T07:55:35Z</time>
<speed>1.4</speed>
</trkpt>
<trkpt lat="47.600930" lon="8.176317">
<ele>307.0</ele>
<time>2003-05-23T07:55:40Z</time>
<speed>1.1</speed>
</trkpt>
<trkpt lat="47.600963" lon="8.176403">
<ele>306.4</ele>
<time>2003-05-23T07:55:45Z</time>
<speed>1.1</speed>
</trkpt>
<trkpt lat="47.600988" lon="8.176501">
<ele>306.5</ele>
<time>2003-05-23T07:55:50Z</time>
<speed>1.1</speed>
</trkpt>
<trkpt lat="47.601014" lon="8.176586">
<ele>306.6</ele>
<time>2003-05-23T07:55:55Z</time>
<speed>1.1</speed>
</trkpt>
<trkpt lat="47.601053" lon="8.176672">
<ele>306.7</ele>
<time>2003-05-23T07:56:00Z</time>
<speed>1.1</speed>
</trkpt>
<trkpt lat="47.601066" lon="8.176768">
<ele>306.8</ele>
<time>2003-05-23T07:56:05Z</time>
<speed>1.1</speed>
</trkpt>
<trkpt lat="47.601093" lon="8.176839">
<ele>306.7</ele>
<time>2003-05-23T07:56:10Z</time>
<speed>1.1</speed>
</trkpt>
<trkpt lat="47.601145" lon="8.176915">
<ele>306.8</ele>
<time>2003-05-23T07:56:15Z</time>
<speed>1.1</speed>
</trkpt>
<trkpt lat="47.601185" lon="8.176988">
<ele>306.8</ele>
<time>2003-05-23T07:56:20Z</time>
<speed>1.1</speed>
</trkpt>
<trkpt lat="47.601225" lon="8.177061">
<ele>306.9</ele>
<time>2003-05-23T07:56:25Z</time>
<speed>1.1</speed>
</trkpt>
<trkpt lat="47.601251" lon="8.177146">
<ele>306.9</ele>
<time>2003-05-23T07:56:30Z</time>
<speed>1.1</speed>
</trkpt>
<trkpt lat="47.601278" lon="8.177218">
<ele>306.9</ele>
<time>2003-05-23T07:56:35Z</time>
<speed>1.1</speed>
</trkpt>
<trkpt lat="47.601310" lon="8.177302">
<ele>307.7</ele>
<time>2003-05-23T07:56:40Z</time>
<speed>1.1</speed>
</trkpt>
<trkpt lat="47.601336" lon="8.177400">
<ele>307.8</ele>
<time>2003-05-23T07:56:45Z</time>
<speed>1.1</speed>
</trkpt>
<trkpt lat="47.601362" lon="8.177485">
<ele>307.9</ele>
<time>2003-05-23T07:56:50Z</time>
<speed>1.1</speed>
</trkpt>
<trkpt lat="47.601389" lon="8.177556">
<ele>307.8</ele>
<time>2003-05-23T07:56:56Z</time>
<speed>1.1</speed>
</trkpt>
<trkpt lat="47.601402" lon="8.177639">
<ele>307.8</ele>
<time>2003-05-23T07:57:01Z</time>
<speed>1.1</speed>
</trkpt>
<trkpt lat="47.601436" lon="8.177712">
<ele>307.1</ele>
<time>2003-05-23T07:57:06Z</time>
<speed>1.1</speed>
</trkpt>
<trkpt lat="47.601450" lon="8.177795">
<ele>307.1</ele>
<time>2003-05-23T07:57:11Z</time>
<speed>1.1</speed>
</trkpt>
<trkpt lat="47.601476" lon="8.177880">
<ele>307.1</ele>
<time>2003-05-23T07:57:16Z</time>
<speed>1.1</speed>
</trkpt>
<trkpt lat="47.601497" lon="8.177951">
<ele>306.3</ele>
<time>2003-05-23T07:57:21Z</time>
<speed>0.8</speed>
</trkpt>
<trkpt lat="47.601518" lon="8.178023">
<ele>305.5</ele>
<time>2003-05-23T07:57:26Z</time>
<speed>0.8</speed>
</trkpt>
<trkpt lat="47.601532" lon="8.178092">
<ele>305.4</ele>
<time>2003-05-23T07:57:31Z</time>
<speed>0.8</speed>
</trkpt>
<trkpt lat="47.601553" lon="8.178164">
<ele>304.6</ele>
<time>2003-05-23T07:57:36Z</time>
<speed>0.8</speed>
</trkpt>
<trkpt lat="47.601574" lon="8.178248">
<ele>303.9</ele>
<time>2003-05-23T07:57:41Z</time>
<speed>1.1</speed>
</trkpt>
<trkpt lat="47.601581" lon="8.178329">
<ele>304.6</ele>
<time>2003-05-23T07:57:46Z</time>
<speed>1.1</speed>
</trkpt>
<trkpt lat="47.601601" lon="8.178399">
<ele>305.2</ele>
<time>2003-05-23T07:57:51Z</time>
<speed>1.1</speed>
</trkpt>
<trkpt lat="47.601628" lon="8.178470">
<ele>305.2</ele>
<time>2003-05-23T07:57:56Z</time>
<speed>1.1</speed>
</trkpt>
<trkpt lat="47.601662" lon="8.178544">
<ele>304.5</ele>
<time>2003-05-23T07:58:01Z</time>
<speed>1.1</speed>
</trkpt>
<trkpt lat="47.601676" lon="8.178613">
<ele>304.3</ele>
<time>2003-05-23T07:58:06Z</time>
<speed>0.8</speed>
</trkpt>
<trkpt lat="47.601690" lon="8.178696">
<ele>304.3</ele>
<time>2003-05-23T07:58:11Z</time>
<speed>1.1</speed>
</trkpt>
<trkpt lat="47.601717" lon="8.178768">
<ele>304.3</ele>
<time>2003-05-23T07:58:16Z</time>
<speed>1.1</speed>
</trkpt>
<trkpt lat="47.601743" lon="8.178852">
<ele>304.3</ele>
<time>2003-05-23T07:58:21Z</time>
<speed>1.1</speed>
</trkpt>
<trkpt lat="47.601777" lon="8.178911">
<ele>304.9</ele>
<time>2003-05-23T07:58:26Z</time>
<speed>1.1</speed>
</trkpt>
<trkpt lat="47.601805" lon="8.178982">
<ele>304.9</ele>
<time>2003-05-23T07:58:31Z</time>
<speed>1.1</speed>
</trkpt>
<trkpt lat="47.601838" lon="8.179055">
<ele>304.2</ele>
<time>2003-05-23T07:58:36Z</time>
<speed>0.8</speed>
</trkpt>
<trkpt lat="47.601865" lon="8.179127">
<ele>304.1</ele>
<time>2003-05-23T07:58:41Z</time>
<speed>0.8</speed>
</trkpt>
<trkpt lat="47.601894" lon="8.179172">
<ele>303.9</ele>
<time>2003-05-23T07:58:46Z</time>
<speed>0.6</speed>
</trkpt>
<trkpt lat="47.601906" lon="8.179185">
<ele>305.5</ele>
<time>2003-05-23T07:58:51Z</time>
<speed>0.3</speed>
</trkpt>
<trkpt lat="47.601881" lon="8.179262">
<ele>305.2</ele>
<time>2003-05-23T07:58:56Z</time>
<speed>1.1</speed>
</trkpt>
<trkpt lat="47.601864" lon="8.179326">
<ele>305.6</ele>
<time>2003-05-23T07:59:01Z</time>
<speed>0.8</speed>
</trkpt>
<trkpt lat="47.601859" lon="8.179407">
<ele>304.8</ele>
<time>2003-05-23T07:59:06Z</time>
<speed>1.1</speed>
</trkpt>
<trkpt lat="47.601865" lon="8.179503">
<ele>304.1</ele>
<time>2003-05-23T07:59:11Z</time>
<speed>1.1</speed>
</trkpt>
<trkpt lat="47.601885" lon="8.179586">
<ele>304.9</ele>
<time>2003-05-23T07:59:16Z</time>
<speed>0.8</speed>
</trkpt>
<trkpt lat="47.601893" lon="8.179654">
<ele>305.4</ele>
<time>2003-05-23T07:59:21Z</time>
<speed>0.8</speed>
</trkpt>
<trkpt lat="47.601913" lon="8.179723">
<ele>306.0</ele>
<time>2003-05-23T07:59:26Z</time>
<speed>0.8</speed>
</trkpt>
<trkpt lat="47.601941" lon="8.179781">
<ele>305.9</ele>
<time>2003-05-23T07:59:31Z</time>
<speed>0.8</speed>
</trkpt>
<trkpt lat="47.601976" lon="8.179842">
<ele>305.1</ele>
<time>2003-05-23T07:59:36Z</time>
<speed>0.6</speed>
</trkpt>
<trkpt lat="47.602025" lon="8.179877">
<ele>304.1</ele>
<time>2003-05-23T07:59:41Z</time>
<speed>0.8</speed>
</trkpt>
<trkpt lat="47.602059" lon="8.179951">
<ele>303.4</ele>
<time>2003-05-23T07:59:46Z</time>
<speed>0.8</speed>
</trkpt>
<trkpt lat="47.602085" lon="8.180034">
<ele>304.9</ele>
<time>2003-05-23T07:59:51Z</time>
<speed>1.1</speed>
</trkpt>
<trkpt lat="47.602099" lon="8.180103">
<ele>304.8</ele>
<time>2003-05-23T07:59:56Z</time>
<speed>0.8</speed>
</trkpt>
<trkpt lat="47.602133" lon="8.180162">
<ele>305.4</ele>
<time>2003-05-23T08:00:01Z</time>
<speed>0.8</speed>
</trkpt>
<trkpt lat="47.602160" lon="8.180233">
<ele>305.3</ele>
<time>2003-05-23T08:00:06Z</time>
<speed>0.8</speed>
</trkpt>
<trkpt lat="47.602182" lon="8.180289">
<ele>305.8</ele>
<time>2003-05-23T08:00:11Z</time>
<speed>0.8</speed>
</trkpt>
<trkpt lat="47.602221" lon="8.180376">
<ele>306.0</ele>
<time>2003-05-23T08:00:16Z</time>
<speed>1.1</speed>
</trkpt>
<trkpt lat="47.602254" lon="8.180447">
<ele>306.7</ele>
<time>2003-05-23T08:00:21Z</time>
<speed>1.1</speed>
</trkpt>
<trkpt lat="47.602267" lon="8.180530">
<ele>306.6</ele>
<time>2003-05-23T08:00:26Z</time>
<speed>0.8</speed>
</trkpt>
<trkpt lat="47.602273" lon="8.180624">
<ele>307.4</ele>
<time>2003-05-23T08:00:31Z</time>
<speed>1.1</speed>
</trkpt>
<trkpt lat="47.602287" lon="8.180707">
<ele>307.4</ele>
<time>2003-05-23T08:00:36Z</time>
<speed>0.8</speed>
</trkpt>
<trkpt lat="47.602301" lon="8.180777">
<ele>307.2</ele>
<time>2003-05-23T08:00:41Z</time>
<speed>0.8</speed>
</trkpt>
<trkpt lat="47.602302" lon="8.180857">
<ele>307.2</ele>
<time>2003-05-23T08:00:46Z</time>
<speed>0.8</speed>
</trkpt>
<trkpt lat="47.602309" lon="8.180938">
<ele>307.8</ele>
<time>2003-05-23T08:00:51Z</time>
<speed>0.8</speed>
</trkpt>
<trkpt lat="47.602306" lon="8.180993">
<ele>306.8</ele>
<time>2003-05-23T08:00:56Z</time>
<speed>0.6</speed>
</trkpt>
<trkpt lat="47.602314" lon="8.181046">
<ele>308.6</ele>
<time>2003-05-23T08:01:01Z</time>
<speed>1.1</speed>
</trkpt>
<trkpt lat="47.602340" lon="8.181143">
<ele>308.8</ele>
<time>2003-05-23T08:01:06Z</time>
<speed>1.1</speed>
</trkpt>
<trkpt lat="47.602379" lon="8.181217">
<ele>308.8</ele>
<time>2003-05-23T08:01:11Z</time>
<speed>1.1</speed>
</trkpt>
<trkpt lat="47.602413" lon="8.181288">
<ele>309.5</ele>
<time>2003-05-23T08:01:16Z</time>
<speed>1.1</speed>
</trkpt>
<trkpt lat="47.602452" lon="8.181362">
<ele>309.5</ele>
<time>2003-05-23T08:01:21Z</time>
<speed>1.1</speed>
</trkpt>
<trkpt lat="47.602479" lon="8.181433">
<ele>309.5</ele>
<time>2003-05-23T08:01:26Z</time>
<speed>1.1</speed>
</trkpt>
<trkpt lat="47.602500" lon="8.181518">
<ele>308.8</ele>
<time>2003-05-23T08:01:31Z</time>
<speed>1.1</speed>
</trkpt>
<trkpt lat="47.602514" lon="8.181587">
<ele>308.7</ele>
<time>2003-05-23T08:01:36Z</time>
<speed>1.1</speed>
</trkpt>
<trkpt lat="47.602541" lon="8.181659">
<ele>308.6</ele>
<time>2003-05-23T08:01:41Z</time>
<speed>1.1</speed>
</trkpt>
<trkpt lat="47.602567" lon="8.181743">
<ele>308.7</ele>
<time>2003-05-23T08:01:46Z</time>
<speed>0.8</speed>
</trkpt>
<trkpt lat="47.602587" lon="8.181828">
<ele>308.0</ele>
<time>2003-05-23T08:01:51Z</time>
<speed>0.8</speed>
</trkpt>
<trkpt lat="47.602607" lon="8.181911">
<ele>308.7</ele>
<time>2003-05-23T08:01:56Z</time>
<speed>1.1</speed>
</trkpt>
<trkpt lat="47.602627" lon="8.181996">
<ele>308.0</ele>
<time>2003-05-23T08:02:01Z</time>
<speed>1.1</speed>
</trkpt>
<trkpt lat="47.602641" lon="8.182078">
<ele>308.0</ele>
<time>2003-05-23T08:02:06Z</time>
<speed>1.4</speed>
</trkpt>
<trkpt lat="47.602654" lon="8.182161">
<ele>308.0</ele>
<time>2003-05-23T08:02:11Z</time>
<speed>1.1</speed>
</trkpt>
<trkpt lat="47.602674" lon="8.182244">
<ele>308.7</ele>
<time>2003-05-23T08:02:16Z</time>
<speed>0.8</speed>
</trkpt>
<trkpt lat="47.602693" lon="8.182340">
<ele>309.5</ele>
<time>2003-05-23T08:02:22Z</time>
<speed>1.1</speed>
</trkpt>
<trkpt lat="47.602720" lon="8.182411">
<ele>309.5</ele>
<time>2003-05-23T08:02:27Z</time>
<speed>0.8</speed>
</trkpt>
<trkpt lat="47.602721" lon="8.182492">
<ele>309.4</ele>
<time>2003-05-23T08:02:32Z</time>
<speed>0.8</speed>
</trkpt>
<trkpt lat="47.602735" lon="8.182562">
<ele>309.3</ele>
<time>2003-05-23T08:02:37Z</time>
<speed>0.8</speed>
</trkpt>
<trkpt lat="47.602768" lon="8.182633">
<ele>310.0</ele>
<time>2003-05-23T08:02:42Z</time>
<speed>0.8</speed>
</trkpt>
<trkpt lat="47.602782" lon="8.182716">
<ele>309.9</ele>
<time>2003-05-23T08:02:47Z</time>
<speed>0.8</speed>
</trkpt>
<trkpt lat="47.602803" lon="8.182772">
<ele>310.5</ele>
<time>2003-05-23T08:02:52Z</time>
<speed>0.8</speed>
</trkpt>
<trkpt lat="47.602829" lon="8.182857">
<ele>310.5</ele>
<time>2003-05-23T08:02:57Z</time>
<speed>0.8</speed>
</trkpt>
<trkpt lat="47.602837" lon="8.182940">
<ele>309.8</ele>
<time>2003-05-23T08:03:02Z</time>
<speed>0.8</speed>
</trkpt>
<trkpt lat="47.602857" lon="8.183009">
<ele>310.4</ele>
<time>2003-05-23T08:03:07Z</time>
<speed>0.8</speed>
</trkpt>
<trkpt lat="47.602885" lon="8.183081">
<ele>310.3</ele>
<time>2003-05-23T08:03:12Z</time>
<speed>1.1</speed>
</trkpt>
<trkpt lat="47.602904" lon="8.183164">
<ele>311.1</ele>
<time>2003-05-23T08:03:17Z</time>
<speed>1.1</speed>
</trkpt>
<trkpt lat="47.602920" lon="8.183220">
<ele>310.8</ele>
<time>2003-05-23T08:03:22Z</time>
<speed>0.6</speed>
</trkpt>
<trkpt lat="47.602946" lon="8.183305">
<ele>310.9</ele>
<time>2003-05-23T08:03:28Z</time>
<speed>1.1</speed>
</trkpt>
<trkpt lat="47.602967" lon="8.183376">
<ele>310.1</ele>
<time>2003-05-23T08:03:33Z</time>
<speed>0.8</speed>
</trkpt>
<trkpt lat="47.602994" lon="8.183448">
<ele>310.1</ele>
<time>2003-05-23T08:03:38Z</time>
<speed>1.1</speed>
</trkpt>
<trkpt lat="47.603007" lon="8.183544">
<ele>310.1</ele>
<time>2003-05-23T08:03:43Z</time>
<speed>1.4</speed>
</trkpt>
<trkpt lat="47.603026" lon="8.183626">
<ele>310.9</ele>
<time>2003-05-23T08:03:48Z</time>
<speed>1.4</speed>
</trkpt>
<trkpt lat="47.603058" lon="8.183711">
<ele>311.6</ele>
<time>2003-05-23T08:03:53Z</time>
<speed>1.1</speed>
</trkpt>
<trkpt lat="47.603077" lon="8.183807">
<ele>312.5</ele>
<time>2003-05-23T08:03:58Z</time>
<speed>1.1</speed>
</trkpt>
<trkpt lat="47.603091" lon="8.183890">
<ele>312.4</ele>
<time>2003-05-23T08:04:03Z</time>
<speed>1.4</speed>
</trkpt>
<trkpt lat="47.603118" lon="8.183961">
<ele>312.4</ele>
<time>2003-05-23T08:04:08Z</time>
<speed>1.1</speed>
</trkpt>
<trkpt lat="47.603145" lon="8.184033">
<ele>312.3</ele>
<time>2003-05-23T08:04:13Z</time>
<speed>1.1</speed>
</trkpt>
<trkpt lat="47.603178" lon="8.184104">
<ele>313.0</ele>
<time>2003-05-23T08:04:18Z</time>
<speed>0.8</speed>
</trkpt>
<trkpt lat="47.603205" lon="8.184176">
<ele>313.0</ele>
<time>2003-05-23T08:04:23Z</time>
<speed>1.1</speed>
</trkpt>
<trkpt lat="47.603232" lon="8.184247">
<ele>312.9</ele>
<time>2003-05-23T08:04:28Z</time>
<speed>1.4</speed>
</trkpt>
<trkpt lat="47.603259" lon="8.184334">
<ele>311.6</ele>
<time>2003-05-23T08:04:33Z</time>
<speed>1.1</speed>
</trkpt>
<trkpt lat="47.603273" lon="8.184417">
<ele>311.6</ele>
<time>2003-05-23T08:04:38Z</time>
<speed>1.1</speed>
</trkpt>
<trkpt lat="47.603293" lon="8.184501">
<ele>310.9</ele>
<time>2003-05-23T08:04:43Z</time>
<speed>1.1</speed>
</trkpt>
<trkpt lat="47.603314" lon="8.184573">
<ele>310.1</ele>
<time>2003-05-23T08:04:48Z</time>
<speed>1.1</speed>
</trkpt>
<trkpt lat="47.603334" lon="8.184657">
<ele>309.4</ele>
<time>2003-05-23T08:04:53Z</time>
<speed>1.1</speed>
</trkpt>
<trkpt lat="47.603367" lon="8.184729">
<ele>310.1</ele>
<time>2003-05-23T08:04:58Z</time>
<speed>1.1</speed>
</trkpt>
<trkpt lat="47.603394" lon="8.184815">
<ele>308.8</ele>
<time>2003-05-23T08:05:03Z</time>
<speed>1.1</speed>
</trkpt>
<trkpt lat="47.603415" lon="8.184887">
<ele>308.0</ele>
<time>2003-05-23T08:05:08Z</time>
<speed>1.1</speed>
</trkpt>
<trkpt lat="47.603434" lon="8.184970">
<ele>308.7</ele>
<time>2003-05-23T08:05:13Z</time>
<speed>1.1</speed>
</trkpt>
<trkpt lat="47.603447" lon="8.185066">
<ele>308.8</ele>
<time>2003-05-23T08:05:18Z</time>
<speed>0.8</speed>
</trkpt>
<trkpt lat="47.603467" lon="8.185148">
<ele>309.5</ele>
<time>2003-05-23T08:05:23Z</time>
<speed>1.1</speed>
</trkpt>
<trkpt lat="47.603487" lon="8.185233">
<ele>308.8</ele>
<time>2003-05-23T08:05:28Z</time>
<speed>1.1</speed>
</trkpt>
<trkpt lat="47.603507" lon="8.185303">
<ele>309.4</ele>
<time>2003-05-23T08:05:33Z</time>
<speed>1.1</speed>
</trkpt>
<trkpt lat="47.603547" lon="8.185376">
<ele>309.4</ele>
<time>2003-05-23T08:05:38Z</time>
<speed>1.1</speed>
</trkpt>
<trkpt lat="47.603574" lon="8.185447">
<ele>309.4</ele>
<time>2003-05-23T08:05:43Z</time>
<speed>1.1</speed>
</trkpt>
<trkpt lat="47.603614" lon="8.185523">
<ele>308.0</ele>
<time>2003-05-23T08:05:48Z</time>
<speed>1.1</speed>
</trkpt>
<trkpt lat="47.603662" lon="8.185570">
<ele>308.6</ele>
<time>2003-05-23T08:05:53Z</time>
<speed>1.1</speed>
</trkpt>
<trkpt lat="47.603704" lon="8.185617">
<ele>308.4</ele>
<time>2003-05-23T08:05:58Z</time>
<speed>1.1</speed>
</trkpt>
<trkpt lat="47.603747" lon="8.185638">
<ele>308.1</ele>
<time>2003-05-23T08:06:03Z</time>
<speed>0.8</speed>
</trkpt>
<trkpt lat="47.603784" lon="8.185656">
<ele>308.4</ele>
<time>2003-05-23T08:06:08Z</time>
<speed>0.6</speed>
</trkpt>
<trkpt lat="47.603804" lon="8.185645">
<ele>309.1</ele>
<time>2003-05-23T08:06:13Z</time>
<speed>0.3</speed>
</trkpt>
<trkpt lat="47.603829" lon="8.185649">
<ele>309.2</ele>
<time>2003-05-23T08:06:18Z</time>
<speed>0.0</speed>
</trkpt>
<trkpt lat="47.603843" lon="8.185638">
<ele>309.2</ele>
<time>2003-05-23T08:06:23Z</time>
<speed>0.0</speed>
</trkpt>
<trkpt lat="47.603843" lon="8.185638">
<ele>309.2</ele>
<time>2003-05-23T08:06:28Z</time>
<speed>0.0</speed>
</trkpt>
<trkpt lat="47.603861" lon="8.185640">
<ele>310.0</ele>
<time>2003-05-23T08:06:33Z</time>
<speed>0.3</speed>
</trkpt>
<trkpt lat="47.603855" lon="8.185638">
<ele>310.7</ele>
<time>2003-05-23T08:06:38Z</time>
<speed>0.0</speed>
</trkpt>
<trkpt lat="47.603849" lon="8.185638">
<ele>309.9</ele>
<time>2003-05-23T08:06:43Z</time>
<speed>0.0</speed>
</trkpt>
<trkpt lat="47.603836" lon="8.185636">
<ele>309.9</ele>
<time>2003-05-23T08:06:48Z</time>
<speed>0.0</speed>
</trkpt>
<trkpt lat="47.603834" lon="8.185583">
<ele>308.7</ele>
<time>2003-05-23T08:06:53Z</time>
<speed>0.8</speed>
</trkpt>
<trkpt lat="47.603841" lon="8.185570">
<ele>309.4</ele>
<time>2003-05-23T08:06:58Z</time>
<speed>0.0</speed>
</trkpt>
<trkpt lat="47.603833" lon="8.185596">
<ele>308.8</ele>
<time>2003-05-23T08:07:03Z</time>
<speed>0.0</speed>
</trkpt>
<trkpt lat="47.603827" lon="8.185596">
<ele>308.1</ele>
<time>2003-05-23T08:07:08Z</time>
<speed>0.0</speed>
</trkpt>
<trkpt lat="47.603819" lon="8.185608">
<ele>308.9</ele>
<time>2003-05-23T08:07:13Z</time>
<speed>0.0</speed>
</trkpt>
<trkpt lat="47.603812" lon="8.185602">
<ele>312.3</ele>
<time>2003-05-23T08:07:18Z</time>
<speed>0.0</speed>
</trkpt>
<trkpt lat="47.603804" lon="8.185596">
<ele>315.8</ele>
<time>2003-05-23T08:07:24Z</time>
<speed>0.0</speed>
</trkpt>
<trkpt lat="47.603803" lon="8.185609">
<ele>315.9</ele>
<time>2003-05-23T08:07:29Z</time>
<speed>0.0</speed>
</trkpt>
<trkpt lat="47.603791" lon="8.185607">
<ele>315.9</ele>
<time>2003-05-23T08:07:34Z</time>
<speed>0.0</speed>
</trkpt>
<trkpt lat="47.603769" lon="8.185645">
<ele>315.3</ele>
<time>2003-05-23T08:07:39Z</time>
<speed>0.0</speed>
</trkpt>
<trkpt lat="47.603729" lon="8.185683">
<ele>312.6</ele>
<time>2003-05-23T08:07:44Z</time>
<speed>0.0</speed>
</trkpt>
<trkpt lat="47.603709" lon="8.185707">
<ele>312.0</ele>
<time>2003-05-23T08:07:49Z</time>
<speed>0.0</speed>
</trkpt>
<trkpt lat="47.603708" lon="8.185705">
<ele>313.4</ele>
<time>2003-05-23T08:07:54Z</time>
<speed>0.0</speed>
</trkpt>
<trkpt lat="47.603682" lon="8.185730">
<ele>312.0</ele>
<time>2003-05-23T08:07:59Z</time>
<speed>0.0</speed>
</trkpt>
<trkpt lat="47.603709" lon="8.185707">
<ele>312.0</ele>
<time>2003-05-23T08:08:04Z</time>
<speed>0.0</speed>
</trkpt>
<trkpt lat="47.603736" lon="8.185669">
<ele>313.2</ele>
<time>2003-05-23T08:08:09Z</time>
<speed>0.0</speed>
</trkpt>
<trkpt lat="47.603750" lon="8.185658">
<ele>313.2</ele>
<time>2003-05-23T08:08:14Z</time>
<speed>0.0</speed>
</trkpt>
<trkpt lat="47.603763" lon="8.185660">
<ele>313.3</ele>
<time>2003-05-23T08:08:19Z</time>
<speed>0.0</speed>
</trkpt>
<trkpt lat="47.603764" lon="8.185634">
<ele>313.1</ele>
<time>2003-05-23T08:08:24Z</time>
<speed>0.6</speed>
</trkpt>
<trkpt lat="47.603756" lon="8.185660">
<ele>312.5</ele>
<time>2003-05-23T08:08:29Z</time>
<speed>0.6</speed>
</trkpt>
<trkpt lat="47.603757" lon="8.185662">
<ele>311.1</ele>
<time>2003-05-23T08:08:34Z</time>
<speed>0.0</speed>
</trkpt>
<trkpt lat="47.603765" lon="8.185651">
<ele>310.4</ele>
<time>2003-05-23T08:08:39Z</time>
<speed>0.0</speed>
</trkpt>
<trkpt lat="47.603777" lon="8.185653">
<ele>310.4</ele>
<time>2003-05-23T08:08:44Z</time>
<speed>0.0</speed>
</trkpt>
<trkpt lat="47.603785" lon="8.185641">
<ele>309.7</ele>
<time>2003-05-23T08:08:49Z</time>
<speed>0.0</speed>
</trkpt>
<trkpt lat="47.603785" lon="8.185641">
<ele>309.7</ele>
<time>2003-05-23T08:08:54Z</time>
<speed>0.0</speed>
</trkpt>
<trkpt lat="47.603797" lon="8.185643">
<ele>309.8</ele>
<time>2003-05-23T08:08:59Z</time>
<speed>0.0</speed>
</trkpt>
<trkpt lat="47.603803" lon="8.185658">
<ele>309.2</ele>
<time>2003-05-23T08:09:04Z</time>
<speed>0.3</speed>
</trkpt>
<trkpt lat="47.603827" lon="8.185675">
<ele>309.4</ele>
<time>2003-05-23T08:09:09Z</time>
<speed>0.3</speed>
</trkpt>
<trkpt lat="47.603841" lon="8.185664">
<ele>309.4</ele>
<time>2003-05-23T08:09:14Z</time>
<speed>0.0</speed>
</trkpt>
<trkpt lat="47.603842" lon="8.185651">
<ele>309.3</ele>
<time>2003-05-23T08:09:19Z</time>
<speed>0.0</speed>
</trkpt>
<trkpt lat="47.603823" lon="8.185649">
<ele>308.5</ele>
<time>2003-05-23T08:09:24Z</time>
<speed>0.0</speed>
</trkpt>
<trkpt lat="47.603817" lon="8.185647">
<ele>309.2</ele>
<time>2003-05-23T08:09:29Z</time>
<speed>0.0</speed>
</trkpt>
<trkpt lat="47.603816" lon="8.185645">
<ele>310.6</ele>
<time>2003-05-23T08:09:34Z</time>
<speed>0.0</speed>
</trkpt>
<trkpt lat="47.603797" lon="8.185641">
<ele>311.2</ele>
<time>2003-05-23T08:09:39Z</time>
<speed>0.0</speed>
</trkpt>
<trkpt lat="47.603790" lon="8.185655">
<ele>310.5</ele>
<time>2003-05-23T08:09:44Z</time>
<speed>0.0</speed>
</trkpt>
<trkpt lat="47.603778" lon="8.185638">
<ele>311.8</ele>
<time>2003-05-23T08:09:49Z</time>
<speed>0.0</speed>
</trkpt>
<trkpt lat="47.603771" lon="8.185636">
<ele>312.4</ele>
<time>2003-05-23T08:09:54Z</time>
<speed>0.0</speed>
</trkpt>
<trkpt lat="47.603771" lon="8.185634">
<ele>313.8</ele>
<time>2003-05-23T08:09:59Z</time>
<speed>0.0</speed>
</trkpt>
<trkpt lat="47.603770" lon="8.185647">
<ele>313.9</ele>
<time>2003-05-23T08:10:04Z</time>
<speed>0.0</speed>
</trkpt>
<trkpt lat="47.603777" lon="8.185634">
<ele>314.6</ele>
<time>2003-05-23T08:10:09Z</time>
<speed>0.0</speed>
</trkpt>
<trkpt lat="47.603776" lon="8.185647">
<ele>314.7</ele>
<time>2003-05-23T08:10:14Z</time>
<speed>0.0</speed>
</trkpt>
<trkpt lat="47.603776" lon="8.185647">
<ele>314.7</ele>
<time>2003-05-23T08:10:19Z</time>
<speed>0.0</speed>
</trkpt>
<trkpt lat="47.603768" lon="8.185658">
<ele>315.4</ele>
<time>2003-05-23T08:10:24Z</time>
<speed>0.0</speed>
</trkpt>
<trkpt lat="47.603769" lon="8.185645">
<ele>315.3</ele>
<time>2003-05-23T08:10:29Z</time>
<speed>0.0</speed>
</trkpt>
<trkpt lat="47.603769" lon="8.185645">
<ele>315.3</ele>
<time>2003-05-23T08:10:34Z</time>
<speed>0.0</speed>
</trkpt>
<trkpt lat="47.603769" lon="8.185645">
<ele>315.3</ele>
<time>2003-05-23T08:10:39Z</time>
<speed>0.0</speed>
</trkpt>
<trkpt lat="47.603769" lon="8.185645">
<ele>315.3</ele>
<time>2003-05-23T08:10:44Z</time>
<speed>0.0</speed>
</trkpt>
<trkpt lat="47.603776" lon="8.185647">
<ele>314.7</ele>
<time>2003-05-23T08:10:49Z</time>
<speed>0.0</speed>
</trkpt>
<trkpt lat="47.603783" lon="8.185634">
<ele>315.3</ele>
<time>2003-05-23T08:10:54Z</time>
<speed>0.0</speed>
</trkpt>
<trkpt lat="47.603789" lon="8.185636">
<ele>314.6</ele>
<time>2003-05-23T08:10:59Z</time>
<speed>0.0</speed>
</trkpt>
<trkpt lat="47.603796" lon="8.185623">
<ele>315.3</ele>
<time>2003-05-23T08:11:04Z</time>
<speed>0.0</speed>
</trkpt>
<trkpt lat="47.603790" lon="8.185623">
<ele>314.5</ele>
<time>2003-05-23T08:11:09Z</time>
<speed>0.0</speed>
</trkpt>
<trkpt lat="47.603797" lon="8.185609">
<ele>315.2</ele>
<time>2003-05-23T08:11:14Z</time>
<speed>0.0</speed>
</trkpt>
<trkpt lat="47.603797" lon="8.185609">
<ele>315.2</ele>
<time>2003-05-23T08:11:19Z</time>
<speed>0.0</speed>
</trkpt>
<trkpt lat="47.603791" lon="8.185607">
<ele>315.9</ele>
<time>2003-05-23T08:11:24Z</time>
<speed>0.0</speed>
</trkpt>
<trkpt lat="47.603791" lon="8.185607">
<ele>315.9</ele>
<time>2003-05-23T08:11:29Z</time>
<speed>0.0</speed>
</trkpt>
<trkpt lat="47.603784" lon="8.185606">
<ele>316.5</ele>
<time>2003-05-23T08:11:34Z</time>
<speed>0.0</speed>
</trkpt>
<trkpt lat="47.603778" lon="8.185606">
<ele>315.8</ele>
<time>2003-05-23T08:11:40Z</time>
<speed>0.0</speed>
</trkpt>
<trkpt lat="47.603771" lon="8.185619">
<ele>315.1</ele>
<time>2003-05-23T08:11:45Z</time>
<speed>0.0</speed>
</trkpt>
<trkpt lat="47.603795" lon="8.185636">
<ele>315.4</ele>
<time>2003-05-23T08:11:50Z</time>
<speed>0.0</speed>
</trkpt>
<trkpt lat="47.603808" lon="8.185638">
<ele>315.4</ele>
<time>2003-05-23T08:11:55Z</time>
<speed>0.0</speed>
</trkpt>
<trkpt lat="47.603845" lon="8.185656">
<ele>315.8</ele>
<time>2003-05-23T08:12:00Z</time>
<speed>0.0</speed>
</trkpt>
<trkpt lat="47.603875" lon="8.185673">
<ele>316.7</ele>
<time>2003-05-23T08:12:05Z</time>
<speed>0.0</speed>
</trkpt>
<trkpt lat="47.603881" lon="8.185673">
<ele>317.5</ele>
<time>2003-05-23T08:12:10Z</time>
<speed>0.0</speed>
</trkpt>
<trkpt lat="47.603874" lon="8.185687">
<ele>316.8</ele>
<time>2003-05-23T08:12:15Z</time>
<speed>0.0</speed>
</trkpt>
<trkpt lat="47.603875" lon="8.185673">
<ele>316.7</ele>
<time>2003-05-23T08:12:20Z</time>
<speed>0.0</speed>
</trkpt>
<trkpt lat="47.603857" lon="8.185671">
<ele>315.9</ele>
<time>2003-05-23T08:12:25Z</time>
<speed>0.0</speed>
</trkpt>
<trkpt lat="47.603857" lon="8.185671">
<ele>315.9</ele>
<time>2003-05-23T08:12:30Z</time>
<speed>0.0</speed>
</trkpt>
<trkpt lat="47.603850" lon="8.185685">
<ele>315.3</ele>
<time>2003-05-23T08:12:35Z</time>
<speed>0.0</speed>
</trkpt>
<trkpt lat="47.603844" lon="8.185671">
<ele>314.4</ele>
<time>2003-05-23T08:12:40Z</time>
<speed>0.0</speed>
</trkpt>
<trkpt lat="47.603851" lon="8.185658">
<ele>315.1</ele>
<time>2003-05-23T08:12:45Z</time>
<speed>0.0</speed>
</trkpt>
<trkpt lat="47.603864" lon="8.185660">
<ele>315.2</ele>
<time>2003-05-23T08:12:50Z</time>
<speed>0.0</speed>
</trkpt>
<trkpt lat="47.603863" lon="8.185673">
<ele>315.3</ele>
<time>2003-05-23T08:12:55Z</time>
<speed>0.0</speed>
</trkpt>
<trkpt lat="47.603863" lon="8.185673">
<ele>315.3</ele>
<time>2003-05-23T08:13:00Z</time>
<speed>0.0</speed>
</trkpt>
<trkpt lat="47.603858" lon="8.185658">
<ele>315.8</ele>
<time>2003-05-23T08:13:05Z</time>
<speed>0.0</speed>
</trkpt>
<trkpt lat="47.603845" lon="8.185658">
<ele>314.4</ele>
<time>2003-05-23T08:13:10Z</time>
<speed>0.0</speed>
</trkpt>
<trkpt lat="47.603846" lon="8.185645">
<ele>314.3</ele>
<time>2003-05-23T08:13:15Z</time>
<speed>0.0</speed>
</trkpt>
<trkpt lat="47.603859" lon="8.185647">
<ele>314.3</ele>
<time>2003-05-23T08:13:20Z</time>
<speed>0.0</speed>
</trkpt>
<trkpt lat="47.603872" lon="8.185649">
<ele>314.4</ele>
<time>2003-05-23T08:13:25Z</time>
<speed>0.0</speed>
</trkpt>
<trkpt lat="47.603872" lon="8.185649">
<ele>314.4</ele>
<time>2003-05-23T08:13:30Z</time>
<speed>0.0</speed>
</trkpt>
<trkpt lat="47.603866" lon="8.185649">
<ele>313.7</ele>
<time>2003-05-23T08:13:35Z</time>
<speed>0.0</speed>
</trkpt>
<trkpt lat="47.603858" lon="8.185675">
<ele>313.1</ele>
<time>2003-05-23T08:13:40Z</time>
<speed>0.3</speed>
</trkpt>
<trkpt lat="47.603851" lon="8.185690">
<ele>311.1</ele>
<time>2003-05-23T08:13:45Z</time>
<speed>0.0</speed>
</trkpt>
<trkpt lat="47.603851" lon="8.185690">
<ele>311.1</ele>
<time>2003-05-23T08:13:50Z</time>
<speed>0.0</speed>
</trkpt>
<trkpt lat="47.603859" lon="8.185679">
<ele>310.3</ele>
<time>2003-05-23T08:13:55Z</time>
<speed>0.0</speed>
</trkpt>
<trkpt lat="47.603853" lon="8.185679">
<ele>309.6</ele>
<time>2003-05-23T08:14:00Z</time>
<speed>0.0</speed>
</trkpt>
<trkpt lat="47.603866" lon="8.185683">
<ele>308.2</ele>
<time>2003-05-23T08:14:05Z</time>
<speed>0.0</speed>
</trkpt>
<trkpt lat="47.603878" lon="8.185685">
<ele>308.3</ele>
<time>2003-05-23T08:14:10Z</time>
<speed>0.0</speed>
</trkpt>
<trkpt lat="47.603866" lon="8.185683">
<ele>308.2</ele>
<time>2003-05-23T08:14:15Z</time>
<speed>0.0</speed>
</trkpt>
<trkpt lat="47.603860" lon="8.185683">
<ele>307.5</ele>
<time>2003-05-23T08:14:20Z</time>
<speed>0.0</speed>
</trkpt>
<trkpt lat="47.603872" lon="8.185685">
<ele>307.6</ele>
<time>2003-05-23T08:14:25Z</time>
<speed>0.0</speed>
</trkpt>
<trkpt lat="47.603904" lon="8.185689">
<ele>308.4</ele>
<time>2003-05-23T08:14:30Z</time>
<speed>0.6</speed>
</trkpt>
<trkpt lat="47.603935" lon="8.185694">
<ele>307.9</ele>
<time>2003-05-23T08:14:35Z</time>
<speed>0.3</speed>
</trkpt>
<trkpt lat="47.603953" lon="8.185724">
<ele>307.5</ele>
<time>2003-05-23T08:14:40Z</time>
<speed>0.6</speed>
</trkpt>
<trkpt lat="47.603977" lon="8.185741">
<ele>307.8</ele>
<time>2003-05-23T08:14:45Z</time>
<speed>0.6</speed>
</trkpt>
<trkpt lat="47.604019" lon="8.185788">
<ele>307.6</ele>
<time>2003-05-23T08:14:50Z</time>
<speed>1.1</speed>
</trkpt>
<trkpt lat="47.604059" lon="8.185849">
<ele>307.5</ele>
<time>2003-05-23T08:14:55Z</time>
<speed>0.8</speed>
</trkpt>
<trkpt lat="47.604076" lon="8.185892">
<ele>307.2</ele>
<time>2003-05-23T08:15:00Z</time>
<speed>0.6</speed>
</trkpt>
<trkpt lat="47.604117" lon="8.185952">
<ele>307.1</ele>
<time>2003-05-23T08:15:05Z</time>
<speed>0.8</speed>
</trkpt>
<trkpt lat="47.604152" lon="8.185997">
<ele>307.6</ele>
<time>2003-05-23T08:15:10Z</time>
<speed>0.8</speed>
</trkpt>
<trkpt lat="47.604166" lon="8.186067">
<ele>307.5</ele>
<time>2003-05-23T08:15:15Z</time>
<speed>0.8</speed>
</trkpt>
<trkpt lat="47.604200" lon="8.186125">
<ele>308.1</ele>
<time>2003-05-23T08:15:20Z</time>
<speed>1.1</speed>
</trkpt>
<trkpt lat="47.604253" lon="8.186200">
<ele>308.2</ele>
<time>2003-05-23T08:15:25Z</time>
<speed>1.1</speed>
</trkpt>
<trkpt lat="47.604287" lon="8.186259">
<ele>308.8</ele>
<time>2003-05-23T08:15:30Z</time>
<speed>1.1</speed>
</trkpt>
<trkpt lat="47.604315" lon="8.186317">
<ele>308.7</ele>
<time>2003-05-23T08:15:35Z</time>
<speed>1.1</speed>
</trkpt>
<trkpt lat="47.604336" lon="8.186389">
<ele>307.9</ele>
<time>2003-05-23T08:15:40Z</time>
<speed>1.1</speed>
</trkpt>
<trkpt lat="47.604377" lon="8.186449">
<ele>307.8</ele>
<time>2003-05-23T08:15:45Z</time>
<speed>1.1</speed>
</trkpt>
<trkpt lat="47.604423" lon="8.186509">
<ele>308.5</ele>
<time>2003-05-23T08:15:50Z</time>
<speed>1.1</speed>
</trkpt>
<trkpt lat="47.604457" lon="8.186581">
<ele>309.2</ele>
<time>2003-05-23T08:15:55Z</time>
<speed>1.1</speed>
</trkpt>
<trkpt lat="47.604485" lon="8.186639">
<ele>309.0</ele>
<time>2003-05-23T08:16:00Z</time>
<speed>0.8</speed>
</trkpt>
<trkpt lat="47.604513" lon="8.186699">
<ele>307.5</ele>
<time>2003-05-23T08:16:05Z</time>
<speed>0.8</speed>
</trkpt>
<trkpt lat="47.604547" lon="8.186757">
<ele>308.1</ele>
<time>2003-05-23T08:16:10Z</time>
<speed>1.1</speed>
</trkpt>
<trkpt lat="47.604588" lon="8.186818">
<ele>308.0</ele>
<time>2003-05-23T08:16:15Z</time>
<speed>1.1</speed>
</trkpt>
<trkpt lat="47.604647" lon="8.186895">
<ele>307.5</ele>
<time>2003-05-23T08:16:21Z</time>
<speed>1.1</speed>
</trkpt>
<trkpt lat="47.604693" lon="8.186968">
<ele>308.2</ele>
<time>2003-05-23T08:16:26Z</time>
<speed>1.4</speed>
</trkpt>
<trkpt lat="47.604741" lon="8.187017">
<ele>307.4</ele>
<time>2003-05-23T08:16:31Z</time>
<speed>1.1</speed>
</trkpt>
<trkpt lat="47.604794" lon="8.187079">
<ele>307.4</ele>
<time>2003-05-23T08:16:36Z</time>
<speed>1.4</speed>
</trkpt>
<trkpt lat="47.604849" lon="8.187128">
<ele>307.3</ele>
<time>2003-05-23T08:16:41Z</time>
<speed>1.4</speed>
</trkpt>
<trkpt lat="47.604895" lon="8.187188">
<ele>308.0</ele>
<time>2003-05-23T08:16:46Z</time>
<speed>1.1</speed>
</trkpt>
<trkpt lat="47.604942" lon="8.187249">
<ele>308.6</ele>
<time>2003-05-23T08:16:51Z</time>
<speed>1.1</speed>
</trkpt>
<trkpt lat="47.604990" lon="8.187311">
<ele>307.9</ele>
<time>2003-05-23T08:16:56Z</time>
<speed>1.1</speed>
</trkpt>
<trkpt lat="47.605037" lon="8.187358">
<ele>308.5</ele>
<time>2003-05-23T08:17:01Z</time>
<speed>1.1</speed>
</trkpt>
<trkpt lat="47.605079" lon="8.187405">
<ele>308.3</ele>
<time>2003-05-23T08:17:06Z</time>
<speed>1.1</speed>
</trkpt>
<trkpt lat="47.605120" lon="8.187465">
<ele>308.2</ele>
<time>2003-05-23T08:17:11Z</time>
<speed>1.1</speed>
</trkpt>
<trkpt lat="47.605168" lon="8.187514">
<ele>307.4</ele>
<time>2003-05-23T08:17:16Z</time>
<speed>1.1</speed>
</trkpt>
<trkpt lat="47.605202" lon="8.187572">
<ele>308.0</ele>
<time>2003-05-23T08:17:21Z</time>
<speed>1.1</speed>
</trkpt>
<trkpt lat="47.605255" lon="8.187635">
<ele>308.0</ele>
<time>2003-05-23T08:17:26Z</time>
<speed>1.4</speed>
</trkpt>
<trkpt lat="47.605303" lon="8.187682">
<ele>308.6</ele>
<time>2003-05-23T08:17:31Z</time>
<speed>1.1</speed>
</trkpt>
<trkpt lat="47.605356" lon="8.187744">
<ele>308.6</ele>
<time>2003-05-23T08:17:36Z</time>
<speed>1.4</speed>
</trkpt>
<trkpt lat="47.605409" lon="8.187804">
<ele>310.0</ele>
<time>2003-05-23T08:17:41Z</time>
<speed>1.1</speed>
</trkpt>
<trkpt lat="47.605443" lon="8.187877">
<ele>309.3</ele>
<time>2003-05-23T08:17:46Z</time>
<speed>1.1</speed>
</trkpt>
<trkpt lat="47.605503" lon="8.187926">
<ele>309.9</ele>
<time>2003-05-23T08:17:51Z</time>
<speed>1.4</speed>
</trkpt>
<trkpt lat="47.605558" lon="8.187962">
<ele>309.7</ele>
<time>2003-05-23T08:17:56Z</time>
<speed>1.1</speed>
</trkpt>
<trkpt lat="47.605613" lon="8.188011">
<ele>309.6</ele>
<time>2003-05-23T08:18:01Z</time>
<speed>1.1</speed>
</trkpt>
<trkpt lat="47.605668" lon="8.188047">
<ele>309.4</ele>
<time>2003-05-23T08:18:06Z</time>
<speed>1.1</speed>
</trkpt>
<trkpt lat="47.605716" lon="8.188096">
<ele>308.6</ele>
<time>2003-05-23T08:18:11Z</time>
<speed>1.1</speed>
</trkpt>
<trkpt lat="47.605777" lon="8.188145">
<ele>309.2</ele>
<time>2003-05-23T08:18:16Z</time>
<speed>1.1</speed>
</trkpt>
<trkpt lat="47.605818" lon="8.188192">
<ele>309.1</ele>
<time>2003-05-23T08:18:21Z</time>
<speed>1.1</speed>
</trkpt>
<trkpt lat="47.605866" lon="8.188239">
<ele>309.6</ele>
<time>2003-05-23T08:18:26Z</time>
<speed>1.1</speed>
</trkpt>
<trkpt lat="47.605913" lon="8.188301">
<ele>308.9</ele>
<time>2003-05-23T08:18:31Z</time>
<speed>1.4</speed>
</trkpt>
<trkpt lat="47.605946" lon="8.188373">
<ele>309.6</ele>
<time>2003-05-23T08:18:36Z</time>
<speed>1.1</speed>
</trkpt>
<trkpt lat="47.605973" lon="8.188457">
<ele>309.7</ele>
<time>2003-05-23T08:18:41Z</time>
<speed>1.1</speed>
</trkpt>
<trkpt lat="47.606020" lon="8.188519">
<ele>308.9</ele>
<time>2003-05-23T08:18:46Z</time>
<speed>1.4</speed>
</trkpt>
<trkpt lat="47.606062" lon="8.188566">
<ele>308.8</ele>
<time>2003-05-23T08:18:51Z</time>
<speed>1.1</speed>
</trkpt>
<trkpt lat="47.606124" lon="8.188589">
<ele>309.2</ele>
<time>2003-05-23T08:18:56Z</time>
<speed>1.1</speed>
</trkpt>
<trkpt lat="47.606181" lon="8.188599">
<ele>308.8</ele>
<time>2003-05-23T08:19:01Z</time>
<speed>1.1</speed>
</trkpt>
<trkpt lat="47.606231" lon="8.188606">
<ele>309.1</ele>
<time>2003-05-23T08:19:06Z</time>
<speed>0.8</speed>
</trkpt>
<trkpt lat="47.606276" lon="8.188614">
<ele>308.7</ele>
<time>2003-05-23T08:19:11Z</time>
<speed>0.6</speed>
</trkpt>
<trkpt lat="47.606331" lon="8.188648">
<ele>309.9</ele>
<time>2003-05-23T08:19:16Z</time>
<speed>0.8</speed>
</trkpt>
<trkpt lat="47.606373" lon="8.188681">
<ele>309.6</ele>
<time>2003-05-23T08:19:21Z</time>
<speed>0.6</speed>
</trkpt>
<trkpt lat="47.606420" lon="8.188742">
<ele>310.3</ele>
<time>2003-05-23T08:19:26Z</time>
<speed>0.8</speed>
</trkpt>
<trkpt lat="47.606487" lon="8.188793">
<ele>310.3</ele>
<time>2003-05-23T08:19:31Z</time>
<speed>0.8</speed>
</trkpt>
<trkpt lat="47.606541" lon="8.188842">
<ele>310.2</ele>
<time>2003-05-23T08:19:36Z</time>
<speed>1.1</speed>
</trkpt>
<trkpt lat="47.606590" lon="8.188875">
<ele>310.6</ele>
<time>2003-05-23T08:19:41Z</time>
<speed>1.1</speed>
</trkpt>
<trkpt lat="47.606644" lon="8.188924">
<ele>310.5</ele>
<time>2003-05-23T08:19:46Z</time>
<speed>1.1</speed>
</trkpt>
<trkpt lat="47.606705" lon="8.188973">
<ele>311.2</ele>
<time>2003-05-23T08:19:51Z</time>
<speed>1.1</speed>
</trkpt>
<trkpt lat="47.606758" lon="8.189035">
<ele>311.2</ele>
<time>2003-05-23T08:19:56Z</time>
<speed>1.1</speed>
</trkpt>
<trkpt lat="47.606807" lon="8.189069">
<ele>311.7</ele>
<time>2003-05-23T08:20:01Z</time>
<speed>0.8</speed>
</trkpt>
<trkpt lat="47.606863" lon="8.189092">
<ele>311.4</ele>
<time>2003-05-23T08:20:06Z</time>
<speed>1.1</speed>
</trkpt>
<trkpt lat="47.606917" lon="8.189139">
<ele>312.7</ele>
<time>2003-05-23T08:20:11Z</time>
<speed>1.4</speed>
</trkpt>
<trkpt lat="47.606978" lon="8.189177">
<ele>311.8</ele>
<time>2003-05-23T08:20:16Z</time>
<speed>1.1</speed>
</trkpt>
<trkpt lat="47.607033" lon="8.189226">
<ele>311.7</ele>
<time>2003-05-23T08:20:21Z</time>
<speed>0.8</speed>
</trkpt>
<trkpt lat="47.607074" lon="8.189273">
<ele>311.6</ele>
<time>2003-05-23T08:20:26Z</time>
<speed>1.1</speed>
</trkpt>
<trkpt lat="47.607141" lon="8.189324">
<ele>311.5</ele>
<time>2003-05-23T08:20:31Z</time>
<speed>1.1</speed>
</trkpt>
<trkpt lat="47.607189" lon="8.189373">
<ele>310.7</ele>
<time>2003-05-23T08:20:36Z</time>
<speed>1.1</speed>
</trkpt>
<trkpt lat="47.607245" lon="8.189408">
<ele>310.5</ele>
<time>2003-05-23T08:20:41Z</time>
<speed>1.1</speed>
</trkpt>
<trkpt lat="47.607300" lon="8.189444">
<ele>310.3</ele>
<time>2003-05-23T08:20:46Z</time>
<speed>0.8</speed>
</trkpt>
<trkpt lat="47.607361" lon="8.189495">
<ele>309.6</ele>
<time>2003-05-23T08:20:51Z</time>
<speed>1.1</speed>
</trkpt>
<trkpt lat="47.607402" lon="8.189542">
<ele>309.4</ele>
<time>2003-05-23T08:20:56Z</time>
<speed>0.8</speed>
</trkpt>
<trkpt lat="47.607465" lon="8.189565">
<ele>309.9</ele>
<time>2003-05-23T08:21:01Z</time>
<speed>1.1</speed>
</trkpt>
<trkpt lat="47.607506" lon="8.189612">
<ele>309.7</ele>
<time>2003-05-23T08:21:06Z</time>
<speed>1.1</speed>
</trkpt>
<trkpt lat="47.607554" lon="8.189659">
<ele>310.3</ele>
<time>2003-05-23T08:21:11Z</time>
<speed>1.1</speed>
</trkpt>
<trkpt lat="47.607603" lon="8.189693">
<ele>310.7</ele>
<time>2003-05-23T08:21:16Z</time>
<speed>1.1</speed>
</trkpt>
<trkpt lat="47.607649" lon="8.189753">
<ele>311.4</ele>
<time>2003-05-23T08:21:21Z</time>
<speed>0.8</speed>
</trkpt>
<trkpt lat="47.607698" lon="8.189787">
<ele>311.9</ele>
<time>2003-05-23T08:21:26Z</time>
<speed>0.8</speed>
</trkpt>
<trkpt lat="47.607759" lon="8.189823">
<ele>312.4</ele>
<time>2003-05-23T08:21:31Z</time>
<speed>1.1</speed>
</trkpt>
<trkpt lat="47.607807" lon="8.189870">
<ele>313.0</ele>
<time>2003-05-23T08:21:36Z</time>
<speed>1.1</speed>
</trkpt>
<trkpt lat="47.607855" lon="8.189919">
<ele>312.2</ele>
<time>2003-05-23T08:21:41Z</time>
<speed>1.1</speed>
</trkpt>
<trkpt lat="47.607904" lon="8.189953">
<ele>312.7</ele>
<time>2003-05-23T08:21:46Z</time>
<speed>1.1</speed>
</trkpt>
<trkpt lat="47.607952" lon="8.190000">
<ele>313.2</ele>
<time>2003-05-23T08:21:51Z</time>
<speed>1.1</speed>
</trkpt>
<trkpt lat="47.608008" lon="8.190022">
<ele>312.9</ele>
<time>2003-05-23T08:21:56Z</time>
<speed>0.8</speed>
</trkpt>
<trkpt lat="47.608062" lon="8.190071">
<ele>312.8</ele>
<time>2003-05-23T08:22:01Z</time>
<speed>0.8</speed>
</trkpt>
<trkpt lat="47.608097" lon="8.190117">
<ele>313.3</ele>
<time>2003-05-23T08:22:06Z</time>
<speed>0.8</speed>
</trkpt>
<trkpt lat="47.608172" lon="8.190156">
<ele>312.6</ele>
<time>2003-05-23T08:22:11Z</time>
<speed>1.4</speed>
</trkpt>
<trkpt lat="47.608227" lon="8.190192">
<ele>312.4</ele>
<time>2003-05-23T08:22:16Z</time>
<speed>0.8</speed>
</trkpt>
<trkpt lat="47.608276" lon="8.190226">
<ele>312.8</ele>
<time>2003-05-23T08:22:21Z</time>
<speed>1.1</speed>
</trkpt>
<trkpt lat="47.608311" lon="8.190271">
<ele>313.3</ele>
<time>2003-05-23T08:22:26Z</time>
<speed>0.6</speed>
</trkpt>
<trkpt lat="47.608366" lon="8.190307">
<ele>313.2</ele>
<time>2003-05-23T08:22:31Z</time>
<speed>1.1</speed>
</trkpt>
<trkpt lat="47.608415" lon="8.190341">
<ele>313.6</ele>
<time>2003-05-23T08:22:36Z</time>
<speed>0.8</speed>
</trkpt>
<trkpt lat="47.608476" lon="8.190377">
<ele>314.2</ele>
<time>2003-05-23T08:22:41Z</time>
<speed>1.1</speed>
</trkpt>
<trkpt lat="47.608518" lon="8.190424">
<ele>314.0</ele>
<time>2003-05-23T08:22:46Z</time>
<speed>0.8</speed>
</trkpt>
<trkpt lat="47.608554" lon="8.190442">
<ele>314.3</ele>
<time>2003-05-23T08:22:51Z</time>
<speed>0.6</speed>
</trkpt>
<trkpt lat="47.608597" lon="8.190476">
<ele>314.1</ele>
<time>2003-05-23T08:22:56Z</time>
<speed>0.6</speed>
</trkpt>
<trkpt lat="47.608633" lon="8.190508">
<ele>314.5</ele>
<time>2003-05-23T08:23:01Z</time>
<speed>0.3</speed>
</trkpt>
<trkpt lat="47.608681" lon="8.190557">
<ele>313.6</ele>
<time>2003-05-23T08:23:06Z</time>
<speed>0.6</speed>
</trkpt>
<trkpt lat="47.608730" lon="8.190591">
<ele>314.1</ele>
<time>2003-05-23T08:23:11Z</time>
<speed>0.6</speed>
</trkpt>
<trkpt lat="47.608773" lon="8.190625">
<ele>313.9</ele>
<time>2003-05-23T08:23:16Z</time>
<speed>0.8</speed>
</trkpt>
<trkpt lat="47.608842" lon="8.190636">
<ele>313.5</ele>
<time>2003-05-23T08:23:21Z</time>
<speed>0.6</speed>
</trkpt>
<trkpt lat="47.608905" lon="8.190659">
<ele>314.0</ele>
<time>2003-05-23T08:23:26Z</time>
<speed>0.8</speed>
</trkpt>
<trkpt lat="47.608966" lon="8.190695">
<ele>314.5</ele>
<time>2003-05-23T08:23:31Z</time>
<speed>0.8</speed>
</trkpt>
<trkpt lat="47.609002" lon="8.190729">
<ele>313.5</ele>
<time>2003-05-23T08:23:36Z</time>
<speed>0.8</speed>
</trkpt>
<trkpt lat="47.609064" lon="8.190765">
<ele>314.1</ele>
<time>2003-05-23T08:23:41Z</time>
<speed>0.8</speed>
</trkpt>
<trkpt lat="47.609127" lon="8.190774">
<ele>314.4</ele>
<time>2003-05-23T08:23:46Z</time>
<speed>0.6</speed>
</trkpt>
<trkpt lat="47.609177" lon="8.190795">
<ele>314.8</ele>
<time>2003-05-23T08:23:51Z</time>
<speed>0.8</speed>
</trkpt>
<trkpt lat="47.609225" lon="8.190829">
<ele>315.3</ele>
<time>2003-05-23T08:23:56Z</time>
<speed>0.8</speed>
</trkpt>
<trkpt lat="47.609288" lon="8.190853">
<ele>314.4</ele>
<time>2003-05-23T08:24:01Z</time>
<speed>0.8</speed>
</trkpt>
<trkpt lat="47.609357" lon="8.190880">
<ele>312.7</ele>
<time>2003-05-23T08:24:06Z</time>
<speed>1.1</speed>
</trkpt>
<trkpt lat="47.609419" lon="8.190916">
<ele>313.3</ele>
<time>2003-05-23T08:24:11Z</time>
<speed>0.8</speed>
</trkpt>
<trkpt lat="47.609469" lon="8.190938">
<ele>312.3</ele>
<time>2003-05-23T08:24:16Z</time>
<speed>0.8</speed>
</trkpt>
<trkpt lat="47.609532" lon="8.190948">
<ele>312.6</ele>
<time>2003-05-23T08:24:21Z</time>
<speed>0.8</speed>
</trkpt>
<trkpt lat="47.609594" lon="8.190985">
<ele>311.8</ele>
<time>2003-05-23T08:24:26Z</time>
<speed>0.8</speed>
</trkpt>
<trkpt lat="47.609630" lon="8.191017">
<ele>312.2</ele>
<time>2003-05-23T08:24:31Z</time>
<speed>0.8</speed>
</trkpt>
<trkpt lat="47.609686" lon="8.191040">
<ele>311.9</ele>
<time>2003-05-23T08:24:36Z</time>
<speed>1.1</speed>
</trkpt>
<trkpt lat="47.609735" lon="8.191074">
<ele>312.4</ele>
<time>2003-05-23T08:24:41Z</time>
<speed>1.1</speed>
</trkpt>
<trkpt lat="47.609764" lon="8.191106">
<ele>312.0</ele>
<time>2003-05-23T08:24:46Z</time>
<speed>0.8</speed>
</trkpt>
<trkpt lat="47.609812" lon="8.191153">
<ele>312.6</ele>
<time>2003-05-23T08:24:51Z</time>
<speed>0.8</speed>
</trkpt>
<trkpt lat="47.609856" lon="8.191174">
<ele>312.2</ele>
<time>2003-05-23T08:24:56Z</time>
<speed>0.8</speed>
</trkpt>
<trkpt lat="47.609926" lon="8.191185">
<ele>311.9</ele>
<time>2003-05-23T08:25:01Z</time>
<speed>0.8</speed>
</trkpt>
<trkpt lat="47.609989" lon="8.191195">
<ele>312.3</ele>
<time>2003-05-23T08:25:06Z</time>
<speed>1.1</speed>
</trkpt>
<trkpt lat="47.610051" lon="8.191217">
<ele>312.7</ele>
<time>2003-05-23T08:25:11Z</time>
<speed>1.1</speed>
</trkpt>
<trkpt lat="47.610088" lon="8.191236">
<ele>313.0</ele>
<time>2003-05-23T08:25:16Z</time>
<speed>0.8</speed>
</trkpt>
<trkpt lat="47.610144" lon="8.191259">
<ele>312.8</ele>
<time>2003-05-23T08:25:21Z</time>
<speed>0.8</speed>
</trkpt>
<trkpt lat="47.610214" lon="8.191270">
<ele>312.4</ele>
<time>2003-05-23T08:25:26Z</time>
<speed>1.1</speed>
</trkpt>
<trkpt lat="47.610262" lon="8.191319">
<ele>311.6</ele>
<time>2003-05-23T08:25:31Z</time>
<speed>0.8</speed>
</trkpt>
<trkpt lat="47.610338" lon="8.191332">
<ele>310.6</ele>
<time>2003-05-23T08:25:36Z</time>
<speed>1.1</speed>
</trkpt>
<trkpt lat="47.610394" lon="8.191368">
<ele>310.4</ele>
<time>2003-05-23T08:25:41Z</time>
<speed>1.1</speed>
</trkpt>
<trkpt lat="47.610450" lon="8.191391">
<ele>310.2</ele>
<time>2003-05-23T08:25:46Z</time>
<speed>0.8</speed>
</trkpt>
<trkpt lat="47.610505" lon="8.191425">
<ele>311.4</ele>
<time>2003-05-23T08:25:51Z</time>
<speed>0.8</speed>
</trkpt>
<trkpt lat="47.610560" lon="8.191460">
<ele>311.2</ele>
<time>2003-05-23T08:25:56Z</time>
<speed>0.8</speed>
</trkpt>
<trkpt lat="47.610623" lon="8.191485">
<ele>310.2</ele>
<time>2003-05-23T08:26:01Z</time>
<speed>1.1</speed>
</trkpt>
<trkpt lat="47.610671" lon="8.191519">
<ele>310.7</ele>
<time>2003-05-23T08:26:06Z</time>
<speed>0.8</speed>
</trkpt>
<trkpt lat="47.610733" lon="8.191542">
<ele>311.2</ele>
<time>2003-05-23T08:26:11Z</time>
<speed>1.1</speed>
</trkpt>
<trkpt lat="47.610788" lon="8.191590">
<ele>311.1</ele>
<time>2003-05-23T08:26:17Z</time>
<speed>1.1</speed>
</trkpt>
<trkpt lat="47.610842" lon="8.191639">
<ele>311.0</ele>
<time>2003-05-23T08:26:22Z</time>
<speed>1.1</speed>
</trkpt>
<trkpt lat="47.610898" lon="8.191662">
<ele>310.7</ele>
<time>2003-05-23T08:26:27Z</time>
<speed>1.1</speed>
</trkpt>
<trkpt lat="47.610941" lon="8.191696">
<ele>310.4</ele>
<time>2003-05-23T08:26:32Z</time>
<speed>1.1</speed>
</trkpt>
<trkpt lat="47.610989" lon="8.191743">
<ele>311.0</ele>
<time>2003-05-23T08:26:37Z</time>
<speed>1.1</speed>
</trkpt>
<trkpt lat="47.611037" lon="8.191792">
<ele>310.2</ele>
<time>2003-05-23T08:26:42Z</time>
<speed>1.1</speed>
</trkpt>
<trkpt lat="47.611099" lon="8.191815">
<ele>310.6</ele>
<time>2003-05-23T08:26:47Z</time>
<speed>1.4</speed>
</trkpt>
<trkpt lat="47.611154" lon="8.191850">
<ele>310.4</ele>
<time>2003-05-23T08:26:52Z</time>
<speed>0.8</speed>
</trkpt>
<trkpt lat="47.611222" lon="8.191888">
<ele>310.3</ele>
<time>2003-05-23T08:26:57Z</time>
<speed>1.4</speed>
</trkpt>
<trkpt lat="47.611276" lon="8.191937">
<ele>310.2</ele>
<time>2003-05-23T08:27:02Z</time>
<speed>1.1</speed>
</trkpt>
<trkpt lat="47.611331" lon="8.191986">
<ele>310.1</ele>
<time>2003-05-23T08:27:07Z</time>
<speed>1.1</speed>
</trkpt>
<trkpt lat="47.611379" lon="8.192035">
<ele>309.3</ele>
<time>2003-05-23T08:27:12Z</time>
<speed>1.1</speed>
</trkpt>
<trkpt lat="47.611435" lon="8.192058">
<ele>309.0</ele>
<time>2003-05-23T08:27:17Z</time>
<speed>1.1</speed>
</trkpt>
<trkpt lat="47.611489" lon="8.192107">
<ele>308.9</ele>
<time>2003-05-23T08:27:22Z</time>
<speed>1.1</speed>
</trkpt>
<trkpt lat="47.611523" lon="8.192165">
<ele>309.5</ele>
<time>2003-05-23T08:27:27Z</time>
<speed>1.1</speed>
</trkpt>
<trkpt lat="47.611545" lon="8.192221">
<ele>310.0</ele>
<time>2003-05-23T08:27:32Z</time>
<speed>1.1</speed>
</trkpt>
<trkpt lat="47.611605" lon="8.192270">
<ele>310.7</ele>
<time>2003-05-23T08:27:37Z</time>
<speed>1.1</speed>
</trkpt>
<trkpt lat="47.611646" lon="8.192331">
<ele>310.6</ele>
<time>2003-05-23T08:27:42Z</time>
<speed>1.1</speed>
</trkpt>
<trkpt lat="47.611707" lon="8.192367">
<ele>311.2</ele>
<time>2003-05-23T08:27:47Z</time>
<speed>1.4</speed>
</trkpt>
<trkpt lat="47.611761" lon="8.192429">
<ele>311.2</ele>
<time>2003-05-23T08:27:52Z</time>
<speed>1.4</speed>
</trkpt>
<trkpt lat="47.611816" lon="8.192464">
<ele>311.0</ele>
<time>2003-05-23T08:27:57Z</time>
<speed>1.1</speed>
</trkpt>
<trkpt lat="47.611858" lon="8.192512">
<ele>310.8</ele>
<time>2003-05-23T08:28:02Z</time>
<speed>1.1</speed>
</trkpt>
<trkpt lat="47.611904" lon="8.192572">
<ele>311.5</ele>
<time>2003-05-23T08:28:07Z</time>
<speed>1.1</speed>
</trkpt>
<trkpt lat="47.611959" lon="8.192621">
<ele>311.4</ele>
<time>2003-05-23T08:28:12Z</time>
<speed>1.1</speed>
</trkpt>
<trkpt lat="47.612013" lon="8.192670">
<ele>311.3</ele>
<time>2003-05-23T08:28:17Z</time>
<speed>1.1</speed>
</trkpt>
<trkpt lat="47.612061" lon="8.192719">
<ele>310.5</ele>
<time>2003-05-23T08:28:22Z</time>
<speed>1.4</speed>
</trkpt>
<trkpt lat="47.612110" lon="8.192753">
<ele>310.9</ele>
<time>2003-05-23T08:28:27Z</time>
<speed>1.1</speed>
</trkpt>
<trkpt lat="47.612139" lon="8.192798">
<ele>310.7</ele>
<time>2003-05-23T08:28:32Z</time>
<speed>0.8</speed>
</trkpt>
<trkpt lat="47.612162" lon="8.192843">
<ele>309.7</ele>
<time>2003-05-23T08:28:37Z</time>
<speed>0.8</speed>
</trkpt>
<trkpt lat="47.612209" lon="8.192890">
<ele>310.3</ele>
<time>2003-05-23T08:28:42Z</time>
<speed>1.1</speed>
</trkpt>
<trkpt lat="47.612251" lon="8.192937">
<ele>310.1</ele>
<time>2003-05-23T08:28:47Z</time>
<speed>1.1</speed>
</trkpt>
<trkpt lat="47.612293" lon="8.192984">
<ele>310.0</ele>
<time>2003-05-23T08:28:52Z</time>
<speed>1.1</speed>
</trkpt>
<trkpt lat="47.612347" lon="8.193033">
<ele>309.9</ele>
<time>2003-05-23T08:28:57Z</time>
<speed>1.1</speed>
</trkpt>
<trkpt lat="47.612396" lon="8.193067">
<ele>310.4</ele>
<time>2003-05-23T08:29:02Z</time>
<speed>1.4</speed>
</trkpt>
<trkpt lat="47.612437" lon="8.193114">
<ele>310.2</ele>
<time>2003-05-23T08:29:07Z</time>
<speed>1.1</speed>
</trkpt>
<trkpt lat="47.612493" lon="8.193150">
<ele>310.0</ele>
<time>2003-05-23T08:29:12Z</time>
<speed>1.1</speed>
</trkpt>
<trkpt lat="47.612546" lon="8.193197">
<ele>311.3</ele>
<time>2003-05-23T08:29:17Z</time>
<speed>1.1</speed>
</trkpt>
<trkpt lat="47.612596" lon="8.193233">
<ele>310.4</ele>
<time>2003-05-23T08:29:22Z</time>
<speed>1.1</speed>
</trkpt>
<trkpt lat="47.612630" lon="8.193291">
<ele>311.0</ele>
<time>2003-05-23T08:29:27Z</time>
<speed>0.8</speed>
</trkpt>
<trkpt lat="47.612678" lon="8.193325">
<ele>311.5</ele>
<time>2003-05-23T08:29:32Z</time>
<speed>1.1</speed>
</trkpt>
<trkpt lat="47.612734" lon="8.193361">
<ele>311.3</ele>
<time>2003-05-23T08:29:37Z</time>
<speed>0.8</speed>
</trkpt>
<trkpt lat="47.612789" lon="8.193397">
<ele>311.1</ele>
<time>2003-05-23T08:29:42Z</time>
<speed>1.1</speed>
</trkpt>
<trkpt lat="47.612838" lon="8.193432">
<ele>310.1</ele>
<time>2003-05-23T08:29:47Z</time>
<speed>1.1</speed>
</trkpt>
<trkpt lat="47.612886" lon="8.193480">
<ele>310.7</ele>
<time>2003-05-23T08:29:52Z</time>
<speed>1.4</speed>
</trkpt>
<trkpt lat="47.612926" lon="8.193540">
<ele>310.7</ele>
<time>2003-05-23T08:29:57Z</time>
<speed>1.1</speed>
</trkpt>
<trkpt lat="47.612974" lon="8.193587">
<ele>311.2</ele>
<time>2003-05-23T08:30:02Z</time>
<speed>1.1</speed>
</trkpt>
<trkpt lat="47.613008" lon="8.193660">
<ele>310.5</ele>
<time>2003-05-23T08:30:07Z</time>
<speed>1.4</speed>
</trkpt>
<trkpt lat="47.613062" lon="8.193709">
<ele>310.4</ele>
<time>2003-05-23T08:30:12Z</time>
<speed>1.1</speed>
</trkpt>
<trkpt lat="47.613111" lon="8.193745">
<ele>309.5</ele>
<time>2003-05-23T08:30:17Z</time>
<speed>1.4</speed>
</trkpt>
<trkpt lat="47.613158" lon="8.193805">
<ele>310.2</ele>
<time>2003-05-23T08:30:22Z</time>
<speed>1.4</speed>
</trkpt>
<trkpt lat="47.613199" lon="8.193866">
<ele>310.1</ele>
<time>2003-05-23T08:30:27Z</time>
<speed>1.1</speed>
</trkpt>
<trkpt lat="47.613253" lon="8.193915">
<ele>310.0</ele>
<time>2003-05-23T08:30:32Z</time>
<speed>1.4</speed>
</trkpt>
<trkpt lat="47.613295" lon="8.193962">
<ele>309.8</ele>
<time>2003-05-23T08:30:37Z</time>
<speed>1.1</speed>
</trkpt>
<trkpt lat="47.613341" lon="8.194022">
<ele>310.5</ele>
<time>2003-05-23T08:30:42Z</time>
<speed>1.1</speed>
</trkpt>
<trkpt lat="47.613397" lon="8.194058">
<ele>310.3</ele>
<time>2003-05-23T08:30:47Z</time>
<speed>1.1</speed>
</trkpt>
<trkpt lat="47.613431" lon="8.194118">
<ele>309.5</ele>
<time>2003-05-23T08:30:52Z</time>
<speed>1.1</speed>
</trkpt>
<trkpt lat="47.613473" lon="8.194165">
<ele>309.3</ele>
<time>2003-05-23T08:30:57Z</time>
<speed>0.8</speed>
</trkpt>
<trkpt lat="47.613521" lon="8.194212">
<ele>309.9</ele>
<time>2003-05-23T08:31:02Z</time>
<speed>1.1</speed>
</trkpt>
<trkpt lat="47.613575" lon="8.194261">
<ele>309.8</ele>
<time>2003-05-23T08:31:07Z</time>
<speed>1.1</speed>
</trkpt>
<trkpt lat="47.613628" lon="8.194323">
<ele>309.8</ele>
<time>2003-05-23T08:31:13Z</time>
<speed>1.4</speed>
</trkpt>
<trkpt lat="47.613690" lon="8.194359">
<ele>310.4</ele>
<time>2003-05-23T08:31:18Z</time>
<speed>1.4</speed>
</trkpt>
<trkpt lat="47.613738" lon="8.194408">
<ele>309.5</ele>
<time>2003-05-23T08:31:23Z</time>
<speed>1.1</speed>
</trkpt>
<trkpt lat="47.613786" lon="8.194442">
<ele>310.0</ele>
<time>2003-05-23T08:31:28Z</time>
<speed>1.1</speed>
</trkpt>
<trkpt lat="47.613841" lon="8.194491">
<ele>309.9</ele>
<time>2003-05-23T08:31:33Z</time>
<speed>1.4</speed>
</trkpt>
<trkpt lat="47.613888" lon="8.194538">
<ele>310.5</ele>
<time>2003-05-23T08:31:38Z</time>
<speed>1.4</speed>
</trkpt>
<trkpt lat="47.613931" lon="8.194572">
<ele>310.2</ele>
<time>2003-05-23T08:31:43Z</time>
<speed>0.8</speed>
</trkpt>
<trkpt lat="47.613962" lon="8.194591">
<ele>309.8</ele>
<time>2003-05-23T08:31:48Z</time>
<speed>0.8</speed>
</trkpt>
<trkpt lat="47.614019" lon="8.194600">
<ele>309.4</ele>
<time>2003-05-23T08:31:53Z</time>
<speed>1.4</speed>
</trkpt>
<trkpt lat="47.614081" lon="8.194623">
<ele>309.9</ele>
<time>2003-05-23T08:31:59Z</time>
<speed>1.1</speed>
</trkpt>
<trkpt lat="47.614126" lon="8.194630">
<ele>309.4</ele>
<time>2003-05-23T08:32:04Z</time>
<speed>0.8</speed>
</trkpt>
<trkpt lat="47.614172" lon="8.194612">
<ele>308.8</ele>
<time>2003-05-23T08:32:09Z</time>
<speed>1.1</speed>
</trkpt>
<trkpt lat="47.614235" lon="8.194621">
<ele>309.1</ele>
<time>2003-05-23T08:32:14Z</time>
<speed>1.1</speed>
</trkpt>
<trkpt lat="47.614280" lon="8.194629">
<ele>308.7</ele>
<time>2003-05-23T08:32:19Z</time>
<speed>1.1</speed>
</trkpt>
<trkpt lat="47.614331" lon="8.194623">
<ele>308.9</ele>
<time>2003-05-23T08:32:24Z</time>
<speed>1.1</speed>
</trkpt>
<trkpt lat="47.614375" lon="8.194644">
<ele>308.5</ele>
<time>2003-05-23T08:32:29Z</time>
<speed>0.6</speed>
</trkpt>
<trkpt lat="47.614414" lon="8.194653">
<ele>305.9</ele>
<time>2003-05-23T08:32:34Z</time>
<speed>0.6</speed>
</trkpt>
<trkpt lat="47.614463" lon="8.194687">
<ele>306.4</ele>
<time>2003-05-23T08:32:39Z</time>
<speed>1.1</speed>
</trkpt>
<trkpt lat="47.614524" lon="8.194723">
<ele>307.0</ele>
<time>2003-05-23T08:32:44Z</time>
<speed>1.1</speed>
</trkpt>
<trkpt lat="47.614579" lon="8.194759">
<ele>306.8</ele>
<time>2003-05-23T08:32:49Z</time>
<speed>1.1</speed>
</trkpt>
<trkpt lat="47.614632" lon="8.194821">
<ele>306.8</ele>
<time>2003-05-23T08:32:54Z</time>
<speed>1.1</speed>
</trkpt>
<trkpt lat="47.614674" lon="8.194868">
<ele>306.6</ele>
<time>2003-05-23T08:32:59Z</time>
<speed>0.8</speed>
</trkpt>
<trkpt lat="47.614723" lon="8.194902">
<ele>307.1</ele>
<time>2003-05-23T08:33:04Z</time>
<speed>1.1</speed>
</trkpt>
<trkpt lat="47.614777" lon="8.194951">
<ele>307.0</ele>
<time>2003-05-23T08:33:09Z</time>
<speed>1.1</speed>
</trkpt>
<trkpt lat="47.614819" lon="8.194998">
<ele>306.8</ele>
<time>2003-05-23T08:33:14Z</time>
<speed>1.1</speed>
</trkpt>
<trkpt lat="47.614860" lon="8.195043">
<ele>308.1</ele>
<time>2003-05-23T08:33:19Z</time>
<speed>1.4</speed>
</trkpt>
<trkpt lat="47.614914" lon="8.195092">
<ele>308.0</ele>
<time>2003-05-23T08:33:24Z</time>
<speed>1.1</speed>
</trkpt>
<trkpt lat="47.614954" lon="8.195151">
<ele>309.3</ele>
<time>2003-05-23T08:33:29Z</time>
<speed>1.1</speed>
</trkpt>
<trkpt lat="47.614996" lon="8.195198">
<ele>309.1</ele>
<time>2003-05-23T08:33:34Z</time>
<speed>1.4</speed>
</trkpt>
<trkpt lat="47.615057" lon="8.195233">
<ele>309.7</ele>
<time>2003-05-23T08:33:39Z</time>
<speed>1.1</speed>
</trkpt>
<trkpt lat="47.615099" lon="8.195281">
<ele>309.5</ele>
<time>2003-05-23T08:33:44Z</time>
<speed>1.1</speed>
</trkpt>
<trkpt lat="47.615146" lon="8.195341">
<ele>310.2</ele>
<time>2003-05-23T08:33:49Z</time>
<speed>1.1</speed>
</trkpt>
<trkpt lat="47.615187" lon="8.195388">
<ele>310.0</ele>
<time>2003-05-23T08:33:54Z</time>
<speed>0.8</speed>
</trkpt>
<trkpt lat="47.615210" lon="8.195431">
<ele>310.5</ele>
<time>2003-05-23T08:33:59Z</time>
<speed>0.8</speed>
</trkpt>
<trkpt lat="47.615244" lon="8.195489">
<ele>311.1</ele>
<time>2003-05-23T08:34:04Z</time>
<speed>1.1</speed>
</trkpt>
<trkpt lat="47.615284" lon="8.195550">
<ele>311.0</ele>
<time>2003-05-23T08:34:09Z</time>
<speed>0.8</speed>
</trkpt>
<trkpt lat="47.615326" lon="8.195597">
<ele>310.8</ele>
<time>2003-05-23T08:34:14Z</time>
<speed>0.8</speed>
</trkpt>
<trkpt lat="47.615360" lon="8.195655">
<ele>311.4</ele>
<time>2003-05-23T08:34:19Z</time>
<speed>0.8</speed>
</trkpt>
<trkpt lat="47.615414" lon="8.195717">
<ele>311.4</ele>
<time>2003-05-23T08:34:24Z</time>
<speed>1.1</speed>
</trkpt>
<trkpt lat="47.615454" lon="8.195778">
<ele>311.4</ele>
<time>2003-05-23T08:34:29Z</time>
<speed>1.1</speed>
</trkpt>
<trkpt lat="47.615502" lon="8.195840">
<ele>310.6</ele>
<time>2003-05-23T08:34:34Z</time>
<speed>1.1</speed>
</trkpt>
<trkpt lat="47.615537" lon="8.195885">
<ele>311.1</ele>
<time>2003-05-23T08:34:39Z</time>
<speed>1.1</speed>
</trkpt>
<trkpt lat="47.615577" lon="8.195945">
<ele>311.1</ele>
<time>2003-05-23T08:34:44Z</time>
<speed>1.1</speed>
</trkpt>
<trkpt lat="47.615611" lon="8.196003">
<ele>311.7</ele>
<time>2003-05-23T08:34:49Z</time>
<speed>0.8</speed>
</trkpt>
<trkpt lat="47.615646" lon="8.196062">
<ele>312.3</ele>
<time>2003-05-23T08:34:54Z</time>
<speed>1.4</speed>
</trkpt>
<trkpt lat="47.615692" lon="8.196122">
<ele>312.9</ele>
<time>2003-05-23T08:34:59Z</time>
<speed>1.1</speed>
</trkpt>
<trkpt lat="47.615747" lon="8.196171">
<ele>312.8</ele>
<time>2003-05-23T08:35:04Z</time>
<speed>1.1</speed>
</trkpt>
<trkpt lat="47.615781" lon="8.196229">
<ele>313.4</ele>
<time>2003-05-23T08:35:09Z</time>
<speed>1.1</speed>
</trkpt>
<trkpt lat="47.615822" lon="8.196276">
<ele>313.3</ele>
<time>2003-05-23T08:35:14Z</time>
<speed>1.1</speed>
</trkpt>
<trkpt lat="47.615864" lon="8.196324">
<ele>313.1</ele>
<time>2003-05-23T08:35:19Z</time>
<speed>1.4</speed>
</trkpt>
<trkpt lat="47.615912" lon="8.196373">
<ele>312.3</ele>
<time>2003-05-23T08:35:24Z</time>
<speed>1.1</speed>
</trkpt>
<trkpt lat="47.615953" lon="8.196433">
<ele>312.2</ele>
<time>2003-05-23T08:35:29Z</time>
<speed>1.1</speed>
</trkpt>
<trkpt lat="47.615995" lon="8.196480">
<ele>312.0</ele>
<time>2003-05-23T08:35:34Z</time>
<speed>1.1</speed>
</trkpt>
<trkpt lat="47.616029" lon="8.196538">
<ele>312.6</ele>
<time>2003-05-23T08:35:39Z</time>
<speed>0.8</speed>
</trkpt>
<trkpt lat="47.616064" lon="8.196585">
<ele>311.7</ele>
<time>2003-05-23T08:35:44Z</time>
<speed>0.8</speed>
</trkpt>
<trkpt lat="47.616098" lon="8.196657">
<ele>312.4</ele>
<time>2003-05-23T08:35:49Z</time>
<speed>1.1</speed>
</trkpt>
<trkpt lat="47.616140" lon="8.196691">
<ele>312.2</ele>
<time>2003-05-23T08:35:54Z</time>
<speed>0.8</speed>
</trkpt>
<trkpt lat="47.616174" lon="8.196749">
<ele>312.8</ele>
<time>2003-05-23T08:35:59Z</time>
<speed>1.1</speed>
</trkpt>
<trkpt lat="47.616215" lon="8.196809">
<ele>312.7</ele>
<time>2003-05-23T08:36:04Z</time>
<speed>1.1</speed>
</trkpt>
<trkpt lat="47.616251" lon="8.196856">
<ele>311.8</ele>
<time>2003-05-23T08:36:09Z</time>
<speed>1.1</speed>
</trkpt>
<trkpt lat="47.616279" lon="8.196915">
<ele>311.7</ele>
<time>2003-05-23T08:36:14Z</time>
<speed>1.1</speed>
</trkpt>
<trkpt lat="47.616319" lon="8.196975">
<ele>311.6</ele>
<time>2003-05-23T08:36:19Z</time>
<speed>1.1</speed>
</trkpt>
<trkpt lat="47.616361" lon="8.197022">
<ele>311.4</ele>
<time>2003-05-23T08:36:24Z</time>
<speed>1.1</speed>
</trkpt>
<trkpt lat="47.616403" lon="8.197069">
<ele>311.3</ele>
<time>2003-05-23T08:36:29Z</time>
<speed>1.1</speed>
</trkpt>
<trkpt lat="47.616425" lon="8.197128">
<ele>310.4</ele>
<time>2003-05-23T08:36:34Z</time>
<speed>0.8</speed>
</trkpt>
<trkpt lat="47.616447" lon="8.197171">
<ele>310.8</ele>
<time>2003-05-23T08:36:39Z</time>
<speed>0.8</speed>
</trkpt>
<trkpt lat="47.616456" lon="8.197225">
<ele>311.3</ele>
<time>2003-05-23T08:36:44Z</time>
<speed>0.8</speed>
</trkpt>
<trkpt lat="47.616484" lon="8.197284">
<ele>311.1</ele>
<time>2003-05-23T08:36:49Z</time>
<speed>1.1</speed>
</trkpt>
<trkpt lat="47.616492" lon="8.197353">
<ele>310.3</ele>
<time>2003-05-23T08:36:54Z</time>
<speed>1.1</speed>
</trkpt>
<trkpt lat="47.616464" lon="8.197404">
<ele>309.1</ele>
<time>2003-05-23T08:36:59Z</time>
<speed>0.8</speed>
</trkpt>
<trkpt lat="47.616410" lon="8.197436">
<ele>309.1</ele>
<time>2003-05-23T08:37:04Z</time>
<speed>1.1</speed>
</trkpt>
<trkpt lat="47.616356" lon="8.197481">
<ele>309.2</ele>
<time>2003-05-23T08:37:09Z</time>
<speed>1.1</speed>
</trkpt>
<trkpt lat="47.616310" lon="8.197502">
<ele>308.4</ele>
<time>2003-05-23T08:37:14Z</time>
<speed>0.8</speed>
</trkpt>
<trkpt lat="47.616263" lon="8.197536">
<ele>307.8</ele>
<time>2003-05-23T08:37:19Z</time>
<speed>0.8</speed>
</trkpt>
<trkpt lat="47.616229" lon="8.197571">
<ele>307.2</ele>
<time>2003-05-23T08:37:24Z</time>
<speed>1.1</speed>
</trkpt>
<trkpt lat="47.616181" lon="8.197618">
<ele>306.6</ele>
<time>2003-05-23T08:37:29Z</time>
<speed>1.1</speed>
</trkpt>
<trkpt lat="47.616128" lon="8.197650">
<ele>306.6</ele>
<time>2003-05-23T08:37:34Z</time>
<speed>1.1</speed>
</trkpt>
<trkpt lat="47.616067" lon="8.197693">
<ele>307.4</ele>
<time>2003-05-23T08:37:39Z</time>
<speed>1.4</speed>
</trkpt>
<trkpt lat="47.616013" lon="8.197738">
<ele>307.5</ele>
<time>2003-05-23T08:37:44Z</time>
<speed>1.4</speed>
</trkpt>
<trkpt lat="47.615958" lon="8.197783">
<ele>307.6</ele>
<time>2003-05-23T08:37:49Z</time>
<speed>1.1</speed>
</trkpt>
<trkpt lat="47.615912" lon="8.197817">
<ele>306.9</ele>
<time>2003-05-23T08:37:54Z</time>
<speed>1.4</speed>
</trkpt>
<trkpt lat="47.615870" lon="8.197864">
<ele>307.1</ele>
<time>2003-05-23T08:37:59Z</time>
<speed>1.1</speed>
</trkpt>
<trkpt lat="47.615821" lon="8.197922">
<ele>308.0</ele>
<time>2003-05-23T08:38:04Z</time>
<speed>1.4</speed>
</trkpt>
<trkpt lat="47.615840" lon="8.198020">
<ele>307.4</ele>
<time>2003-05-23T08:38:09Z</time>
<speed>1.1</speed>
</trkpt>
<trkpt lat="47.615900" lon="8.198069">
<ele>308.1</ele>
<time>2003-05-23T08:38:14Z</time>
<speed>1.1</speed>
</trkpt>
<trkpt lat="47.615941" lon="8.198130">
<ele>308.0</ele>
<time>2003-05-23T08:38:19Z</time>
<speed>1.1</speed>
</trkpt>
<trkpt lat="47.615988" lon="8.198190">
<ele>308.7</ele>
<time>2003-05-23T08:38:24Z</time>
<speed>1.1</speed>
</trkpt>
<trkpt lat="47.616021" lon="8.198261">
<ele>309.4</ele>
<time>2003-05-23T08:38:29Z</time>
<speed>1.1</speed>
</trkpt>
<trkpt lat="47.616061" lon="8.198335">
<ele>309.4</ele>
<time>2003-05-23T08:38:34Z</time>
<speed>1.1</speed>
</trkpt>
<trkpt lat="47.616080" lon="8.198418">
<ele>310.1</ele>
<time>2003-05-23T08:38:39Z</time>
<speed>1.1</speed>
</trkpt>
<trkpt lat="47.616127" lon="8.198478">
<ele>310.8</ele>
<time>2003-05-23T08:38:44Z</time>
<speed>1.1</speed>
</trkpt>
<trkpt lat="47.616174" lon="8.198538">
<ele>311.5</ele>
<time>2003-05-23T08:38:49Z</time>
<speed>1.1</speed>
</trkpt>
<trkpt lat="47.616220" lon="8.198598">
<ele>312.1</ele>
<time>2003-05-23T08:38:54Z</time>
<speed>1.1</speed>
</trkpt>
<trkpt lat="47.616261" lon="8.198658">
<ele>312.1</ele>
<time>2003-05-23T08:38:59Z</time>
<speed>1.1</speed>
</trkpt>
<trkpt lat="47.616309" lon="8.198706">
<ele>312.6</ele>
<time>2003-05-23T08:39:04Z</time>
<speed>1.4</speed>
</trkpt>
<trkpt lat="47.616350" lon="8.198766">
<ele>312.6</ele>
<time>2003-05-23T08:39:09Z</time>
<speed>1.1</speed>
</trkpt>
<trkpt lat="47.616374" lon="8.198862">
<ele>314.1</ele>
<time>2003-05-23T08:39:14Z</time>
<speed>1.1</speed>
</trkpt>
<trkpt lat="47.616388" lon="8.198945">
<ele>314.1</ele>
<time>2003-05-23T08:39:19Z</time>
<speed>1.1</speed>
</trkpt>
<trkpt lat="47.616434" lon="8.199018">
<ele>314.9</ele>
<time>2003-05-23T08:39:24Z</time>
<speed>1.1</speed>
</trkpt>
<trkpt lat="47.616474" lon="8.199078">
<ele>314.8</ele>
<time>2003-05-23T08:39:29Z</time>
<speed>1.1</speed>
</trkpt>
<trkpt lat="47.616515" lon="8.199138">
<ele>314.7</ele>
<time>2003-05-23T08:39:34Z</time>
<speed>1.1</speed>
</trkpt>
<trkpt lat="47.616534" lon="8.199234">
<ele>315.6</ele>
<time>2003-05-23T08:39:39Z</time>
<speed>1.1</speed>
</trkpt>
<trkpt lat="47.616574" lon="8.199295">
<ele>315.5</ele>
<time>2003-05-23T08:39:44Z</time>
<speed>1.1</speed>
</trkpt>
<trkpt lat="47.616614" lon="8.199368">
<ele>315.5</ele>
<time>2003-05-23T08:39:49Z</time>
<speed>1.1</speed>
</trkpt>
<trkpt lat="47.616631" lon="8.199411">
<ele>315.2</ele>
<time>2003-05-23T08:39:54Z</time>
<speed>0.6</speed>
</trkpt>
<trkpt lat="47.616635" lon="8.199440">
<ele>314.7</ele>
<time>2003-05-23T08:39:59Z</time>
<speed>0.0</speed>
</trkpt>
<trkpt lat="47.616635" lon="8.199440">
<ele>314.7</ele>
<time>2003-05-23T08:40:04Z</time>
<speed>0.0</speed>
</trkpt>
<trkpt lat="47.616607" lon="8.199475">
<ele>314.9</ele>
<time>2003-05-23T08:40:09Z</time>
<speed>0.0</speed>
</trkpt>
<trkpt lat="47.616586" lon="8.199498">
<ele>315.7</ele>
<time>2003-05-23T08:40:14Z</time>
<speed>0.0</speed>
</trkpt>
<trkpt lat="47.616578" lon="8.199509">
<ele>316.4</ele>
<time>2003-05-23T08:40:19Z</time>
<speed>0.0</speed>
</trkpt>
<trkpt lat="47.616565" lon="8.199520">
<ele>316.5</ele>
<time>2003-05-23T08:40:24Z</time>
<speed>0.0</speed>
</trkpt>
<trkpt lat="47.616558" lon="8.199518">
<ele>317.1</ele>
<time>2003-05-23T08:40:29Z</time>
<speed>0.0</speed>
</trkpt>
<trkpt lat="47.616558" lon="8.199518">
<ele>317.1</ele>
<time>2003-05-23T08:40:34Z</time>
<speed>0.0</speed>
</trkpt>
<trkpt lat="47.616558" lon="8.199518">
<ele>317.1</ele>
<time>2003-05-23T08:40:39Z</time>
<speed>0.0</speed>
</trkpt>
<trkpt lat="47.616559" lon="8.199505">
<ele>317.0</ele>
<time>2003-05-23T08:40:44Z</time>
<speed>0.0</speed>
</trkpt>
<trkpt lat="47.616559" lon="8.199505">
<ele>317.0</ele>
<time>2003-05-23T08:40:49Z</time>
<speed>0.0</speed>
</trkpt>
<trkpt lat="47.616567" lon="8.199494">
<ele>316.3</ele>
<time>2003-05-23T08:40:54Z</time>
<speed>0.0</speed>
</trkpt>
<trkpt lat="47.616567" lon="8.199494">
<ele>316.3</ele>
<time>2003-05-23T08:40:59Z</time>
<speed>0.0</speed>
</trkpt>
<trkpt lat="47.616567" lon="8.199494">
<ele>316.3</ele>
<time>2003-05-23T08:41:04Z</time>
<speed>0.0</speed>
</trkpt>
<trkpt lat="47.616573" lon="8.199494">
<ele>317.0</ele>
<time>2003-05-23T08:41:09Z</time>
<speed>0.0</speed>
</trkpt>
<trkpt lat="47.616573" lon="8.199494">
<ele>317.0</ele>
<time>2003-05-23T08:41:14Z</time>
<speed>0.0</speed>
</trkpt>
<trkpt lat="47.616579" lon="8.199496">
<ele>316.3</ele>
<time>2003-05-23T08:41:19Z</time>
<speed>0.0</speed>
</trkpt>
<trkpt lat="47.616579" lon="8.199496">
<ele>316.3</ele>
<time>2003-05-23T08:41:24Z</time>
<speed>0.0</speed>
</trkpt>
<trkpt lat="47.616578" lon="8.199509">
<ele>316.4</ele>
<time>2003-05-23T08:41:29Z</time>
<speed>0.0</speed>
</trkpt>
<trkpt lat="47.616566" lon="8.199507">
<ele>316.4</ele>
<time>2003-05-23T08:41:34Z</time>
<speed>0.0</speed>
</trkpt>
<trkpt lat="47.616565" lon="8.199520">
<ele>316.5</ele>
<time>2003-05-23T08:41:39Z</time>
<speed>0.0</speed>
</trkpt>
<trkpt lat="47.616578" lon="8.199509">
<ele>316.4</ele>
<time>2003-05-23T08:41:44Z</time>
<speed>0.0</speed>
</trkpt>
<trkpt lat="47.616572" lon="8.199507">
<ele>317.1</ele>
<time>2003-05-23T08:41:49Z</time>
<speed>0.0</speed>
</trkpt>
<trkpt lat="47.616571" lon="8.199520">
<ele>317.2</ele>
<time>2003-05-23T08:41:54Z</time>
<speed>0.0</speed>
</trkpt>
<trkpt lat="47.616572" lon="8.199507">
<ele>317.1</ele>
<time>2003-05-23T08:41:59Z</time>
<speed>0.0</speed>
</trkpt>
<trkpt lat="47.616577" lon="8.199535">
<ele>316.6</ele>
<time>2003-05-23T08:42:04Z</time>
<speed>0.6</speed>
</trkpt>
<trkpt lat="47.616599" lon="8.199581">
<ele>315.6</ele>
<time>2003-05-23T08:42:09Z</time>
<speed>0.8</speed>
</trkpt>
<trkpt lat="47.616628" lon="8.199639">
<ele>315.5</ele>
<time>2003-05-23T08:42:14Z</time>
<speed>1.1</speed>
</trkpt>
<trkpt lat="47.616667" lon="8.199712">
<ele>315.5</ele>
<time>2003-05-23T08:42:19Z</time>
<speed>0.8</speed>
</trkpt>
<trkpt lat="47.616695" lon="8.199771">
<ele>315.4</ele>
<time>2003-05-23T08:42:24Z</time>
<speed>1.1</speed>
</trkpt>
<trkpt lat="47.616723" lon="8.199844">
<ele>313.9</ele>
<time>2003-05-23T08:42:29Z</time>
<speed>1.1</speed>
</trkpt>
<trkpt lat="47.616724" lon="8.199925">
<ele>313.9</ele>
<time>2003-05-23T08:42:34Z</time>
<speed>0.8</speed>
</trkpt>
<trkpt lat="47.616733" lon="8.199980">
<ele>314.3</ele>
<time>2003-05-23T08:42:39Z</time>
<speed>0.6</speed>
</trkpt>
<trkpt lat="47.616722" lon="8.200045">
<ele>314.1</ele>
<time>2003-05-23T08:42:44Z</time>
<speed>0.8</speed>
</trkpt>
<trkpt lat="47.616698" lon="8.200123">
<ele>313.8</ele>
<time>2003-05-23T08:42:49Z</time>
<speed>1.1</speed>
</trkpt>
<trkpt lat="47.616673" lon="8.200200">
<ele>313.6</ele>
<time>2003-05-23T08:42:54Z</time>
<speed>1.1</speed>
</trkpt>
<trkpt lat="47.616620" lon="8.200232">
<ele>313.6</ele>
<time>2003-05-23T08:42:59Z</time>
<speed>1.1</speed>
</trkpt>
<trkpt lat="47.616553" lon="8.200275">
<ele>313.6</ele>
<time>2003-05-23T08:43:04Z</time>
<speed>1.1</speed>
</trkpt>
<trkpt lat="47.616495" lon="8.200278">
<ele>314.1</ele>
<time>2003-05-23T08:43:09Z</time>
<speed>0.8</speed>
</trkpt>
<trkpt lat="47.616449" lon="8.200299">
<ele>313.3</ele>
<time>2003-05-23T08:43:14Z</time>
<speed>1.1</speed>
</trkpt>
<trkpt lat="47.616409" lon="8.200320">
<ele>313.3</ele>
<time>2003-05-23T08:43:19Z</time>
<speed>1.1</speed>
</trkpt>
<trkpt lat="47.616370" lon="8.200327">
<ele>313.2</ele>
<time>2003-05-23T08:43:24Z</time>
<speed>0.8</speed>
</trkpt>
<trkpt lat="47.616325" lon="8.200333">
<ele>313.7</ele>
<time>2003-05-23T08:43:29Z</time>
<speed>0.8</speed>
</trkpt>
<trkpt lat="47.616272" lon="8.200351">
<ele>313.6</ele>
<time>2003-05-23T08:43:34Z</time>
<speed>0.8</speed>
</trkpt>
<trkpt lat="47.616214" lon="8.200355">
<ele>314.1</ele>
<time>2003-05-23T08:43:39Z</time>
<speed>1.1</speed>
</trkpt>
<trkpt lat="47.616161" lon="8.200387">
<ele>314.1</ele>
<time>2003-05-23T08:43:44Z</time>
<speed>1.1</speed>
</trkpt>
<trkpt lat="47.616113" lon="8.200432">
<ele>315.0</ele>
<time>2003-05-23T08:43:49Z</time>
<speed>0.8</speed>
</trkpt>
<trkpt lat="47.616069" lon="8.200520">
<ele>314.0</ele>
<time>2003-05-23T08:43:54Z</time>
<speed>0.8</speed>
</trkpt>
<trkpt lat="47.616040" lon="8.200571">
<ele>312.9</ele>
<time>2003-05-23T08:43:59Z</time>
<speed>0.8</speed>
</trkpt>
<trkpt lat="47.616017" lon="8.200635">
<ele>312.5</ele>
<time>2003-05-23T08:44:04Z</time>
<speed>0.8</speed>
</trkpt>
<trkpt lat="47.615993" lon="8.200699">
<ele>312.2</ele>
<time>2003-05-23T08:44:09Z</time>
<speed>0.8</speed>
</trkpt>
<trkpt lat="47.615969" lon="8.200776">
<ele>312.0</ele>
<time>2003-05-23T08:44:14Z</time>
<speed>0.8</speed>
</trkpt>
<trkpt lat="47.615950" lon="8.200853">
<ele>312.5</ele>
<time>2003-05-23T08:44:19Z</time>
<speed>0.8</speed>
</trkpt>
<trkpt lat="47.615926" lon="8.200930">
<ele>312.2</ele>
<time>2003-05-23T08:44:24Z</time>
<speed>0.8</speed>
</trkpt>
<trkpt lat="47.615911" lon="8.200955">
<ele>312.4</ele>
<time>2003-05-23T08:44:29Z</time>
<speed>0.3</speed>
</trkpt>
<trkpt lat="47.615904" lon="8.200968">
<ele>311.7</ele>
<time>2003-05-23T08:44:34Z</time>
<speed>0.3</speed>
</trkpt>
<trkpt lat="47.615884" lon="8.200992">
<ele>311.1</ele>
<time>2003-05-23T08:44:39Z</time>
<speed>0.8</speed>
</trkpt>
<trkpt lat="47.615844" lon="8.201013">
<ele>311.1</ele>
<time>2003-05-23T08:44:44Z</time>
<speed>1.1</speed>
</trkpt>
<trkpt lat="47.615780" lon="8.201017">
<ele>310.8</ele>
<time>2003-05-23T08:44:49Z</time>
<speed>0.8</speed>
</trkpt>
<trkpt lat="47.615723" lon="8.201007">
<ele>311.2</ele>
<time>2003-05-23T08:44:54Z</time>
<speed>1.1</speed>
</trkpt>
<trkpt lat="47.615671" lon="8.201013">
<ele>311.0</ele>
<time>2003-05-23T08:44:59Z</time>
<speed>1.1</speed>
</trkpt>
<trkpt lat="47.615620" lon="8.201018">
<ele>310.8</ele>
<time>2003-05-23T08:45:04Z</time>
<speed>1.1</speed>
</trkpt>
<trkpt lat="47.615562" lon="8.201024">
<ele>309.9</ele>
<time>2003-05-23T08:45:09Z</time>
<speed>1.1</speed>
</trkpt>
<trkpt lat="47.615510" lon="8.201043">
<ele>309.8</ele>
<time>2003-05-23T08:45:14Z</time>
<speed>1.1</speed>
</trkpt>
<trkpt lat="47.615451" lon="8.201061">
<ele>309.0</ele>
<time>2003-05-23T08:45:19Z</time>
<speed>1.1</speed>
</trkpt>
<trkpt lat="47.615392" lon="8.201078">
<ele>309.5</ele>
<time>2003-05-23T08:45:24Z</time>
<speed>1.1</speed>
</trkpt>
<trkpt lat="47.615341" lon="8.201084">
<ele>309.3</ele>
<time>2003-05-23T08:45:29Z</time>
<speed>1.1</speed>
</trkpt>
<trkpt lat="47.615275" lon="8.201114">
<ele>309.3</ele>
<time>2003-05-23T08:45:34Z</time>
<speed>1.4</speed>
</trkpt>
<trkpt lat="47.615221" lon="8.201144">
<ele>310.7</ele>
<time>2003-05-23T08:45:39Z</time>
<speed>1.1</speed>
</trkpt>
<trkpt lat="47.615167" lon="8.201176">
<ele>310.7</ele>
<time>2003-05-23T08:45:44Z</time>
<speed>1.1</speed>
</trkpt>
<trkpt lat="47.615096" lon="8.201191">
<ele>311.2</ele>
<time>2003-05-23T08:45:49Z</time>
<speed>1.1</speed>
</trkpt>
<trkpt lat="47.615029" lon="8.201234">
<ele>311.2</ele>
<time>2003-05-23T08:45:54Z</time>
<speed>1.1</speed>
</trkpt>
<trkpt lat="47.614962" lon="8.201262">
<ele>312.6</ele>
<time>2003-05-23T08:45:59Z</time>
<speed>1.1</speed>
</trkpt>
<trkpt lat="47.614908" lon="8.201307">
<ele>312.7</ele>
<time>2003-05-23T08:46:04Z</time>
<speed>1.1</speed>
</trkpt>
<trkpt lat="47.614862" lon="8.201328">
<ele>311.9</ele>
<time>2003-05-23T08:46:09Z</time>
<speed>1.1</speed>
</trkpt>
<trkpt lat="47.614810" lon="8.201346">
<ele>311.8</ele>
<time>2003-05-23T08:46:14Z</time>
<speed>1.1</speed>
</trkpt>
<trkpt lat="47.614757" lon="8.201365">
<ele>311.7</ele>
<time>2003-05-23T08:46:19Z</time>
<speed>1.1</speed>
</trkpt>
<trkpt lat="47.614722" lon="8.201399">
<ele>312.5</ele>
<time>2003-05-23T08:46:24Z</time>
<speed>0.8</speed>
</trkpt>
<trkpt lat="47.614677" lon="8.201420">
<ele>311.8</ele>
<time>2003-05-23T08:46:29Z</time>
<speed>0.8</speed>
</trkpt>
<trkpt lat="47.614596" lon="8.201474">
<ele>311.8</ele>
<time>2003-05-23T08:46:34Z</time>
<speed>1.4</speed>
</trkpt>
<trkpt lat="47.614536" lon="8.201519">
<ele>311.2</ele>
<time>2003-05-23T08:46:39Z</time>
<speed>1.1</speed>
</trkpt>
<trkpt lat="47.614463" lon="8.201562">
<ele>310.5</ele>
<time>2003-05-23T08:46:44Z</time>
<speed>1.1</speed>
</trkpt>
<trkpt lat="47.614408" lon="8.201607">
<ele>310.6</ele>
<time>2003-05-23T08:46:49Z</time>
<speed>1.1</speed>
</trkpt>
<trkpt lat="47.614355" lon="8.201639">
<ele>310.6</ele>
<time>2003-05-23T08:46:54Z</time>
<speed>1.4</speed>
</trkpt>
<trkpt lat="47.614289" lon="8.201669">
<ele>310.5</ele>
<time>2003-05-23T08:46:59Z</time>
<speed>1.4</speed>
</trkpt>
<trkpt lat="47.614236" lon="8.201703">
<ele>309.1</ele>
<time>2003-05-23T08:47:04Z</time>
<speed>1.1</speed>
</trkpt>
<trkpt lat="47.614175" lon="8.201746">
<ele>309.9</ele>
<time>2003-05-23T08:47:09Z</time>
<speed>1.1</speed>
</trkpt>
<trkpt lat="47.614122" lon="8.201778">
<ele>309.9</ele>
<time>2003-05-23T08:47:14Z</time>
<speed>1.1</speed>
</trkpt>
<trkpt lat="47.614068" lon="8.201810">
<ele>309.9</ele>
<time>2003-05-23T08:47:19Z</time>
<speed>1.1</speed>
</trkpt>
<trkpt lat="47.614015" lon="8.201842">
<ele>309.9</ele>
<time>2003-05-23T08:47:24Z</time>
<speed>0.8</speed>
</trkpt>
<trkpt lat="47.613961" lon="8.201872">
<ele>311.3</ele>
<time>2003-05-23T08:47:29Z</time>
<speed>1.1</speed>
</trkpt>
<trkpt lat="47.613914" lon="8.201906">
<ele>310.6</ele>
<time>2003-05-23T08:47:34Z</time>
<speed>1.1</speed>
</trkpt>
<trkpt lat="47.613861" lon="8.201938">
<ele>310.6</ele>
<time>2003-05-23T08:47:39Z</time>
<speed>1.1</speed>
</trkpt>
<trkpt lat="47.613814" lon="8.201972">
<ele>309.9</ele>
<time>2003-05-23T08:47:44Z</time>
<speed>0.6</speed>
</trkpt>
<trkpt lat="47.613801" lon="8.201970">
<ele>309.9</ele>
<time>2003-05-23T08:47:49Z</time>
<speed>0.6</speed>
</trkpt>
<trkpt lat="47.613761" lon="8.201990">
<ele>309.9</ele>
<time>2003-05-23T08:47:54Z</time>
<speed>0.8</speed>
</trkpt>
<trkpt lat="47.613722" lon="8.202011">
<ele>309.8</ele>
<time>2003-05-23T08:47:59Z</time>
<speed>0.6</speed>
</trkpt>
<trkpt lat="47.613694" lon="8.202033">
<ele>309.9</ele>
<time>2003-05-23T08:48:04Z</time>
<speed>0.3</speed>
</trkpt>
<trkpt lat="47.613662" lon="8.202041">
<ele>310.5</ele>
<time>2003-05-23T08:48:09Z</time>
<speed>0.6</speed>
</trkpt>
<trkpt lat="47.613628" lon="8.202063">
<ele>309.8</ele>
<time>2003-05-23T08:48:14Z</time>
<speed>0.8</speed>
</trkpt>
<trkpt lat="47.613589" lon="8.202084">
<ele>309.8</ele>
<time>2003-05-23T08:48:19Z</time>
<speed>0.8</speed>
</trkpt>
<trkpt lat="47.613556" lon="8.202092">
<ele>310.4</ele>
<time>2003-05-23T08:48:24Z</time>
<speed>0.6</speed>
</trkpt>
<trkpt lat="47.613543" lon="8.202090">
<ele>310.3</ele>
<time>2003-05-23T08:48:29Z</time>
<speed>0.0</speed>
</trkpt>
<trkpt lat="47.613550" lon="8.202092">
<ele>309.7</ele>
<time>2003-05-23T08:48:34Z</time>
<speed>0.0</speed>
</trkpt>
<trkpt lat="47.613529" lon="8.202114">
<ele>310.5</ele>
<time>2003-05-23T08:48:39Z</time>
<speed>0.8</speed>
</trkpt>
<trkpt lat="47.613480" lon="8.202080">
<ele>310.0</ele>
<time>2003-05-23T08:48:44Z</time>
<speed>0.8</speed>
</trkpt>
<trkpt lat="47.613417" lon="8.202071">
<ele>309.6</ele>
<time>2003-05-23T08:48:49Z</time>
<speed>1.1</speed>
</trkpt>
<trkpt lat="47.613383" lon="8.202106">
<ele>309.0</ele>
<time>2003-05-23T08:48:54Z</time>
<speed>0.8</speed>
</trkpt>
<trkpt lat="47.613342" lon="8.202140">
<ele>309.1</ele>
<time>2003-05-23T08:48:59Z</time>
<speed>0.6</speed>
</trkpt>
<trkpt lat="47.613348" lon="8.202140">
<ele>309.8</ele>
<time>2003-05-23T08:49:04Z</time>
<speed>0.0</speed>
</trkpt>
<trkpt lat="47.613354" lon="8.202142">
<ele>309.2</ele>
<time>2003-05-23T08:49:09Z</time>
<speed>0.0</speed>
</trkpt>
<trkpt lat="47.613354" lon="8.202142">
<ele>309.2</ele>
<time>2003-05-23T08:49:14Z</time>
<speed>0.0</speed>
</trkpt>
<trkpt lat="47.613354" lon="8.202142">
<ele>309.2</ele>
<time>2003-05-23T08:49:19Z</time>
<speed>0.0</speed>
</trkpt>
<trkpt lat="47.613354" lon="8.202142">
<ele>309.2</ele>
<time>2003-05-23T08:49:24Z</time>
<speed>0.0</speed>
</trkpt>
<trkpt lat="47.613368" lon="8.202131">
<ele>309.2</ele>
<time>2003-05-23T08:49:29Z</time>
<speed>0.0</speed>
</trkpt>
<trkpt lat="47.613367" lon="8.202144">
<ele>309.3</ele>
<time>2003-05-23T08:49:34Z</time>
<speed>0.0</speed>
</trkpt>
<trkpt lat="47.613367" lon="8.202144">
<ele>309.3</ele>
<time>2003-05-23T08:49:39Z</time>
<speed>0.0</speed>
</trkpt>
<trkpt lat="47.613374" lon="8.202131">
<ele>309.9</ele>
<time>2003-05-23T08:49:44Z</time>
<speed>0.6</speed>
</trkpt>
<trkpt lat="47.613415" lon="8.202097">
<ele>309.8</ele>
<time>2003-05-23T08:49:49Z</time>
<speed>1.1</speed>
</trkpt>
<trkpt lat="47.613455" lon="8.202076">
<ele>309.8</ele>
<time>2003-05-23T08:49:54Z</time>
<speed>0.8</speed>
</trkpt>
<trkpt lat="47.613484" lon="8.202122">
<ele>309.6</ele>
<time>2003-05-23T08:49:59Z</time>
<speed>1.1</speed>
</trkpt>
<trkpt lat="47.613457" lon="8.202225">
<ele>309.6</ele>
<time>2003-05-23T08:50:04Z</time>
<speed>1.4</speed>
</trkpt>
<trkpt lat="47.613403" lon="8.202270">
<ele>309.7</ele>
<time>2003-05-23T08:50:09Z</time>
<speed>1.4</speed>
</trkpt>
<trkpt lat="47.613323" lon="8.202311">
<ele>309.6</ele>
<time>2003-05-23T08:50:14Z</time>
<speed>1.1</speed>
</trkpt>
<trkpt lat="47.613256" lon="8.202354">
<ele>309.7</ele>
<time>2003-05-23T08:50:19Z</time>
<speed>1.4</speed>
</trkpt>
<trkpt lat="47.613198" lon="8.202452">
<ele>310.1</ele>
<time>2003-05-23T08:50:24Z</time>
<speed>1.7</speed>
</trkpt>
<trkpt lat="47.613185" lon="8.202558">
<ele>310.2</ele>
<time>2003-05-23T08:50:29Z</time>
<speed>1.4</speed>
</trkpt>
<trkpt lat="47.613153" lon="8.202648">
<ele>309.3</ele>
<time>2003-05-23T08:50:34Z</time>
<speed>1.4</speed>
</trkpt>
<trkpt lat="47.613115" lon="8.202734">
<ele>310.5</ele>
<time>2003-05-23T08:50:39Z</time>
<speed>1.4</speed>
</trkpt>
<trkpt lat="47.613059" lon="8.202808">
<ele>309.4</ele>
<time>2003-05-23T08:50:44Z</time>
<speed>1.4</speed>
</trkpt>
<trkpt lat="47.613004" lon="8.202866">
<ele>309.6</ele>
<time>2003-05-23T08:50:49Z</time>
<speed>1.4</speed>
</trkpt>
<trkpt lat="47.612938" lon="8.202896">
<ele>309.5</ele>
<time>2003-05-23T08:50:54Z</time>
<speed>1.4</speed>
</trkpt>
<trkpt lat="47.612858" lon="8.202937">
<ele>309.5</ele>
<time>2003-05-23T08:50:59Z</time>
<speed>1.4</speed>
</trkpt>
<trkpt lat="47.612793" lon="8.202954">
<ele>309.3</ele>
<time>2003-05-23T08:51:04Z</time>
<speed>1.4</speed>
</trkpt>
<trkpt lat="47.612716" lon="8.202954">
<ele>310.4</ele>
<time>2003-05-23T08:51:09Z</time>
<speed>1.4</speed>
</trkpt>
<trkpt lat="47.612652" lon="8.202957">
<ele>310.1</ele>
<time>2003-05-23T08:51:14Z</time>
<speed>1.4</speed>
</trkpt>
<trkpt lat="47.612587" lon="8.202961">
<ele>309.8</ele>
<time>2003-05-23T08:51:19Z</time>
<speed>1.4</speed>
</trkpt>
<trkpt lat="47.612518" lon="8.202950">
<ele>310.2</ele>
<time>2003-05-23T08:51:24Z</time>
<speed>1.4</speed>
</trkpt>
<trkpt lat="47.612470" lon="8.202997">
<ele>309.6</ele>
<time>2003-05-23T08:51:29Z</time>
<speed>1.4</speed>
</trkpt>
<trkpt lat="47.612481" lon="8.203121">
<ele>308.5</ele>
<time>2003-05-23T08:51:34Z</time>
<speed>1.7</speed>
</trkpt>
<trkpt lat="47.612526" lon="8.203222">
<ele>308.0</ele>
<time>2003-05-23T08:51:39Z</time>
<speed>1.7</speed>
</trkpt>
<trkpt lat="47.612557" lon="8.203322">
<ele>307.5</ele>
<time>2003-05-23T08:51:44Z</time>
<speed>1.4</speed>
</trkpt>
<trkpt lat="47.612595" lon="8.203422">
<ele>307.7</ele>
<time>2003-05-23T08:51:49Z</time>
<speed>1.4</speed>
</trkpt>
<trkpt lat="47.612627" lon="8.203507">
<ele>308.5</ele>
<time>2003-05-23T08:51:54Z</time>
<speed>1.4</speed>
</trkpt>
<trkpt lat="47.612660" lon="8.203591">
<ele>309.3</ele>
<time>2003-05-23T08:51:59Z</time>
<speed>1.4</speed>
</trkpt>
<trkpt lat="47.612705" lon="8.203678">
<ele>310.2</ele>
<time>2003-05-23T08:52:04Z</time>
<speed>1.4</speed>
</trkpt>
<trkpt lat="47.612737" lon="8.203764">
<ele>309.5</ele>
<time>2003-05-23T08:52:09Z</time>
<speed>1.4</speed>
</trkpt>
<trkpt lat="47.612782" lon="8.203851">
<ele>310.4</ele>
<time>2003-05-23T08:52:14Z</time>
<speed>1.4</speed>
</trkpt>
<trkpt lat="47.612821" lon="8.203938">
<ele>310.5</ele>
<time>2003-05-23T08:52:19Z</time>
<speed>1.4</speed>
</trkpt>
<trkpt lat="47.612861" lon="8.204011">
<ele>310.6</ele>
<time>2003-05-23T08:52:24Z</time>
<speed>1.4</speed>
</trkpt>
<trkpt lat="47.612899" lon="8.204098">
<ele>310.7</ele>
<time>2003-05-23T08:52:29Z</time>
<speed>1.4</speed>
</trkpt>
<trkpt lat="47.612953" lon="8.204160">
<ele>310.7</ele>
<time>2003-05-23T08:52:34Z</time>
<speed>1.4</speed>
</trkpt>
<trkpt lat="47.612992" lon="8.204246">
<ele>310.8</ele>
<time>2003-05-23T08:52:39Z</time>
<speed>1.4</speed>
</trkpt>
<trkpt lat="47.613031" lon="8.204320">
<ele>310.8</ele>
<time>2003-05-23T08:52:44Z</time>
<speed>1.4</speed>
</trkpt>
<trkpt lat="47.613086" lon="8.204369">
<ele>310.7</ele>
<time>2003-05-23T08:52:49Z</time>
<speed>1.1</speed>
</trkpt>
<trkpt lat="47.613112" lon="8.204453">
<ele>310.8</ele>
<time>2003-05-23T08:52:54Z</time>
<speed>1.1</speed>
</trkpt>
<trkpt lat="47.613138" lon="8.204538">
<ele>310.8</ele>
<time>2003-05-23T08:52:59Z</time>
<speed>1.1</speed>
</trkpt>
<trkpt lat="47.613133" lon="8.204604">
<ele>311.3</ele>
<time>2003-05-23T08:53:04Z</time>
<speed>0.8</speed>
</trkpt>
<trkpt lat="47.613099" lon="8.204640">
<ele>310.7</ele>
<time>2003-05-23T08:53:09Z</time>
<speed>0.8</speed>
</trkpt>
<trkpt lat="47.613082" lon="8.204611">
<ele>309.7</ele>
<time>2003-05-23T08:53:14Z</time>
<speed>0.3</speed>
</trkpt>
<trkpt lat="47.613071" lon="8.204596">
<ele>309.6</ele>
<time>2003-05-23T08:53:19Z</time>
<speed>0.0</speed>
</trkpt>
<trkpt lat="47.613071" lon="8.204583">
<ele>309.5</ele>
<time>2003-05-23T08:53:24Z</time>
<speed>0.0</speed>
</trkpt>
<trkpt lat="47.613071" lon="8.204583">
<ele>309.5</ele>
<time>2003-05-23T08:53:29Z</time>
<speed>0.0</speed>
</trkpt>
<trkpt lat="47.613071" lon="8.204583">
<ele>309.5</ele>
<time>2003-05-23T08:53:34Z</time>
<speed>0.0</speed>
</trkpt>
<trkpt lat="47.613071" lon="8.204583">
<ele>309.5</ele>
<time>2003-05-23T08:53:39Z</time>
<speed>0.0</speed>
</trkpt>
<trkpt lat="47.613071" lon="8.204583">
<ele>309.5</ele>
<time>2003-05-23T08:53:44Z</time>
<speed>0.0</speed>
</trkpt>
<trkpt lat="47.613072" lon="8.204570">
<ele>309.4</ele>
<time>2003-05-23T08:53:49Z</time>
<speed>0.0</speed>
</trkpt>
<trkpt lat="47.613072" lon="8.204570">
<ele>309.4</ele>
<time>2003-05-23T08:53:54Z</time>
<speed>0.0</speed>
</trkpt>
<trkpt lat="47.613079" lon="8.204572">
<ele>308.7</ele>
<time>2003-05-23T08:53:59Z</time>
<speed>0.0</speed>
</trkpt>
<trkpt lat="47.613079" lon="8.204572">
<ele>308.7</ele>
<time>2003-05-23T08:54:04Z</time>
<speed>0.0</speed>
</trkpt>
<trkpt lat="47.613087" lon="8.204561">
<ele>307.9</ele>
<time>2003-05-23T08:54:09Z</time>
<speed>0.0</speed>
</trkpt>
<trkpt lat="47.613094" lon="8.204549">
<ele>307.2</ele>
<time>2003-05-23T08:54:14Z</time>
<speed>0.0</speed>
</trkpt>
<trkpt lat="47.613107" lon="8.204551">
<ele>307.2</ele>
<time>2003-05-23T08:54:19Z</time>
<speed>0.0</speed>
</trkpt>
<trkpt lat="47.613108" lon="8.204538">
<ele>307.1</ele>
<time>2003-05-23T08:54:24Z</time>
<speed>0.0</speed>
</trkpt>
<trkpt lat="47.613108" lon="8.204538">
<ele>307.1</ele>
<time>2003-05-23T08:54:29Z</time>
<speed>0.0</speed>
</trkpt>
<trkpt lat="47.613109" lon="8.204525">
<ele>307.1</ele>
<time>2003-05-23T08:54:34Z</time>
<speed>0.0</speed>
</trkpt>
<trkpt lat="47.613103" lon="8.204525">
<ele>306.3</ele>
<time>2003-05-23T08:54:39Z</time>
<speed>0.0</speed>
</trkpt>
<trkpt lat="47.613091" lon="8.204510">
<ele>306.1</ele>
<time>2003-05-23T08:54:44Z</time>
<speed>0.0</speed>
</trkpt>
<trkpt lat="47.613098" lon="8.204499">
<ele>305.4</ele>
<time>2003-05-23T08:54:49Z</time>
<speed>0.0</speed>
</trkpt>
<trkpt lat="47.613092" lon="8.204499">
<ele>304.6</ele>
<time>2003-05-23T08:54:54Z</time>
<speed>0.0</speed>
</trkpt>
<trkpt lat="47.613092" lon="8.204499">
<ele>304.6</ele>
<time>2003-05-23T08:54:59Z</time>
<speed>0.0</speed>
</trkpt>
<trkpt lat="47.613106" lon="8.204487">
<ele>304.6</ele>
<time>2003-05-23T08:55:04Z</time>
<speed>0.0</speed>
</trkpt>
<trkpt lat="47.613107" lon="8.204474">
<ele>304.5</ele>
<time>2003-05-23T08:55:09Z</time>
<speed>0.0</speed>
</trkpt>
<trkpt lat="47.613106" lon="8.204487">
<ele>304.6</ele>
<time>2003-05-23T08:55:14Z</time>
<speed>0.0</speed>
</trkpt>
<trkpt lat="47.613106" lon="8.204487">
<ele>304.6</ele>
<time>2003-05-23T08:55:19Z</time>
<speed>0.0</speed>
</trkpt>
<trkpt lat="47.613098" lon="8.204499">
<ele>305.4</ele>
<time>2003-05-23T08:55:24Z</time>
<speed>0.3</speed>
</trkpt>
<trkpt lat="47.613098" lon="8.204497">
<ele>306.8</ele>
<time>2003-05-23T08:55:29Z</time>
<speed>0.0</speed>
</trkpt>
<trkpt lat="47.613105" lon="8.204485">
<ele>306.0</ele>
<time>2003-05-23T08:55:34Z</time>
<speed>0.0</speed>
</trkpt>
<trkpt lat="47.613111" lon="8.204485">
<ele>306.8</ele>
<time>2003-05-23T08:55:39Z</time>
<speed>0.0</speed>
</trkpt>
<trkpt lat="47.613105" lon="8.204484">
<ele>307.4</ele>
<time>2003-05-23T08:55:44Z</time>
<speed>0.0</speed>
</trkpt>
<trkpt lat="47.613104" lon="8.204482">
<ele>308.8</ele>
<time>2003-05-23T08:55:49Z</time>
<speed>0.0</speed>
</trkpt>
<trkpt lat="47.613104" lon="8.204482">
<ele>308.8</ele>
<time>2003-05-23T08:55:54Z</time>
<speed>0.0</speed>
</trkpt>
<trkpt lat="47.613091" lon="8.204493">
<ele>308.9</ele>
<time>2003-05-23T08:55:59Z</time>
<speed>0.0</speed>
</trkpt>
<trkpt lat="47.613091" lon="8.204493">
<ele>308.9</ele>
<time>2003-05-23T08:56:04Z</time>
<speed>0.0</speed>
</trkpt>
<trkpt lat="47.613090" lon="8.204508">
<ele>307.6</ele>
<time>2003-05-23T08:56:09Z</time>
<speed>0.0</speed>
</trkpt>
<trkpt lat="47.613083" lon="8.204521">
<ele>306.9</ele>
<time>2003-05-23T08:56:14Z</time>
<speed>0.0</speed>
</trkpt>
<trkpt lat="47.613062" lon="8.204544">
<ele>307.7</ele>
<time>2003-05-23T08:56:19Z</time>
<speed>0.0</speed>
</trkpt>
<trkpt lat="47.613055" lon="8.204555">
<ele>308.5</ele>
<time>2003-05-23T08:56:24Z</time>
<speed>0.0</speed>
</trkpt>
<trkpt lat="47.613061" lon="8.204555">
<ele>309.2</ele>
<time>2003-05-23T08:56:29Z</time>
<speed>0.0</speed>
</trkpt>
<trkpt lat="47.613061" lon="8.204555">
<ele>309.2</ele>
<time>2003-05-23T08:56:34Z</time>
<speed>0.0</speed>
</trkpt>
<trkpt lat="47.613068" lon="8.204544">
<ele>308.4</ele>
<time>2003-05-23T08:56:39Z</time>
<speed>0.0</speed>
</trkpt>
<trkpt lat="47.613069" lon="8.204531">
<ele>308.3</ele>
<time>2003-05-23T08:56:44Z</time>
<speed>0.0</speed>
</trkpt>
<trkpt lat="47.613076" lon="8.204532">
<ele>307.7</ele>
<time>2003-05-23T08:56:49Z</time>
<speed>0.0</speed>
</trkpt>
<trkpt lat="47.613076" lon="8.204532">
<ele>307.7</ele>
<time>2003-05-23T08:56:54Z</time>
<speed>0.0</speed>
</trkpt>
<trkpt lat="47.613088" lon="8.204534">
<ele>307.7</ele>
<time>2003-05-23T08:56:59Z</time>
<speed>0.0</speed>
</trkpt>
<trkpt lat="47.613088" lon="8.204534">
<ele>307.7</ele>
<time>2003-05-23T08:57:04Z</time>
<speed>0.0</speed>
</trkpt>
<trkpt lat="47.613088" lon="8.204534">
<ele>307.7</ele>
<time>2003-05-23T08:57:09Z</time>
<speed>0.0</speed>
</trkpt>
<trkpt lat="47.613088" lon="8.204534">
<ele>307.7</ele>
<time>2003-05-23T08:57:14Z</time>
<speed>0.0</speed>
</trkpt>
<trkpt lat="47.613088" lon="8.204534">
<ele>307.7</ele>
<time>2003-05-23T08:57:19Z</time>
<speed>0.0</speed>
</trkpt>
<trkpt lat="47.613088" lon="8.204534">
<ele>307.7</ele>
<time>2003-05-23T08:57:24Z</time>
<speed>0.0</speed>
</trkpt>
<trkpt lat="47.613087" lon="8.204547">
<ele>307.8</ele>
<time>2003-05-23T08:57:29Z</time>
<speed>0.0</speed>
</trkpt>
<trkpt lat="47.613087" lon="8.204547">
<ele>307.8</ele>
<time>2003-05-23T08:57:34Z</time>
<speed>0.0</speed>
</trkpt>
<trkpt lat="47.613087" lon="8.204547">
<ele>307.8</ele>
<time>2003-05-23T08:57:39Z</time>
<speed>0.0</speed>
</trkpt>
<trkpt lat="47.613087" lon="8.204547">
<ele>307.8</ele>
<time>2003-05-23T08:57:44Z</time>
<speed>0.0</speed>
</trkpt>
<trkpt lat="47.613080" lon="8.204559">
<ele>308.6</ele>
<time>2003-05-23T08:57:49Z</time>
<speed>0.0</speed>
</trkpt>
<trkpt lat="47.613080" lon="8.204559">
<ele>308.6</ele>
<time>2003-05-23T08:57:54Z</time>
<speed>0.0</speed>
</trkpt>
<trkpt lat="47.613087" lon="8.204561">
<ele>307.9</ele>
<time>2003-05-23T08:57:59Z</time>
<speed>0.0</speed>
</trkpt>
<trkpt lat="47.613087" lon="8.204561">
<ele>307.9</ele>
<time>2003-05-23T08:58:04Z</time>
<speed>0.0</speed>
</trkpt>
<trkpt lat="47.613087" lon="8.204561">
<ele>307.9</ele>
<time>2003-05-23T08:58:09Z</time>
<speed>0.0</speed>
</trkpt>
<trkpt lat="47.613080" lon="8.204559">
<ele>308.6</ele>
<time>2003-05-23T08:58:14Z</time>
<speed>0.0</speed>
</trkpt>
<trkpt lat="47.613079" lon="8.204572">
<ele>308.7</ele>
<time>2003-05-23T08:58:19Z</time>
<speed>0.0</speed>
</trkpt>
<trkpt lat="47.613079" lon="8.204572">
<ele>308.7</ele>
<time>2003-05-23T08:58:24Z</time>
<speed>0.0</speed>
</trkpt>
<trkpt lat="47.613079" lon="8.204572">
<ele>308.7</ele>
<time>2003-05-23T08:58:29Z</time>
<speed>0.0</speed>
</trkpt>
<trkpt lat="47.613079" lon="8.204572">
<ele>308.7</ele>
<time>2003-05-23T08:58:34Z</time>
<speed>0.0</speed>
</trkpt>
<trkpt lat="47.613066" lon="8.204570">
<ele>308.6</ele>
<time>2003-05-23T08:58:39Z</time>
<speed>0.0</speed>
</trkpt>
<trkpt lat="47.613066" lon="8.204570">
<ele>308.6</ele>
<time>2003-05-23T08:58:44Z</time>
<speed>0.0</speed>
</trkpt>
<trkpt lat="47.613066" lon="8.204570">
<ele>308.6</ele>
<time>2003-05-23T08:58:49Z</time>
<speed>0.0</speed>
</trkpt>
<trkpt lat="47.613065" lon="8.204583">
<ele>308.7</ele>
<time>2003-05-23T08:58:54Z</time>
<speed>0.0</speed>
</trkpt>
<trkpt lat="47.613065" lon="8.204583">
<ele>308.7</ele>
<time>2003-05-23T08:58:59Z</time>
<speed>0.0</speed>
</trkpt>
<trkpt lat="47.613065" lon="8.204583">
<ele>308.7</ele>
<time>2003-05-23T08:59:04Z</time>
<speed>0.0</speed>
</trkpt>
<trkpt lat="47.613059" lon="8.204583">
<ele>308.0</ele>
<time>2003-05-23T08:59:09Z</time>
<speed>0.0</speed>
</trkpt>
<trkpt lat="47.613059" lon="8.204583">
<ele>308.0</ele>
<time>2003-05-23T08:59:14Z</time>
<speed>0.0</speed>
</trkpt>
<trkpt lat="47.613059" lon="8.204583">
<ele>308.0</ele>
<time>2003-05-23T08:59:19Z</time>
<speed>0.0</speed>
</trkpt>
<trkpt lat="47.613059" lon="8.204583">
<ele>308.0</ele>
<time>2003-05-23T08:59:24Z</time>
<speed>0.0</speed>
</trkpt>
<trkpt lat="47.613059" lon="8.204583">
<ele>308.0</ele>
<time>2003-05-23T08:59:29Z</time>
<speed>0.0</speed>
</trkpt>
<trkpt lat="47.613053" lon="8.204581">
<ele>308.7</ele>
<time>2003-05-23T08:59:34Z</time>
<speed>0.0</speed>
</trkpt>
<trkpt lat="47.613065" lon="8.204583">
<ele>308.7</ele>
<time>2003-05-23T08:59:39Z</time>
<speed>0.0</speed>
</trkpt>
<trkpt lat="47.613066" lon="8.204570">
<ele>308.6</ele>
<time>2003-05-23T08:59:44Z</time>
<speed>0.0</speed>
</trkpt>
<trkpt lat="47.613066" lon="8.204570">
<ele>308.6</ele>
<time>2003-05-23T08:59:49Z</time>
<speed>0.0</speed>
</trkpt>
<trkpt lat="47.613065" lon="8.204583">
<ele>308.7</ele>
<time>2003-05-23T08:59:54Z</time>
<speed>0.0</speed>
</trkpt>
<trkpt lat="47.613065" lon="8.204583">
<ele>308.7</ele>
<time>2003-05-23T08:59:59Z</time>
<speed>0.0</speed>
</trkpt>
<trkpt lat="47.613071" lon="8.204583">
<ele>309.5</ele>
<time>2003-05-23T09:00:04Z</time>
<speed>0.0</speed>
</trkpt>
<trkpt lat="47.613071" lon="8.204583">
<ele>309.5</ele>
<time>2003-05-23T09:00:09Z</time>
<speed>0.0</speed>
</trkpt>
<trkpt lat="47.613071" lon="8.204583">
<ele>309.5</ele>
<time>2003-05-23T09:00:14Z</time>
<speed>0.0</speed>
</trkpt>
<trkpt lat="47.613072" lon="8.204570">
<ele>309.4</ele>
<time>2003-05-23T09:00:19Z</time>
<speed>0.0</speed>
</trkpt>
<trkpt lat="47.613072" lon="8.204570">
<ele>309.4</ele>
<time>2003-05-23T09:00:24Z</time>
<speed>0.0</speed>
</trkpt>
<trkpt lat="47.613079" lon="8.204570">
<ele>310.1</ele>
<time>2003-05-23T09:00:29Z</time>
<speed>0.0</speed>
</trkpt>
<trkpt lat="47.613079" lon="8.204570">
<ele>310.1</ele>
<time>2003-05-23T09:00:34Z</time>
<speed>0.0</speed>
</trkpt>
<trkpt lat="47.613079" lon="8.204570">
<ele>310.1</ele>
<time>2003-05-23T09:00:39Z</time>
<speed>0.0</speed>
</trkpt>
<trkpt lat="47.613078" lon="8.204583">
<ele>310.2</ele>
<time>2003-05-23T09:00:44Z</time>
<speed>0.0</speed>
</trkpt>
<trkpt lat="47.613078" lon="8.204583">
<ele>310.2</ele>
<time>2003-05-23T09:00:49Z</time>
<speed>0.0</speed>
</trkpt>
<trkpt lat="47.613084" lon="8.204583">
<ele>310.9</ele>
<time>2003-05-23T09:00:54Z</time>
<speed>0.0</speed>
</trkpt>
<trkpt lat="47.613084" lon="8.204583">
<ele>310.9</ele>
<time>2003-05-23T09:00:59Z</time>
<speed>0.0</speed>
</trkpt>
<trkpt lat="47.613084" lon="8.204583">
<ele>310.9</ele>
<time>2003-05-23T09:01:04Z</time>
<speed>0.0</speed>
</trkpt>
<trkpt lat="47.613084" lon="8.204583">
<ele>310.9</ele>
<time>2003-05-23T09:01:09Z</time>
<speed>0.0</speed>
</trkpt>
<trkpt lat="47.613084" lon="8.204583">
<ele>310.9</ele>
<time>2003-05-23T09:01:14Z</time>
<speed>0.0</speed>
</trkpt>
<trkpt lat="47.613083" lon="8.204596">
<ele>311.0</ele>
<time>2003-05-23T09:01:19Z</time>
<speed>0.0</speed>
</trkpt>
<trkpt lat="47.613083" lon="8.204596">
<ele>311.0</ele>
<time>2003-05-23T09:01:24Z</time>
<speed>0.0</speed>
</trkpt>
<trkpt lat="47.613076" lon="8.204594">
<ele>311.7</ele>
<time>2003-05-23T09:01:29Z</time>
<speed>0.0</speed>
</trkpt>
<trkpt lat="47.613076" lon="8.204594">
<ele>311.7</ele>
<time>2003-05-23T09:01:34Z</time>
<speed>0.0</speed>
</trkpt>
<trkpt lat="47.613076" lon="8.204594">
<ele>311.7</ele>
<time>2003-05-23T09:01:39Z</time>
<speed>0.0</speed>
</trkpt>
<trkpt lat="47.613076" lon="8.204594">
<ele>311.7</ele>
<time>2003-05-23T09:01:44Z</time>
<speed>0.0</speed>
</trkpt>
<trkpt lat="47.613076" lon="8.204594">
<ele>311.7</ele>
<time>2003-05-23T09:01:49Z</time>
<speed>0.0</speed>
</trkpt>
<trkpt lat="47.613076" lon="8.204594">
<ele>311.7</ele>
<time>2003-05-23T09:01:54Z</time>
<speed>0.0</speed>
</trkpt>
<trkpt lat="47.613076" lon="8.204594">
<ele>311.7</ele>
<time>2003-05-23T09:01:59Z</time>
<speed>0.0</speed>
</trkpt>
<trkpt lat="47.613076" lon="8.204594">
<ele>311.7</ele>
<time>2003-05-23T09:02:04Z</time>
<speed>0.0</speed>
</trkpt>
<trkpt lat="47.613076" lon="8.204594">
<ele>311.7</ele>
<time>2003-05-23T09:02:09Z</time>
<speed>0.0</speed>
</trkpt>
<trkpt lat="47.613076" lon="8.204594">
<ele>311.7</ele>
<time>2003-05-23T09:02:14Z</time>
<speed>0.0</speed>
</trkpt>
<trkpt lat="47.613076" lon="8.204594">
<ele>311.7</ele>
<time>2003-05-23T09:02:19Z</time>
<speed>0.0</speed>
</trkpt>
<trkpt lat="47.613083" lon="8.204596">
<ele>311.0</ele>
<time>2003-05-23T09:02:24Z</time>
<speed>0.0</speed>
</trkpt>
<trkpt lat="47.613084" lon="8.204583">
<ele>310.9</ele>
<time>2003-05-23T09:02:29Z</time>
<speed>0.0</speed>
</trkpt>
<trkpt lat="47.613084" lon="8.204583">
<ele>310.9</ele>
<time>2003-05-23T09:02:34Z</time>
<speed>0.0</speed>
</trkpt>
<trkpt lat="47.613084" lon="8.204583">
<ele>310.9</ele>
<time>2003-05-23T09:02:39Z</time>
<speed>0.0</speed>
</trkpt>
<trkpt lat="47.613084" lon="8.204583">
<ele>310.9</ele>
<time>2003-05-23T09:02:44Z</time>
<speed>0.0</speed>
</trkpt>
<trkpt lat="47.613084" lon="8.204583">
<ele>310.9</ele>
<time>2003-05-23T09:02:49Z</time>
<speed>0.0</speed>
</trkpt>
<trkpt lat="47.613084" lon="8.204583">
<ele>310.9</ele>
<time>2003-05-23T09:02:54Z</time>
<speed>0.0</speed>
</trkpt>
<trkpt lat="47.613084" lon="8.204583">
<ele>310.9</ele>
<time>2003-05-23T09:02:59Z</time>
<speed>0.0</speed>
</trkpt>
<trkpt lat="47.613084" lon="8.204583">
<ele>310.9</ele>
<time>2003-05-23T09:03:04Z</time>
<speed>0.0</speed>
</trkpt>
<trkpt lat="47.613084" lon="8.204583">
<ele>310.9</ele>
<time>2003-05-23T09:03:09Z</time>
<speed>0.0</speed>
</trkpt>
<trkpt lat="47.613084" lon="8.204583">
<ele>310.9</ele>
<time>2003-05-23T09:03:14Z</time>
<speed>0.0</speed>
</trkpt>
<trkpt lat="47.613077" lon="8.204581">
<ele>311.6</ele>
<time>2003-05-23T09:03:19Z</time>
<speed>0.0</speed>
</trkpt>
<trkpt lat="47.613082" lon="8.204594">
<ele>312.4</ele>
<time>2003-05-23T09:03:24Z</time>
<speed>0.0</speed>
</trkpt>
<trkpt lat="47.613082" lon="8.204594">
<ele>312.4</ele>
<time>2003-05-23T09:03:29Z</time>
<speed>0.0</speed>
</trkpt>
<trkpt lat="47.613082" lon="8.204594">
<ele>312.4</ele>
<time>2003-05-23T09:03:34Z</time>
<speed>0.0</speed>
</trkpt>
<trkpt lat="47.613082" lon="8.204594">
<ele>312.4</ele>
<time>2003-05-23T09:03:39Z</time>
<speed>0.0</speed>
</trkpt>
<trkpt lat="47.613082" lon="8.204594">
<ele>312.4</ele>
<time>2003-05-23T09:03:44Z</time>
<speed>0.0</speed>
</trkpt>
<trkpt lat="47.613082" lon="8.204594">
<ele>312.4</ele>
<time>2003-05-23T09:03:49Z</time>
<speed>0.0</speed>
</trkpt>
<trkpt lat="47.613082" lon="8.204594">
<ele>312.4</ele>
<time>2003-05-23T09:03:54Z</time>
<speed>0.0</speed>
</trkpt>
<trkpt lat="47.613082" lon="8.204594">
<ele>312.4</ele>
<time>2003-05-23T09:03:59Z</time>
<speed>0.0</speed>
</trkpt>
<trkpt lat="47.613082" lon="8.204594">
<ele>312.4</ele>
<time>2003-05-23T09:04:04Z</time>
<speed>0.0</speed>
</trkpt>
<trkpt lat="47.613082" lon="8.204594">
<ele>312.4</ele>
<time>2003-05-23T09:04:09Z</time>
<speed>0.0</speed>
</trkpt>
<trkpt lat="47.613082" lon="8.204594">
<ele>312.4</ele>
<time>2003-05-23T09:04:14Z</time>
<speed>0.0</speed>
</trkpt>
<trkpt lat="47.613082" lon="8.204594">
<ele>312.4</ele>
<time>2003-05-23T09:04:19Z</time>
<speed>0.0</speed>
</trkpt>
<trkpt lat="47.613082" lon="8.204594">
<ele>312.4</ele>
<time>2003-05-23T09:04:24Z</time>
<speed>0.0</speed>
</trkpt>
<trkpt lat="47.613077" lon="8.204581">
<ele>311.6</ele>
<time>2003-05-23T09:04:29Z</time>
<speed>0.0</speed>
</trkpt>
<trkpt lat="47.613077" lon="8.204581">
<ele>311.6</ele>
<time>2003-05-23T09:04:34Z</time>
<speed>0.0</speed>
</trkpt>
<trkpt lat="47.613077" lon="8.204581">
<ele>311.6</ele>
<time>2003-05-23T09:04:39Z</time>
<speed>0.0</speed>
</trkpt>
<trkpt lat="47.613079" lon="8.204557">
<ele>310.0</ele>
<time>2003-05-23T09:04:44Z</time>
<speed>0.0</speed>
</trkpt>
<trkpt lat="47.613081" lon="8.204546">
<ele>308.5</ele>
<time>2003-05-23T09:04:49Z</time>
<speed>0.0</speed>
</trkpt>
<trkpt lat="47.613081" lon="8.204546">
<ele>308.5</ele>
<time>2003-05-23T09:04:54Z</time>
<speed>0.0</speed>
</trkpt>
<trkpt lat="47.613082" lon="8.204532">
<ele>308.4</ele>
<time>2003-05-23T09:04:59Z</time>
<speed>0.0</speed>
</trkpt>
<trkpt lat="47.613076" lon="8.204532">
<ele>307.7</ele>
<time>2003-05-23T09:05:04Z</time>
<speed>0.0</speed>
</trkpt>
<trkpt lat="47.613083" lon="8.204521">
<ele>306.9</ele>
<time>2003-05-23T09:05:09Z</time>
<speed>0.0</speed>
</trkpt>
<trkpt lat="47.613083" lon="8.204521">
<ele>306.9</ele>
<time>2003-05-23T09:05:14Z</time>
<speed>0.0</speed>
</trkpt>
<trkpt lat="47.613083" lon="8.204521">
<ele>306.9</ele>
<time>2003-05-23T09:05:19Z</time>
<speed>0.0</speed>
</trkpt>
<trkpt lat="47.613077" lon="8.204521">
<ele>306.2</ele>
<time>2003-05-23T09:05:24Z</time>
<speed>0.0</speed>
</trkpt>
<trkpt lat="47.613078" lon="8.204508">
<ele>306.1</ele>
<time>2003-05-23T09:05:29Z</time>
<speed>0.0</speed>
</trkpt>
<trkpt lat="47.613085" lon="8.204510">
<ele>305.4</ele>
<time>2003-05-23T09:05:34Z</time>
<speed>0.0</speed>
</trkpt>
<trkpt lat="47.613085" lon="8.204510">
<ele>305.4</ele>
<time>2003-05-23T09:05:39Z</time>
<speed>0.0</speed>
</trkpt>
<trkpt lat="47.613085" lon="8.204510">
<ele>305.4</ele>
<time>2003-05-23T09:05:44Z</time>
<speed>0.0</speed>
</trkpt>
<trkpt lat="47.613085" lon="8.204510">
<ele>305.4</ele>
<time>2003-05-23T09:05:49Z</time>
<speed>0.0</speed>
</trkpt>
<trkpt lat="47.613085" lon="8.204510">
<ele>305.4</ele>
<time>2003-05-23T09:05:54Z</time>
<speed>0.0</speed>
</trkpt>
<trkpt lat="47.613085" lon="8.204510">
<ele>305.4</ele>
<time>2003-05-23T09:05:59Z</time>
<speed>0.0</speed>
</trkpt>
<trkpt lat="47.613083" lon="8.204521">
<ele>306.9</ele>
<time>2003-05-23T09:06:04Z</time>
<speed>0.0</speed>
</trkpt>
<trkpt lat="47.613088" lon="8.204534">
<ele>307.7</ele>
<time>2003-05-23T09:06:09Z</time>
<speed>0.0</speed>
</trkpt>
<trkpt lat="47.613081" lon="8.204546">
<ele>308.5</ele>
<time>2003-05-23T09:06:14Z</time>
<speed>0.0</speed>
</trkpt>
<trkpt lat="47.613079" lon="8.204557">
<ele>310.0</ele>
<time>2003-05-23T09:06:19Z</time>
<speed>0.0</speed>
</trkpt>
<trkpt lat="47.613079" lon="8.204570">
<ele>310.1</ele>
<time>2003-05-23T09:06:24Z</time>
<speed>0.0</speed>
</trkpt>
<trkpt lat="47.613085" lon="8.204570">
<ele>310.8</ele>
<time>2003-05-23T09:06:29Z</time>
<speed>0.0</speed>
</trkpt>
<trkpt lat="47.613077" lon="8.204581">
<ele>311.6</ele>
<time>2003-05-23T09:06:34Z</time>
<speed>0.0</speed>
</trkpt>
<trkpt lat="47.613077" lon="8.204581">
<ele>311.6</ele>
<time>2003-05-23T09:06:39Z</time>
<speed>0.0</speed>
</trkpt>
<trkpt lat="47.613077" lon="8.204581">
<ele>311.6</ele>
<time>2003-05-23T09:06:44Z</time>
<speed>0.0</speed>
</trkpt>
<trkpt lat="47.613076" lon="8.204593">
<ele>313.1</ele>
<time>2003-05-23T09:06:49Z</time>
<speed>0.0</speed>
</trkpt>
<trkpt lat="47.613076" lon="8.204593">
<ele>313.1</ele>
<time>2003-05-23T09:06:54Z</time>
<speed>0.0</speed>
</trkpt>
<trkpt lat="47.613076" lon="8.204593">
<ele>313.1</ele>
<time>2003-05-23T09:06:59Z</time>
<speed>0.0</speed>
</trkpt>
<trkpt lat="47.613077" lon="8.204579">
<ele>313.0</ele>
<time>2003-05-23T09:07:04Z</time>
<speed>0.0</speed>
</trkpt>
<trkpt lat="47.613077" lon="8.204581">
<ele>311.6</ele>
<time>2003-05-23T09:07:09Z</time>
<speed>0.0</speed>
</trkpt>
<trkpt lat="47.613078" lon="8.204568">
<ele>311.5</ele>
<time>2003-05-23T09:07:14Z</time>
<speed>0.0</speed>
</trkpt>
<trkpt lat="47.613079" lon="8.204557">
<ele>310.0</ele>
<time>2003-05-23T09:07:19Z</time>
<speed>0.0</speed>
</trkpt>
<trkpt lat="47.613080" lon="8.204544">
<ele>309.9</ele>
<time>2003-05-23T09:07:24Z</time>
<speed>0.0</speed>
</trkpt>
<trkpt lat="47.613080" lon="8.204544">
<ele>309.9</ele>
<time>2003-05-23T09:07:29Z</time>
<speed>0.0</speed>
</trkpt>
<trkpt lat="47.613074" lon="8.204544">
<ele>309.2</ele>
<time>2003-05-23T09:07:34Z</time>
<speed>0.0</speed>
</trkpt>
<trkpt lat="47.613078" lon="8.204568">
<ele>311.5</ele>
<time>2003-05-23T09:07:39Z</time>
<speed>0.0</speed>
</trkpt>
<trkpt lat="47.613084" lon="8.204568">
<ele>312.3</ele>
<time>2003-05-23T09:07:44Z</time>
<speed>0.0</speed>
</trkpt>
<trkpt lat="47.613084" lon="8.204568">
<ele>312.3</ele>
<time>2003-05-23T09:07:49Z</time>
<speed>0.0</speed>
</trkpt>
<trkpt lat="47.613084" lon="8.204568">
<ele>312.3</ele>
<time>2003-05-23T09:07:54Z</time>
<speed>0.0</speed>
</trkpt>
<trkpt lat="47.613089" lon="8.204581">
<ele>313.1</ele>
<time>2003-05-23T09:07:59Z</time>
<speed>0.0</speed>
</trkpt>
<trkpt lat="47.613089" lon="8.204581">
<ele>313.1</ele>
<time>2003-05-23T09:08:04Z</time>
<speed>0.0</speed>
</trkpt>
<trkpt lat="47.613082" lon="8.204593">
<ele>313.8</ele>
<time>2003-05-23T09:08:09Z</time>
<speed>0.0</speed>
</trkpt>
<trkpt lat="47.613087" lon="8.204606">
<ele>314.7</ele>
<time>2003-05-23T09:08:14Z</time>
<speed>0.0</speed>
</trkpt>
<trkpt lat="47.613085" lon="8.204617">
<ele>316.2</ele>
<time>2003-05-23T09:08:19Z</time>
<speed>0.0</speed>
</trkpt>
<trkpt lat="47.613085" lon="8.204617">
<ele>316.2</ele>
<time>2003-05-23T09:08:24Z</time>
<speed>0.0</speed>
</trkpt>
<trkpt lat="47.613085" lon="8.204617">
<ele>316.2</ele>
<time>2003-05-23T09:08:29Z</time>
<speed>0.0</speed>
</trkpt>
<trkpt lat="47.613084" lon="8.204630">
<ele>316.3</ele>
<time>2003-05-23T09:08:34Z</time>
<speed>0.0</speed>
</trkpt>
<trkpt lat="47.613078" lon="8.204628">
<ele>316.9</ele>
<time>2003-05-23T09:08:39Z</time>
<speed>0.0</speed>
</trkpt>
<trkpt lat="47.613084" lon="8.204628">
<ele>317.7</ele>
<time>2003-05-23T09:08:44Z</time>
<speed>0.0</speed>
</trkpt>
<trkpt lat="47.613084" lon="8.204628">
<ele>317.7</ele>
<time>2003-05-23T09:08:49Z</time>
<speed>0.0</speed>
</trkpt>
<trkpt lat="47.613084" lon="8.204628">
<ele>317.7</ele>
<time>2003-05-23T09:08:54Z</time>
<speed>0.0</speed>
</trkpt>
<trkpt lat="47.613083" lon="8.204641">
<ele>317.8</ele>
<time>2003-05-23T09:08:59Z</time>
<speed>0.0</speed>
</trkpt>
<trkpt lat="47.613076" lon="8.204640">
<ele>318.5</ele>
<time>2003-05-23T09:09:04Z</time>
<speed>0.0</speed>
</trkpt>
<trkpt lat="47.613076" lon="8.204640">
<ele>318.5</ele>
<time>2003-05-23T09:09:09Z</time>
<speed>0.0</speed>
</trkpt>
<trkpt lat="47.613076" lon="8.204640">
<ele>318.5</ele>
<time>2003-05-23T09:09:14Z</time>
<speed>0.0</speed>
</trkpt>
<trkpt lat="47.613076" lon="8.204640">
<ele>318.5</ele>
<time>2003-05-23T09:09:19Z</time>
<speed>0.0</speed>
</trkpt>
<trkpt lat="47.613081" lon="8.204653">
<ele>319.3</ele>
<time>2003-05-23T09:09:24Z</time>
<speed>0.0</speed>
</trkpt>
<trkpt lat="47.613081" lon="8.204653">
<ele>319.3</ele>
<time>2003-05-23T09:09:29Z</time>
<speed>0.0</speed>
</trkpt>
<trkpt lat="47.613081" lon="8.204653">
<ele>319.3</ele>
<time>2003-05-23T09:09:34Z</time>
<speed>0.0</speed>
</trkpt>
<trkpt lat="47.613081" lon="8.204653">
<ele>319.3</ele>
<time>2003-05-23T09:09:39Z</time>
<speed>0.0</speed>
</trkpt>
<trkpt lat="47.613081" lon="8.204653">
<ele>319.3</ele>
<time>2003-05-23T09:09:44Z</time>
<speed>0.0</speed>
</trkpt>
<trkpt lat="47.613081" lon="8.204653">
<ele>319.3</ele>
<time>2003-05-23T09:09:49Z</time>
<speed>0.0</speed>
</trkpt>
<trkpt lat="47.613081" lon="8.204653">
<ele>319.3</ele>
<time>2003-05-23T09:09:54Z</time>
<speed>0.0</speed>
</trkpt>
<trkpt lat="47.613081" lon="8.204653">
<ele>319.3</ele>
<time>2003-05-23T09:09:59Z</time>
<speed>0.0</speed>
</trkpt>
<trkpt lat="47.613081" lon="8.204653">
<ele>319.3</ele>
<time>2003-05-23T09:10:04Z</time>
<speed>0.0</speed>
</trkpt>
<trkpt lat="47.613080" lon="8.204666">
<ele>319.4</ele>
<time>2003-05-23T09:10:09Z</time>
<speed>0.0</speed>
</trkpt>
<trkpt lat="47.613080" lon="8.204666">
<ele>319.4</ele>
<time>2003-05-23T09:10:14Z</time>
<speed>0.0</speed>
</trkpt>
<trkpt lat="47.613075" lon="8.204653">
<ele>318.5</ele>
<time>2003-05-23T09:10:19Z</time>
<speed>0.0</speed>
</trkpt>
<trkpt lat="47.613083" lon="8.204641">
<ele>317.8</ele>
<time>2003-05-23T09:10:24Z</time>
<speed>0.0</speed>
</trkpt>
<trkpt lat="47.613077" lon="8.204641">
<ele>317.0</ele>
<time>2003-05-23T09:10:29Z</time>
<speed>0.0</speed>
</trkpt>
<trkpt lat="47.613084" lon="8.204630">
<ele>316.3</ele>
<time>2003-05-23T09:10:34Z</time>
<speed>0.0</speed>
</trkpt>
<trkpt lat="47.613084" lon="8.204630">
<ele>316.3</ele>
<time>2003-05-23T09:10:39Z</time>
<speed>0.0</speed>
</trkpt>
<trkpt lat="47.613084" lon="8.204630">
<ele>316.3</ele>
<time>2003-05-23T09:10:44Z</time>
<speed>0.0</speed>
</trkpt>
<trkpt lat="47.613079" lon="8.204617">
<ele>315.4</ele>
<time>2003-05-23T09:10:49Z</time>
<speed>0.0</speed>
</trkpt>
<trkpt lat="47.613079" lon="8.204617">
<ele>315.4</ele>
<time>2003-05-23T09:10:54Z</time>
<speed>0.0</speed>
</trkpt>
<trkpt lat="47.613084" lon="8.204630">
<ele>316.3</ele>
<time>2003-05-23T09:10:59Z</time>
<speed>0.0</speed>
</trkpt>
<trkpt lat="47.613086" lon="8.204619">
<ele>314.8</ele>
<time>2003-05-23T09:11:04Z</time>
<speed>0.0</speed>
</trkpt>
<trkpt lat="47.613086" lon="8.204619">
<ele>314.8</ele>
<time>2003-05-23T09:11:09Z</time>
<speed>0.0</speed>
</trkpt>
<trkpt lat="47.613092" lon="8.204619">
<ele>315.5</ele>
<time>2003-05-23T09:11:14Z</time>
<speed>0.0</speed>
</trkpt>
<trkpt lat="47.613092" lon="8.204619">
<ele>315.5</ele>
<time>2003-05-23T09:11:19Z</time>
<speed>0.0</speed>
</trkpt>
<trkpt lat="47.613092" lon="8.204619">
<ele>315.5</ele>
<time>2003-05-23T09:11:24Z</time>
<speed>0.0</speed>
</trkpt>
<trkpt lat="47.613091" lon="8.204632">
<ele>315.6</ele>
<time>2003-05-23T09:11:29Z</time>
<speed>0.0</speed>
</trkpt>
<trkpt lat="47.613084" lon="8.204630">
<ele>316.3</ele>
<time>2003-05-23T09:11:34Z</time>
<speed>0.0</speed>
</trkpt>
<trkpt lat="47.613084" lon="8.204630">
<ele>316.3</ele>
<time>2003-05-23T09:11:39Z</time>
<speed>0.0</speed>
</trkpt>
<trkpt lat="47.613084" lon="8.204630">
<ele>316.3</ele>
<time>2003-05-23T09:11:44Z</time>
<speed>0.0</speed>
</trkpt>
<trkpt lat="47.613083" lon="8.204643">
<ele>316.4</ele>
<time>2003-05-23T09:11:49Z</time>
<speed>0.0</speed>
</trkpt>
<trkpt lat="47.613084" lon="8.204630">
<ele>316.3</ele>
<time>2003-05-23T09:11:54Z</time>
<speed>0.0</speed>
</trkpt>
<trkpt lat="47.613083" lon="8.204643">
<ele>316.4</ele>
<time>2003-05-23T09:11:59Z</time>
<speed>0.0</speed>
</trkpt>
<trkpt lat="47.613078" lon="8.204630">
<ele>315.5</ele>
<time>2003-05-23T09:12:04Z</time>
<speed>0.0</speed>
</trkpt>
<trkpt lat="47.613078" lon="8.204630">
<ele>315.5</ele>
<time>2003-05-23T09:12:09Z</time>
<speed>0.0</speed>
</trkpt>
<trkpt lat="47.613078" lon="8.204630">
<ele>315.5</ele>
<time>2003-05-23T09:12:14Z</time>
<speed>0.0</speed>
</trkpt>
<trkpt lat="47.613078" lon="8.204630">
<ele>315.5</ele>
<time>2003-05-23T09:12:19Z</time>
<speed>0.0</speed>
</trkpt>
<trkpt lat="47.613078" lon="8.204630">
<ele>315.5</ele>
<time>2003-05-23T09:12:24Z</time>
<speed>0.0</speed>
</trkpt>
<trkpt lat="47.613078" lon="8.204630">
<ele>315.5</ele>
<time>2003-05-23T09:12:29Z</time>
<speed>0.0</speed>
</trkpt>
<trkpt lat="47.613073" lon="8.204617">
<ele>314.7</ele>
<time>2003-05-23T09:12:34Z</time>
<speed>0.0</speed>
</trkpt>
<trkpt lat="47.613073" lon="8.204617">
<ele>314.7</ele>
<time>2003-05-23T09:12:39Z</time>
<speed>0.0</speed>
</trkpt>
<trkpt lat="47.613073" lon="8.204617">
<ele>314.7</ele>
<time>2003-05-23T09:12:44Z</time>
<speed>0.0</speed>
</trkpt>
<trkpt lat="47.613073" lon="8.204617">
<ele>314.7</ele>
<time>2003-05-23T09:12:49Z</time>
<speed>0.0</speed>
</trkpt>
<trkpt lat="47.613073" lon="8.204617">
<ele>314.7</ele>
<time>2003-05-23T09:12:54Z</time>
<speed>0.0</speed>
</trkpt>
<trkpt lat="47.613073" lon="8.204617">
<ele>314.7</ele>
<time>2003-05-23T09:12:59Z</time>
<speed>0.0</speed>
</trkpt>
<trkpt lat="47.613073" lon="8.204617">
<ele>314.7</ele>
<time>2003-05-23T09:13:04Z</time>
<speed>0.0</speed>
</trkpt>
<trkpt lat="47.613074" lon="8.204604">
<ele>314.6</ele>
<time>2003-05-23T09:13:09Z</time>
<speed>0.0</speed>
</trkpt>
<trkpt lat="47.613068" lon="8.204604">
<ele>313.9</ele>
<time>2003-05-23T09:13:14Z</time>
<speed>0.0</speed>
</trkpt>
<trkpt lat="47.613073" lon="8.204617">
<ele>314.7</ele>
<time>2003-05-23T09:13:19Z</time>
<speed>0.0</speed>
</trkpt>
<trkpt lat="47.613068" lon="8.204604">
<ele>313.9</ele>
<time>2003-05-23T09:13:24Z</time>
<speed>0.0</speed>
</trkpt>
<trkpt lat="47.613068" lon="8.204604">
<ele>313.9</ele>
<time>2003-05-23T09:13:29Z</time>
<speed>0.0</speed>
</trkpt>
<trkpt lat="47.613068" lon="8.204604">
<ele>313.9</ele>
<time>2003-05-23T09:13:34Z</time>
<speed>0.0</speed>
</trkpt>
<trkpt lat="47.613073" lon="8.204617">
<ele>314.7</ele>
<time>2003-05-23T09:13:39Z</time>
<speed>0.0</speed>
</trkpt>
<trkpt lat="47.613073" lon="8.204617">
<ele>314.7</ele>
<time>2003-05-23T09:13:44Z</time>
<speed>0.0</speed>
</trkpt>
<trkpt lat="47.613067" lon="8.204615">
<ele>315.4</ele>
<time>2003-05-23T09:13:49Z</time>
<speed>0.0</speed>
</trkpt>
<trkpt lat="47.613066" lon="8.204628">
<ele>315.5</ele>
<time>2003-05-23T09:13:54Z</time>
<speed>0.0</speed>
</trkpt>
<trkpt lat="47.613065" lon="8.204641">
<ele>315.6</ele>
<time>2003-05-23T09:13:59Z</time>
<speed>0.0</speed>
</trkpt>
<trkpt lat="47.613065" lon="8.204641">
<ele>315.6</ele>
<time>2003-05-23T09:14:04Z</time>
<speed>0.0</speed>
</trkpt>
<trkpt lat="47.613065" lon="8.204641">
<ele>315.6</ele>
<time>2003-05-23T09:14:09Z</time>
<speed>0.0</speed>
</trkpt>
<trkpt lat="47.613070" lon="8.204655">
<ele>316.4</ele>
<time>2003-05-23T09:14:14Z</time>
<speed>0.0</speed>
</trkpt>
<trkpt lat="47.613070" lon="8.204655">
<ele>316.4</ele>
<time>2003-05-23T09:14:19Z</time>
<speed>0.0</speed>
</trkpt>
<trkpt lat="47.613071" lon="8.204641">
<ele>316.3</ele>
<time>2003-05-23T09:14:24Z</time>
<speed>0.0</speed>
</trkpt>
<trkpt lat="47.613070" lon="8.204655">
<ele>316.4</ele>
<time>2003-05-23T09:14:29Z</time>
<speed>0.0</speed>
</trkpt>
<trkpt lat="47.613070" lon="8.204655">
<ele>316.4</ele>
<time>2003-05-23T09:14:34Z</time>
<speed>0.0</speed>
</trkpt>
<trkpt lat="47.613076" lon="8.204655">
<ele>317.1</ele>
<time>2003-05-23T09:14:39Z</time>
<speed>0.0</speed>
</trkpt>
<trkpt lat="47.613076" lon="8.204655">
<ele>317.1</ele>
<time>2003-05-23T09:14:44Z</time>
<speed>0.0</speed>
</trkpt>
<trkpt lat="47.613074" lon="8.204666">
<ele>318.6</ele>
<time>2003-05-23T09:14:49Z</time>
<speed>0.0</speed>
</trkpt>
<trkpt lat="47.613074" lon="8.204666">
<ele>318.6</ele>
<time>2003-05-23T09:14:54Z</time>
<speed>0.0</speed>
</trkpt>
<trkpt lat="47.613081" lon="8.204668">
<ele>318.0</ele>
<time>2003-05-23T09:14:59Z</time>
<speed>0.0</speed>
</trkpt>
<trkpt lat="47.613076" lon="8.204655">
<ele>317.1</ele>
<time>2003-05-23T09:15:04Z</time>
<speed>0.0</speed>
</trkpt>
<trkpt lat="47.613076" lon="8.204655">
<ele>317.1</ele>
<time>2003-05-23T09:15:09Z</time>
<speed>0.0</speed>
</trkpt>
<trkpt lat="47.613077" lon="8.204641">
<ele>317.0</ele>
<time>2003-05-23T09:15:14Z</time>
<speed>0.0</speed>
</trkpt>
<trkpt lat="47.613077" lon="8.204641">
<ele>317.0</ele>
<time>2003-05-23T09:15:19Z</time>
<speed>0.0</speed>
</trkpt>
<trkpt lat="47.613077" lon="8.204641">
<ele>317.0</ele>
<time>2003-05-23T09:15:24Z</time>
<speed>0.0</speed>
</trkpt>
<trkpt lat="47.613083" lon="8.204643">
<ele>316.4</ele>
<time>2003-05-23T09:15:29Z</time>
<speed>0.0</speed>
</trkpt>
<trkpt lat="47.613077" lon="8.204641">
<ele>317.0</ele>
<time>2003-05-23T09:15:34Z</time>
<speed>0.0</speed>
</trkpt>
<trkpt lat="47.613077" lon="8.204641">
<ele>317.0</ele>
<time>2003-05-23T09:15:39Z</time>
<speed>0.0</speed>
</trkpt>
<trkpt lat="47.613078" lon="8.204628">
<ele>316.9</ele>
<time>2003-05-23T09:15:44Z</time>
<speed>0.0</speed>
</trkpt>
<trkpt lat="47.613084" lon="8.204630">
<ele>316.3</ele>
<time>2003-05-23T09:15:49Z</time>
<speed>0.0</speed>
</trkpt>
<trkpt lat="47.613084" lon="8.204630">
<ele>316.3</ele>
<time>2003-05-23T09:15:54Z</time>
<speed>0.0</speed>
</trkpt>
<trkpt lat="47.613078" lon="8.204628">
<ele>316.9</ele>
<time>2003-05-23T09:15:59Z</time>
<speed>0.0</speed>
</trkpt>
<trkpt lat="47.613078" lon="8.204628">
<ele>316.9</ele>
<time>2003-05-23T09:16:04Z</time>
<speed>0.0</speed>
</trkpt>
<trkpt lat="47.613078" lon="8.204628">
<ele>316.9</ele>
<time>2003-05-23T09:16:09Z</time>
<speed>0.0</speed>
</trkpt>
<trkpt lat="47.613077" lon="8.204641">
<ele>317.0</ele>
<time>2003-05-23T09:16:14Z</time>
<speed>0.0</speed>
</trkpt>
<trkpt lat="47.613076" lon="8.204655">
<ele>317.1</ele>
<time>2003-05-23T09:16:19Z</time>
<speed>0.0</speed>
</trkpt>
<trkpt lat="47.613076" lon="8.204655">
<ele>317.1</ele>
<time>2003-05-23T09:16:24Z</time>
<speed>0.0</speed>
</trkpt>
<trkpt lat="47.613069" lon="8.204653">
<ele>317.8</ele>
<time>2003-05-23T09:16:29Z</time>
<speed>0.0</speed>
</trkpt>
<trkpt lat="47.613076" lon="8.204655">
<ele>317.1</ele>
<time>2003-05-23T09:16:34Z</time>
<speed>0.0</speed>
</trkpt>
<trkpt lat="47.613082" lon="8.204655">
<ele>317.9</ele>
<time>2003-05-23T09:16:39Z</time>
<speed>0.0</speed>
</trkpt>
<trkpt lat="47.613083" lon="8.204641">
<ele>317.8</ele>
<time>2003-05-23T09:16:44Z</time>
<speed>0.0</speed>
</trkpt>
<trkpt lat="47.613083" lon="8.204641">
<ele>317.8</ele>
<time>2003-05-23T09:16:49Z</time>
<speed>0.0</speed>
</trkpt>
<trkpt lat="47.613083" lon="8.204641">
<ele>317.8</ele>
<time>2003-05-23T09:16:54Z</time>
<speed>0.0</speed>
</trkpt>
<trkpt lat="47.613089" lon="8.204643">
<ele>317.1</ele>
<time>2003-05-23T09:16:59Z</time>
<speed>0.0</speed>
</trkpt>
<trkpt lat="47.613090" lon="8.204630">
<ele>317.0</ele>
<time>2003-05-23T09:17:04Z</time>
<speed>0.0</speed>
</trkpt>
<trkpt lat="47.613090" lon="8.204630">
<ele>317.0</ele>
<time>2003-05-23T09:17:09Z</time>
<speed>0.0</speed>
</trkpt>
<trkpt lat="47.613090" lon="8.204630">
<ele>317.0</ele>
<time>2003-05-23T09:17:14Z</time>
<speed>0.0</speed>
</trkpt>
<trkpt lat="47.613090" lon="8.204630">
<ele>317.0</ele>
<time>2003-05-23T09:17:19Z</time>
<speed>0.0</speed>
</trkpt>
<trkpt lat="47.613089" lon="8.204643">
<ele>317.1</ele>
<time>2003-05-23T09:17:24Z</time>
<speed>0.0</speed>
</trkpt>
<trkpt lat="47.613090" lon="8.204630">
<ele>317.0</ele>
<time>2003-05-23T09:17:29Z</time>
<speed>0.0</speed>
</trkpt>
<trkpt lat="47.613098" lon="8.204619">
<ele>316.3</ele>
<time>2003-05-23T09:17:34Z</time>
<speed>0.0</speed>
</trkpt>
<trkpt lat="47.613105" lon="8.204608">
<ele>315.5</ele>
<time>2003-05-23T09:17:39Z</time>
<speed>0.0</speed>
</trkpt>
<trkpt lat="47.613105" lon="8.204608">
<ele>315.5</ele>
<time>2003-05-23T09:17:44Z</time>
<speed>0.0</speed>
</trkpt>
<trkpt lat="47.613105" lon="8.204608">
<ele>315.5</ele>
<time>2003-05-23T09:17:49Z</time>
<speed>0.0</speed>
</trkpt>
<trkpt lat="47.613105" lon="8.204608">
<ele>315.5</ele>
<time>2003-05-23T09:17:54Z</time>
<speed>0.0</speed>
</trkpt>
<trkpt lat="47.613112" lon="8.204608">
<ele>316.2</ele>
<time>2003-05-23T09:17:59Z</time>
<speed>0.0</speed>
</trkpt>
<trkpt lat="47.613104" lon="8.204619">
<ele>317.0</ele>
<time>2003-05-23T09:18:04Z</time>
<speed>0.0</speed>
</trkpt>
<trkpt lat="47.613104" lon="8.204619">
<ele>317.0</ele>
<time>2003-05-23T09:18:09Z</time>
<speed>0.0</speed>
</trkpt>
<trkpt lat="47.613104" lon="8.204619">
<ele>317.0</ele>
<time>2003-05-23T09:18:14Z</time>
<speed>0.0</speed>
</trkpt>
<trkpt lat="47.613104" lon="8.204619">
<ele>317.0</ele>
<time>2003-05-23T09:18:19Z</time>
<speed>0.0</speed>
</trkpt>
<trkpt lat="47.613103" lon="8.204630">
<ele>318.5</ele>
<time>2003-05-23T09:18:24Z</time>
<speed>0.0</speed>
</trkpt>
<trkpt lat="47.613103" lon="8.204630">
<ele>318.5</ele>
<time>2003-05-23T09:18:29Z</time>
<speed>0.0</speed>
</trkpt>
<trkpt lat="47.613103" lon="8.204630">
<ele>318.5</ele>
<time>2003-05-23T09:18:34Z</time>
<speed>0.0</speed>
</trkpt>
<trkpt lat="47.613103" lon="8.204630">
<ele>318.5</ele>
<time>2003-05-23T09:18:39Z</time>
<speed>0.0</speed>
</trkpt>
<trkpt lat="47.613103" lon="8.204630">
<ele>318.5</ele>
<time>2003-05-23T09:18:44Z</time>
<speed>0.0</speed>
</trkpt>
<trkpt lat="47.613103" lon="8.204630">
<ele>318.5</ele>
<time>2003-05-23T09:18:49Z</time>
<speed>0.0</speed>
</trkpt>
<trkpt lat="47.613103" lon="8.204630">
<ele>318.5</ele>
<time>2003-05-23T09:18:54Z</time>
<speed>0.0</speed>
</trkpt>
<trkpt lat="47.613103" lon="8.204630">
<ele>318.5</ele>
<time>2003-05-23T09:18:59Z</time>
<speed>0.0</speed>
</trkpt>
<trkpt lat="47.613103" lon="8.204630">
<ele>318.5</ele>
<time>2003-05-23T09:19:04Z</time>
<speed>0.0</speed>
</trkpt>
<trkpt lat="47.613103" lon="8.204630">
<ele>318.5</ele>
<time>2003-05-23T09:19:09Z</time>
<speed>0.0</speed>
</trkpt>
<trkpt lat="47.613103" lon="8.204630">
<ele>318.5</ele>
<time>2003-05-23T09:19:14Z</time>
<speed>0.0</speed>
</trkpt>
<trkpt lat="47.613103" lon="8.204630">
<ele>318.5</ele>
<time>2003-05-23T09:19:19Z</time>
<speed>0.0</speed>
</trkpt>
<trkpt lat="47.613103" lon="8.204630">
<ele>318.5</ele>
<time>2003-05-23T09:19:24Z</time>
<speed>0.0</speed>
</trkpt>
<trkpt lat="47.613103" lon="8.204630">
<ele>318.5</ele>
<time>2003-05-23T09:19:29Z</time>
<speed>0.0</speed>
</trkpt>
<trkpt lat="47.613103" lon="8.204630">
<ele>318.5</ele>
<time>2003-05-23T09:19:35Z</time>
<speed>0.0</speed>
</trkpt>
<trkpt lat="47.613103" lon="8.204630">
<ele>318.5</ele>
<time>2003-05-23T09:19:40Z</time>
<speed>0.0</speed>
</trkpt>
<trkpt lat="47.613103" lon="8.204630">
<ele>318.5</ele>
<time>2003-05-23T09:19:45Z</time>
<speed>0.0</speed>
</trkpt>
<trkpt lat="47.613103" lon="8.204630">
<ele>318.5</ele>
<time>2003-05-23T09:19:50Z</time>
<speed>0.0</speed>
</trkpt>
<trkpt lat="47.613103" lon="8.204630">
<ele>318.5</ele>
<time>2003-05-23T09:19:55Z</time>
<speed>0.0</speed>
</trkpt>
<trkpt lat="47.613103" lon="8.204630">
<ele>318.5</ele>
<time>2003-05-23T09:20:00Z</time>
<speed>0.0</speed>
</trkpt>
<trkpt lat="47.613103" lon="8.204630">
<ele>318.5</ele>
<time>2003-05-23T09:20:05Z</time>
<speed>0.0</speed>
</trkpt>
<trkpt lat="47.613095" lon="8.204641">
<ele>319.3</ele>
<time>2003-05-23T09:20:10Z</time>
<speed>0.0</speed>
</trkpt>
<trkpt lat="47.613095" lon="8.204641">
<ele>319.3</ele>
<time>2003-05-23T09:20:15Z</time>
<speed>0.0</speed>
</trkpt>
<trkpt lat="47.613095" lon="8.204641">
<ele>319.3</ele>
<time>2003-05-23T09:20:20Z</time>
<speed>0.0</speed>
</trkpt>
<trkpt lat="47.613095" lon="8.204641">
<ele>319.3</ele>
<time>2003-05-23T09:20:25Z</time>
<speed>0.0</speed>
</trkpt>
<trkpt lat="47.613095" lon="8.204641">
<ele>319.3</ele>
<time>2003-05-23T09:20:30Z</time>
<speed>0.0</speed>
</trkpt>
<trkpt lat="47.613096" lon="8.204628">
<ele>319.2</ele>
<time>2003-05-23T09:20:35Z</time>
<speed>0.0</speed>
</trkpt>
<trkpt lat="47.613096" lon="8.204628">
<ele>319.2</ele>
<time>2003-05-23T09:20:40Z</time>
<speed>0.0</speed>
</trkpt>
<trkpt lat="47.613096" lon="8.204628">
<ele>319.2</ele>
<time>2003-05-23T09:20:45Z</time>
<speed>0.0</speed>
</trkpt>
<trkpt lat="47.613096" lon="8.204628">
<ele>319.2</ele>
<time>2003-05-23T09:20:50Z</time>
<speed>0.0</speed>
</trkpt>
<trkpt lat="47.613096" lon="8.204628">
<ele>319.2</ele>
<time>2003-05-23T09:20:55Z</time>
<speed>0.0</speed>
</trkpt>
<trkpt lat="47.613096" lon="8.204628">
<ele>319.2</ele>
<time>2003-05-23T09:21:00Z</time>
<speed>0.0</speed>
</trkpt>
<trkpt lat="47.613096" lon="8.204628">
<ele>319.2</ele>
<time>2003-05-23T09:21:05Z</time>
<speed>0.0</speed>
</trkpt>
<trkpt lat="47.613096" lon="8.204628">
<ele>319.2</ele>
<time>2003-05-23T09:21:10Z</time>
<speed>0.0</speed>
</trkpt>
<trkpt lat="47.613096" lon="8.204628">
<ele>319.2</ele>
<time>2003-05-23T09:21:15Z</time>
<speed>0.0</speed>
</trkpt>
<trkpt lat="47.613096" lon="8.204628">
<ele>319.2</ele>
<time>2003-05-23T09:21:20Z</time>
<speed>0.0</speed>
</trkpt>
<trkpt lat="47.613096" lon="8.204628">
<ele>319.2</ele>
<time>2003-05-23T09:21:25Z</time>
<speed>0.0</speed>
</trkpt>
<trkpt lat="47.613096" lon="8.204628">
<ele>319.2</ele>
<time>2003-05-23T09:21:30Z</time>
<speed>0.0</speed>
</trkpt>
<trkpt lat="47.613096" lon="8.204628">
<ele>319.2</ele>
<time>2003-05-23T09:21:35Z</time>
<speed>0.0</speed>
</trkpt>
<trkpt lat="47.613096" lon="8.204628">
<ele>319.2</ele>
<time>2003-05-23T09:21:40Z</time>
<speed>0.0</speed>
</trkpt>
<trkpt lat="47.613096" lon="8.204628">
<ele>319.2</ele>
<time>2003-05-23T09:21:45Z</time>
<speed>0.0</speed>
</trkpt>
<trkpt lat="47.613096" lon="8.204628">
<ele>319.2</ele>
<time>2003-05-23T09:21:50Z</time>
<speed>0.0</speed>
</trkpt>
<trkpt lat="47.613096" lon="8.204628">
<ele>319.2</ele>
<time>2003-05-23T09:21:55Z</time>
<speed>0.0</speed>
</trkpt>
<trkpt lat="47.613096" lon="8.204628">
<ele>319.2</ele>
<time>2003-05-23T09:22:00Z</time>
<speed>0.0</speed>
</trkpt>
<trkpt lat="47.613095" lon="8.204641">
<ele>319.3</ele>
<time>2003-05-23T09:22:05Z</time>
<speed>0.0</speed>
</trkpt>
<trkpt lat="47.613095" lon="8.204641">
<ele>319.3</ele>
<time>2003-05-23T09:22:10Z</time>
<speed>0.0</speed>
</trkpt>
<trkpt lat="47.613095" lon="8.204641">
<ele>319.3</ele>
<time>2003-05-23T09:22:15Z</time>
<speed>0.0</speed>
</trkpt>
<trkpt lat="47.613095" lon="8.204641">
<ele>319.3</ele>
<time>2003-05-23T09:22:20Z</time>
<speed>0.0</speed>
</trkpt>
<trkpt lat="47.613095" lon="8.204641">
<ele>319.3</ele>
<time>2003-05-23T09:22:25Z</time>
<speed>0.0</speed>
</trkpt>
<trkpt lat="47.613095" lon="8.204641">
<ele>319.3</ele>
<time>2003-05-23T09:22:30Z</time>
<speed>0.0</speed>
</trkpt>
<trkpt lat="47.613095" lon="8.204641">
<ele>319.3</ele>
<time>2003-05-23T09:22:35Z</time>
<speed>0.0</speed>
</trkpt>
<trkpt lat="47.613095" lon="8.204641">
<ele>319.3</ele>
<time>2003-05-23T09:22:40Z</time>
<speed>0.0</speed>
</trkpt>
<trkpt lat="47.613095" lon="8.204641">
<ele>319.3</ele>
<time>2003-05-23T09:22:45Z</time>
<speed>0.0</speed>
</trkpt>
<trkpt lat="47.613095" lon="8.204641">
<ele>319.3</ele>
<time>2003-05-23T09:22:50Z</time>
<speed>0.0</speed>
</trkpt>
<trkpt lat="47.613095" lon="8.204641">
<ele>319.3</ele>
<time>2003-05-23T09:22:55Z</time>
<speed>0.0</speed>
</trkpt>
<trkpt lat="47.613088" lon="8.204640">
<ele>319.9</ele>
<time>2003-05-23T09:23:00Z</time>
<speed>0.0</speed>
</trkpt>
<trkpt lat="47.613088" lon="8.204640">
<ele>319.9</ele>
<time>2003-05-23T09:23:05Z</time>
<speed>0.0</speed>
</trkpt>
<trkpt lat="47.613088" lon="8.204640">
<ele>319.9</ele>
<time>2003-05-23T09:23:10Z</time>
<speed>0.0</speed>
</trkpt>
<trkpt lat="47.613088" lon="8.204640">
<ele>319.9</ele>
<time>2003-05-23T09:23:15Z</time>
<speed>0.0</speed>
</trkpt>
<trkpt lat="47.613088" lon="8.204640">
<ele>319.9</ele>
<time>2003-05-23T09:23:20Z</time>
<speed>0.0</speed>
</trkpt>
<trkpt lat="47.613088" lon="8.204640">
<ele>319.9</ele>
<time>2003-05-23T09:23:25Z</time>
<speed>0.0</speed>
</trkpt>
<trkpt lat="47.613088" lon="8.204640">
<ele>319.9</ele>
<time>2003-05-23T09:23:30Z</time>
<speed>0.0</speed>
</trkpt>
<trkpt lat="47.613088" lon="8.204640">
<ele>319.9</ele>
<time>2003-05-23T09:23:35Z</time>
<speed>0.0</speed>
</trkpt>
<trkpt lat="47.613088" lon="8.204640">
<ele>319.9</ele>
<time>2003-05-23T09:23:40Z</time>
<speed>0.0</speed>
</trkpt>
<trkpt lat="47.613088" lon="8.204640">
<ele>319.9</ele>
<time>2003-05-23T09:23:45Z</time>
<speed>0.0</speed>
</trkpt>
<trkpt lat="47.613088" lon="8.204640">
<ele>319.9</ele>
<time>2003-05-23T09:23:50Z</time>
<speed>0.0</speed>
</trkpt>
<trkpt lat="47.613088" lon="8.204640">
<ele>319.9</ele>
<time>2003-05-23T09:23:55Z</time>
<speed>0.0</speed>
</trkpt>
<trkpt lat="47.613088" lon="8.204640">
<ele>319.9</ele>
<time>2003-05-23T09:24:00Z</time>
<speed>0.0</speed>
</trkpt>
<trkpt lat="47.613088" lon="8.204640">
<ele>319.9</ele>
<time>2003-05-23T09:24:05Z</time>
<speed>0.0</speed>
</trkpt>
<trkpt lat="47.613095" lon="8.204641">
<ele>319.3</ele>
<time>2003-05-23T09:24:10Z</time>
<speed>0.0</speed>
</trkpt>
<trkpt lat="47.613095" lon="8.204641">
<ele>319.3</ele>
<time>2003-05-23T09:24:15Z</time>
<speed>0.0</speed>
</trkpt>
<trkpt lat="47.613095" lon="8.204641">
<ele>319.3</ele>
<time>2003-05-23T09:24:20Z</time>
<speed>0.0</speed>
</trkpt>
<trkpt lat="47.613095" lon="8.204641">
<ele>319.3</ele>
<time>2003-05-23T09:24:25Z</time>
<speed>0.0</speed>
</trkpt>
<trkpt lat="47.613095" lon="8.204641">
<ele>319.3</ele>
<time>2003-05-23T09:24:30Z</time>
<speed>0.0</speed>
</trkpt>
<trkpt lat="47.613095" lon="8.204641">
<ele>319.3</ele>
<time>2003-05-23T09:24:35Z</time>
<speed>0.0</speed>
</trkpt>
<trkpt lat="47.613095" lon="8.204641">
<ele>319.3</ele>
<time>2003-05-23T09:24:40Z</time>
<speed>0.0</speed>
</trkpt>
<trkpt lat="47.613095" lon="8.204641">
<ele>319.3</ele>
<time>2003-05-23T09:24:45Z</time>
<speed>0.0</speed>
</trkpt>
<trkpt lat="47.613095" lon="8.204641">
<ele>319.3</ele>
<time>2003-05-23T09:24:50Z</time>
<speed>0.0</speed>
</trkpt>
<trkpt lat="47.613094" lon="8.204655">
<ele>319.4</ele>
<time>2003-05-23T09:24:55Z</time>
<speed>0.0</speed>
</trkpt>
<trkpt lat="47.613094" lon="8.204655">
<ele>319.4</ele>
<time>2003-05-23T09:25:00Z</time>
<speed>0.0</speed>
</trkpt>
<trkpt lat="47.613094" lon="8.204655">
<ele>319.4</ele>
<time>2003-05-23T09:25:05Z</time>
<speed>0.0</speed>
</trkpt>
<trkpt lat="47.613094" lon="8.204655">
<ele>319.4</ele>
<time>2003-05-23T09:25:10Z</time>
<speed>0.0</speed>
</trkpt>
<trkpt lat="47.613094" lon="8.204655">
<ele>319.4</ele>
<time>2003-05-23T09:25:15Z</time>
<speed>0.0</speed>
</trkpt>
<trkpt lat="47.613093" lon="8.204666">
<ele>320.9</ele>
<time>2003-05-23T09:25:20Z</time>
<speed>0.0</speed>
</trkpt>
<trkpt lat="47.613091" lon="8.204677">
<ele>322.4</ele>
<time>2003-05-23T09:25:25Z</time>
<speed>0.0</speed>
</trkpt>
<trkpt lat="47.613091" lon="8.204677">
<ele>322.4</ele>
<time>2003-05-23T09:25:30Z</time>
<speed>0.0</speed>
</trkpt>
<trkpt lat="47.613090" lon="8.204688">
<ele>323.9</ele>
<time>2003-05-23T09:25:35Z</time>
<speed>0.0</speed>
</trkpt>
<trkpt lat="47.613089" lon="8.204702">
<ele>324.0</ele>
<time>2003-05-23T09:25:40Z</time>
<speed>0.0</speed>
</trkpt>
<trkpt lat="47.613094" lon="8.204715">
<ele>324.8</ele>
<time>2003-05-23T09:25:45Z</time>
<speed>0.0</speed>
</trkpt>
<trkpt lat="47.613094" lon="8.204715">
<ele>324.8</ele>
<time>2003-05-23T09:25:50Z</time>
<speed>0.0</speed>
</trkpt>
<trkpt lat="47.613094" lon="8.204715">
<ele>324.8</ele>
<time>2003-05-23T09:25:55Z</time>
<speed>0.0</speed>
</trkpt>
<trkpt lat="47.613094" lon="8.204715">
<ele>324.8</ele>
<time>2003-05-23T09:26:00Z</time>
<speed>0.0</speed>
</trkpt>
<trkpt lat="47.613094" lon="8.204715">
<ele>324.8</ele>
<time>2003-05-23T09:26:05Z</time>
<speed>0.0</speed>
</trkpt>
<trkpt lat="47.613094" lon="8.204715">
<ele>324.8</ele>
<time>2003-05-23T09:26:10Z</time>
<speed>0.0</speed>
</trkpt>
<trkpt lat="47.613094" lon="8.204715">
<ele>324.8</ele>
<time>2003-05-23T09:26:15Z</time>
<speed>0.0</speed>
</trkpt>
<trkpt lat="47.613093" lon="8.204728">
<ele>324.9</ele>
<time>2003-05-23T09:26:20Z</time>
<speed>0.0</speed>
</trkpt>
<trkpt lat="47.613093" lon="8.204728">
<ele>324.9</ele>
<time>2003-05-23T09:26:25Z</time>
<speed>0.0</speed>
</trkpt>
<trkpt lat="47.613099" lon="8.204728">
<ele>325.6</ele>
<time>2003-05-23T09:26:30Z</time>
<speed>0.0</speed>
</trkpt>
<trkpt lat="47.613099" lon="8.204728">
<ele>325.6</ele>
<time>2003-05-23T09:26:35Z</time>
<speed>0.0</speed>
</trkpt>
<trkpt lat="47.613099" lon="8.204728">
<ele>325.6</ele>
<time>2003-05-23T09:26:40Z</time>
<speed>0.0</speed>
</trkpt>
<trkpt lat="47.613093" lon="8.204728">
<ele>324.9</ele>
<time>2003-05-23T09:26:45Z</time>
<speed>0.0</speed>
</trkpt>
<trkpt lat="47.613093" lon="8.204728">
<ele>324.9</ele>
<time>2003-05-23T09:26:50Z</time>
<speed>0.0</speed>
</trkpt>
<trkpt lat="47.613093" lon="8.204728">
<ele>324.9</ele>
<time>2003-05-23T09:26:55Z</time>
<speed>0.0</speed>
</trkpt>
<trkpt lat="47.613094" lon="8.204717">
<ele>323.4</ele>
<time>2003-05-23T09:27:00Z</time>
<speed>0.0</speed>
</trkpt>
<trkpt lat="47.613088" lon="8.204717">
<ele>322.7</ele>
<time>2003-05-23T09:27:05Z</time>
<speed>0.0</speed>
</trkpt>
<trkpt lat="47.613089" lon="8.204703">
<ele>322.6</ele>
<time>2003-05-23T09:27:10Z</time>
<speed>0.0</speed>
</trkpt>
<trkpt lat="47.613090" lon="8.204690">
<ele>322.5</ele>
<time>2003-05-23T09:27:15Z</time>
<speed>0.0</speed>
</trkpt>
<trkpt lat="47.613090" lon="8.204690">
<ele>322.5</ele>
<time>2003-05-23T09:27:20Z</time>
<speed>0.0</speed>
</trkpt>
<trkpt lat="47.613092" lon="8.204679">
<ele>321.0</ele>
<time>2003-05-23T09:27:25Z</time>
<speed>0.0</speed>
</trkpt>
<trkpt lat="47.613093" lon="8.204666">
<ele>320.9</ele>
<time>2003-05-23T09:27:30Z</time>
<speed>0.0</speed>
</trkpt>
<trkpt lat="47.613087" lon="8.204666">
<ele>320.1</ele>
<time>2003-05-23T09:27:35Z</time>
<speed>0.0</speed>
</trkpt>
<trkpt lat="47.613087" lon="8.204666">
<ele>320.1</ele>
<time>2003-05-23T09:27:40Z</time>
<speed>0.0</speed>
</trkpt>
<trkpt lat="47.613094" lon="8.204655">
<ele>319.4</ele>
<time>2003-05-23T09:27:45Z</time>
<speed>0.0</speed>
</trkpt>
<trkpt lat="47.613089" lon="8.204641">
<ele>318.5</ele>
<time>2003-05-23T09:27:50Z</time>
<speed>0.0</speed>
</trkpt>
<trkpt lat="47.613090" lon="8.204628">
<ele>318.4</ele>
<time>2003-05-23T09:27:55Z</time>
<speed>0.0</speed>
</trkpt>
<trkpt lat="47.613090" lon="8.204628">
<ele>318.4</ele>
<time>2003-05-23T09:28:00Z</time>
<speed>0.0</speed>
</trkpt>
<trkpt lat="47.613096" lon="8.204630">
<ele>317.8</ele>
<time>2003-05-23T09:28:05Z</time>
<speed>0.0</speed>
</trkpt>
<trkpt lat="47.613096" lon="8.204630">
<ele>317.8</ele>
<time>2003-05-23T09:28:10Z</time>
<speed>0.0</speed>
</trkpt>
<trkpt lat="47.613096" lon="8.204630">
<ele>317.8</ele>
<time>2003-05-23T09:28:15Z</time>
<speed>0.0</speed>
</trkpt>
<trkpt lat="47.613096" lon="8.204630">
<ele>317.8</ele>
<time>2003-05-23T09:28:20Z</time>
<speed>0.0</speed>
</trkpt>
<trkpt lat="47.613096" lon="8.204630">
<ele>317.8</ele>
<time>2003-05-23T09:28:25Z</time>
<speed>0.0</speed>
</trkpt>
<trkpt lat="47.613102" lon="8.204645">
<ele>317.2</ele>
<time>2003-05-23T09:28:30Z</time>
<speed>0.3</speed>
</trkpt>
<trkpt lat="47.613119" lon="8.204675">
<ele>316.8</ele>
<time>2003-05-23T09:28:35Z</time>
<speed>0.6</speed>
</trkpt>
<trkpt lat="47.613160" lon="8.204657">
<ele>315.4</ele>
<time>2003-05-23T09:28:40Z</time>
<speed>0.8</speed>
</trkpt>
<trkpt lat="47.613194" lon="8.204623">
<ele>314.6</ele>
<time>2003-05-23T09:28:45Z</time>
<speed>0.6</speed>
</trkpt>
<trkpt lat="47.613201" lon="8.204610">
<ele>315.2</ele>
<time>2003-05-23T09:28:50Z</time>
<speed>0.0</speed>
</trkpt>
<trkpt lat="47.613196" lon="8.204596">
<ele>314.4</ele>
<time>2003-05-23T09:28:55Z</time>
<speed>0.3</speed>
</trkpt>
<trkpt lat="47.613191" lon="8.204598">
<ele>312.3</ele>
<time>2003-05-23T09:29:00Z</time>
<speed>0.0</speed>
</trkpt>
<trkpt lat="47.613193" lon="8.204572">
<ele>312.1</ele>
<time>2003-05-23T09:29:05Z</time>
<speed>0.3</speed>
</trkpt>
<trkpt lat="47.613188" lon="8.204544">
<ele>312.5</ele>
<time>2003-05-23T09:29:10Z</time>
<speed>0.0</speed>
</trkpt>
<trkpt lat="47.613184" lon="8.204517">
<ele>311.6</ele>
<time>2003-05-23T09:29:15Z</time>
<speed>0.0</speed>
</trkpt>
<trkpt lat="47.613174" lon="8.204476">
<ele>311.2</ele>
<time>2003-05-23T09:29:20Z</time>
<speed>0.6</speed>
</trkpt>
<trkpt lat="47.613158" lon="8.204433">
<ele>311.6</ele>
<time>2003-05-23T09:29:25Z</time>
<speed>0.3</speed>
</trkpt>
<trkpt lat="47.613141" lon="8.204390">
<ele>311.9</ele>
<time>2003-05-23T09:29:30Z</time>
<speed>1.1</speed>
</trkpt>
<trkpt lat="47.613118" lon="8.204359">
<ele>311.5</ele>
<time>2003-05-23T09:29:35Z</time>
<speed>0.6</speed>
</trkpt>
<trkpt lat="47.613096" lon="8.204301">
<ele>312.4</ele>
<time>2003-05-23T09:29:40Z</time>
<speed>0.8</speed>
</trkpt>
<trkpt lat="47.613068" lon="8.204243">
<ele>312.5</ele>
<time>2003-05-23T09:29:45Z</time>
<speed>0.8</speed>
</trkpt>
<trkpt lat="47.613033" lon="8.204197">
<ele>312.0</ele>
<time>2003-05-23T09:29:50Z</time>
<speed>1.1</speed>
</trkpt>
<trkpt lat="47.612999" lon="8.204139">
<ele>311.4</ele>
<time>2003-05-23T09:29:55Z</time>
<speed>1.1</speed>
</trkpt>
<trkpt lat="47.612964" lon="8.204079">
<ele>312.2</ele>
<time>2003-05-23T09:30:00Z</time>
<speed>1.1</speed>
</trkpt>
<trkpt lat="47.612931" lon="8.204007">
<ele>311.6</ele>
<time>2003-05-23T09:30:05Z</time>
<speed>0.8</speed>
</trkpt>
<trkpt lat="47.612896" lon="8.203947">
<ele>312.4</ele>
<time>2003-05-23T09:30:10Z</time>
<speed>0.8</speed>
</trkpt>
<trkpt lat="47.612856" lon="8.203887">
<ele>312.4</ele>
<time>2003-05-23T09:30:15Z</time>
<speed>0.8</speed>
</trkpt>
<trkpt lat="47.612821" lon="8.203829">
<ele>311.8</ele>
<time>2003-05-23T09:30:20Z</time>
<speed>1.1</speed>
</trkpt>
<trkpt lat="47.612794" lon="8.203757">
<ele>311.9</ele>
<time>2003-05-23T09:30:25Z</time>
<speed>1.1</speed>
</trkpt>
<trkpt lat="47.612766" lon="8.203699">
<ele>312.0</ele>
<time>2003-05-23T09:30:30Z</time>
<speed>0.8</speed>
</trkpt>
<trkpt lat="47.612744" lon="8.203640">
<ele>312.9</ele>
<time>2003-05-23T09:30:35Z</time>
<speed>1.1</speed>
</trkpt>
<trkpt lat="47.612710" lon="8.203582">
<ele>312.3</ele>
<time>2003-05-23T09:30:40Z</time>
<speed>1.1</speed>
</trkpt>
<trkpt lat="47.612670" lon="8.203509">
<ele>312.3</ele>
<time>2003-05-23T09:30:45Z</time>
<speed>1.1</speed>
</trkpt>
<trkpt lat="47.612643" lon="8.203435">
<ele>313.7</ele>
<time>2003-05-23T09:30:50Z</time>
<speed>1.1</speed>
</trkpt>
<trkpt lat="47.612615" lon="8.203377">
<ele>313.9</ele>
<time>2003-05-23T09:30:55Z</time>
<speed>1.1</speed>
</trkpt>
<trkpt lat="47.612587" lon="8.203318">
<ele>314.0</ele>
<time>2003-05-23T09:31:00Z</time>
<speed>1.1</speed>
</trkpt>
<trkpt lat="47.612560" lon="8.203247">
<ele>314.0</ele>
<time>2003-05-23T09:31:05Z</time>
<speed>1.1</speed>
</trkpt>
<trkpt lat="47.612544" lon="8.203189">
<ele>315.7</ele>
<time>2003-05-23T09:31:10Z</time>
<speed>1.1</speed>
</trkpt>
<trkpt lat="47.612522" lon="8.203130">
<ele>316.5</ele>
<time>2003-05-23T09:31:15Z</time>
<speed>1.1</speed>
</trkpt>
<trkpt lat="47.612494" lon="8.203072">
<ele>316.7</ele>
<time>2003-05-23T09:31:20Z</time>
<speed>0.8</speed>
</trkpt>
<trkpt lat="47.612473" lon="8.203002">
<ele>316.0</ele>
<time>2003-05-23T09:31:25Z</time>
<speed>0.8</speed>
</trkpt>
<trkpt lat="47.612459" lon="8.202933">
<ele>316.2</ele>
<time>2003-05-23T09:31:30Z</time>
<speed>0.6</speed>
</trkpt>
<trkpt lat="47.612450" lon="8.202863">
<ele>317.0</ele>
<time>2003-05-23T09:31:35Z</time>
<speed>0.6</speed>
</trkpt>
<trkpt lat="47.612433" lon="8.202833">
<ele>317.4</ele>
<time>2003-05-23T09:31:40Z</time>
<speed>0.3</speed>
</trkpt>
<trkpt lat="47.612434" lon="8.202820">
<ele>317.3</ele>
<time>2003-05-23T09:31:45Z</time>
<speed>0.3</speed>
</trkpt>
<trkpt lat="47.612440" lon="8.202822">
<ele>316.7</ele>
<time>2003-05-23T09:31:50Z</time>
<speed>0.3</speed>
</trkpt>
<trkpt lat="47.612482" lon="8.202790">
<ele>315.2</ele>
<time>2003-05-23T09:31:55Z</time>
<speed>0.6</speed>
</trkpt>
<trkpt lat="47.612516" lon="8.202754">
<ele>315.8</ele>
<time>2003-05-23T09:32:00Z</time>
<speed>0.8</speed>
</trkpt>
<trkpt lat="47.612533" lon="8.202690">
<ele>315.4</ele>
<time>2003-05-23T09:32:05Z</time>
<speed>0.6</speed>
</trkpt>
<trkpt lat="47.612497" lon="8.202658">
<ele>315.0</ele>
<time>2003-05-23T09:32:10Z</time>
<speed>0.8</speed>
</trkpt>
<trkpt lat="47.612465" lon="8.202652">
<ele>315.5</ele>
<time>2003-05-23T09:32:15Z</time>
<speed>0.6</speed>
</trkpt>
<trkpt lat="47.612429" lon="8.202620">
<ele>315.1</ele>
<time>2003-05-23T09:32:20Z</time>
<speed>0.8</speed>
</trkpt>
<trkpt lat="47.612367" lon="8.202583">
<ele>315.9</ele>
<time>2003-05-23T09:32:25Z</time>
<speed>1.1</speed>
</trkpt>
<trkpt lat="47.612317" lon="8.202575">
<ele>315.6</ele>
<time>2003-05-23T09:32:30Z</time>
<speed>1.1</speed>
</trkpt>
<trkpt lat="47.612267" lon="8.202552">
<ele>316.7</ele>
<time>2003-05-23T09:32:35Z</time>
<speed>0.8</speed>
</trkpt>
<trkpt lat="47.612222" lon="8.202545">
<ele>317.1</ele>
<time>2003-05-23T09:32:40Z</time>
<speed>0.8</speed>
</trkpt>
<trkpt lat="47.612165" lon="8.202535">
<ele>317.5</ele>
<time>2003-05-23T09:32:45Z</time>
<speed>0.8</speed>
</trkpt>
<trkpt lat="47.612109" lon="8.202513">
<ele>317.8</ele>
<time>2003-05-23T09:32:50Z</time>
<speed>1.1</speed>
</trkpt>
<trkpt lat="47.612054" lon="8.202477">
<ele>318.0</ele>
<time>2003-05-23T09:32:55Z</time>
<speed>0.8</speed>
</trkpt>
<trkpt lat="47.611999" lon="8.202441">
<ele>318.2</ele>
<time>2003-05-23T09:33:00Z</time>
<speed>0.8</speed>
</trkpt>
<trkpt lat="47.611955" lon="8.202420">
<ele>318.5</ele>
<time>2003-05-23T09:33:05Z</time>
<speed>0.8</speed>
</trkpt>
<trkpt lat="47.611911" lon="8.202400">
<ele>318.9</ele>
<time>2003-05-23T09:33:10Z</time>
<speed>1.1</speed>
</trkpt>
<trkpt lat="47.611869" lon="8.202366">
<ele>319.1</ele>
<time>2003-05-23T09:33:15Z</time>
<speed>1.1</speed>
</trkpt>
<trkpt lat="47.611820" lon="8.202330">
<ele>320.1</ele>
<time>2003-05-23T09:33:20Z</time>
<speed>1.1</speed>
</trkpt>
<trkpt lat="47.611771" lon="8.202296">
<ele>319.6</ele>
<time>2003-05-23T09:33:25Z</time>
<speed>1.1</speed>
</trkpt>
<trkpt lat="47.611728" lon="8.202262">
<ele>319.9</ele>
<time>2003-05-23T09:33:30Z</time>
<speed>1.1</speed>
</trkpt>
<trkpt lat="47.611693" lon="8.202215">
<ele>320.8</ele>
<time>2003-05-23T09:33:35Z</time>
<speed>1.1</speed>
</trkpt>
<trkpt lat="47.611650" lon="8.202181">
<ele>321.0</ele>
<time>2003-05-23T09:33:40Z</time>
<speed>0.8</speed>
</trkpt>
<trkpt lat="47.611609" lon="8.202134">
<ele>321.2</ele>
<time>2003-05-23T09:33:45Z</time>
<speed>1.1</speed>
</trkpt>
<trkpt lat="47.611561" lon="8.202087">
<ele>320.6</ele>
<time>2003-05-23T09:33:50Z</time>
<speed>1.4</speed>
</trkpt>
<trkpt lat="47.611520" lon="8.202025">
<ele>322.1</ele>
<time>2003-05-23T09:33:55Z</time>
<speed>1.1</speed>
</trkpt>
<trkpt lat="47.611491" lon="8.201979">
<ele>322.3</ele>
<time>2003-05-23T09:34:00Z</time>
<speed>0.6</speed>
</trkpt>
<trkpt lat="47.611456" lon="8.201934">
<ele>321.8</ele>
<time>2003-05-23T09:34:05Z</time>
<speed>0.8</speed>
</trkpt>
<trkpt lat="47.611420" lon="8.201887">
<ele>322.7</ele>
<time>2003-05-23T09:34:10Z</time>
<speed>0.8</speed>
</trkpt>
<trkpt lat="47.611386" lon="8.201829">
<ele>322.1</ele>
<time>2003-05-23T09:34:15Z</time>
<speed>1.1</speed>
</trkpt>
<trkpt lat="47.611362" lon="8.201797">
<ele>323.2</ele>
<time>2003-05-23T09:34:20Z</time>
<speed>0.8</speed>
</trkpt>
<trkpt lat="47.611327" lon="8.201752">
<ele>322.7</ele>
<time>2003-05-23T09:34:25Z</time>
<speed>0.8</speed>
</trkpt>
<trkpt lat="47.611293" lon="8.201693">
<ele>322.1</ele>
<time>2003-05-23T09:34:30Z</time>
<speed>1.1</speed>
</trkpt>
<trkpt lat="47.611258" lon="8.201633">
<ele>322.9</ele>
<time>2003-05-23T09:34:35Z</time>
<speed>0.8</speed>
</trkpt>
<trkpt lat="47.611230" lon="8.201575">
<ele>323.0</ele>
<time>2003-05-23T09:34:40Z</time>
<speed>0.8</speed>
</trkpt>
<trkpt lat="47.611213" lon="8.201530">
<ele>324.7</ele>
<time>2003-05-23T09:34:45Z</time>
<speed>0.6</speed>
</trkpt>
<trkpt lat="47.611197" lon="8.201471">
<ele>326.4</ele>
<time>2003-05-23T09:34:50Z</time>
<speed>1.1</speed>
</trkpt>
<trkpt lat="47.611163" lon="8.201411">
<ele>327.2</ele>
<time>2003-05-23T09:34:55Z</time>
<speed>0.8</speed>
</trkpt>
<trkpt lat="47.611141" lon="8.201353">
<ele>328.1</ele>
<time>2003-05-23T09:35:00Z</time>
<speed>1.1</speed>
</trkpt>
<trkpt lat="47.611100" lon="8.201292">
<ele>328.1</ele>
<time>2003-05-23T09:35:05Z</time>
<speed>1.1</speed>
</trkpt>
<trkpt lat="47.611061" lon="8.201206">
<ele>328.0</ele>
<time>2003-05-23T09:35:10Z</time>
<speed>1.1</speed>
</trkpt>
<trkpt lat="47.611028" lon="8.201132">
<ele>328.7</ele>
<time>2003-05-23T09:35:15Z</time>
<speed>1.1</speed>
</trkpt>
<trkpt lat="47.611006" lon="8.201074">
<ele>329.6</ele>
<time>2003-05-23T09:35:20Z</time>
<speed>1.1</speed>
</trkpt>
<trkpt lat="47.610979" lon="8.200987">
<ele>330.9</ele>
<time>2003-05-23T09:35:25Z</time>
<speed>1.1</speed>
</trkpt>
<trkpt lat="47.610956" lon="8.200942">
<ele>331.9</ele>
<time>2003-05-23T09:35:30Z</time>
<speed>0.8</speed>
</trkpt>
<trkpt lat="47.610934" lon="8.200884">
<ele>332.8</ele>
<time>2003-05-23T09:35:35Z</time>
<speed>0.3</speed>
</trkpt>
<trkpt lat="47.610921" lon="8.200880">
<ele>334.1</ele>
<time>2003-05-23T09:35:40Z</time>
<speed>0.3</speed>
</trkpt>
<trkpt lat="47.610886" lon="8.200820">
<ele>334.9</ele>
<time>2003-05-23T09:35:45Z</time>
<speed>0.8</speed>
</trkpt>
<trkpt lat="47.610845" lon="8.200758">
<ele>336.4</ele>
<time>2003-05-23T09:35:50Z</time>
<speed>0.8</speed>
</trkpt>
<trkpt lat="47.610798" lon="8.200696">
<ele>337.1</ele>
<time>2003-05-23T09:35:55Z</time>
<speed>0.6</speed>
</trkpt>
<trkpt lat="47.610773" lon="8.200662">
<ele>339.6</ele>
<time>2003-05-23T09:36:00Z</time>
<speed>0.6</speed>
</trkpt>
<trkpt lat="47.610738" lon="8.200615">
<ele>340.5</ele>
<time>2003-05-23T09:36:05Z</time>
<speed>0.6</speed>
</trkpt>
<trkpt lat="47.610703" lon="8.200554">
<ele>341.3</ele>
<time>2003-05-23T09:36:10Z</time>
<speed>0.6</speed>
</trkpt>
<trkpt lat="47.610660" lon="8.200520">
<ele>341.6</ele>
<time>2003-05-23T09:36:15Z</time>
<speed>0.6</speed>
</trkpt>
<trkpt lat="47.610625" lon="8.200473">
<ele>342.5</ele>
<time>2003-05-23T09:36:20Z</time>
<speed>0.3</speed>
</trkpt>
<trkpt lat="47.610589" lon="8.200426">
<ele>343.4</ele>
<time>2003-05-23T09:36:25Z</time>
<speed>0.8</speed>
</trkpt>
<trkpt lat="47.610542" lon="8.200364">
<ele>344.1</ele>
<time>2003-05-23T09:36:30Z</time>
<speed>0.6</speed>
</trkpt>
<trkpt lat="47.610494" lon="8.200317">
<ele>343.6</ele>
<time>2003-05-23T09:36:35Z</time>
<speed>0.6</speed>
</trkpt>
<trkpt lat="47.610447" lon="8.200257">
<ele>342.9</ele>
<time>2003-05-23T09:36:40Z</time>
<speed>0.8</speed>
</trkpt>
<trkpt lat="47.610398" lon="8.200221">
<ele>343.8</ele>
<time>2003-05-23T09:36:45Z</time>
<speed>0.8</speed>
</trkpt>
<trkpt lat="47.610345" lon="8.200159">
<ele>343.8</ele>
<time>2003-05-23T09:36:50Z</time>
<speed>1.1</speed>
</trkpt>
<trkpt lat="47.610289" lon="8.200136">
<ele>344.1</ele>
<time>2003-05-23T09:36:55Z</time>
<speed>0.8</speed>
</trkpt>
<trkpt lat="47.610251" lon="8.200115">
<ele>345.2</ele>
<time>2003-05-23T09:37:00Z</time>
<speed>0.6</speed>
</trkpt>
<trkpt lat="47.610196" lon="8.200080">
<ele>345.4</ele>
<time>2003-05-23T09:37:05Z</time>
<speed>0.8</speed>
</trkpt>
<trkpt lat="47.610136" lon="8.200031">
<ele>344.7</ele>
<time>2003-05-23T09:37:10Z</time>
<speed>0.8</speed>
</trkpt>
<trkpt lat="47.610082" lon="8.199969">
<ele>344.7</ele>
<time>2003-05-23T09:37:15Z</time>
<speed>0.8</speed>
</trkpt>
<trkpt lat="47.610033" lon="8.199948">
<ele>344.4</ele>
<time>2003-05-23T09:37:20Z</time>
<speed>0.8</speed>
</trkpt>
<trkpt lat="47.610004" lon="8.199903">
<ele>344.6</ele>
<time>2003-05-23T09:37:25Z</time>
<speed>0.6</speed>
</trkpt>
<trkpt lat="47.609955" lon="8.199867">
<ele>345.5</ele>
<time>2003-05-23T09:37:30Z</time>
<speed>0.6</speed>
</trkpt>
<trkpt lat="47.609914" lon="8.199807">
<ele>345.6</ele>
<time>2003-05-23T09:37:35Z</time>
<speed>0.3</speed>
</trkpt>
<trkpt lat="47.609866" lon="8.199758">
<ele>346.4</ele>
<time>2003-05-23T09:37:40Z</time>
<speed>0.3</speed>
</trkpt>
<trkpt lat="47.609830" lon="8.199711">
<ele>347.3</ele>
<time>2003-05-23T09:37:45Z</time>
<speed>0.6</speed>
</trkpt>
<trkpt lat="47.609789" lon="8.199650">
<ele>347.4</ele>
<time>2003-05-23T09:37:50Z</time>
<speed>0.6</speed>
</trkpt>
<trkpt lat="47.609740" lon="8.199613">
<ele>349.7</ele>
<time>2003-05-23T09:37:55Z</time>
<speed>0.8</speed>
</trkpt>
<trkpt lat="47.609704" lon="8.199581">
<ele>349.3</ele>
<time>2003-05-23T09:38:00Z</time>
<speed>0.6</speed>
</trkpt>
<trkpt lat="47.609662" lon="8.199533">
<ele>349.5</ele>
<time>2003-05-23T09:38:05Z</time>
<speed>0.6</speed>
</trkpt>
<trkpt lat="47.609607" lon="8.199483">
<ele>351.0</ele>
<time>2003-05-23T09:38:10Z</time>
<speed>0.6</speed>
</trkpt>
<trkpt lat="47.609565" lon="8.199449">
<ele>351.3</ele>
<time>2003-05-23T09:38:15Z</time>
<speed>0.8</speed>
</trkpt>
<trkpt lat="47.609522" lon="8.199413">
<ele>352.9</ele>
<time>2003-05-23T09:38:20Z</time>
<speed>0.6</speed>
</trkpt>
<trkpt lat="47.609473" lon="8.199379">
<ele>352.4</ele>
<time>2003-05-23T09:38:25Z</time>
<speed>0.6</speed>
</trkpt>
<trkpt lat="47.609430" lon="8.199345">
<ele>352.7</ele>
<time>2003-05-23T09:38:30Z</time>
<speed>0.3</speed>
</trkpt>
<trkpt lat="47.609386" lon="8.199322">
<ele>354.5</ele>
<time>2003-05-23T09:38:35Z</time>
<speed>0.3</speed>
</trkpt>
<trkpt lat="47.609337" lon="8.199287">
<ele>355.4</ele>
<time>2003-05-23T09:38:40Z</time>
<speed>0.3</speed>
</trkpt>
<trkpt lat="47.609282" lon="8.199236">
<ele>356.9</ele>
<time>2003-05-23T09:38:45Z</time>
<speed>0.8</speed>
</trkpt>
<trkpt lat="47.609213" lon="8.199209">
<ele>358.5</ele>
<time>2003-05-23T09:38:50Z</time>
<speed>1.1</speed>
</trkpt>
<trkpt lat="47.609151" lon="8.199172">
<ele>359.4</ele>
<time>2003-05-23T09:38:55Z</time>
<speed>0.8</speed>
</trkpt>
<trkpt lat="47.609102" lon="8.199151">
<ele>359.0</ele>
<time>2003-05-23T09:39:00Z</time>
<speed>1.1</speed>
</trkpt>
<trkpt lat="47.609044" lon="8.199154">
<ele>359.5</ele>
<time>2003-05-23T09:39:05Z</time>
<speed>0.8</speed>
</trkpt>
<trkpt lat="47.608985" lon="8.199173">
<ele>358.6</ele>
<time>2003-05-23T09:39:10Z</time>
<speed>1.1</speed>
</trkpt>
<trkpt lat="47.608928" lon="8.199260">
<ele>357.6</ele>
<time>2003-05-23T09:39:15Z</time>
<speed>0.8</speed>
</trkpt>
<trkpt lat="47.608897" lon="8.199335">
<ele>358.1</ele>
<time>2003-05-23T09:39:20Z</time>
<speed>0.8</speed>
</trkpt>
<trkpt lat="47.608858" lon="8.199356">
<ele>358.0</ele>
<time>2003-05-23T09:39:25Z</time>
<speed>0.8</speed>
</trkpt>
<trkpt lat="47.608821" lon="8.199416">
<ele>359.0</ele>
<time>2003-05-23T09:39:30Z</time>
<speed>0.6</speed>
</trkpt>
<trkpt lat="47.608800" lon="8.199534">
<ele>358.4</ele>
<time>2003-05-23T09:39:35Z</time>
<speed>0.3</speed>
</trkpt>
<trkpt lat="47.608761" lon="8.199555">
<ele>358.4</ele>
<time>2003-05-23T09:39:40Z</time>
<speed>0.3</speed>
</trkpt>
<trkpt lat="47.608743" lon="8.199525">
<ele>358.8</ele>
<time>2003-05-23T09:39:45Z</time>
<speed>0.3</speed>
</trkpt>
<trkpt lat="47.608695" lon="8.199476">
<ele>359.6</ele>
<time>2003-05-23T09:39:50Z</time>
<speed>0.3</speed>
</trkpt>
<trkpt lat="47.608661" lon="8.199417">
<ele>359.0</ele>
<time>2003-05-23T09:39:55Z</time>
<speed>0.6</speed>
</trkpt>
<trkpt lat="47.608637" lon="8.199370">
<ele>361.4</ele>
<time>2003-05-23T09:40:00Z</time>
<speed>0.8</speed>
</trkpt>
<trkpt lat="47.608594" lon="8.199334">
<ele>363.1</ele>
<time>2003-05-23T09:40:05Z</time>
<speed>0.8</speed>
</trkpt>
<trkpt lat="47.608512" lon="8.199321">
<ele>363.3</ele>
<time>2003-05-23T09:40:10Z</time>
<speed>0.8</speed>
</trkpt>
<trkpt lat="47.608406" lon="8.199293">
<ele>361.9</ele>
<time>2003-05-23T09:40:15Z</time>
<speed>0.8</speed>
</trkpt>
<trkpt lat="47.608345" lon="8.199244">
<ele>361.3</ele>
<time>2003-05-23T09:40:20Z</time>
<speed>0.6</speed>
</trkpt>
<trkpt lat="47.608296" lon="8.199208">
<ele>362.2</ele>
<time>2003-05-23T09:40:25Z</time>
<speed>0.6</speed>
</trkpt>
<trkpt lat="47.608273" lon="8.199163">
<ele>363.2</ele>
<time>2003-05-23T09:40:30Z</time>
<speed>0.3</speed>
</trkpt>
<trkpt lat="47.608250" lon="8.199118">
<ele>364.2</ele>
<time>2003-05-23T09:40:35Z</time>
<speed>0.3</speed>
</trkpt>
<trkpt lat="47.608238" lon="8.199101">
<ele>365.4</ele>
<time>2003-05-23T09:40:40Z</time>
<speed>0.3</speed>
</trkpt>
<trkpt lat="47.608225" lon="8.199097">
<ele>366.7</ele>
<time>2003-05-23T09:40:45Z</time>
<speed>0.3</speed>
</trkpt>
<trkpt lat="47.608202" lon="8.199052">
<ele>367.7</ele>
<time>2003-05-23T09:40:50Z</time>
<speed>0.6</speed>
</trkpt>
<trkpt lat="47.608179" lon="8.199022">
<ele>367.4</ele>
<time>2003-05-23T09:40:55Z</time>
<speed>0.3</speed>
</trkpt>
<trkpt lat="47.608135" lon="8.198999">
<ele>369.1</ele>
<time>2003-05-23T09:41:00Z</time>
<speed>0.6</speed>
</trkpt>
<trkpt lat="47.608098" lon="8.198965">
<ele>370.1</ele>
<time>2003-05-23T09:41:05Z</time>
<speed>0.3</speed>
</trkpt>
<trkpt lat="47.608065" lon="8.198973">
<ele>370.8</ele>
<time>2003-05-23T09:41:10Z</time>
<speed>0.3</speed>
</trkpt>
<trkpt lat="47.608040" lon="8.198969">
<ele>370.6</ele>
<time>2003-05-23T09:41:15Z</time>
<speed>0.3</speed>
</trkpt>
<trkpt lat="47.608000" lon="8.198987">
<ele>372.0</ele>
<time>2003-05-23T09:41:20Z</time>
<speed>0.6</speed>
</trkpt>
<trkpt lat="47.607973" lon="8.198997">
<ele>372.0</ele>
<time>2003-05-23T09:41:25Z</time>
<speed>0.0</speed>
</trkpt>
<trkpt lat="47.607927" lon="8.199016">
<ele>372.6</ele>
<time>2003-05-23T09:41:30Z</time>
<speed>0.3</speed>
</trkpt>
<trkpt lat="47.607854" lon="8.199042">
<ele>374.6</ele>
<time>2003-05-23T09:41:35Z</time>
<speed>0.3</speed>
</trkpt>
<trkpt lat="47.607814" lon="8.199077">
<ele>373.3</ele>
<time>2003-05-23T09:41:40Z</time>
<speed>0.3</speed>
</trkpt>
<trkpt lat="47.607777" lon="8.199153">
<ele>373.0</ele>
<time>2003-05-23T09:41:45Z</time>
<speed>0.6</speed>
</trkpt>
<trkpt lat="47.607731" lon="8.199173">
<ele>372.2</ele>
<time>2003-05-23T09:41:50Z</time>
<speed>0.3</speed>
</trkpt>
<trkpt lat="47.607681" lon="8.199247">
<ele>371.8</ele>
<time>2003-05-23T09:41:55Z</time>
<speed>0.6</speed>
</trkpt>
<trkpt lat="47.607638" lon="8.199322">
<ele>370.8</ele>
<time>2003-05-23T09:42:00Z</time>
<speed>0.3</speed>
</trkpt>
<trkpt lat="47.607621" lon="8.199388">
<ele>369.8</ele>
<time>2003-05-23T09:42:05Z</time>
<speed>0.6</speed>
</trkpt>
<trkpt lat="47.607596" lon="8.199478">
<ele>369.7</ele>
<time>2003-05-23T09:42:10Z</time>
<speed>0.3</speed>
</trkpt>
<trkpt lat="47.607561" lon="8.199527">
<ele>369.2</ele>
<time>2003-05-23T09:42:15Z</time>
<speed>0.3</speed>
</trkpt>
<trkpt lat="47.607529" lon="8.199521">
<ele>369.7</ele>
<time>2003-05-23T09:42:20Z</time>
<speed>0.3</speed>
</trkpt>
<trkpt lat="47.607480" lon="8.199564">
<ele>371.9</ele>
<time>2003-05-23T09:42:25Z</time>
<speed>0.3</speed>
</trkpt>
<trkpt lat="47.607468" lon="8.199549">
<ele>371.8</ele>
<time>2003-05-23T09:42:30Z</time>
<speed>0.3</speed>
</trkpt>
<trkpt lat="47.607436" lon="8.199557">
<ele>372.4</ele>
<time>2003-05-23T09:42:35Z</time>
<speed>0.6</speed>
</trkpt>
<trkpt lat="47.607404" lon="8.199551">
<ele>372.9</ele>
<time>2003-05-23T09:42:40Z</time>
<speed>0.6</speed>
</trkpt>
<trkpt lat="47.607391" lon="8.199547">
<ele>374.2</ele>
<time>2003-05-23T09:42:45Z</time>
<speed>0.0</speed>
</trkpt>
<trkpt lat="47.607367" lon="8.199515">
<ele>375.3</ele>
<time>2003-05-23T09:42:50Z</time>
<speed>0.3</speed>
</trkpt>
<trkpt lat="47.607341" lon="8.199511">
<ele>375.2</ele>
<time>2003-05-23T09:42:55Z</time>
<speed>0.3</speed>
</trkpt>
<trkpt lat="47.607322" lon="8.199508">
<ele>375.8</ele>
<time>2003-05-23T09:43:00Z</time>
<speed>0.3</speed>
</trkpt>
<trkpt lat="47.607297" lon="8.199504">
<ele>375.6</ele>
<time>2003-05-23T09:43:05Z</time>
<speed>0.3</speed>
</trkpt>
<trkpt lat="47.607248" lon="8.199470">
<ele>375.1</ele>
<time>2003-05-23T09:43:10Z</time>
<speed>0.3</speed>
</trkpt>
<trkpt lat="47.607224" lon="8.199455">
<ele>373.5</ele>
<time>2003-05-23T09:43:15Z</time>
<speed>0.3</speed>
</trkpt>
<trkpt lat="47.607168" lon="8.199432">
<ele>373.8</ele>
<time>2003-05-23T09:43:20Z</time>
<speed>0.6</speed>
</trkpt>
<trkpt lat="47.607121" lon="8.199372">
<ele>373.1</ele>
<time>2003-05-23T09:43:25Z</time>
<speed>0.3</speed>
</trkpt>
<trkpt lat="47.607096" lon="8.199368">
<ele>373.0</ele>
<time>2003-05-23T09:43:30Z</time>
<speed>0.3</speed>
</trkpt>
<trkpt lat="47.607071" lon="8.199349">
<ele>374.1</ele>
<time>2003-05-23T09:43:35Z</time>
<speed>0.3</speed>
</trkpt>
<trkpt lat="47.607027" lon="8.199342">
<ele>374.6</ele>
<time>2003-05-23T09:43:40Z</time>
<speed>0.3</speed>
</trkpt>
<trkpt lat="47.606990" lon="8.199323">
<ele>374.3</ele>
<time>2003-05-23T09:43:45Z</time>
<speed>0.3</speed>
</trkpt>
<trkpt lat="47.606947" lon="8.199289">
<ele>374.6</ele>
<time>2003-05-23T09:43:50Z</time>
<speed>0.3</speed>
</trkpt>
<trkpt lat="47.606911" lon="8.199257">
<ele>374.1</ele>
<time>2003-05-23T09:43:55Z</time>
<speed>0.3</speed>
</trkpt>
<trkpt lat="47.606875" lon="8.199223">
<ele>375.1</ele>
<time>2003-05-23T09:44:00Z</time>
<speed>0.3</speed>
</trkpt>
<trkpt lat="47.606838" lon="8.199204">
<ele>374.8</ele>
<time>2003-05-23T09:44:05Z</time>
<speed>0.3</speed>
</trkpt>
<trkpt lat="47.606786" lon="8.199208">
<ele>376.1</ele>
<time>2003-05-23T09:44:10Z</time>
<speed>0.3</speed>
</trkpt>
<trkpt lat="47.606754" lon="8.199187">
<ele>377.9</ele>
<time>2003-05-23T09:44:15Z</time>
<speed>0.3</speed>
</trkpt>
<trkpt lat="47.606710" lon="8.199179">
<ele>378.3</ele>
<time>2003-05-23T09:44:20Z</time>
<speed>0.3</speed>
</trkpt>
<trkpt lat="47.606653" lon="8.199172">
<ele>377.3</ele>
<time>2003-05-23T09:44:25Z</time>
<speed>0.3</speed>
</trkpt>
<trkpt lat="47.606614" lon="8.199179">
<ele>377.2</ele>
<time>2003-05-23T09:44:30Z</time>
<speed>0.3</speed>
</trkpt>
<trkpt lat="47.606563" lon="8.199185">
<ele>377.0</ele>
<time>2003-05-23T09:44:35Z</time>
<speed>0.3</speed>
</trkpt>
<trkpt lat="47.606514" lon="8.199245">
<ele>376.5</ele>
<time>2003-05-23T09:44:40Z</time>
<speed>0.6</speed>
</trkpt>
<trkpt lat="47.606463" lon="8.199251">
<ele>376.4</ele>
<time>2003-05-23T09:44:45Z</time>
<speed>0.6</speed>
</trkpt>
<trkpt lat="47.606423" lon="8.199271">
<ele>376.3</ele>
<time>2003-05-23T09:44:50Z</time>
<speed>0.6</speed>
</trkpt>
<trkpt lat="47.606376" lon="8.199305">
<ele>375.7</ele>
<time>2003-05-23T09:44:55Z</time>
<speed>0.6</speed>
</trkpt>
<trkpt lat="47.606311" lon="8.199322">
<ele>375.5</ele>
<time>2003-05-23T09:45:00Z</time>
<speed>0.8</speed>
</trkpt>
<trkpt lat="47.606233" lon="8.199337">
<ele>375.3</ele>
<time>2003-05-23T09:45:05Z</time>
<speed>0.8</speed>
</trkpt>
<trkpt lat="47.606174" lon="8.199371">
<ele>373.1</ele>
<time>2003-05-23T09:45:10Z</time>
<speed>0.6</speed>
</trkpt>
<trkpt lat="47.606116" lon="8.199374">
<ele>373.6</ele>
<time>2003-05-23T09:45:15Z</time>
<speed>0.6</speed>
</trkpt>
<trkpt lat="47.606064" lon="8.199393">
<ele>373.5</ele>
<time>2003-05-23T09:45:20Z</time>
<speed>0.6</speed>
</trkpt>
<trkpt lat="47.606024" lon="8.199429">
<ele>372.2</ele>
<time>2003-05-23T09:45:25Z</time>
<speed>0.6</speed>
</trkpt>
<trkpt lat="47.605972" lon="8.199434">
<ele>372.0</ele>
<time>2003-05-23T09:45:30Z</time>
<speed>0.3</speed>
</trkpt>
<trkpt lat="47.605920" lon="8.199470">
<ele>369.2</ele>
<time>2003-05-23T09:45:35Z</time>
<speed>0.3</speed>
</trkpt>
<trkpt lat="47.605886" lon="8.199493">
<ele>368.5</ele>
<time>2003-05-23T09:45:40Z</time>
<speed>0.6</speed>
</trkpt>
<trkpt lat="47.605840" lon="8.199511">
<ele>369.1</ele>
<time>2003-05-23T09:45:45Z</time>
<speed>0.8</speed>
</trkpt>
<trkpt lat="47.605800" lon="8.199532">
<ele>369.1</ele>
<time>2003-05-23T09:45:50Z</time>
<speed>0.8</speed>
</trkpt>
<trkpt lat="47.605768" lon="8.199541">
<ele>368.3</ele>
<time>2003-05-23T09:45:55Z</time>
<speed>0.3</speed>
</trkpt>
<trkpt lat="47.605723" lon="8.199549">
<ele>367.5</ele>
<time>2003-05-23T09:46:00Z</time>
<speed>0.8</speed>
</trkpt>
<trkpt lat="47.605676" lon="8.199581">
<ele>368.2</ele>
<time>2003-05-23T09:46:05Z</time>
<speed>0.6</speed>
</trkpt>
<trkpt lat="47.605653" lon="8.199631">
<ele>367.8</ele>
<time>2003-05-23T09:46:10Z</time>
<speed>0.6</speed>
</trkpt>
<trkpt lat="47.605611" lon="8.199693">
<ele>366.7</ele>
<time>2003-05-23T09:46:15Z</time>
<speed>0.6</speed>
</trkpt>
<trkpt lat="47.605558" lon="8.199727">
<ele>365.3</ele>
<time>2003-05-23T09:46:20Z</time>
<speed>0.8</speed>
</trkpt>
<trkpt lat="47.605541" lon="8.199791">
<ele>365.7</ele>
<time>2003-05-23T09:46:25Z</time>
<speed>0.6</speed>
</trkpt>
<trkpt lat="47.605500" lon="8.199825">
<ele>365.7</ele>
<time>2003-05-23T09:46:30Z</time>
<speed>0.8</speed>
</trkpt>
<trkpt lat="47.605440" lon="8.199855">
<ele>366.4</ele>
<time>2003-05-23T09:46:35Z</time>
<speed>1.1</speed>
</trkpt>
<trkpt lat="47.605405" lon="8.199889">
<ele>367.2</ele>
<time>2003-05-23T09:46:40Z</time>
<speed>0.6</speed>
</trkpt>
<trkpt lat="47.605353" lon="8.199923">
<ele>365.8</ele>
<time>2003-05-23T09:46:45Z</time>
<speed>0.8</speed>
</trkpt>
<trkpt lat="47.605295" lon="8.199928">
<ele>364.9</ele>
<time>2003-05-23T09:46:50Z</time>
<speed>0.6</speed>
</trkpt>
<trkpt lat="47.605262" lon="8.199936">
<ele>365.5</ele>
<time>2003-05-23T09:46:55Z</time>
<speed>0.6</speed>
</trkpt>
<trkpt lat="47.605217" lon="8.199941">
<ele>366.1</ele>
<time>2003-05-23T09:47:00Z</time>
<speed>0.6</speed>
</trkpt>
<trkpt lat="47.605180" lon="8.199922">
<ele>365.8</ele>
<time>2003-05-23T09:47:05Z</time>
<speed>0.3</speed>
</trkpt>
<trkpt lat="47.605155" lon="8.199905">
<ele>365.5</ele>
<time>2003-05-23T09:47:10Z</time>
<speed>0.6</speed>
</trkpt>
<trkpt lat="47.605113" lon="8.199873">
<ele>364.4</ele>
<time>2003-05-23T09:47:15Z</time>
<speed>0.6</speed>
</trkpt>
<trkpt lat="47.605075" lon="8.199868">
<ele>364.2</ele>
<time>2003-05-23T09:47:20Z</time>
<speed>0.6</speed>
</trkpt>
<trkpt lat="47.605033" lon="8.199834">
<ele>364.4</ele>
<time>2003-05-23T09:47:25Z</time>
<speed>0.6</speed>
</trkpt>
<trkpt lat="47.604990" lon="8.199800">
<ele>364.7</ele>
<time>2003-05-23T09:47:30Z</time>
<speed>0.6</speed>
</trkpt>
<trkpt lat="47.604965" lon="8.199781">
<ele>365.9</ele>
<time>2003-05-23T09:47:35Z</time>
<speed>0.3</speed>
</trkpt>
<trkpt lat="47.604922" lon="8.199762">
<ele>364.8</ele>
<time>2003-05-23T09:47:40Z</time>
<speed>0.6</speed>
</trkpt>
<trkpt lat="47.604860" lon="8.199739">
<ele>364.4</ele>
<time>2003-05-23T09:47:45Z</time>
<speed>0.6</speed>
</trkpt>
<trkpt lat="47.604816" lon="8.199732">
<ele>364.8</ele>
<time>2003-05-23T09:47:50Z</time>
<speed>0.8</speed>
</trkpt>
<trkpt lat="47.604753" lon="8.199707">
<ele>365.8</ele>
<time>2003-05-23T09:47:55Z</time>
<speed>1.1</speed>
</trkpt>
<trkpt lat="47.604689" lon="8.199696">
<ele>366.8</ele>
<time>2003-05-23T09:48:00Z</time>
<speed>1.1</speed>
</trkpt>
<trkpt lat="47.604630" lon="8.199713">
<ele>367.4</ele>
<time>2003-05-23T09:48:05Z</time>
<speed>0.8</speed>
</trkpt>
<trkpt lat="47.604572" lon="8.199732">
<ele>366.6</ele>
<time>2003-05-23T09:48:10Z</time>
<speed>1.1</speed>
</trkpt>
<trkpt lat="47.604526" lon="8.199752">
<ele>365.8</ele>
<time>2003-05-23T09:48:15Z</time>
<speed>0.8</speed>
</trkpt>
<trkpt lat="47.604508" lon="8.199799">
<ele>368.9</ele>
<time>2003-05-23T09:48:20Z</time>
<speed>1.1</speed>
</trkpt>
<trkpt lat="47.604460" lon="8.199844">
<ele>369.8</ele>
<time>2003-05-23T09:48:25Z</time>
<speed>0.8</speed>
</trkpt>
<trkpt lat="47.604413" lon="8.199876">
<ele>370.5</ele>
<time>2003-05-23T09:48:30Z</time>
<speed>0.8</speed>
</trkpt>
<trkpt lat="47.604367" lon="8.199897">
<ele>369.7</ele>
<time>2003-05-23T09:48:35Z</time>
<speed>1.1</speed>
</trkpt>
<trkpt lat="47.604313" lon="8.199929">
<ele>369.7</ele>
<time>2003-05-23T09:48:40Z</time>
<speed>1.1</speed>
</trkpt>
<trkpt lat="47.604261" lon="8.199947">
<ele>369.7</ele>
<time>2003-05-23T09:48:45Z</time>
<speed>1.1</speed>
</trkpt>
<trkpt lat="47.604210" lon="8.199955">
<ele>368.1</ele>
<time>2003-05-23T09:48:50Z</time>
<speed>0.8</speed>
</trkpt>
<trkpt lat="47.604158" lon="8.199974">
<ele>368.0</ele>
<time>2003-05-23T09:48:55Z</time>
<speed>0.8</speed>
</trkpt>
<trkpt lat="47.604105" lon="8.199990">
<ele>369.3</ele>
<time>2003-05-23T09:49:00Z</time>
<speed>1.1</speed>
</trkpt>
<trkpt lat="47.604046" lon="8.200007">
<ele>369.9</ele>
<time>2003-05-23T09:49:05Z</time>
<speed>1.4</speed>
</trkpt>
<trkpt lat="47.603988" lon="8.200011">
<ele>370.3</ele>
<time>2003-05-23T09:49:10Z</time>
<speed>1.1</speed>
</trkpt>
<trkpt lat="47.603923" lon="8.200030">
<ele>368.8</ele>
<time>2003-05-23T09:49:15Z</time>
<speed>1.1</speed>
</trkpt>
<trkpt lat="47.603859" lon="8.200033">
<ele>368.5</ele>
<time>2003-05-23T09:49:20Z</time>
<speed>1.1</speed>
</trkpt>
<trkpt lat="47.603813" lon="8.200039">
<ele>369.1</ele>
<time>2003-05-23T09:49:25Z</time>
<speed>1.1</speed>
</trkpt>
<trkpt lat="47.603780" lon="8.200060">
<ele>369.8</ele>
<time>2003-05-23T09:49:30Z</time>
<speed>0.8</speed>
</trkpt>
<trkpt lat="47.603767" lon="8.200135">
<ele>372.4</ele>
<time>2003-05-23T09:49:35Z</time>
<speed>0.8</speed>
</trkpt>
<trkpt lat="47.603732" lon="8.200169">
<ele>373.2</ele>
<time>2003-05-23T09:49:40Z</time>
<speed>1.1</speed>
</trkpt>
<trkpt lat="47.603692" lon="8.200189">
<ele>373.2</ele>
<time>2003-05-23T09:49:45Z</time>
<speed>0.8</speed>
</trkpt>
<trkpt lat="47.603678" lon="8.200214">
<ele>373.3</ele>
<time>2003-05-23T09:49:50Z</time>
<speed>0.8</speed>
</trkpt>
<trkpt lat="47.603603" lon="8.200268">
<ele>374.1</ele>
<time>2003-05-23T09:49:55Z</time>
<speed>1.1</speed>
</trkpt>
<trkpt lat="47.603550" lon="8.200300">
<ele>374.1</ele>
<time>2003-05-23T09:50:00Z</time>
<speed>0.8</speed>
</trkpt>
<trkpt lat="47.603508" lon="8.200347">
<ele>374.3</ele>
<time>2003-05-23T09:50:05Z</time>
<speed>0.8</speed>
</trkpt>
<trkpt lat="47.603494" lon="8.200371">
<ele>374.4</ele>
<time>2003-05-23T09:50:10Z</time>
<speed>0.0</speed>
</trkpt>
<trkpt lat="47.603511" lon="8.200386">
<ele>375.3</ele>
<time>2003-05-23T09:50:15Z</time>
<speed>0.0</speed>
</trkpt>
<trkpt lat="47.603511" lon="8.200386">
<ele>375.3</ele>
<time>2003-05-23T09:50:20Z</time>
<speed>0.0</speed>
</trkpt>
<trkpt lat="47.603518" lon="8.200386">
<ele>376.1</ele>
<time>2003-05-23T09:50:25Z</time>
<speed>0.0</speed>
</trkpt>
<trkpt lat="47.603518" lon="8.200386">
<ele>376.1</ele>
<time>2003-05-23T09:50:30Z</time>
<speed>0.0</speed>
</trkpt>
<trkpt lat="47.603518" lon="8.200386">
<ele>376.1</ele>
<time>2003-05-23T09:50:35Z</time>
<speed>0.0</speed>
</trkpt>
<trkpt lat="47.603517" lon="8.200400">
<ele>376.2</ele>
<time>2003-05-23T09:50:40Z</time>
<speed>0.0</speed>
</trkpt>
<trkpt lat="47.603516" lon="8.200413">
<ele>376.3</ele>
<time>2003-05-23T09:50:45Z</time>
<speed>0.6</speed>
</trkpt>
<trkpt lat="47.603474" lon="8.200460">
<ele>376.4</ele>
<time>2003-05-23T09:50:50Z</time>
<speed>0.8</speed>
</trkpt>
<trkpt lat="47.603458" lon="8.200512">
<ele>375.3</ele>
<time>2003-05-23T09:50:55Z</time>
<speed>0.8</speed>
</trkpt>
<trkpt lat="47.603434" lon="8.200589">
<ele>375.1</ele>
<time>2003-05-23T09:51:00Z</time>
<speed>1.1</speed>
</trkpt>
<trkpt lat="47.603415" lon="8.200666">
<ele>375.6</ele>
<time>2003-05-23T09:51:05Z</time>
<speed>0.8</speed>
</trkpt>
<trkpt lat="47.603378" lon="8.200742">
<ele>375.3</ele>
<time>2003-05-23T09:51:10Z</time>
<speed>1.4</speed>
</trkpt>
<trkpt lat="47.603352" lon="8.200830">
<ele>376.6</ele>
<time>2003-05-23T09:51:15Z</time>
<speed>1.1</speed>
</trkpt>
<trkpt lat="47.603339" lon="8.200935">
<ele>376.6</ele>
<time>2003-05-23T09:51:20Z</time>
<speed>1.1</speed>
</trkpt>
<trkpt lat="47.603325" lon="8.201039">
<ele>378.0</ele>
<time>2003-05-23T09:51:25Z</time>
<speed>1.1</speed>
</trkpt>
<trkpt lat="47.603304" lon="8.201142">
<ele>378.7</ele>
<time>2003-05-23T09:51:30Z</time>
<speed>1.4</speed>
</trkpt>
<trkpt lat="47.603298" lon="8.201234">
<ele>379.4</ele>
<time>2003-05-23T09:51:35Z</time>
<speed>1.1</speed>
</trkpt>
<trkpt lat="47.603280" lon="8.201298">
<ele>379.8</ele>
<time>2003-05-23T09:51:40Z</time>
<speed>0.6</speed>
</trkpt>
<trkpt lat="47.603245" lon="8.201345">
<ele>380.7</ele>
<time>2003-05-23T09:51:45Z</time>
<speed>1.1</speed>
</trkpt>
<trkpt lat="47.603189" lon="8.201416">
<ele>381.0</ele>
<time>2003-05-23T09:51:50Z</time>
<speed>0.8</speed>
</trkpt>
<trkpt lat="47.603173" lon="8.201454">
<ele>381.2</ele>
<time>2003-05-23T09:51:55Z</time>
<speed>0.6</speed>
</trkpt>
<trkpt lat="47.603182" lon="8.201509">
<ele>381.7</ele>
<time>2003-05-23T09:52:00Z</time>
<speed>0.6</speed>
</trkpt>
<trkpt lat="47.603196" lon="8.201576">
<ele>383.0</ele>
<time>2003-05-23T09:52:05Z</time>
<speed>0.8</speed>
</trkpt>
<trkpt lat="47.603203" lon="8.201657">
<ele>383.6</ele>
<time>2003-05-23T09:52:10Z</time>
<speed>0.8</speed>
</trkpt>
<trkpt lat="47.603204" lon="8.201738">
<ele>383.6</ele>
<time>2003-05-23T09:52:15Z</time>
<speed>0.8</speed>
</trkpt>
<trkpt lat="47.603207" lon="8.201793">
<ele>383.3</ele>
<time>2003-05-23T09:52:20Z</time>
<speed>0.6</speed>
</trkpt>
<trkpt lat="47.603207" lon="8.201873">
<ele>383.2</ele>
<time>2003-05-23T09:52:25Z</time>
<speed>0.8</speed>
</trkpt>
<trkpt lat="47.603204" lon="8.201926">
<ele>383.6</ele>
<time>2003-05-23T09:52:30Z</time>
<speed>0.6</speed>
</trkpt>
<trkpt lat="47.603205" lon="8.201992">
<ele>384.8</ele>
<time>2003-05-23T09:52:35Z</time>
<speed>0.6</speed>
</trkpt>
<trkpt lat="47.603213" lon="8.202060">
<ele>385.3</ele>
<time>2003-05-23T09:52:40Z</time>
<speed>0.6</speed>
</trkpt>
<trkpt lat="47.603228" lon="8.202114">
<ele>386.5</ele>
<time>2003-05-23T09:52:45Z</time>
<speed>0.6</speed>
</trkpt>
<trkpt lat="47.603210" lon="8.202178">
<ele>386.9</ele>
<time>2003-05-23T09:52:50Z</time>
<speed>0.6</speed>
</trkpt>
<trkpt lat="47.603194" lon="8.202229">
<ele>387.3</ele>
<time>2003-05-23T09:52:55Z</time>
<speed>0.6</speed>
</trkpt>
<trkpt lat="47.603184" lon="8.202281">
<ele>386.9</ele>
<time>2003-05-23T09:53:00Z</time>
<speed>0.6</speed>
</trkpt>
<trkpt lat="47.603173" lon="8.202424">
<ele>389.4</ele>
<time>2003-05-23T09:53:05Z</time>
<speed>0.8</speed>
</trkpt>
<trkpt lat="47.603180" lon="8.202503">
<ele>391.4</ele>
<time>2003-05-23T09:53:10Z</time>
<speed>0.6</speed>
</trkpt>
<trkpt lat="47.603190" lon="8.202532">
<ele>391.7</ele>
<time>2003-05-23T09:53:15Z</time>
<speed>0.3</speed>
</trkpt>
<trkpt lat="47.603214" lon="8.202562">
<ele>392.0</ele>
<time>2003-05-23T09:53:20Z</time>
<speed>0.6</speed>
</trkpt>
<trkpt lat="47.603250" lon="8.202594">
<ele>392.4</ele>
<time>2003-05-23T09:53:25Z</time>
<speed>0.6</speed>
</trkpt>
<trkpt lat="47.603293" lon="8.202614">
<ele>392.1</ele>
<time>2003-05-23T09:53:30Z</time>
<speed>0.8</speed>
</trkpt>
<trkpt lat="47.603324" lon="8.202633">
<ele>391.6</ele>
<time>2003-05-23T09:53:35Z</time>
<speed>0.8</speed>
</trkpt>
<trkpt lat="47.603354" lon="8.202665">
<ele>391.3</ele>
<time>2003-05-23T09:53:40Z</time>
<speed>0.6</speed>
</trkpt>
<trkpt lat="47.603390" lon="8.202697">
<ele>391.7</ele>
<time>2003-05-23T09:53:45Z</time>
<speed>0.6</speed>
</trkpt>
<trkpt lat="47.603421" lon="8.202716">
<ele>391.3</ele>
<time>2003-05-23T09:53:50Z</time>
<speed>0.6</speed>
</trkpt>
<trkpt lat="47.603457" lon="8.202748">
<ele>391.7</ele>
<time>2003-05-23T09:53:55Z</time>
<speed>0.8</speed>
</trkpt>
<trkpt lat="47.603480" lon="8.202778">
<ele>392.0</ele>
<time>2003-05-23T09:54:00Z</time>
<speed>0.8</speed>
</trkpt>
<trkpt lat="47.603504" lon="8.202810">
<ele>391.0</ele>
<time>2003-05-23T09:54:05Z</time>
<speed>0.6</speed>
</trkpt>
<trkpt lat="47.603526" lon="8.202867">
<ele>391.5</ele>
<time>2003-05-23T09:54:10Z</time>
<speed>0.6</speed>
</trkpt>
<trkpt lat="47.603541" lon="8.202923">
<ele>391.3</ele>
<time>2003-05-23T09:54:15Z</time>
<speed>0.8</speed>
</trkpt>
<trkpt lat="47.603556" lon="8.202993">
<ele>391.2</ele>
<time>2003-05-23T09:54:20Z</time>
<speed>0.8</speed>
</trkpt>
<trkpt lat="47.603578" lon="8.203036">
<ele>391.6</ele>
<time>2003-05-23T09:54:25Z</time>
<speed>0.8</speed>
</trkpt>
<trkpt lat="47.603586" lon="8.203104">
<ele>392.1</ele>
<time>2003-05-23T09:54:30Z</time>
<speed>0.6</speed>
</trkpt>
<trkpt lat="47.603595" lon="8.203160">
<ele>391.2</ele>
<time>2003-05-23T09:54:35Z</time>
<speed>0.8</speed>
</trkpt>
<trkpt lat="47.603603" lon="8.203228">
<ele>391.7</ele>
<time>2003-05-23T09:54:40Z</time>
<speed>0.8</speed>
</trkpt>
<trkpt lat="47.603606" lon="8.203282">
<ele>391.5</ele>
<time>2003-05-23T09:54:45Z</time>
<speed>0.8</speed>
</trkpt>
<trkpt lat="47.603620" lon="8.203350">
<ele>392.7</ele>
<time>2003-05-23T09:54:50Z</time>
<speed>0.8</speed>
</trkpt>
<trkpt lat="47.603621" lon="8.203431">
<ele>392.7</ele>
<time>2003-05-23T09:54:55Z</time>
<speed>0.8</speed>
</trkpt>
<trkpt lat="47.603621" lon="8.203510">
<ele>394.0</ele>
<time>2003-05-23T09:55:00Z</time>
<speed>1.1</speed>
</trkpt>
<trkpt lat="47.603622" lon="8.203591">
<ele>393.9</ele>
<time>2003-05-23T09:55:05Z</time>
<speed>0.8</speed>
</trkpt>
<trkpt lat="47.603629" lon="8.203672">
<ele>394.5</ele>
<time>2003-05-23T09:55:10Z</time>
<speed>1.1</speed>
</trkpt>
<trkpt lat="47.603623" lon="8.203764">
<ele>395.2</ele>
<time>2003-05-23T09:55:15Z</time>
<speed>0.8</speed>
</trkpt>
<trkpt lat="47.603629" lon="8.203858">
<ele>395.9</ele>
<time>2003-05-23T09:55:20Z</time>
<speed>1.1</speed>
</trkpt>
<trkpt lat="47.603626" lon="8.203976">
<ele>397.6</ele>
<time>2003-05-23T09:55:25Z</time>
<speed>1.1</speed>
</trkpt>
<trkpt lat="47.603632" lon="8.204070">
<ele>398.3</ele>
<time>2003-05-23T09:55:30Z</time>
<speed>0.8</speed>
</trkpt>
<trkpt lat="47.603640" lon="8.204138">
<ele>398.8</ele>
<time>2003-05-23T09:55:35Z</time>
<speed>0.8</speed>
</trkpt>
<trkpt lat="47.603637" lon="8.204255">
<ele>401.9</ele>
<time>2003-05-23T09:55:40Z</time>
<speed>1.1</speed>
</trkpt>
<trkpt lat="47.603643" lon="8.204349">
<ele>402.6</ele>
<time>2003-05-23T09:55:45Z</time>
<speed>1.1</speed>
</trkpt>
<trkpt lat="47.603633" lon="8.204477">
<ele>406.4</ele>
<time>2003-05-23T09:55:50Z</time>
<speed>0.8</speed>
</trkpt>
<trkpt lat="47.603632" lon="8.204571">
<ele>406.4</ele>
<time>2003-05-23T09:55:55Z</time>
<speed>1.1</speed>
</trkpt>
<trkpt lat="47.603638" lon="8.204678">
<ele>407.2</ele>
<time>2003-05-23T09:56:00Z</time>
<speed>1.1</speed>
</trkpt>
<trkpt lat="47.603637" lon="8.204770">
<ele>408.6</ele>
<time>2003-05-23T09:56:05Z</time>
<speed>1.1</speed>
</trkpt>
<trkpt lat="47.603645" lon="8.204838">
<ele>409.2</ele>
<time>2003-05-23T09:56:10Z</time>
<speed>0.8</speed>
</trkpt>
<trkpt lat="47.603641" lon="8.204905">
<ele>408.3</ele>
<time>2003-05-23T09:56:15Z</time>
<speed>0.8</speed>
</trkpt>
<trkpt lat="47.603649" lon="8.204975">
<ele>407.4</ele>
<time>2003-05-23T09:56:20Z</time>
<speed>0.8</speed>
</trkpt>
<trkpt lat="47.603649" lon="8.205069">
<ele>407.4</ele>
<time>2003-05-23T09:56:25Z</time>
<speed>1.1</speed>
</trkpt>
<trkpt lat="47.603645" lon="8.205137">
<ele>406.5</ele>
<time>2003-05-23T09:56:30Z</time>
<speed>1.1</speed>
</trkpt>
<trkpt lat="47.603647" lon="8.205204">
<ele>406.3</ele>
<time>2003-05-23T09:56:35Z</time>
<speed>1.1</speed>
</trkpt>
<trkpt lat="47.603660" lon="8.205287">
<ele>406.3</ele>
<time>2003-05-23T09:56:40Z</time>
<speed>0.8</speed>
</trkpt>
<trkpt lat="47.603662" lon="8.205357">
<ele>404.7</ele>
<time>2003-05-23T09:56:45Z</time>
<speed>1.1</speed>
</trkpt>
<trkpt lat="47.603675" lon="8.205453">
<ele>404.8</ele>
<time>2003-05-23T09:56:50Z</time>
<speed>1.4</speed>
</trkpt>
<trkpt lat="47.603682" lon="8.205535">
<ele>404.0</ele>
<time>2003-05-23T09:56:55Z</time>
<speed>1.4</speed>
</trkpt>
<trkpt lat="47.603703" lon="8.205605">
<ele>404.6</ele>
<time>2003-05-23T09:57:00Z</time>
<speed>1.1</speed>
</trkpt>
<trkpt lat="47.603716" lon="8.205703">
<ele>403.3</ele>
<time>2003-05-23T09:57:05Z</time>
<speed>1.4</speed>
</trkpt>
<trkpt lat="47.603731" lon="8.205772">
<ele>403.2</ele>
<time>2003-05-23T09:57:10Z</time>
<speed>0.8</speed>
</trkpt>
<trkpt lat="47.603739" lon="8.205842">
<ele>402.3</ele>
<time>2003-05-23T09:57:15Z</time>
<speed>0.8</speed>
</trkpt>
<trkpt lat="47.603760" lon="8.205914">
<ele>401.6</ele>
<time>2003-05-23T09:57:20Z</time>
<speed>1.1</speed>
</trkpt>
<trkpt lat="47.603782" lon="8.205972">
<ele>400.7</ele>
<time>2003-05-23T09:57:25Z</time>
<speed>0.8</speed>
</trkpt>
<trkpt lat="47.603804" lon="8.206030">
<ele>399.8</ele>
<time>2003-05-23T09:57:30Z</time>
<speed>0.8</speed>
</trkpt>
<trkpt lat="47.603831" lon="8.206102">
<ele>399.8</ele>
<time>2003-05-23T09:57:35Z</time>
<speed>0.8</speed>
</trkpt>
<trkpt lat="47.603852" lon="8.206173">
<ele>399.0</ele>
<time>2003-05-23T09:57:40Z</time>
<speed>1.1</speed>
</trkpt>
<trkpt lat="47.603881" lon="8.206233">
<ele>397.4</ele>
<time>2003-05-23T09:57:45Z</time>
<speed>0.8</speed>
</trkpt>
<trkpt lat="47.603909" lon="8.206294">
<ele>395.9</ele>
<time>2003-05-23T09:57:50Z</time>
<speed>0.8</speed>
</trkpt>
<trkpt lat="47.603931" lon="8.206352">
<ele>395.0</ele>
<time>2003-05-23T09:57:55Z</time>
<speed>0.8</speed>
</trkpt>
<trkpt lat="47.603952" lon="8.206422">
<ele>395.6</ele>
<time>2003-05-23T09:58:00Z</time>
<speed>0.8</speed>
</trkpt>
<trkpt lat="47.603973" lon="8.206493">
<ele>394.8</ele>
<time>2003-05-23T09:58:05Z</time>
<speed>0.8</speed>
</trkpt>
<trkpt lat="47.603993" lon="8.206563">
<ele>395.5</ele>
<time>2003-05-23T09:58:10Z</time>
<speed>0.8</speed>
</trkpt>
<trkpt lat="47.604005" lon="8.206672">
<ele>395.6</ele>
<time>2003-05-23T09:58:15Z</time>
<speed>1.1</speed>
</trkpt>
<trkpt lat="47.604024" lon="8.206768">
<ele>396.5</ele>
<time>2003-05-23T09:58:20Z</time>
<speed>1.1</speed>
</trkpt>
<trkpt lat="47.604044" lon="8.206852">
<ele>395.8</ele>
<time>2003-05-23T09:58:25Z</time>
<speed>1.1</speed>
</trkpt>
<trkpt lat="47.604062" lon="8.206948">
<ele>396.6</ele>
<time>2003-05-23T09:58:30Z</time>
<speed>1.4</speed>
</trkpt>
<trkpt lat="47.604076" lon="8.207031">
<ele>396.6</ele>
<time>2003-05-23T09:58:35Z</time>
<speed>1.1</speed>
</trkpt>
<trkpt lat="47.604096" lon="8.207116">
<ele>395.9</ele>
<time>2003-05-23T09:58:40Z</time>
<speed>1.1</speed>
</trkpt>
<trkpt lat="47.604116" lon="8.207199">
<ele>396.6</ele>
<time>2003-05-23T09:58:45Z</time>
<speed>1.4</speed>
</trkpt>
<trkpt lat="47.604142" lon="8.207283">
<ele>396.7</ele>
<time>2003-05-23T09:58:50Z</time>
<speed>1.1</speed>
</trkpt>
<trkpt lat="47.604156" lon="8.207353">
<ele>396.5</ele>
<time>2003-05-23T09:58:55Z</time>
<speed>1.1</speed>
</trkpt>
<trkpt lat="47.604176" lon="8.207438">
<ele>395.9</ele>
<time>2003-05-23T09:59:00Z</time>
<speed>1.1</speed>
</trkpt>
<trkpt lat="47.604196" lon="8.207520">
<ele>396.6</ele>
<time>2003-05-23T09:59:05Z</time>
<speed>1.1</speed>
</trkpt>
<trkpt lat="47.604209" lon="8.207603">
<ele>396.6</ele>
<time>2003-05-23T09:59:10Z</time>
<speed>1.4</speed>
</trkpt>
<trkpt lat="47.604229" lon="8.207686">
<ele>397.3</ele>
<time>2003-05-23T09:59:15Z</time>
<speed>1.1</speed>
</trkpt>
<trkpt lat="47.604249" lon="8.207769">
<ele>398.0</ele>
<time>2003-05-23T09:59:20Z</time>
<speed>1.1</speed>
</trkpt>
<trkpt lat="47.604275" lon="8.207853">
<ele>398.0</ele>
<time>2003-05-23T09:59:25Z</time>
<speed>1.4</speed>
</trkpt>
<trkpt lat="47.604289" lon="8.207923">
<ele>397.9</ele>
<time>2003-05-23T09:59:30Z</time>
<speed>1.1</speed>
</trkpt>
<trkpt lat="47.604309" lon="8.208006">
<ele>398.7</ele>
<time>2003-05-23T09:59:35Z</time>
<speed>1.1</speed>
</trkpt>
<trkpt lat="47.604335" lon="8.208090">
<ele>398.7</ele>
<time>2003-05-23T09:59:40Z</time>
<speed>1.4</speed>
</trkpt>
<trkpt lat="47.604355" lon="8.208173">
<ele>399.4</ele>
<time>2003-05-23T09:59:45Z</time>
<speed>1.4</speed>
</trkpt>
<trkpt lat="47.604368" lon="8.208256">
<ele>399.4</ele>
<time>2003-05-23T09:59:50Z</time>
<speed>1.1</speed>
</trkpt>
<trkpt lat="47.604394" lon="8.208340">
<ele>399.5</ele>
<time>2003-05-23T09:59:55Z</time>
<speed>1.1</speed>
</trkpt>
<trkpt lat="47.604414" lon="8.208423">
<ele>400.2</ele>
<time>2003-05-23T10:00:00Z</time>
<speed>1.1</speed>
</trkpt>
<trkpt lat="47.604427" lon="8.208506">
<ele>400.2</ele>
<time>2003-05-23T10:00:05Z</time>
<speed>1.1</speed>
</trkpt>
<trkpt lat="47.604454" lon="8.208591">
<ele>400.2</ele>
<time>2003-05-23T10:00:10Z</time>
<speed>1.1</speed>
</trkpt>
<trkpt lat="47.604454" lon="8.208672">
<ele>400.1</ele>
<time>2003-05-23T10:00:15Z</time>
<speed>1.4</speed>
</trkpt>
<trkpt lat="47.604448" lon="8.208764">
<ele>400.8</ele>
<time>2003-05-23T10:00:20Z</time>
<speed>1.1</speed>
</trkpt>
<trkpt lat="47.604443" lon="8.208845">
<ele>400.0</ele>
<time>2003-05-23T10:00:25Z</time>
<speed>1.1</speed>
</trkpt>
<trkpt lat="47.604432" lon="8.208910">
<ele>399.7</ele>
<time>2003-05-23T10:00:30Z</time>
<speed>0.8</speed>
</trkpt>
<trkpt lat="47.604407" lon="8.208987">
<ele>399.5</ele>
<time>2003-05-23T10:00:35Z</time>
<speed>1.1</speed>
</trkpt>
<trkpt lat="47.604390" lon="8.209066">
<ele>398.6</ele>
<time>2003-05-23T10:00:40Z</time>
<speed>1.1</speed>
</trkpt>
<trkpt lat="47.604372" lon="8.209145">
<ele>397.7</ele>
<time>2003-05-23T10:00:45Z</time>
<speed>1.1</speed>
</trkpt>
<trkpt lat="47.604353" lon="8.209222">
<ele>398.2</ele>
<time>2003-05-23T10:00:50Z</time>
<speed>0.8</speed>
</trkpt>
<trkpt lat="47.604329" lon="8.209300">
<ele>398.0</ele>
<time>2003-05-23T10:00:55Z</time>
<speed>0.8</speed>
</trkpt>
<trkpt lat="47.604311" lon="8.209377">
<ele>398.5</ele>
<time>2003-05-23T10:01:00Z</time>
<speed>1.1</speed>
</trkpt>
<trkpt lat="47.604300" lon="8.209442">
<ele>398.2</ele>
<time>2003-05-23T10:01:05Z</time>
<speed>0.6</speed>
</trkpt>
<trkpt lat="47.604285" lon="8.209467">
<ele>398.3</ele>
<time>2003-05-23T10:01:10Z</time>
<speed>0.3</speed>
</trkpt>
<trkpt lat="47.604282" lon="8.209521">
<ele>397.3</ele>
<time>2003-05-23T10:01:15Z</time>
<speed>0.6</speed>
</trkpt>
<trkpt lat="47.604271" lon="8.209587">
<ele>397.0</ele>
<time>2003-05-23T10:01:20Z</time>
<speed>0.6</speed>
</trkpt>
<trkpt lat="47.604248" lon="8.209651">
<ele>396.7</ele>
<time>2003-05-23T10:01:25Z</time>
<speed>0.8</speed>
</trkpt>
<trkpt lat="47.604246" lon="8.209677">
<ele>396.9</ele>
<time>2003-05-23T10:01:30Z</time>
<speed>0.0</speed>
</trkpt>
<trkpt lat="47.604233" lon="8.209676">
<ele>396.8</ele>
<time>2003-05-23T10:01:35Z</time>
<speed>0.3</speed>
</trkpt>
<trkpt lat="47.604239" lon="8.209691">
<ele>396.3</ele>
<time>2003-05-23T10:01:40Z</time>
<speed>0.0</speed>
</trkpt>
<trkpt lat="47.604233" lon="8.209691">
<ele>395.5</ele>
<time>2003-05-23T10:01:45Z</time>
<speed>0.0</speed>
</trkpt>
<trkpt lat="47.604224" lon="8.209730">
<ele>395.1</ele>
<time>2003-05-23T10:01:50Z</time>
<speed>0.8</speed>
</trkpt>
<trkpt lat="47.604213" lon="8.209796">
<ele>394.8</ele>
<time>2003-05-23T10:01:55Z</time>
<speed>0.8</speed>
</trkpt>
<trkpt lat="47.604202" lon="8.209862">
<ele>394.6</ele>
<time>2003-05-23T10:02:00Z</time>
<speed>0.8</speed>
</trkpt>
<trkpt lat="47.604185" lon="8.209926">
<ele>395.0</ele>
<time>2003-05-23T10:02:05Z</time>
<speed>1.1</speed>
</trkpt>
<trkpt lat="47.604161" lon="8.210003">
<ele>394.7</ele>
<time>2003-05-23T10:02:10Z</time>
<speed>1.1</speed>
</trkpt>
<trkpt lat="47.604150" lon="8.210068">
<ele>394.5</ele>
<time>2003-05-23T10:02:15Z</time>
<speed>1.1</speed>
</trkpt>
<trkpt lat="47.604131" lon="8.210146">
<ele>395.0</ele>
<time>2003-05-23T10:02:20Z</time>
<speed>1.1</speed>
</trkpt>
<trkpt lat="47.604120" lon="8.210225">
<ele>394.8</ele>
<time>2003-05-23T10:02:25Z</time>
<speed>0.8</speed>
</trkpt>
<trkpt lat="47.604095" lon="8.210302">
<ele>394.6</ele>
<time>2003-05-23T10:02:30Z</time>
<speed>1.1</speed>
</trkpt>
<trkpt lat="47.604077" lon="8.210381">
<ele>393.7</ele>
<time>2003-05-23T10:02:35Z</time>
<speed>1.1</speed>
</trkpt>
<trkpt lat="47.604053" lon="8.210458">
<ele>393.5</ele>
<time>2003-05-23T10:02:40Z</time>
<speed>1.1</speed>
</trkpt>
<trkpt lat="47.604034" lon="8.210548">
<ele>394.1</ele>
<time>2003-05-23T10:02:45Z</time>
<speed>0.8</speed>
</trkpt>
<trkpt lat="47.604009" lon="8.210625">
<ele>393.8</ele>
<time>2003-05-23T10:02:50Z</time>
<speed>0.8</speed>
</trkpt>
<trkpt lat="47.603998" lon="8.210704">
<ele>393.7</ele>
<time>2003-05-23T10:02:55Z</time>
<speed>0.8</speed>
</trkpt>
<trkpt lat="47.603979" lon="8.210781">
<ele>394.2</ele>
<time>2003-05-23T10:03:00Z</time>
<speed>1.1</speed>
</trkpt>
<trkpt lat="47.603968" lon="8.210860">
<ele>394.0</ele>
<time>2003-05-23T10:03:05Z</time>
<speed>0.8</speed>
</trkpt>
<trkpt lat="47.603949" lon="8.210937">
<ele>394.5</ele>
<time>2003-05-23T10:03:10Z</time>
<speed>1.1</speed>
</trkpt>
<trkpt lat="47.603925" lon="8.211014">
<ele>394.3</ele>
<time>2003-05-23T10:03:15Z</time>
<speed>1.1</speed>
</trkpt>
<trkpt lat="47.603907" lon="8.211093">
<ele>393.4</ele>
<time>2003-05-23T10:03:20Z</time>
<speed>1.1</speed>
</trkpt>
<trkpt lat="47.603889" lon="8.211170">
<ele>393.9</ele>
<time>2003-05-23T10:03:25Z</time>
<speed>1.1</speed>
</trkpt>
<trkpt lat="47.603871" lon="8.211249">
<ele>393.0</ele>
<time>2003-05-23T10:03:30Z</time>
<speed>1.1</speed>
</trkpt>
<trkpt lat="47.603859" lon="8.211328">
<ele>392.9</ele>
<time>2003-05-23T10:03:35Z</time>
<speed>1.1</speed>
</trkpt>
<trkpt lat="47.603840" lon="8.211418">
<ele>393.5</ele>
<time>2003-05-23T10:03:40Z</time>
<speed>1.1</speed>
</trkpt>
<trkpt lat="47.603827" lon="8.211510">
<ele>393.4</ele>
<time>2003-05-23T10:03:45Z</time>
<speed>1.1</speed>
</trkpt>
<trkpt lat="47.603815" lon="8.211588">
<ele>394.6</ele>
<time>2003-05-23T10:03:50Z</time>
<speed>1.1</speed>
</trkpt>
<trkpt lat="47.603809" lon="8.211666">
<ele>395.2</ele>
<time>2003-05-23T10:03:55Z</time>
<speed>1.1</speed>
</trkpt>
<trkpt lat="47.603790" lon="8.211757">
<ele>395.8</ele>
<time>2003-05-23T10:04:00Z</time>
<speed>1.1</speed>
</trkpt>
<trkpt lat="47.603778" lon="8.211836">
<ele>395.7</ele>
<time>2003-05-23T10:04:05Z</time>
<speed>1.1</speed>
</trkpt>
<trkpt lat="47.603765" lon="8.211928">
<ele>395.6</ele>
<time>2003-05-23T10:04:10Z</time>
<speed>0.8</speed>
</trkpt>
<trkpt lat="47.603771" lon="8.212022">
<ele>396.3</ele>
<time>2003-05-23T10:04:15Z</time>
<speed>1.1</speed>
</trkpt>
<trkpt lat="47.603765" lon="8.212116">
<ele>395.6</ele>
<time>2003-05-23T10:04:20Z</time>
<speed>1.1</speed>
</trkpt>
<trkpt lat="47.603765" lon="8.212210">
<ele>395.6</ele>
<time>2003-05-23T10:04:25Z</time>
<speed>1.4</speed>
</trkpt>
<trkpt lat="47.603766" lon="8.212291">
<ele>395.5</ele>
<time>2003-05-23T10:04:30Z</time>
<speed>1.1</speed>
</trkpt>
<trkpt lat="47.603779" lon="8.212387">
<ele>395.6</ele>
<time>2003-05-23T10:04:35Z</time>
<speed>1.1</speed>
</trkpt>
<trkpt lat="47.603780" lon="8.212468">
<ele>395.5</ele>
<time>2003-05-23T10:04:40Z</time>
<speed>1.1</speed>
</trkpt>
<trkpt lat="47.603779" lon="8.212562">
<ele>395.5</ele>
<time>2003-05-23T10:04:45Z</time>
<speed>1.1</speed>
</trkpt>
<trkpt lat="47.603787" lon="8.212644">
<ele>394.8</ele>
<time>2003-05-23T10:04:50Z</time>
<speed>1.4</speed>
</trkpt>
<trkpt lat="47.603787" lon="8.212738">
<ele>394.8</ele>
<time>2003-05-23T10:04:55Z</time>
<speed>1.1</speed>
</trkpt>
<trkpt lat="47.603793" lon="8.212832">
<ele>395.5</ele>
<time>2003-05-23T10:05:00Z</time>
<speed>1.1</speed>
</trkpt>
<trkpt lat="47.603799" lon="8.212926">
<ele>396.3</ele>
<time>2003-05-23T10:05:05Z</time>
<speed>1.1</speed>
</trkpt>
<trkpt lat="47.603806" lon="8.213009">
<ele>395.5</ele>
<time>2003-05-23T10:05:10Z</time>
<speed>1.4</speed>
</trkpt>
<trkpt lat="47.603806" lon="8.213103">
<ele>395.5</ele>
<time>2003-05-23T10:05:15Z</time>
<speed>1.1</speed>
</trkpt>
<trkpt lat="47.603807" lon="8.213184">
<ele>395.4</ele>
<time>2003-05-23T10:05:20Z</time>
<speed>1.1</speed>
</trkpt>
<trkpt lat="47.603821" lon="8.213267">
<ele>395.4</ele>
<time>2003-05-23T10:05:25Z</time>
<speed>1.1</speed>
</trkpt>
<trkpt lat="47.603828" lon="8.213350">
<ele>394.6</ele>
<time>2003-05-23T10:05:30Z</time>
<speed>1.1</speed>
</trkpt>
<trkpt lat="47.603822" lon="8.213429">
<ele>395.2</ele>
<time>2003-05-23T10:05:35Z</time>
<speed>1.1</speed>
</trkpt>
<trkpt lat="47.603823" lon="8.213510">
<ele>395.1</ele>
<time>2003-05-23T10:05:40Z</time>
<speed>0.8</speed>
</trkpt>
<trkpt lat="47.603805" lon="8.213587">
<ele>395.6</ele>
<time>2003-05-23T10:05:45Z</time>
<speed>1.1</speed>
</trkpt>
<trkpt lat="47.603782" lon="8.213637">
<ele>395.2</ele>
<time>2003-05-23T10:05:50Z</time>
<speed>0.8</speed>
</trkpt>
<trkpt lat="47.603747" lon="8.213686">
<ele>394.7</ele>
<time>2003-05-23T10:05:55Z</time>
<speed>0.8</speed>
</trkpt>
<trkpt lat="47.603700" lon="8.213735">
<ele>392.7</ele>
<time>2003-05-23T10:06:00Z</time>
<speed>1.1</speed>
</trkpt>
<trkpt lat="47.603652" lon="8.213780">
<ele>393.6</ele>
<time>2003-05-23T10:06:05Z</time>
<speed>0.8</speed>
</trkpt>
<trkpt lat="47.603598" lon="8.213812">
<ele>393.6</ele>
<time>2003-05-23T10:06:10Z</time>
<speed>1.1</speed>
</trkpt>
<trkpt lat="47.603552" lon="8.213846">
<ele>392.9</ele>
<time>2003-05-23T10:06:15Z</time>
<speed>0.8</speed>
</trkpt>
<trkpt lat="47.603498" lon="8.213878">
<ele>392.9</ele>
<time>2003-05-23T10:06:20Z</time>
<speed>1.1</speed>
</trkpt>
<trkpt lat="47.603435" lon="8.213868">
<ele>392.6</ele>
<time>2003-05-23T10:06:25Z</time>
<speed>1.1</speed>
</trkpt>
<trkpt lat="47.603389" lon="8.213889">
<ele>391.8</ele>
<time>2003-05-23T10:06:30Z</time>
<speed>1.1</speed>
</trkpt>
<trkpt lat="47.603336" lon="8.213921">
<ele>391.8</ele>
<time>2003-05-23T10:06:35Z</time>
<speed>1.1</speed>
</trkpt>
<trkpt lat="47.603289" lon="8.213939">
<ele>392.5</ele>
<time>2003-05-23T10:06:40Z</time>
<speed>1.1</speed>
</trkpt>
<trkpt lat="47.603214" lon="8.213915">
<ele>391.9</ele>
<time>2003-05-23T10:06:45Z</time>
<speed>1.4</speed>
</trkpt>
<trkpt lat="47.603145" lon="8.213905">
<ele>390.9</ele>
<time>2003-05-23T10:06:50Z</time>
<speed>1.4</speed>
</trkpt>
<trkpt lat="47.603081" lon="8.213909">
<ele>390.6</ele>
<time>2003-05-23T10:06:55Z</time>
<speed>1.1</speed>
</trkpt>
<trkpt lat="47.603018" lon="8.213899">
<ele>390.2</ele>
<time>2003-05-23T10:07:00Z</time>
<speed>1.1</speed>
</trkpt>
<trkpt lat="47.602965" lon="8.213918">
<ele>390.1</ele>
<time>2003-05-23T10:07:05Z</time>
<speed>0.8</speed>
</trkpt>
<trkpt lat="47.602914" lon="8.213924">
<ele>390.0</ele>
<time>2003-05-23T10:07:10Z</time>
<speed>1.1</speed>
</trkpt>
<trkpt lat="47.602852" lon="8.213901">
<ele>389.5</ele>
<time>2003-05-23T10:07:15Z</time>
<speed>1.1</speed>
</trkpt>
<trkpt lat="47.602777" lon="8.213877">
<ele>389.0</ele>
<time>2003-05-23T10:07:20Z</time>
<speed>1.4</speed>
</trkpt>
<trkpt lat="47.602719" lon="8.213882">
<ele>388.1</ele>
<time>2003-05-23T10:07:25Z</time>
<speed>1.1</speed>
</trkpt>
<trkpt lat="47.602631" lon="8.213871">
<ele>386.1</ele>
<time>2003-05-23T10:07:30Z</time>
<speed>1.1</speed>
</trkpt>
<trkpt lat="47.602556" lon="8.213846">
<ele>385.6</ele>
<time>2003-05-23T10:07:35Z</time>
<speed>1.4</speed>
</trkpt>
<trkpt lat="47.602474" lon="8.213848">
<ele>384.6</ele>
<time>2003-05-23T10:07:40Z</time>
<speed>0.8</speed>
</trkpt>
<trkpt lat="47.602403" lon="8.213867">
<ele>382.2</ele>
<time>2003-05-23T10:07:45Z</time>
<speed>0.8</speed>
</trkpt>
<trkpt lat="47.602339" lon="8.213887">
<ele>379.3</ele>
<time>2003-05-23T10:07:50Z</time>
<speed>0.8</speed>
</trkpt>
<trkpt lat="47.602263" lon="8.213893">
<ele>376.1</ele>
<time>2003-05-23T10:07:55Z</time>
<speed>1.1</speed>
</trkpt>
<trkpt lat="47.602198" lon="8.213925">
<ele>374.7</ele>
<time>2003-05-23T10:08:00Z</time>
<speed>0.8</speed>
</trkpt>
<trkpt lat="47.602132" lon="8.213957">
<ele>373.2</ele>
<time>2003-05-23T10:08:05Z</time>
<speed>0.8</speed>
</trkpt>
<trkpt lat="47.602055" lon="8.213973">
<ele>371.5</ele>
<time>2003-05-23T10:08:10Z</time>
<speed>0.8</speed>
</trkpt>
<trkpt lat="47.601985" lon="8.213994">
<ele>367.8</ele>
<time>2003-05-23T10:08:15Z</time>
<speed>0.8</speed>
</trkpt>
<trkpt lat="47.601934" lon="8.214001">
<ele>366.2</ele>
<time>2003-05-23T10:08:20Z</time>
<speed>0.6</speed>
</trkpt>
<trkpt lat="47.601910" lon="8.213969">
<ele>367.3</ele>
<time>2003-05-23T10:08:25Z</time>
<speed>0.3</speed>
</trkpt>
<trkpt lat="47.601911" lon="8.213941">
<ele>368.5</ele>
<time>2003-05-23T10:08:30Z</time>
<speed>0.0</speed>
</trkpt>
<trkpt lat="47.601908" lon="8.213887">
<ele>368.8</ele>
<time>2003-05-23T10:08:35Z</time>
<speed>0.3</speed>
</trkpt>
<trkpt lat="47.601892" lon="8.213841">
<ele>370.5</ele>
<time>2003-05-23T10:08:40Z</time>
<speed>0.3</speed>
</trkpt>
<trkpt lat="47.601901" lon="8.213789">
<ele>370.9</ele>
<time>2003-05-23T10:08:45Z</time>
<speed>0.3</speed>
</trkpt>
<trkpt lat="47.601930" lon="8.213723">
<ele>373.3</ele>
<time>2003-05-23T10:08:50Z</time>
<speed>0.3</speed>
</trkpt>
<trkpt lat="47.601922" lon="8.213653">
<ele>374.2</ele>
<time>2003-05-23T10:08:55Z</time>
<speed>0.6</speed>
</trkpt>
<trkpt lat="47.601913" lon="8.213597">
<ele>375.1</ele>
<time>2003-05-23T10:09:00Z</time>
<speed>0.6</speed>
</trkpt>
<trkpt lat="47.601908" lon="8.213554">
<ele>376.9</ele>
<time>2003-05-23T10:09:05Z</time>
<speed>0.3</speed>
</trkpt>
<trkpt lat="47.601888" lon="8.213469">
<ele>377.6</ele>
<time>2003-05-23T10:09:10Z</time>
<speed>0.6</speed>
</trkpt>
<trkpt lat="47.601855" lon="8.213396">
<ele>378.3</ele>
<time>2003-05-23T10:09:15Z</time>
<speed>0.6</speed>
</trkpt>
<trkpt lat="47.601814" lon="8.213320">
<ele>379.7</ele>
<time>2003-05-23T10:09:20Z</time>
<speed>0.3</speed>
</trkpt>
<trkpt lat="47.601779" lon="8.213273">
<ele>380.6</ele>
<time>2003-05-23T10:09:25Z</time>
<speed>0.3</speed>
</trkpt>
<trkpt lat="47.601744" lon="8.213228">
<ele>380.1</ele>
<time>2003-05-23T10:09:30Z</time>
<speed>0.3</speed>
</trkpt>
<trkpt lat="47.601710" lon="8.213155">
<ele>380.8</ele>
<time>2003-05-23T10:09:35Z</time>
<speed>0.6</speed>
</trkpt>
<trkpt lat="47.601684" lon="8.213070">
<ele>380.8</ele>
<time>2003-05-23T10:09:40Z</time>
<speed>0.8</speed>
</trkpt>
<trkpt lat="47.601655" lon="8.213010">
<ele>382.3</ele>
<time>2003-05-23T10:09:45Z</time>
<speed>0.6</speed>
</trkpt>
<trkpt lat="47.601615" lon="8.212950">
<ele>382.4</ele>
<time>2003-05-23T10:09:50Z</time>
<speed>0.6</speed>
</trkpt>
<trkpt lat="47.601561" lon="8.212887">
<ele>382.4</ele>
<time>2003-05-23T10:09:55Z</time>
<speed>0.3</speed>
</trkpt>
<trkpt lat="47.601527" lon="8.212827">
<ele>383.2</ele>
<time>2003-05-23T10:10:00Z</time>
<speed>0.8</speed>
</trkpt>
<trkpt lat="47.601455" lon="8.212763">
<ele>382.4</ele>
<time>2003-05-23T10:10:05Z</time>
<speed>0.8</speed>
</trkpt>
<trkpt lat="47.601394" lon="8.212729">
<ele>380.4</ele>
<time>2003-05-23T10:10:10Z</time>
<speed>0.6</speed>
</trkpt>
<trkpt lat="47.601337" lon="8.212737">
<ele>378.1</ele>
<time>2003-05-23T10:10:15Z</time>
<speed>0.6</speed>
</trkpt>
<trkpt lat="47.601280" lon="8.212744">
<ele>375.8</ele>
<time>2003-05-23T10:10:20Z</time>
<speed>0.3</speed>
</trkpt>
<trkpt lat="47.601223" lon="8.212752">
<ele>373.4</ele>
<time>2003-05-23T10:10:25Z</time>
<speed>0.8</speed>
</trkpt>
<trkpt lat="47.601152" lon="8.212770">
<ele>371.1</ele>
<time>2003-05-23T10:10:30Z</time>
<speed>0.8</speed>
</trkpt>
<trkpt lat="47.601093" lon="8.212804">
<ele>369.0</ele>
<time>2003-05-23T10:10:35Z</time>
<speed>0.8</speed>
</trkpt>
<trkpt lat="47.601028" lon="8.212838">
<ele>366.1</ele>
<time>2003-05-23T10:10:40Z</time>
<speed>1.1</speed>
</trkpt>
<trkpt lat="47.600960" lon="8.212909">
<ele>364.9</ele>
<time>2003-05-23T10:10:45Z</time>
<speed>0.8</speed>
</trkpt>
<trkpt lat="47.600894" lon="8.212956">
<ele>362.1</ele>
<time>2003-05-23T10:10:50Z</time>
<speed>1.1</speed>
</trkpt>
<trkpt lat="47.600837" lon="8.213043">
<ele>361.1</ele>
<time>2003-05-23T10:10:55Z</time>
<speed>0.8</speed>
</trkpt>
<trkpt lat="47.600794" lon="8.213116">
<ele>361.5</ele>
<time>2003-05-23T10:11:00Z</time>
<speed>1.1</speed>
</trkpt>
<trkpt lat="47.600743" lon="8.213202">
<ele>361.2</ele>
<time>2003-05-23T10:11:05Z</time>
<speed>0.8</speed>
</trkpt>
<trkpt lat="47.600718" lon="8.213277">
<ele>362.4</ele>
<time>2003-05-23T10:11:10Z</time>
<speed>0.6</speed>
</trkpt>
<trkpt lat="47.600679" lon="8.213364">
<ele>363.6</ele>
<time>2003-05-23T10:11:15Z</time>
<speed>1.1</speed>
</trkpt>
<trkpt lat="47.600649" lon="8.213439">
<ele>364.0</ele>
<time>2003-05-23T10:11:20Z</time>
<speed>0.8</speed>
</trkpt>
<trkpt lat="47.600610" lon="8.213524">
<ele>366.6</ele>
<time>2003-05-23T10:11:25Z</time>
<speed>0.8</speed>
</trkpt>
<trkpt lat="47.600572" lon="8.213612">
<ele>366.4</ele>
<time>2003-05-23T10:11:30Z</time>
<speed>1.1</speed>
</trkpt>
<trkpt lat="47.600528" lon="8.213685">
<ele>366.8</ele>
<time>2003-05-23T10:11:35Z</time>
<speed>1.1</speed>
</trkpt>
<trkpt lat="47.600498" lon="8.213747">
<ele>367.1</ele>
<time>2003-05-23T10:11:40Z</time>
<speed>0.6</speed>
</trkpt>
<trkpt lat="47.600462" lon="8.213809">
<ele>366.7</ele>
<time>2003-05-23T10:11:45Z</time>
<speed>0.6</speed>
</trkpt>
<trkpt lat="47.600430" lon="8.213899">
<ele>365.8</ele>
<time>2003-05-23T10:11:50Z</time>
<speed>0.8</speed>
</trkpt>
<trkpt lat="47.600389" lon="8.213946">
<ele>366.0</ele>
<time>2003-05-23T10:11:55Z</time>
<speed>0.8</speed>
</trkpt>
<trkpt lat="47.600346" lon="8.214022">
<ele>365.0</ele>
<time>2003-05-23T10:12:00Z</time>
<speed>1.1</speed>
</trkpt>
<trkpt lat="47.600318" lon="8.214059">
<ele>363.7</ele>
<time>2003-05-23T10:12:05Z</time>
<speed>0.6</speed>
</trkpt>
<trkpt lat="47.600269" lon="8.214119">
<ele>363.2</ele>
<time>2003-05-23T10:12:10Z</time>
<speed>0.8</speed>
</trkpt>
<trkpt lat="47.600232" lon="8.214194">
<ele>362.9</ele>
<time>2003-05-23T10:12:15Z</time>
<speed>1.4</speed>
</trkpt>
<trkpt lat="47.600177" lon="8.214268">
<ele>361.8</ele>
<time>2003-05-23T10:12:20Z</time>
<speed>1.1</speed>
</trkpt>
<trkpt lat="47.600134" lon="8.214330">
<ele>360.7</ele>
<time>2003-05-23T10:12:25Z</time>
<speed>1.1</speed>
</trkpt>
<trkpt lat="47.600087" lon="8.214377">
<ele>360.1</ele>
<time>2003-05-23T10:12:30Z</time>
<speed>1.1</speed>
</trkpt>
<trkpt lat="47.600038" lon="8.214437">
<ele>359.7</ele>
<time>2003-05-23T10:12:35Z</time>
<speed>0.8</speed>
</trkpt>
<trkpt lat="47.599984" lon="8.214484">
<ele>358.4</ele>
<time>2003-05-23T10:12:40Z</time>
<speed>0.8</speed>
</trkpt>
<trkpt lat="47.599918" lon="8.214514">
<ele>358.3</ele>
<time>2003-05-23T10:12:45Z</time>
<speed>0.8</speed>
</trkpt>
<trkpt lat="47.599876" lon="8.214561">
<ele>358.5</ele>
<time>2003-05-23T10:12:50Z</time>
<speed>1.1</speed>
</trkpt>
<trkpt lat="47.599834" lon="8.214621">
<ele>358.7</ele>
<time>2003-05-23T10:12:55Z</time>
<speed>0.8</speed>
</trkpt>
<trkpt lat="47.599784" lon="8.214694">
<ele>358.4</ele>
<time>2003-05-23T10:13:00Z</time>
<speed>1.1</speed>
</trkpt>
<trkpt lat="47.599736" lon="8.214741">
<ele>357.8</ele>
<time>2003-05-23T10:13:05Z</time>
<speed>1.1</speed>
</trkpt>
<trkpt lat="47.599674" lon="8.214797">
<ele>358.7</ele>
<time>2003-05-23T10:13:10Z</time>
<speed>1.4</speed>
</trkpt>
<trkpt lat="47.599620" lon="8.214844">
<ele>357.3</ele>
<time>2003-05-23T10:13:15Z</time>
<speed>0.8</speed>
</trkpt>
<trkpt lat="47.599573" lon="8.214891">
<ele>356.8</ele>
<time>2003-05-23T10:13:20Z</time>
<speed>0.8</speed>
</trkpt>
<trkpt lat="47.599525" lon="8.214938">
<ele>356.2</ele>
<time>2003-05-23T10:13:25Z</time>
<speed>0.8</speed>
</trkpt>
<trkpt lat="47.599471" lon="8.214985">
<ele>354.9</ele>
<time>2003-05-23T10:13:30Z</time>
<speed>1.1</speed>
</trkpt>
<trkpt lat="47.599423" lon="8.215032">
<ele>354.3</ele>
<time>2003-05-23T10:13:35Z</time>
<speed>1.1</speed>
</trkpt>
<trkpt lat="47.599350" lon="8.215075">
<ele>353.6</ele>
<time>2003-05-23T10:13:40Z</time>
<speed>1.4</speed>
</trkpt>
<trkpt lat="47.599283" lon="8.215133">
<ele>352.4</ele>
<time>2003-05-23T10:13:45Z</time>
<speed>1.4</speed>
</trkpt>
<trkpt lat="47.599236" lon="8.215167">
<ele>351.7</ele>
<time>2003-05-23T10:13:50Z</time>
<speed>1.1</speed>
</trkpt>
<trkpt lat="47.599182" lon="8.215212">
<ele>351.8</ele>
<time>2003-05-23T10:13:55Z</time>
<speed>1.1</speed>
</trkpt>
<trkpt lat="47.599129" lon="8.215246">
<ele>350.4</ele>
<time>2003-05-23T10:14:00Z</time>
<speed>1.1</speed>
</trkpt>
<trkpt lat="47.599081" lon="8.215278">
<ele>351.1</ele>
<time>2003-05-23T10:14:05Z</time>
<speed>1.1</speed>
</trkpt>
<trkpt lat="47.599034" lon="8.215310">
<ele>351.9</ele>
<time>2003-05-23T10:14:10Z</time>
<speed>1.1</speed>
</trkpt>
<trkpt lat="47.598980" lon="8.215357">
<ele>350.6</ele>
<time>2003-05-23T10:14:15Z</time>
<speed>1.1</speed>
</trkpt>
<trkpt lat="47.598933" lon="8.215388">
<ele>351.3</ele>
<time>2003-05-23T10:14:20Z</time>
<speed>1.1</speed>
</trkpt>
<trkpt lat="47.598865" lon="8.215445">
<ele>351.4</ele>
<time>2003-05-23T10:14:25Z</time>
<speed>1.1</speed>
</trkpt>
<trkpt lat="47.598817" lon="8.215490">
<ele>352.3</ele>
<time>2003-05-23T10:14:30Z</time>
<speed>1.1</speed>
</trkpt>
<trkpt lat="47.598769" lon="8.215537">
<ele>351.7</ele>
<time>2003-05-23T10:14:35Z</time>
<speed>0.8</speed>
</trkpt>
<trkpt lat="47.598716" lon="8.215569">
<ele>351.7</ele>
<time>2003-05-23T10:14:40Z</time>
<speed>0.8</speed>
</trkpt>
<trkpt lat="47.598666" lon="8.215627">
<ele>352.7</ele>
<time>2003-05-23T10:14:45Z</time>
<speed>1.1</speed>
</trkpt>
<trkpt lat="47.598607" lon="8.215659">
<ele>351.9</ele>
<time>2003-05-23T10:14:50Z</time>
<speed>0.8</speed>
</trkpt>
<trkpt lat="47.598533" lon="8.215700">
<ele>352.6</ele>
<time>2003-05-23T10:14:55Z</time>
<speed>0.8</speed>
</trkpt>
<trkpt lat="47.598487" lon="8.215721">
<ele>351.9</ele>
<time>2003-05-23T10:15:00Z</time>
<speed>0.8</speed>
</trkpt>
<trkpt lat="47.598454" lon="8.215743">
<ele>351.2</ele>
<time>2003-05-23T10:15:05Z</time>
<speed>0.8</speed>
</trkpt>
<trkpt lat="47.598407" lon="8.215792">
<ele>349.2</ele>
<time>2003-05-23T10:15:10Z</time>
<speed>0.8</speed>
</trkpt>
<trkpt lat="47.598370" lon="8.215867">
<ele>348.9</ele>
<time>2003-05-23T10:15:15Z</time>
<speed>0.8</speed>
</trkpt>
<trkpt lat="47.598339" lon="8.215944">
<ele>347.9</ele>
<time>2003-05-23T10:15:20Z</time>
<speed>1.1</speed>
</trkpt>
<trkpt lat="47.598322" lon="8.216023">
<ele>347.0</ele>
<time>2003-05-23T10:15:25Z</time>
<speed>1.1</speed>
</trkpt>
<trkpt lat="47.598328" lon="8.216102">
<ele>349.1</ele>
<time>2003-05-23T10:15:30Z</time>
<speed>0.8</speed>
</trkpt>
<trkpt lat="47.598341" lon="8.216183">
<ele>350.5</ele>
<time>2003-05-23T10:15:35Z</time>
<speed>1.1</speed>
</trkpt>
<trkpt lat="47.598328" lon="8.216275">
<ele>350.4</ele>
<time>2003-05-23T10:15:40Z</time>
<speed>0.8</speed>
</trkpt>
<trkpt lat="47.598337" lon="8.216330">
<ele>350.9</ele>
<time>2003-05-23T10:15:45Z</time>
<speed>0.0</speed>
</trkpt>
<trkpt lat="47.598349" lon="8.216330">
<ele>352.3</ele>
<time>2003-05-23T10:15:50Z</time>
<speed>0.0</speed>
</trkpt>
<trkpt lat="47.598356" lon="8.216331">
<ele>351.7</ele>
<time>2003-05-23T10:15:55Z</time>
<speed>0.0</speed>
</trkpt>
<trkpt lat="47.598356" lon="8.216331">
<ele>351.7</ele>
<time>2003-05-23T10:16:00Z</time>
<speed>0.0</speed>
</trkpt>
<trkpt lat="47.598369" lon="8.216318">
<ele>353.1</ele>
<time>2003-05-23T10:16:05Z</time>
<speed>0.0</speed>
</trkpt>
<trkpt lat="47.598362" lon="8.216316">
<ele>353.7</ele>
<time>2003-05-23T10:16:10Z</time>
<speed>0.0</speed>
</trkpt>
<trkpt lat="47.598361" lon="8.216330">
<ele>353.8</ele>
<time>2003-05-23T10:16:15Z</time>
<speed>0.0</speed>
</trkpt>
<trkpt lat="47.598355" lon="8.216330">
<ele>353.1</ele>
<time>2003-05-23T10:16:20Z</time>
<speed>0.0</speed>
</trkpt>
<trkpt lat="47.598353" lon="8.216354">
<ele>354.7</ele>
<time>2003-05-23T10:16:25Z</time>
<speed>0.0</speed>
</trkpt>
<trkpt lat="47.598347" lon="8.216354">
<ele>353.9</ele>
<time>2003-05-23T10:16:30Z</time>
<speed>0.0</speed>
</trkpt>
<trkpt lat="47.598341" lon="8.216354">
<ele>353.2</ele>
<time>2003-05-23T10:16:35Z</time>
<speed>0.0</speed>
</trkpt>
<trkpt lat="47.598341" lon="8.216354">
<ele>353.2</ele>
<time>2003-05-23T10:16:40Z</time>
<speed>0.0</speed>
</trkpt>
<trkpt lat="47.598340" lon="8.216367">
<ele>353.3</ele>
<time>2003-05-23T10:16:45Z</time>
<speed>0.0</speed>
</trkpt>
<trkpt lat="47.598340" lon="8.216367">
<ele>353.3</ele>
<time>2003-05-23T10:16:50Z</time>
<speed>0.3</speed>
</trkpt>
<trkpt lat="47.598349" lon="8.216424">
<ele>352.4</ele>
<time>2003-05-23T10:16:55Z</time>
<speed>0.8</speed>
</trkpt>
<trkpt lat="47.598378" lon="8.216469">
<ele>352.1</ele>
<time>2003-05-23T10:17:00Z</time>
<speed>0.8</speed>
</trkpt>
<trkpt lat="47.598387" lon="8.216523">
<ele>352.6</ele>
<time>2003-05-23T10:17:05Z</time>
<speed>0.6</speed>
</trkpt>
<trkpt lat="47.598371" lon="8.216574">
<ele>352.9</ele>
<time>2003-05-23T10:17:10Z</time>
<speed>0.6</speed>
</trkpt>
<trkpt lat="47.598353" lon="8.216638">
<ele>353.3</ele>
<time>2003-05-23T10:17:15Z</time>
<speed>1.1</speed>
</trkpt>
<trkpt lat="47.598335" lon="8.216717">
<ele>352.4</ele>
<time>2003-05-23T10:17:20Z</time>
<speed>1.1</speed>
</trkpt>
<trkpt lat="47.598325" lon="8.216785">
<ele>350.7</ele>
<time>2003-05-23T10:17:25Z</time>
<speed>0.8</speed>
</trkpt>
<trkpt lat="47.598332" lon="8.216865">
<ele>351.4</ele>
<time>2003-05-23T10:17:30Z</time>
<speed>1.1</speed>
</trkpt>
<trkpt lat="47.598334" lon="8.216933">
<ele>351.2</ele>
<time>2003-05-23T10:17:35Z</time>
<speed>0.8</speed>
</trkpt>
<trkpt lat="47.598329" lon="8.217014">
<ele>350.4</ele>
<time>2003-05-23T10:17:40Z</time>
<speed>0.8</speed>
</trkpt>
<trkpt lat="47.598330" lon="8.217095">
<ele>350.3</ele>
<time>2003-05-23T10:17:45Z</time>
<speed>0.8</speed>
</trkpt>
<trkpt lat="47.598298" lon="8.217183">
<ele>350.8</ele>
<time>2003-05-23T10:17:50Z</time>
<speed>1.1</speed>
</trkpt>
<trkpt lat="47.598271" lon="8.217287">
<ele>350.8</ele>
<time>2003-05-23T10:17:55Z</time>
<speed>1.4</speed>
</trkpt>
<trkpt lat="47.598222" lon="8.217362">
<ele>349.0</ele>
<time>2003-05-23T10:18:00Z</time>
<speed>1.4</speed>
</trkpt>
<trkpt lat="47.598186" lon="8.217439">
<ele>347.3</ele>
<time>2003-05-23T10:18:05Z</time>
<speed>1.4</speed>
</trkpt>
<trkpt lat="47.598161" lon="8.217531">
<ele>345.8</ele>
<time>2003-05-23T10:18:10Z</time>
<speed>0.8</speed>
</trkpt>
<trkpt lat="47.598149" lon="8.217610">
<ele>345.6</ele>
<time>2003-05-23T10:18:15Z</time>
<speed>0.8</speed>
</trkpt>
<trkpt lat="47.598132" lon="8.217676">
<ele>344.6</ele>
<time>2003-05-23T10:18:20Z</time>
<speed>0.8</speed>
</trkpt>
<trkpt lat="47.598116" lon="8.217728">
<ele>343.5</ele>
<time>2003-05-23T10:18:25Z</time>
<speed>0.6</speed>
</trkpt>
<trkpt lat="47.598100" lon="8.217781">
<ele>342.4</ele>
<time>2003-05-23T10:18:30Z</time>
<speed>0.8</speed>
</trkpt>
<trkpt lat="47.598083" lon="8.217847">
<ele>341.4</ele>
<time>2003-05-23T10:18:35Z</time>
<speed>0.6</speed>
</trkpt>
<trkpt lat="47.598081" lon="8.217888">
<ele>340.3</ele>
<time>2003-05-23T10:18:40Z</time>
<speed>0.6</speed>
</trkpt>
<trkpt lat="47.598085" lon="8.217930">
<ele>339.9</ele>
<time>2003-05-23T10:18:45Z</time>
<speed>0.6</speed>
</trkpt>
<trkpt lat="47.598095" lon="8.217971">
<ele>340.3</ele>
<time>2003-05-23T10:18:50Z</time>
<speed>0.6</speed>
</trkpt>
<trkpt lat="47.598091" lon="8.218024">
<ele>340.7</ele>
<time>2003-05-23T10:18:55Z</time>
<speed>0.6</speed>
</trkpt>
<trkpt lat="47.598112" lon="8.218095">
<ele>339.9</ele>
<time>2003-05-23T10:19:00Z</time>
<speed>1.1</speed>
</trkpt>
<trkpt lat="47.598153" lon="8.218172">
<ele>337.1</ele>
<time>2003-05-23T10:19:05Z</time>
<speed>1.1</speed>
</trkpt>
<trkpt lat="47.598194" lon="8.218234">
<ele>335.6</ele>
<time>2003-05-23T10:19:10Z</time>
<speed>1.1</speed>
</trkpt>
<trkpt lat="47.598236" lon="8.218283">
<ele>334.1</ele>
<time>2003-05-23T10:19:15Z</time>
<speed>1.1</speed>
</trkpt>
<trkpt lat="47.598291" lon="8.218334">
<ele>332.6</ele>
<time>2003-05-23T10:19:20Z</time>
<speed>1.1</speed>
</trkpt>
<trkpt lat="47.598333" lon="8.218383">
<ele>331.0</ele>
<time>2003-05-23T10:19:25Z</time>
<speed>1.1</speed>
</trkpt>
<trkpt lat="47.598381" lon="8.218432">
<ele>330.2</ele>
<time>2003-05-23T10:19:30Z</time>
<speed>1.1</speed>
</trkpt>
<trkpt lat="47.598429" lon="8.218481">
<ele>329.3</ele>
<time>2003-05-23T10:19:35Z</time>
<speed>1.1</speed>
</trkpt>
<trkpt lat="47.598484" lon="8.218532">
<ele>327.8</ele>
<time>2003-05-23T10:19:40Z</time>
<speed>1.1</speed>
</trkpt>
<trkpt lat="47.598532" lon="8.218581">
<ele>327.0</ele>
<time>2003-05-23T10:19:45Z</time>
<speed>1.1</speed>
</trkpt>
<trkpt lat="47.598581" lon="8.218630">
<ele>326.2</ele>
<time>2003-05-23T10:19:50Z</time>
<speed>1.1</speed>
</trkpt>
<trkpt lat="47.598629" lon="8.218679">
<ele>325.3</ele>
<time>2003-05-23T10:19:55Z</time>
<speed>1.1</speed>
</trkpt>
<trkpt lat="47.598684" lon="8.218730">
<ele>323.8</ele>
<time>2003-05-23T10:20:00Z</time>
<speed>1.1</speed>
</trkpt>
<trkpt lat="47.598731" lon="8.218792">
<ele>323.1</ele>
<time>2003-05-23T10:20:05Z</time>
<speed>1.4</speed>
</trkpt>
<trkpt lat="47.598778" lon="8.218854">
<ele>322.4</ele>
<time>2003-05-23T10:20:10Z</time>
<speed>1.4</speed>
</trkpt>
<trkpt lat="47.598826" lon="8.218903">
<ele>321.5</ele>
<time>2003-05-23T10:20:15Z</time>
<speed>1.4</speed>
</trkpt>
<trkpt lat="47.598881" lon="8.218952">
<ele>321.4</ele>
<time>2003-05-23T10:20:20Z</time>
<speed>1.1</speed>
</trkpt>
<trkpt lat="47.598929" lon="8.219001">
<ele>320.6</ele>
<time>2003-05-23T10:20:25Z</time>
<speed>1.4</speed>
</trkpt>
<trkpt lat="47.598977" lon="8.219035">
<ele>321.1</ele>
<time>2003-05-23T10:20:30Z</time>
<speed>1.1</speed>
</trkpt>
<trkpt lat="47.599033" lon="8.219071">
<ele>320.9</ele>
<time>2003-05-23T10:20:35Z</time>
<speed>0.8</speed>
</trkpt>
<trkpt lat="47.599082" lon="8.219107">
<ele>320.0</ele>
<time>2003-05-23T10:20:40Z</time>
<speed>0.8</speed>
</trkpt>
<trkpt lat="47.599107" lon="8.219126">
<ele>318.8</ele>
<time>2003-05-23T10:20:45Z</time>
<speed>0.0</speed>
</trkpt>
<trkpt lat="47.599107" lon="8.219126">
<ele>318.8</ele>
<time>2003-05-23T10:20:50Z</time>
<speed>0.6</speed>
</trkpt>
<trkpt lat="47.599114" lon="8.219206">
<ele>319.4</ele>
<time>2003-05-23T10:20:55Z</time>
<speed>1.1</speed>
</trkpt>
<trkpt lat="47.599121" lon="8.219287">
<ele>320.1</ele>
<time>2003-05-23T10:21:00Z</time>
<speed>0.8</speed>
</trkpt>
<trkpt lat="47.599151" lon="8.219304">
<ele>321.1</ele>
<time>2003-05-23T10:21:05Z</time>
<speed>0.6</speed>
</trkpt>
<trkpt lat="47.599138" lon="8.219317">
<ele>319.7</ele>
<time>2003-05-23T10:21:11Z</time>
<speed>0.6</speed>
</trkpt>
<trkpt lat="47.599108" lon="8.219287">
<ele>318.6</ele>
<time>2003-05-23T10:21:16Z</time>
<speed>0.6</speed>
</trkpt>
<trkpt lat="47.599076" lon="8.219297">
<ele>317.8</ele>
<time>2003-05-23T10:21:21Z</time>
<speed>0.6</speed>
</trkpt>
<trkpt lat="47.599050" lon="8.219306">
<ele>317.8</ele>
<time>2003-05-23T10:21:26Z</time>
<speed>0.3</speed>
</trkpt>
<trkpt lat="47.599024" lon="8.219315">
<ele>317.7</ele>
<time>2003-05-23T10:21:31Z</time>
<speed>0.6</speed>
</trkpt>
<trkpt lat="47.598985" lon="8.219323">
<ele>317.6</ele>
<time>2003-05-23T10:21:36Z</time>
<speed>0.6</speed>
</trkpt>
<trkpt lat="47.598953" lon="8.219332">
<ele>316.8</ele>
<time>2003-05-23T10:21:41Z</time>
<speed>0.3</speed>
</trkpt>
<trkpt lat="47.598909" lon="8.219327">
<ele>315.9</ele>
<time>2003-05-23T10:21:46Z</time>
<speed>0.6</speed>
</trkpt>
<trkpt lat="47.598855" lon="8.219358">
<ele>315.9</ele>
<time>2003-05-23T10:21:51Z</time>
<speed>0.8</speed>
</trkpt>
<trkpt lat="47.598809" lon="8.219379">
<ele>315.1</ele>
<time>2003-05-23T10:21:56Z</time>
<speed>0.8</speed>
</trkpt>
<trkpt lat="47.598763" lon="8.219400">
<ele>314.4</ele>
<time>2003-05-23T10:22:01Z</time>
<speed>0.8</speed>
</trkpt>
<trkpt lat="47.598723" lon="8.219433">
<ele>314.4</ele>
<time>2003-05-23T10:22:06Z</time>
<speed>1.1</speed>
</trkpt>
<trkpt lat="47.598671" lon="8.219454">
<ele>312.9</ele>
<time>2003-05-23T10:22:11Z</time>
<speed>0.8</speed>
</trkpt>
<trkpt lat="47.598617" lon="8.219486">
<ele>313.0</ele>
<time>2003-05-23T10:22:16Z</time>
<speed>1.1</speed>
</trkpt>
<trkpt lat="47.598577" lon="8.219520">
<ele>313.0</ele>
<time>2003-05-23T10:22:21Z</time>
<speed>0.8</speed>
</trkpt>
<trkpt lat="47.598536" lon="8.219553">
<ele>313.1</ele>
<time>2003-05-23T10:22:26Z</time>
<speed>0.6</speed>
</trkpt>
<trkpt lat="47.598503" lon="8.219576">
<ele>312.4</ele>
<time>2003-05-23T10:22:31Z</time>
<speed>0.8</speed>
</trkpt>
<trkpt lat="47.598456" lon="8.219610">
<ele>311.8</ele>
<time>2003-05-23T10:22:36Z</time>
<speed>0.8</speed>
</trkpt>
<trkpt lat="47.598408" lon="8.219657">
<ele>311.2</ele>
<time>2003-05-23T10:22:41Z</time>
<speed>0.8</speed>
</trkpt>
<trkpt lat="47.598385" lon="8.219706">
<ele>312.2</ele>
<time>2003-05-23T10:22:46Z</time>
<speed>0.6</speed>
</trkpt>
<trkpt lat="47.598362" lon="8.219756">
<ele>311.7</ele>
<time>2003-05-23T10:22:51Z</time>
<speed>0.8</speed>
</trkpt>
<trkpt lat="47.598338" lon="8.219818">
<ele>312.8</ele>
<time>2003-05-23T10:22:56Z</time>
<speed>0.8</speed>
</trkpt>
<trkpt lat="47.598315" lon="8.219865">
<ele>315.2</ele>
<time>2003-05-23T10:23:01Z</time>
<speed>0.6</speed>
</trkpt>
<trkpt lat="47.598283" lon="8.219938">
<ele>317.1</ele>
<time>2003-05-23T10:23:06Z</time>
<speed>0.8</speed>
</trkpt>
<trkpt lat="47.598254" lon="8.219985">
<ele>318.7</ele>
<time>2003-05-23T10:23:11Z</time>
<speed>0.6</speed>
</trkpt>
<trkpt lat="47.598238" lon="8.220023">
<ele>318.9</ele>
<time>2003-05-23T10:23:16Z</time>
<speed>0.0</speed>
</trkpt>
<trkpt lat="47.598210" lon="8.220059">
<ele>319.1</ele>
<time>2003-05-23T10:23:21Z</time>
<speed>0.8</speed>
</trkpt>
<trkpt lat="47.598154" lon="8.220130">
<ele>319.4</ele>
<time>2003-05-23T10:23:26Z</time>
<speed>0.8</speed>
</trkpt>
<trkpt lat="47.598099" lon="8.220190">
<ele>318.2</ele>
<time>2003-05-23T10:23:31Z</time>
<speed>0.8</speed>
</trkpt>
<trkpt lat="47.598080" lon="8.220265">
<ele>320.1</ele>
<time>2003-05-23T10:23:36Z</time>
<speed>0.6</speed>
</trkpt>
<trkpt lat="47.598058" lon="8.220301">
<ele>321.0</ele>
<time>2003-05-23T10:23:41Z</time>
<speed>0.6</speed>
</trkpt>
<trkpt lat="47.598034" lon="8.220363">
<ele>322.0</ele>
<time>2003-05-23T10:23:46Z</time>
<speed>0.6</speed>
</trkpt>
<trkpt lat="47.598009" lon="8.220438">
<ele>323.2</ele>
<time>2003-05-23T10:23:51Z</time>
<speed>0.6</speed>
</trkpt>
<trkpt lat="47.597973" lon="8.220500">
<ele>322.8</ele>
<time>2003-05-23T10:23:56Z</time>
<speed>0.6</speed>
</trkpt>
<trkpt lat="47.597938" lon="8.220549">
<ele>322.3</ele>
<time>2003-05-23T10:24:01Z</time>
<speed>0.6</speed>
</trkpt>
<trkpt lat="47.597896" lon="8.220611">
<ele>321.2</ele>
<time>2003-05-23T10:24:06Z</time>
<speed>0.8</speed>
</trkpt>
<trkpt lat="47.597853" lon="8.220671">
<ele>321.4</ele>
<time>2003-05-23T10:24:11Z</time>
<speed>1.1</speed>
</trkpt>
<trkpt lat="47.597822" lon="8.220746">
<ele>321.9</ele>
<time>2003-05-23T10:24:16Z</time>
<speed>1.1</speed>
</trkpt>
<trkpt lat="47.597780" lon="8.220808">
<ele>320.7</ele>
<time>2003-05-23T10:24:21Z</time>
<speed>0.8</speed>
</trkpt>
<trkpt lat="47.597743" lon="8.220883">
<ele>320.4</ele>
<time>2003-05-23T10:24:26Z</time>
<speed>0.8</speed>
</trkpt>
<trkpt lat="47.597726" lon="8.220947">
<ele>320.9</ele>
<time>2003-05-23T10:24:31Z</time>
<speed>0.8</speed>
</trkpt>
<trkpt lat="47.597708" lon="8.221011">
<ele>321.3</ele>
<time>2003-05-23T10:24:36Z</time>
<speed>0.6</speed>
</trkpt>
<trkpt lat="47.597671" lon="8.221086">
<ele>321.0</ele>
<time>2003-05-23T10:24:41Z</time>
<speed>0.8</speed>
</trkpt>
<trkpt lat="47.597656" lon="8.221124">
<ele>321.2</ele>
<time>2003-05-23T10:24:46Z</time>
<speed>0.8</speed>
</trkpt>
<trkpt lat="47.597619" lon="8.221199">
<ele>320.9</ele>
<time>2003-05-23T10:24:51Z</time>
<speed>0.8</speed>
</trkpt>
<trkpt lat="47.597594" lon="8.221289">
<ele>320.7</ele>
<time>2003-05-23T10:24:56Z</time>
<speed>1.1</speed>
</trkpt>
<trkpt lat="47.597563" lon="8.221364">
<ele>321.2</ele>
<time>2003-05-23T10:25:01Z</time>
<speed>0.8</speed>
</trkpt>
<trkpt lat="47.597532" lon="8.221440">
<ele>321.6</ele>
<time>2003-05-23T10:25:06Z</time>
<speed>0.8</speed>
</trkpt>
<trkpt lat="47.597501" lon="8.221515">
<ele>322.1</ele>
<time>2003-05-23T10:25:11Z</time>
<speed>0.8</speed>
</trkpt>
<trkpt lat="47.597482" lon="8.221592">
<ele>322.6</ele>
<time>2003-05-23T10:25:16Z</time>
<speed>0.8</speed>
</trkpt>
<trkpt lat="47.597464" lon="8.221669">
<ele>323.1</ele>
<time>2003-05-23T10:25:21Z</time>
<speed>0.8</speed>
</trkpt>
<trkpt lat="47.597440" lon="8.221746">
<ele>322.8</ele>
<time>2003-05-23T10:25:26Z</time>
<speed>0.6</speed>
</trkpt>
<trkpt lat="47.597421" lon="8.221823">
<ele>323.3</ele>
<time>2003-05-23T10:25:31Z</time>
<speed>0.8</speed>
</trkpt>
<trkpt lat="47.597403" lon="8.221900">
<ele>323.9</ele>
<time>2003-05-23T10:25:36Z</time>
<speed>0.8</speed>
</trkpt>
<trkpt lat="47.597397" lon="8.221979">
<ele>324.4</ele>
<time>2003-05-23T10:25:41Z</time>
<speed>0.6</speed>
</trkpt>
<trkpt lat="47.597385" lon="8.222058">
<ele>324.3</ele>
<time>2003-05-23T10:25:46Z</time>
<speed>0.8</speed>
</trkpt>
<trkpt lat="47.597367" lon="8.222135">
<ele>324.8</ele>
<time>2003-05-23T10:25:51Z</time>
<speed>0.8</speed>
</trkpt>
<trkpt lat="47.597349" lon="8.222214">
<ele>323.9</ele>
<time>2003-05-23T10:25:56Z</time>
<speed>1.1</speed>
</trkpt>
<trkpt lat="47.597337" lon="8.222293">
<ele>323.7</ele>
<time>2003-05-23T10:26:01Z</time>
<speed>0.8</speed>
</trkpt>
<trkpt lat="47.597328" lon="8.222346">
<ele>323.4</ele>
<time>2003-05-23T10:26:06Z</time>
<speed>0.0</speed>
</trkpt>
<trkpt lat="47.597312" lon="8.222383">
<ele>323.6</ele>
<time>2003-05-23T10:26:11Z</time>
<speed>0.6</speed>
</trkpt>
<trkpt lat="47.597302" lon="8.222436">
<ele>323.2</ele>
<time>2003-05-23T10:26:16Z</time>
<speed>0.6</speed>
</trkpt>
<trkpt lat="47.597295" lon="8.222449">
<ele>322.6</ele>
<time>2003-05-23T10:26:21Z</time>
<speed>0.0</speed>
</trkpt>
<trkpt lat="47.597301" lon="8.222464">
<ele>322.0</ele>
<time>2003-05-23T10:26:26Z</time>
<speed>0.3</speed>
</trkpt>
<trkpt lat="47.597300" lon="8.222477">
<ele>322.1</ele>
<time>2003-05-23T10:26:31Z</time>
<speed>0.3</speed>
</trkpt>
<trkpt lat="47.597284" lon="8.222530">
<ele>321.0</ele>
<time>2003-05-23T10:26:36Z</time>
<speed>0.3</speed>
</trkpt>
<trkpt lat="47.597290" lon="8.222545">
<ele>320.5</ele>
<time>2003-05-23T10:26:41Z</time>
<speed>0.0</speed>
</trkpt>
<trkpt lat="47.597289" lon="8.222558">
<ele>320.6</ele>
<time>2003-05-23T10:26:46Z</time>
<speed>0.3</speed>
</trkpt>
<trkpt lat="47.597280" lon="8.222597">
<ele>320.1</ele>
<time>2003-05-23T10:26:51Z</time>
<speed>0.3</speed>
</trkpt>
<trkpt lat="47.597283" lon="8.222639">
<ele>319.7</ele>
<time>2003-05-23T10:26:56Z</time>
<speed>0.3</speed>
</trkpt>
<trkpt lat="47.597289" lon="8.222654">
<ele>319.2</ele>
<time>2003-05-23T10:27:01Z</time>
<speed>0.0</speed>
</trkpt>
<trkpt lat="47.597303" lon="8.222643">
<ele>319.1</ele>
<time>2003-05-23T10:27:06Z</time>
<speed>0.3</speed>
</trkpt>
<trkpt lat="47.597324" lon="8.222620">
<ele>318.3</ele>
<time>2003-05-23T10:27:11Z</time>
<speed>0.0</speed>
</trkpt>
<trkpt lat="47.597325" lon="8.222607">
<ele>318.2</ele>
<time>2003-05-23T10:27:16Z</time>
<speed>0.0</speed>
</trkpt>
<trkpt lat="47.597339" lon="8.222583">
<ele>318.1</ele>
<time>2003-05-23T10:27:21Z</time>
<speed>0.3</speed>
</trkpt>
<trkpt lat="47.597347" lon="8.222571">
<ele>317.4</ele>
<time>2003-05-23T10:27:26Z</time>
<speed>0.0</speed>
</trkpt>
<trkpt lat="47.597350" lon="8.222534">
<ele>315.7</ele>
<time>2003-05-23T10:27:31Z</time>
<speed>0.0</speed>
</trkpt>
<trkpt lat="47.597366" lon="8.222498">
<ele>314.0</ele>
<time>2003-05-23T10:27:36Z</time>
<speed>0.3</speed>
</trkpt>
<trkpt lat="47.597377" lon="8.222449">
<ele>311.6</ele>
<time>2003-05-23T10:27:41Z</time>
<speed>0.6</speed>
</trkpt>
<trkpt lat="47.597393" lon="8.222398">
<ele>311.3</ele>
<time>2003-05-23T10:27:46Z</time>
<speed>0.6</speed>
</trkpt>
<trkpt lat="47.597381" lon="8.222382">
<ele>312.5</ele>
<time>2003-05-23T10:27:51Z</time>
<speed>0.8</speed>
</trkpt>
<trkpt lat="47.597311" lon="8.222385">
<ele>311.5</ele>
<time>2003-05-23T10:27:56Z</time>
<speed>1.1</speed>
</trkpt>
<trkpt lat="47.597240" lon="8.222402">
<ele>310.6</ele>
<time>2003-05-23T10:28:01Z</time>
<speed>1.4</speed>
</trkpt>
<trkpt lat="47.597161" lon="8.222430">
<ele>310.5</ele>
<time>2003-05-23T10:28:06Z</time>
<speed>1.1</speed>
</trkpt>
<trkpt lat="47.597113" lon="8.222490">
<ele>310.0</ele>
<time>2003-05-23T10:28:11Z</time>
<speed>1.1</speed>
</trkpt>
<trkpt lat="47.597075" lon="8.222565">
<ele>309.7</ele>
<time>2003-05-23T10:28:16Z</time>
<speed>1.4</speed>
</trkpt>
<trkpt lat="47.597032" lon="8.222640">
<ele>308.7</ele>
<time>2003-05-23T10:28:21Z</time>
<speed>1.1</speed>
</trkpt>
<trkpt lat="47.597002" lon="8.222702">
<ele>309.0</ele>
<time>2003-05-23T10:28:26Z</time>
<speed>1.1</speed>
</trkpt>
<trkpt lat="47.596966" lon="8.222764">
<ele>308.6</ele>
<time>2003-05-23T10:28:31Z</time>
<speed>0.8</speed>
</trkpt>
<trkpt lat="47.596923" lon="8.222838">
<ele>309.0</ele>
<time>2003-05-23T10:28:36Z</time>
<speed>1.1</speed>
</trkpt>
<trkpt lat="47.596887" lon="8.222900">
<ele>308.6</ele>
<time>2003-05-23T10:28:41Z</time>
<speed>1.4</speed>
</trkpt>
<trkpt lat="47.596849" lon="8.222973">
<ele>309.7</ele>
<time>2003-05-23T10:28:46Z</time>
<speed>1.1</speed>
</trkpt>
<trkpt lat="47.596820" lon="8.223037">
<ele>308.6</ele>
<time>2003-05-23T10:28:51Z</time>
<speed>1.1</speed>
</trkpt>
<trkpt lat="47.596783" lon="8.223097">
<ele>309.6</ele>
<time>2003-05-23T10:28:56Z</time>
<speed>1.1</speed>
</trkpt>
<trkpt lat="47.596745" lon="8.223170">
<ele>310.7</ele>
<time>2003-05-23T10:29:01Z</time>
<speed>1.1</speed>
</trkpt>
<trkpt lat="47.596708" lon="8.223245">
<ele>310.4</ele>
<time>2003-05-23T10:29:06Z</time>
<speed>1.1</speed>
</trkpt>
<trkpt lat="47.596665" lon="8.223319">
<ele>310.8</ele>
<time>2003-05-23T10:29:11Z</time>
<speed>1.1</speed>
</trkpt>
<trkpt lat="47.596641" lon="8.223382">
<ele>310.5</ele>
<time>2003-05-23T10:29:16Z</time>
<speed>1.1</speed>
</trkpt>
<trkpt lat="47.596605" lon="8.223444">
<ele>310.1</ele>
<time>2003-05-23T10:29:21Z</time>
<speed>1.1</speed>
</trkpt>
<trkpt lat="47.596570" lon="8.223493">
<ele>309.6</ele>
<time>2003-05-23T10:29:26Z</time>
<speed>1.1</speed>
</trkpt>
<trkpt lat="47.596527" lon="8.223553">
<ele>309.8</ele>
<time>2003-05-23T10:29:31Z</time>
<speed>1.1</speed>
</trkpt>
<trkpt lat="47.596490" lon="8.223629">
<ele>309.5</ele>
<time>2003-05-23T10:29:36Z</time>
<speed>1.1</speed>
</trkpt>
<trkpt lat="47.596460" lon="8.223691">
<ele>309.9</ele>
<time>2003-05-23T10:29:41Z</time>
<speed>1.1</speed>
</trkpt>
<trkpt lat="47.596431" lon="8.223739">
<ele>310.1</ele>
<time>2003-05-23T10:29:46Z</time>
<speed>1.1</speed>
</trkpt>
<trkpt lat="47.596394" lon="8.223815">
<ele>309.8</ele>
<time>2003-05-23T10:29:51Z</time>
<speed>1.4</speed>
</trkpt>
<trkpt lat="47.596351" lon="8.223888">
<ele>310.2</ele>
<time>2003-05-23T10:29:56Z</time>
<speed>1.4</speed>
</trkpt>
<trkpt lat="47.596320" lon="8.223963">
<ele>310.6</ele>
<time>2003-05-23T10:30:01Z</time>
<speed>1.1</speed>
</trkpt>
<trkpt lat="47.596271" lon="8.224023">
<ele>310.1</ele>
<time>2003-05-23T10:30:06Z</time>
<speed>1.4</speed>
</trkpt>
<trkpt lat="47.596235" lon="8.224085">
<ele>309.7</ele>
<time>2003-05-23T10:30:11Z</time>
<speed>1.1</speed>
</trkpt>
<trkpt lat="47.596198" lon="8.224160">
<ele>309.4</ele>
<time>2003-05-23T10:30:16Z</time>
<speed>1.1</speed>
</trkpt>
<trkpt lat="47.596163" lon="8.224209">
<ele>309.0</ele>
<time>2003-05-23T10:30:21Z</time>
<speed>0.8</speed>
</trkpt>
<trkpt lat="47.596132" lon="8.224284">
<ele>309.4</ele>
<time>2003-05-23T10:30:26Z</time>
<speed>1.1</speed>
</trkpt>
<trkpt lat="47.596103" lon="8.224335">
<ele>308.2</ele>
<time>2003-05-23T10:30:31Z</time>
<speed>0.8</speed>
</trkpt>
<trkpt lat="47.596066" lon="8.224395">
<ele>309.2</ele>
<time>2003-05-23T10:30:36Z</time>
<speed>1.1</speed>
</trkpt>
<trkpt lat="47.596030" lon="8.224457">
<ele>308.8</ele>
<time>2003-05-23T10:30:41Z</time>
<speed>1.1</speed>
</trkpt>
<trkpt lat="47.596000" lon="8.224519">
<ele>309.2</ele>
<time>2003-05-23T10:30:46Z</time>
<speed>1.1</speed>
</trkpt>
<trkpt lat="47.595958" lon="8.224579">
<ele>309.4</ele>
<time>2003-05-23T10:30:51Z</time>
<speed>1.1</speed>
</trkpt>
<trkpt lat="47.595922" lon="8.224641">
<ele>309.0</ele>
<time>2003-05-23T10:30:56Z</time>
<speed>1.1</speed>
</trkpt>
<trkpt lat="47.595885" lon="8.224701">
<ele>310.1</ele>
<time>2003-05-23T10:31:01Z</time>
<speed>1.1</speed>
</trkpt>
<trkpt lat="47.595848" lon="8.224776">
<ele>309.8</ele>
<time>2003-05-23T10:31:06Z</time>
<speed>1.1</speed>
</trkpt>
<trkpt lat="47.595813" lon="8.224825">
<ele>309.3</ele>
<time>2003-05-23T10:31:11Z</time>
<speed>0.8</speed>
</trkpt>
<trkpt lat="47.595775" lon="8.224898">
<ele>310.4</ele>
<time>2003-05-23T10:31:16Z</time>
<speed>1.1</speed>
</trkpt>
<trkpt lat="47.595733" lon="8.224958">
<ele>310.6</ele>
<time>2003-05-23T10:31:21Z</time>
<speed>1.1</speed>
</trkpt>
<trkpt lat="47.595690" lon="8.225019">
<ele>310.9</ele>
<time>2003-05-23T10:31:26Z</time>
<speed>0.8</speed>
</trkpt>
<trkpt lat="47.595655" lon="8.225067">
<ele>310.4</ele>
<time>2003-05-23T10:31:31Z</time>
<speed>1.1</speed>
</trkpt>
<trkpt lat="47.595611" lon="8.225141">
<ele>310.8</ele>
<time>2003-05-23T10:31:36Z</time>
<speed>1.1</speed>
</trkpt>
<trkpt lat="47.595569" lon="8.225201">
<ele>311.0</ele>
<time>2003-05-23T10:31:41Z</time>
<speed>1.1</speed>
</trkpt>
<trkpt lat="47.595527" lon="8.225248">
<ele>311.2</ele>
<time>2003-05-23T10:31:46Z</time>
<speed>1.1</speed>
</trkpt>
<trkpt lat="47.595480" lon="8.225281">
<ele>310.6</ele>
<time>2003-05-23T10:31:51Z</time>
<speed>1.1</speed>
</trkpt>
<trkpt lat="47.595427" lon="8.225315">
<ele>309.2</ele>
<time>2003-05-23T10:31:56Z</time>
<speed>1.1</speed>
</trkpt>
<trkpt lat="47.595374" lon="8.225347">
<ele>309.2</ele>
<time>2003-05-23T10:32:01Z</time>
<speed>1.1</speed>
</trkpt>
<trkpt lat="47.595320" lon="8.225379">
<ele>309.2</ele>
<time>2003-05-23T10:32:06Z</time>
<speed>1.1</speed>
</trkpt>
<trkpt lat="47.595284" lon="8.225439">
<ele>310.2</ele>
<time>2003-05-23T10:32:11Z</time>
<speed>0.8</speed>
</trkpt>
<trkpt lat="47.595265" lon="8.225516">
<ele>310.7</ele>
<time>2003-05-23T10:32:16Z</time>
<speed>0.8</speed>
</trkpt>
<trkpt lat="47.595227" lon="8.225603">
<ele>311.9</ele>
<time>2003-05-23T10:32:21Z</time>
<speed>0.6</speed>
</trkpt>
<trkpt lat="47.595175" lon="8.225683">
<ele>315.8</ele>
<time>2003-05-23T10:32:26Z</time>
<speed>1.1</speed>
</trkpt>
<trkpt lat="47.595132" lon="8.225728">
<ele>317.4</ele>
<time>2003-05-23T10:32:31Z</time>
<speed>0.6</speed>
</trkpt>
<trkpt lat="47.595108" lon="8.225726">
<ele>315.9</ele>
<time>2003-05-23T10:32:36Z</time>
<speed>0.0</speed>
</trkpt>
<trkpt lat="47.595100" lon="8.225738">
<ele>316.6</ele>
<time>2003-05-23T10:32:41Z</time>
<speed>0.3</speed>
</trkpt>
<trkpt lat="47.595094" lon="8.225736">
<ele>317.3</ele>
<time>2003-05-23T10:32:46Z</time>
<speed>0.3</speed>
</trkpt>
<trkpt lat="47.595083" lon="8.225709">
<ele>315.6</ele>
<time>2003-05-23T10:32:51Z</time>
<speed>0.3</speed>
</trkpt>
<trkpt lat="47.595076" lon="8.225721">
<ele>316.4</ele>
<time>2003-05-23T10:32:56Z</time>
<speed>0.3</speed>
</trkpt>
<trkpt lat="47.595075" lon="8.225734">
<ele>316.5</ele>
<time>2003-05-23T10:33:01Z</time>
<speed>0.3</speed>
</trkpt>
<trkpt lat="47.595061" lon="8.225745">
<ele>316.5</ele>
<time>2003-05-23T10:33:06Z</time>
<speed>0.3</speed>
</trkpt>
<trkpt lat="47.594988" lon="8.225788">
<ele>315.8</ele>
<time>2003-05-23T10:33:11Z</time>
<speed>0.8</speed>
</trkpt>
<trkpt lat="47.594940" lon="8.225848">
<ele>315.3</ele>
<time>2003-05-23T10:33:16Z</time>
<speed>1.1</speed>
</trkpt>
<trkpt lat="47.594895" lon="8.225920">
<ele>317.1</ele>
<time>2003-05-23T10:33:21Z</time>
<speed>1.1</speed>
</trkpt>
<trkpt lat="47.594852" lon="8.225995">
<ele>316.1</ele>
<time>2003-05-23T10:33:26Z</time>
<speed>1.4</speed>
</trkpt>
<trkpt lat="47.594823" lon="8.226059">
<ele>315.0</ele>
<time>2003-05-23T10:33:31Z</time>
<speed>1.1</speed>
</trkpt>
<trkpt lat="47.594791" lon="8.226053">
<ele>315.5</ele>
<time>2003-05-23T10:33:36Z</time>
<speed>0.3</speed>
</trkpt>
<trkpt lat="47.594760" lon="8.226034">
<ele>315.9</ele>
<time>2003-05-23T10:33:41Z</time>
<speed>0.3</speed>
</trkpt>
<trkpt lat="47.594730" lon="8.226000">
<ele>317.7</ele>
<time>2003-05-23T10:33:46Z</time>
<speed>0.8</speed>
</trkpt>
<trkpt lat="47.594703" lon="8.225915">
<ele>317.6</ele>
<time>2003-05-23T10:33:51Z</time>
<speed>0.8</speed>
</trkpt>
<trkpt lat="47.594673" lon="8.225805">
<ele>316.6</ele>
<time>2003-05-23T10:33:56Z</time>
<speed>1.4</speed>
</trkpt>
<trkpt lat="47.594648" lon="8.225707">
<ele>316.5</ele>
<time>2003-05-23T10:34:01Z</time>
<speed>1.1</speed>
</trkpt>
<trkpt lat="47.594608" lon="8.225633">
<ele>316.5</ele>
<time>2003-05-23T10:34:06Z</time>
<speed>1.1</speed>
</trkpt>
<trkpt lat="47.594562" lon="8.225558">
<ele>317.1</ele>
<time>2003-05-23T10:34:11Z</time>
<speed>1.1</speed>
</trkpt>
<trkpt lat="47.594520" lon="8.225511">
<ele>317.3</ele>
<time>2003-05-23T10:34:16Z</time>
<speed>0.6</speed>
</trkpt>
<trkpt lat="47.594478" lon="8.225477">
<ele>317.5</ele>
<time>2003-05-23T10:34:21Z</time>
<speed>1.1</speed>
</trkpt>
<trkpt lat="47.594432" lon="8.225388">
<ele>318.1</ele>
<time>2003-05-23T10:34:26Z</time>
<speed>1.1</speed>
</trkpt>
<trkpt lat="47.594411" lon="8.225317">
<ele>318.9</ele>
<time>2003-05-23T10:34:31Z</time>
<speed>0.8</speed>
</trkpt>
<trkpt lat="47.594390" lon="8.225261">
<ele>318.3</ele>
<time>2003-05-23T10:34:36Z</time>
<speed>0.8</speed>
</trkpt>
<trkpt lat="47.594356" lon="8.225187">
<ele>319.0</ele>
<time>2003-05-23T10:34:41Z</time>
<speed>1.1</speed>
</trkpt>
<trkpt lat="47.594304" lon="8.225112">
<ele>318.9</ele>
<time>2003-05-23T10:34:46Z</time>
<speed>1.1</speed>
</trkpt>
<trkpt lat="47.594288" lon="8.225054">
<ele>320.6</ele>
<time>2003-05-23T10:34:51Z</time>
<speed>0.8</speed>
</trkpt>
<trkpt lat="47.594280" lon="8.224986">
<ele>320.0</ele>
<time>2003-05-23T10:34:56Z</time>
<speed>0.8</speed>
</trkpt>
<trkpt lat="47.594299" lon="8.224896">
<ele>319.4</ele>
<time>2003-05-23T10:35:01Z</time>
<speed>1.1</speed>
</trkpt>
<trkpt lat="47.594349" lon="8.224822">
<ele>319.8</ele>
<time>2003-05-23T10:35:06Z</time>
<speed>1.1</speed>
</trkpt>
<trkpt lat="47.594404" lon="8.224764">
<ele>319.6</ele>
<time>2003-05-23T10:35:11Z</time>
<speed>0.8</speed>
</trkpt>
<trkpt lat="47.594415" lon="8.224713">
<ele>318.5</ele>
<time>2003-05-23T10:35:16Z</time>
<speed>0.0</speed>
</trkpt>
<trkpt lat="47.594393" lon="8.224657">
<ele>318.0</ele>
<time>2003-05-23T10:35:21Z</time>
<speed>0.8</speed>
</trkpt>
<trkpt lat="47.594358" lon="8.224597">
<ele>318.8</ele>
<time>2003-05-23T10:35:26Z</time>
<speed>0.3</speed>
</trkpt>
<trkpt lat="47.594318" lon="8.224521">
<ele>320.2</ele>
<time>2003-05-23T10:35:31Z</time>
<speed>0.8</speed>
</trkpt>
<trkpt lat="47.594296" lon="8.224478">
<ele>319.8</ele>
<time>2003-05-23T10:35:36Z</time>
<speed>0.0</speed>
</trkpt>
<trkpt lat="47.594255" lon="8.224418">
<ele>319.8</ele>
<time>2003-05-23T10:35:41Z</time>
<speed>1.1</speed>
</trkpt>
<trkpt lat="47.594207" lon="8.224371">
<ele>319.2</ele>
<time>2003-05-23T10:35:46Z</time>
<speed>0.3</speed>
</trkpt>
<trkpt lat="47.594155" lon="8.224296">
<ele>319.1</ele>
<time>2003-05-23T10:35:51Z</time>
<speed>0.6</speed>
</trkpt>
<trkpt lat="47.594132" lon="8.224265">
<ele>318.8</ele>
<time>2003-05-23T10:35:56Z</time>
<speed>0.3</speed>
</trkpt>
<trkpt lat="47.594073" lon="8.224190">
<ele>318.0</ele>
<time>2003-05-23T10:36:01Z</time>
<speed>0.8</speed>
</trkpt>
<trkpt lat="47.594028" lon="8.224102">
<ele>318.5</ele>
<time>2003-05-23T10:36:06Z</time>
<speed>0.6</speed>
</trkpt>
<trkpt lat="47.593976" lon="8.224026">
<ele>318.4</ele>
<time>2003-05-23T10:36:11Z</time>
<speed>0.8</speed>
</trkpt>
<trkpt lat="47.593918" lon="8.223938">
<ele>317.5</ele>
<time>2003-05-23T10:36:16Z</time>
<speed>0.6</speed>
</trkpt>
<trkpt lat="47.593878" lon="8.223864">
<ele>317.5</ele>
<time>2003-05-23T10:36:21Z</time>
<speed>0.8</speed>
</trkpt>
<trkpt lat="47.593826" lon="8.223789">
<ele>317.4</ele>
<time>2003-05-23T10:36:26Z</time>
<speed>0.6</speed>
</trkpt>
<trkpt lat="47.593798" lon="8.223731">
<ele>317.5</ele>
<time>2003-05-23T10:36:31Z</time>
<speed>0.8</speed>
</trkpt>
<trkpt lat="47.593764" lon="8.223657">
<ele>318.2</ele>
<time>2003-05-23T10:36:36Z</time>
<speed>0.8</speed>
</trkpt>
<trkpt lat="47.593723" lon="8.223597">
<ele>318.3</ele>
<time>2003-05-23T10:36:41Z</time>
<speed>0.6</speed>
</trkpt>
<trkpt lat="47.593658" lon="8.223520">
<ele>318.1</ele>
<time>2003-05-23T10:36:46Z</time>
<speed>1.1</speed>
</trkpt>
<trkpt lat="47.593612" lon="8.223460">
<ele>317.4</ele>
<time>2003-05-23T10:36:51Z</time>
<speed>0.6</speed>
</trkpt>
<trkpt lat="47.593533" lon="8.223394">
<ele>317.3</ele>
<time>2003-05-23T10:36:56Z</time>
<speed>1.1</speed>
</trkpt>
<trkpt lat="47.593467" lon="8.223345">
<ele>315.9</ele>
<time>2003-05-23T10:37:01Z</time>
<speed>1.1</speed>
</trkpt>
<trkpt lat="47.593400" lon="8.223294">
<ele>315.9</ele>
<time>2003-05-23T10:37:06Z</time>
<speed>1.1</speed>
</trkpt>
<trkpt lat="47.593338" lon="8.223256">
<ele>316.8</ele>
<time>2003-05-23T10:37:11Z</time>
<speed>0.8</speed>
</trkpt>
<trkpt lat="47.593272" lon="8.223207">
<ele>315.4</ele>
<time>2003-05-23T10:37:16Z</time>
<speed>0.8</speed>
</trkpt>
<trkpt lat="47.593221" lon="8.223200">
<ele>315.1</ele>
<time>2003-05-23T10:37:21Z</time>
<speed>0.8</speed>
</trkpt>
<trkpt lat="47.593157" lon="8.223205">
<ele>313.5</ele>
<time>2003-05-23T10:37:26Z</time>
<speed>0.8</speed>
</trkpt>
<trkpt lat="47.593105" lon="8.223224">
<ele>313.4</ele>
<time>2003-05-23T10:37:31Z</time>
<speed>1.1</speed>
</trkpt>
<trkpt lat="47.593046" lon="8.223243">
<ele>312.5</ele>
<time>2003-05-23T10:37:36Z</time>
<speed>1.1</speed>
</trkpt>
<trkpt lat="47.592975" lon="8.223259">
<ele>311.6</ele>
<time>2003-05-23T10:37:41Z</time>
<speed>1.1</speed>
</trkpt>
<trkpt lat="47.592905" lon="8.223263">
<ele>310.6</ele>
<time>2003-05-23T10:37:46Z</time>
<speed>0.8</speed>
</trkpt>
<trkpt lat="47.592852" lon="8.223295">
<ele>310.7</ele>
<time>2003-05-23T10:37:51Z</time>
<speed>0.8</speed>
</trkpt>
<trkpt lat="47.592800" lon="8.223299">
<ele>311.9</ele>
<time>2003-05-23T10:37:56Z</time>
<speed>1.1</speed>
</trkpt>
<trkpt lat="47.592741" lon="8.223315">
<ele>312.5</ele>
<time>2003-05-23T10:38:01Z</time>
<speed>1.1</speed>
</trkpt>
<trkpt lat="47.592688" lon="8.223334">
<ele>312.4</ele>
<time>2003-05-23T10:38:06Z</time>
<speed>1.1</speed>
</trkpt>
<trkpt lat="47.592621" lon="8.223375">
<ele>313.8</ele>
<time>2003-05-23T10:38:11Z</time>
<speed>0.8</speed>
</trkpt>
<trkpt lat="47.592570" lon="8.223368">
<ele>313.5</ele>
<time>2003-05-23T10:38:16Z</time>
<speed>0.6</speed>
</trkpt>
<trkpt lat="47.592501" lon="8.223343">
<ele>313.7</ele>
<time>2003-05-23T10:38:21Z</time>
<speed>0.8</speed>
</trkpt>
<trkpt lat="47.592438" lon="8.223334">
<ele>313.4</ele>
<time>2003-05-23T10:38:26Z</time>
<speed>1.1</speed>
</trkpt>
<trkpt lat="47.592368" lon="8.223337">
<ele>312.4</ele>
<time>2003-05-23T10:38:31Z</time>
<speed>0.8</speed>
</trkpt>
<trkpt lat="47.592304" lon="8.223341">
<ele>312.1</ele>
<time>2003-05-23T10:38:36Z</time>
<speed>0.8</speed>
</trkpt>
<trkpt lat="47.592245" lon="8.223358">
<ele>312.7</ele>
<time>2003-05-23T10:38:41Z</time>
<speed>0.6</speed>
</trkpt>
<trkpt lat="47.592220" lon="8.223354">
<ele>312.6</ele>
<time>2003-05-23T10:38:46Z</time>
<speed>0.6</speed>
</trkpt>
<trkpt lat="47.592177" lon="8.223320">
<ele>312.8</ele>
<time>2003-05-23T10:38:51Z</time>
<speed>0.6</speed>
</trkpt>
<trkpt lat="47.592128" lon="8.223286">
<ele>312.3</ele>
<time>2003-05-23T10:38:56Z</time>
<speed>0.6</speed>
</trkpt>
<trkpt lat="47.592079" lon="8.223265">
<ele>312.0</ele>
<time>2003-05-23T10:39:01Z</time>
<speed>0.8</speed>
</trkpt>
<trkpt lat="47.592043" lon="8.223233">
<ele>311.6</ele>
<time>2003-05-23T10:39:06Z</time>
<speed>0.8</speed>
</trkpt>
<trkpt lat="47.591993" lon="8.223211">
<ele>312.6</ele>
<time>2003-05-23T10:39:11Z</time>
<speed>0.6</speed>
</trkpt>
<trkpt lat="47.591944" lon="8.223177">
<ele>312.1</ele>
<time>2003-05-23T10:39:16Z</time>
<speed>0.8</speed>
</trkpt>
<trkpt lat="47.591896" lon="8.223128">
<ele>312.9</ele>
<time>2003-05-23T10:39:21Z</time>
<speed>0.8</speed>
</trkpt>
<trkpt lat="47.591843" lon="8.223067">
<ele>311.5</ele>
<time>2003-05-23T10:39:26Z</time>
<speed>0.8</speed>
</trkpt>
<trkpt lat="47.591801" lon="8.223020">
<ele>311.7</ele>
<time>2003-05-23T10:39:31Z</time>
<speed>0.8</speed>
</trkpt>
<trkpt lat="47.591779" lon="8.222977">
<ele>311.3</ele>
<time>2003-05-23T10:39:36Z</time>
<speed>0.3</speed>
</trkpt>
<trkpt lat="47.591781" lon="8.222936">
<ele>312.4</ele>
<time>2003-05-23T10:39:41Z</time>
<speed>0.6</speed>
</trkpt>
<trkpt lat="47.591766" lon="8.222879">
<ele>312.6</ele>
<time>2003-05-23T10:39:46Z</time>
<speed>0.6</speed>
</trkpt>
<trkpt lat="47.591697" lon="8.222870">
<ele>311.5</ele>
<time>2003-05-23T10:39:51Z</time>
<speed>1.1</speed>
</trkpt>
<trkpt lat="47.591644" lon="8.222889">
<ele>311.4</ele>
<time>2003-05-23T10:39:56Z</time>
<speed>0.8</speed>
</trkpt>
<trkpt lat="47.591587" lon="8.222881">
<ele>310.4</ele>
<time>2003-05-23T10:40:01Z</time>
<speed>0.8</speed>
</trkpt>
<trkpt lat="47.591557" lon="8.222862">
<ele>310.8</ele>
<time>2003-05-23T10:40:06Z</time>
<speed>0.3</speed>
</trkpt>
<trkpt lat="47.591557" lon="8.222862">
<ele>310.8</ele>
<time>2003-05-23T10:40:11Z</time>
<speed>0.0</speed>
</trkpt>
<trkpt lat="47.591550" lon="8.222860">
<ele>311.5</ele>
<time>2003-05-23T10:40:16Z</time>
<speed>0.0</speed>
</trkpt>
<trkpt lat="47.591546" lon="8.222819">
<ele>311.9</ele>
<time>2003-05-23T10:40:21Z</time>
<speed>0.0</speed>
</trkpt>
<trkpt lat="47.591529" lon="8.222791">
<ele>310.9</ele>
<time>2003-05-23T10:40:26Z</time>
<speed>0.6</speed>
</trkpt>
<trkpt lat="47.591515" lon="8.222815">
<ele>311.0</ele>
<time>2003-05-23T10:40:31Z</time>
<speed>0.0</speed>
</trkpt>
<trkpt lat="47.591528" lon="8.222817">
<ele>311.1</ele>
<time>2003-05-23T10:40:36Z</time>
<speed>0.0</speed>
</trkpt>
<trkpt lat="47.591528" lon="8.222817">
<ele>311.1</ele>
<time>2003-05-23T10:40:41Z</time>
<speed>0.0</speed>
</trkpt>
<trkpt lat="47.591528" lon="8.222817">
<ele>311.1</ele>
<time>2003-05-23T10:40:46Z</time>
<speed>0.0</speed>
</trkpt>
<trkpt lat="47.591533" lon="8.222832">
<ele>310.5</ele>
<time>2003-05-23T10:40:51Z</time>
<speed>0.0</speed>
</trkpt>
<trkpt lat="47.591533" lon="8.222832">
<ele>310.5</ele>
<time>2003-05-23T10:40:56Z</time>
<speed>0.0</speed>
</trkpt>
<trkpt lat="47.591533" lon="8.222832">
<ele>310.5</ele>
<time>2003-05-23T10:41:01Z</time>
<speed>0.0</speed>
</trkpt>
<trkpt lat="47.591539" lon="8.222832">
<ele>311.2</ele>
<time>2003-05-23T10:41:06Z</time>
<speed>0.0</speed>
</trkpt>
<trkpt lat="47.591539" lon="8.222832">
<ele>311.2</ele>
<time>2003-05-23T10:41:11Z</time>
<speed>0.0</speed>
</trkpt>
<trkpt lat="47.591539" lon="8.222832">
<ele>311.2</ele>
<time>2003-05-23T10:41:16Z</time>
<speed>0.0</speed>
</trkpt>
<trkpt lat="47.591539" lon="8.222832">
<ele>311.2</ele>
<time>2003-05-23T10:41:21Z</time>
<speed>0.0</speed>
</trkpt>
<trkpt lat="47.591532" lon="8.222845">
<ele>310.6</ele>
<time>2003-05-23T10:41:26Z</time>
<speed>0.0</speed>
</trkpt>
<trkpt lat="47.591538" lon="8.222860">
<ele>310.0</ele>
<time>2003-05-23T10:41:31Z</time>
<speed>0.0</speed>
</trkpt>
<trkpt lat="47.591538" lon="8.222860">
<ele>310.0</ele>
<time>2003-05-23T10:41:36Z</time>
<speed>0.0</speed>
</trkpt>
<trkpt lat="47.591537" lon="8.222873">
<ele>310.1</ele>
<time>2003-05-23T10:41:41Z</time>
<speed>0.0</speed>
</trkpt>
<trkpt lat="47.591537" lon="8.222873">
<ele>310.1</ele>
<time>2003-05-23T10:41:46Z</time>
<speed>0.0</speed>
</trkpt>
<trkpt lat="47.591537" lon="8.222873">
<ele>310.1</ele>
<time>2003-05-23T10:41:51Z</time>
<speed>0.0</speed>
</trkpt>
<trkpt lat="47.591543" lon="8.222873">
<ele>310.8</ele>
<time>2003-05-23T10:41:56Z</time>
<speed>0.0</speed>
</trkpt>
<trkpt lat="47.591543" lon="8.222873">
<ele>310.8</ele>
<time>2003-05-23T10:42:01Z</time>
<speed>0.0</speed>
</trkpt>
<trkpt lat="47.591543" lon="8.222873">
<ele>310.8</ele>
<time>2003-05-23T10:42:06Z</time>
<speed>0.0</speed>
</trkpt>
<trkpt lat="47.591543" lon="8.222873">
<ele>310.8</ele>
<time>2003-05-23T10:42:11Z</time>
<speed>0.0</speed>
</trkpt>
<trkpt lat="47.591543" lon="8.222873">
<ele>310.8</ele>
<time>2003-05-23T10:42:16Z</time>
<speed>0.3</speed>
</trkpt>
<trkpt lat="47.591569" lon="8.222864">
<ele>310.9</ele>
<time>2003-05-23T10:42:21Z</time>
<speed>0.3</speed>
</trkpt>
<trkpt lat="47.591573" lon="8.222890">
<ele>311.8</ele>
<time>2003-05-23T10:42:26Z</time>
<speed>0.3</speed>
</trkpt>
<trkpt lat="47.591573" lon="8.222890">
<ele>311.8</ele>
<time>2003-05-23T10:42:31Z</time>
<speed>0.0</speed>
</trkpt>
<trkpt lat="47.591573" lon="8.222890">
<ele>311.8</ele>
<time>2003-05-23T10:42:36Z</time>
<speed>0.0</speed>
</trkpt>
<trkpt lat="47.591573" lon="8.222890">
<ele>311.8</ele>
<time>2003-05-23T10:42:41Z</time>
<speed>0.0</speed>
</trkpt>
<trkpt lat="47.591573" lon="8.222890">
<ele>311.8</ele>
<time>2003-05-23T10:42:46Z</time>
<speed>0.0</speed>
</trkpt>
<trkpt lat="47.591573" lon="8.222890">
<ele>311.8</ele>
<time>2003-05-23T10:42:51Z</time>
<speed>0.0</speed>
</trkpt>
<trkpt lat="47.591559" lon="8.222915">
<ele>311.9</ele>
<time>2003-05-23T10:42:56Z</time>
<speed>0.6</speed>
</trkpt>
<trkpt lat="47.591512" lon="8.222948">
<ele>311.3</ele>
<time>2003-05-23T10:43:01Z</time>
<speed>1.1</speed>
</trkpt>
<trkpt lat="47.591463" lon="8.223007">
<ele>312.2</ele>
<time>2003-05-23T10:43:06Z</time>
<speed>1.1</speed>
</trkpt>
<trkpt lat="47.591410" lon="8.223040">
<ele>310.8</ele>
<time>2003-05-23T10:43:11Z</time>
<speed>0.8</speed>
</trkpt>
<trkpt lat="47.591355" lon="8.223099">
<ele>311.0</ele>
<time>2003-05-23T10:43:16Z</time>
<speed>1.1</speed>
</trkpt>
<trkpt lat="47.591307" lon="8.223146">
<ele>310.4</ele>
<time>2003-05-23T10:43:21Z</time>
<speed>0.8</speed>
</trkpt>
<trkpt lat="47.591251" lon="8.223204">
<ele>310.6</ele>
<time>2003-05-23T10:43:26Z</time>
<speed>1.1</speed>
</trkpt>
<trkpt lat="47.591204" lon="8.223251">
<ele>310.1</ele>
<time>2003-05-23T10:43:31Z</time>
<speed>1.1</speed>
</trkpt>
<trkpt lat="47.591149" lon="8.223296">
<ele>310.2</ele>
<time>2003-05-23T10:43:36Z</time>
<speed>1.1</speed>
</trkpt>
<trkpt lat="47.591108" lon="8.223344">
<ele>309.0</ele>
<time>2003-05-23T10:43:41Z</time>
<speed>1.1</speed>
</trkpt>
<trkpt lat="47.591060" lon="8.223390">
<ele>309.8</ele>
<time>2003-05-23T10:43:46Z</time>
<speed>0.8</speed>
</trkpt>
<trkpt lat="47.591018" lon="8.223451">
<ele>308.7</ele>
<time>2003-05-23T10:43:51Z</time>
<speed>1.1</speed>
</trkpt>
<trkpt lat="47.590976" lon="8.223498">
<ele>308.8</ele>
<time>2003-05-23T10:43:56Z</time>
<speed>1.1</speed>
</trkpt>
<trkpt lat="47.590922" lon="8.223543">
<ele>308.9</ele>
<time>2003-05-23T10:44:01Z</time>
<speed>1.1</speed>
</trkpt>
<trkpt lat="47.590879" lon="8.223604">
<ele>309.2</ele>
<time>2003-05-23T10:44:06Z</time>
<speed>1.1</speed>
</trkpt>
<trkpt lat="47.590825" lon="8.223649">
<ele>309.3</ele>
<time>2003-05-23T10:44:11Z</time>
<speed>1.1</speed>
</trkpt>
<trkpt lat="47.590777" lon="8.223680">
<ele>310.0</ele>
<time>2003-05-23T10:44:16Z</time>
<speed>1.4</speed>
</trkpt>
<trkpt lat="47.590723" lon="8.223725">
<ele>310.2</ele>
<time>2003-05-23T10:44:21Z</time>
<speed>1.1</speed>
</trkpt>
<trkpt lat="47.590658" lon="8.223742">
<ele>310.0</ele>
<time>2003-05-23T10:44:26Z</time>
<speed>1.1</speed>
</trkpt>
<trkpt lat="47.590600" lon="8.223746">
<ele>310.5</ele>
<time>2003-05-23T10:44:31Z</time>
<speed>1.1</speed>
</trkpt>
<trkpt lat="47.590550" lon="8.223725">
<ele>310.1</ele>
<time>2003-05-23T10:44:36Z</time>
<speed>0.8</speed>
</trkpt>
<trkpt lat="47.590508" lon="8.223691">
<ele>310.4</ele>
<time>2003-05-23T10:44:41Z</time>
<speed>0.8</speed>
</trkpt>
<trkpt lat="47.590471" lon="8.223672">
<ele>310.0</ele>
<time>2003-05-23T10:44:46Z</time>
<speed>0.6</speed>
</trkpt>
<trkpt lat="47.590442" lon="8.223627">
<ele>310.3</ele>
<time>2003-05-23T10:44:51Z</time>
<speed>0.8</speed>
</trkpt>
<trkpt lat="47.590400" lon="8.223580">
<ele>310.4</ele>
<time>2003-05-23T10:44:56Z</time>
<speed>0.6</speed>
</trkpt>
<trkpt lat="47.590350" lon="8.223557">
<ele>311.5</ele>
<time>2003-05-23T10:45:01Z</time>
<speed>0.6</speed>
</trkpt>
<trkpt lat="47.590308" lon="8.223510">
<ele>311.6</ele>
<time>2003-05-23T10:45:06Z</time>
<speed>0.6</speed>
</trkpt>
<trkpt lat="47.590253" lon="8.223475">
<ele>311.8</ele>
<time>2003-05-23T10:45:11Z</time>
<speed>0.6</speed>
</trkpt>
<trkpt lat="47.590204" lon="8.223441">
<ele>311.4</ele>
<time>2003-05-23T10:45:16Z</time>
<speed>0.8</speed>
</trkpt>
<trkpt lat="47.590144" lon="8.223390">
<ele>312.1</ele>
<time>2003-05-23T10:45:21Z</time>
<speed>0.8</speed>
</trkpt>
<trkpt lat="47.590089" lon="8.223341">
<ele>312.2</ele>
<time>2003-05-23T10:45:26Z</time>
<speed>0.8</speed>
</trkpt>
<trkpt lat="47.590023" lon="8.223277">
<ele>312.1</ele>
<time>2003-05-23T10:45:31Z</time>
<speed>0.8</speed>
</trkpt>
<trkpt lat="47.589945" lon="8.223211">
<ele>312.0</ele>
<time>2003-05-23T10:45:36Z</time>
<speed>0.6</speed>
</trkpt>
<trkpt lat="47.589890" lon="8.223162">
<ele>312.1</ele>
<time>2003-05-23T10:45:41Z</time>
<speed>0.8</speed>
</trkpt>
<trkpt lat="47.589823" lon="8.223124">
<ele>312.2</ele>
<time>2003-05-23T10:45:46Z</time>
<speed>0.8</speed>
</trkpt>
<trkpt lat="47.589775" lon="8.223062">
<ele>312.9</ele>
<time>2003-05-23T10:45:51Z</time>
<speed>1.1</speed>
</trkpt>
<trkpt lat="47.589727" lon="8.223028">
<ele>312.5</ele>
<time>2003-05-23T10:45:56Z</time>
<speed>0.6</speed>
</trkpt>
<trkpt lat="47.589689" lon="8.223022">
<ele>312.3</ele>
<time>2003-05-23T10:46:01Z</time>
<speed>0.6</speed>
</trkpt>
<trkpt lat="47.589637" lon="8.223028">
<ele>312.1</ele>
<time>2003-05-23T10:46:06Z</time>
<speed>1.1</speed>
</trkpt>
<trkpt lat="47.589574" lon="8.223018">
<ele>311.7</ele>
<time>2003-05-23T10:46:11Z</time>
<speed>1.1</speed>
</trkpt>
<trkpt lat="47.589521" lon="8.223050">
<ele>311.7</ele>
<time>2003-05-23T10:46:16Z</time>
<speed>0.8</speed>
</trkpt>
<trkpt lat="47.589457" lon="8.223041">
<ele>311.4</ele>
<time>2003-05-23T10:46:21Z</time>
<speed>1.1</speed>
</trkpt>
<trkpt lat="47.589386" lon="8.223041">
<ele>313.2</ele>
<time>2003-05-23T10:46:26Z</time>
<speed>1.1</speed>
</trkpt>
<trkpt lat="47.589327" lon="8.223057">
<ele>313.8</ele>
<time>2003-05-23T10:46:31Z</time>
<speed>1.1</speed>
</trkpt>
<trkpt lat="47.589285" lon="8.223119">
<ele>312.6</ele>
<time>2003-05-23T10:46:36Z</time>
<speed>1.1</speed>
</trkpt>
<trkpt lat="47.589231" lon="8.223164">
<ele>312.7</ele>
<time>2003-05-23T10:46:41Z</time>
<speed>1.4</speed>
</trkpt>
<trkpt lat="47.589191" lon="8.223185">
<ele>312.7</ele>
<time>2003-05-23T10:46:46Z</time>
<speed>0.8</speed>
</trkpt>
<trkpt lat="47.589138" lon="8.223219">
<ele>311.3</ele>
<time>2003-05-23T10:46:51Z</time>
<speed>1.1</speed>
</trkpt>
<trkpt lat="47.589084" lon="8.223264">
<ele>311.4</ele>
<time>2003-05-23T10:46:56Z</time>
<speed>1.1</speed>
</trkpt>
<trkpt lat="47.589042" lon="8.223311">
<ele>311.6</ele>
<time>2003-05-23T10:47:01Z</time>
<speed>0.8</speed>
</trkpt>
<trkpt lat="47.588989" lon="8.223343">
<ele>311.6</ele>
<time>2003-05-23T10:47:06Z</time>
<speed>1.4</speed>
</trkpt>
<trkpt lat="47.588940" lon="8.223388">
<ele>312.4</ele>
<time>2003-05-23T10:47:11Z</time>
<speed>1.1</speed>
</trkpt>
<trkpt lat="47.588880" lon="8.223433">
<ele>311.8</ele>
<time>2003-05-23T10:47:16Z</time>
<speed>1.1</speed>
</trkpt>
<trkpt lat="47.588825" lon="8.223478">
<ele>311.9</ele>
<time>2003-05-23T10:47:21Z</time>
<speed>1.4</speed>
</trkpt>
<trkpt lat="47.588771" lon="8.223523">
<ele>312.0</ele>
<time>2003-05-23T10:47:26Z</time>
<speed>1.1</speed>
</trkpt>
<trkpt lat="47.588732" lon="8.223530">
<ele>311.9</ele>
<time>2003-05-23T10:47:31Z</time>
<speed>0.6</speed>
</trkpt>
<trkpt lat="47.588731" lon="8.223543">
<ele>312.0</ele>
<time>2003-05-23T10:47:36Z</time>
<speed>0.0</speed>
</trkpt>
<trkpt lat="47.588731" lon="8.223543">
<ele>312.0</ele>
<time>2003-05-23T10:47:41Z</time>
<speed>0.0</speed>
</trkpt>
<trkpt lat="47.588731" lon="8.223543">
<ele>312.0</ele>
<time>2003-05-23T10:47:46Z</time>
<speed>0.0</speed>
</trkpt>
<trkpt lat="47.588731" lon="8.223543">
<ele>312.0</ele>
<time>2003-05-23T10:47:51Z</time>
<speed>0.0</speed>
</trkpt>
<trkpt lat="47.588726" lon="8.223528">
<ele>312.6</ele>
<time>2003-05-23T10:47:56Z</time>
<speed>0.3</speed>
</trkpt>
<trkpt lat="47.588695" lon="8.223509">
<ele>313.0</ele>
<time>2003-05-23T10:48:01Z</time>
<speed>0.6</speed>
</trkpt>
<trkpt lat="47.588679" lon="8.223453">
<ele>313.2</ele>
<time>2003-05-23T10:48:06Z</time>
<speed>0.8</speed>
</trkpt>
<trkpt lat="47.588658" lon="8.223396">
<ele>312.7</ele>
<time>2003-05-23T10:48:11Z</time>
<speed>0.8</speed>
</trkpt>
<trkpt lat="47.588644" lon="8.223314">
<ele>312.7</ele>
<time>2003-05-23T10:48:16Z</time>
<speed>0.8</speed>
</trkpt>
<trkpt lat="47.588631" lon="8.223231">
<ele>312.7</ele>
<time>2003-05-23T10:48:21Z</time>
<speed>1.1</speed>
</trkpt>
<trkpt lat="47.588617" lon="8.223148">
<ele>312.7</ele>
<time>2003-05-23T10:48:26Z</time>
<speed>0.6</speed>
</trkpt>
<trkpt lat="47.588604" lon="8.223065">
<ele>312.7</ele>
<time>2003-05-23T10:48:31Z</time>
<speed>1.1</speed>
</trkpt>
<trkpt lat="47.588583" lon="8.222994">
<ele>313.5</ele>
<time>2003-05-23T10:48:36Z</time>
<speed>1.1</speed>
</trkpt>
<trkpt lat="47.588563" lon="8.222909">
<ele>314.2</ele>
<time>2003-05-23T10:48:41Z</time>
<speed>0.8</speed>
</trkpt>
<trkpt lat="47.588543" lon="8.222825">
<ele>314.9</ele>
<time>2003-05-23T10:48:46Z</time>
<speed>0.8</speed>
</trkpt>
<trkpt lat="47.588523" lon="8.222740">
<ele>315.6</ele>
<time>2003-05-23T10:48:51Z</time>
<speed>1.1</speed>
</trkpt>
<trkpt lat="47.588511" lon="8.222646">
<ele>314.1</ele>
<time>2003-05-23T10:48:56Z</time>
<speed>0.8</speed>
</trkpt>
<trkpt lat="47.588489" lon="8.222575">
<ele>314.9</ele>
<time>2003-05-23T10:49:01Z</time>
<speed>1.1</speed>
</trkpt>
<trkpt lat="47.588482" lon="8.222507">
<ele>314.3</ele>
<time>2003-05-23T10:49:06Z</time>
<speed>0.8</speed>
</trkpt>
<trkpt lat="47.588461" lon="8.222437">
<ele>313.7</ele>
<time>2003-05-23T10:49:11Z</time>
<speed>1.1</speed>
</trkpt>
<trkpt lat="47.588448" lon="8.222355">
<ele>313.7</ele>
<time>2003-05-23T10:49:16Z</time>
<speed>1.1</speed>
</trkpt>
<trkpt lat="47.588428" lon="8.222272">
<ele>313.0</ele>
<time>2003-05-23T10:49:21Z</time>
<speed>1.1</speed>
</trkpt>
<trkpt lat="47.588415" lon="8.222176">
<ele>312.9</ele>
<time>2003-05-23T10:49:26Z</time>
<speed>1.1</speed>
</trkpt>
<trkpt lat="47.588402" lon="8.222093">
<ele>312.9</ele>
<time>2003-05-23T10:49:31Z</time>
<speed>1.1</speed>
</trkpt>
<trkpt lat="47.588381" lon="8.222024">
<ele>312.3</ele>
<time>2003-05-23T10:49:36Z</time>
<speed>1.1</speed>
</trkpt>
<trkpt lat="47.588361" lon="8.221939">
<ele>313.0</ele>
<time>2003-05-23T10:49:41Z</time>
<speed>1.1</speed>
</trkpt>
<trkpt lat="47.588347" lon="8.221869">
<ele>313.1</ele>
<time>2003-05-23T10:49:46Z</time>
<speed>0.8</speed>
</trkpt>
<trkpt lat="47.588327" lon="8.221785">
<ele>313.8</ele>
<time>2003-05-23T10:49:51Z</time>
<speed>0.8</speed>
</trkpt>
<trkpt lat="47.588306" lon="8.221713">
<ele>314.6</ele>
<time>2003-05-23T10:49:56Z</time>
<speed>1.1</speed>
</trkpt>
<trkpt lat="47.588298" lon="8.221630">
<ele>315.3</ele>
<time>2003-05-23T10:50:01Z</time>
<speed>1.1</speed>
</trkpt>
<trkpt lat="47.588285" lon="8.221548">
<ele>315.3</ele>
<time>2003-05-23T10:50:06Z</time>
<speed>1.1</speed>
</trkpt>
<trkpt lat="47.588258" lon="8.221476">
<ele>315.4</ele>
<time>2003-05-23T10:50:11Z</time>
<speed>1.1</speed>
</trkpt>
<trkpt lat="47.588244" lon="8.221392">
<ele>316.8</ele>
<time>2003-05-23T10:50:16Z</time>
<speed>1.1</speed>
</trkpt>
<trkpt lat="47.588230" lon="8.221307">
<ele>318.2</ele>
<time>2003-05-23T10:50:21Z</time>
<speed>0.8</speed>
</trkpt>
<trkpt lat="47.588216" lon="8.221224">
<ele>318.3</ele>
<time>2003-05-23T10:50:26Z</time>
<speed>0.8</speed>
</trkpt>
<trkpt lat="47.588196" lon="8.221139">
<ele>318.9</ele>
<time>2003-05-23T10:50:31Z</time>
<speed>1.1</speed>
</trkpt>
<trkpt lat="47.588169" lon="8.221053">
<ele>320.3</ele>
<time>2003-05-23T10:50:36Z</time>
<speed>1.1</speed>
</trkpt>
<trkpt lat="47.588148" lon="8.220996">
<ele>319.8</ele>
<time>2003-05-23T10:50:41Z</time>
<speed>0.8</speed>
</trkpt>
<trkpt lat="47.588115" lon="8.220925">
<ele>319.1</ele>
<time>2003-05-23T10:50:46Z</time>
<speed>1.1</speed>
</trkpt>
<trkpt lat="47.588076" lon="8.220838">
<ele>319.0</ele>
<time>2003-05-23T10:50:52Z</time>
<speed>1.1</speed>
</trkpt>
<trkpt lat="47.588049" lon="8.220767">
<ele>319.0</ele>
<time>2003-05-23T10:50:57Z</time>
<speed>0.8</speed>
</trkpt>
<trkpt lat="47.588008" lon="8.220707">
<ele>319.1</ele>
<time>2003-05-23T10:51:02Z</time>
<speed>0.8</speed>
</trkpt>
<trkpt lat="47.587981" lon="8.220620">
<ele>320.4</ele>
<time>2003-05-23T10:51:07Z</time>
<speed>1.1</speed>
</trkpt>
<trkpt lat="47.587941" lon="8.220545">
<ele>321.8</ele>
<time>2003-05-23T10:51:12Z</time>
<speed>0.8</speed>
</trkpt>
<trkpt lat="47.587908" lon="8.220471">
<ele>322.5</ele>
<time>2003-05-23T10:51:17Z</time>
<speed>1.1</speed>
</trkpt>
<trkpt lat="47.587874" lon="8.220398">
<ele>323.2</ele>
<time>2003-05-23T10:51:22Z</time>
<speed>1.1</speed>
</trkpt>
<trkpt lat="47.587841" lon="8.220327">
<ele>322.5</ele>
<time>2003-05-23T10:51:27Z</time>
<speed>1.1</speed>
</trkpt>
<trkpt lat="47.587793" lon="8.220278">
<ele>323.4</ele>
<time>2003-05-23T10:51:32Z</time>
<speed>1.1</speed>
</trkpt>
<trkpt lat="47.587737" lon="8.220257">
<ele>322.2</ele>
<time>2003-05-23T10:51:37Z</time>
<speed>0.8</speed>
</trkpt>
<trkpt lat="47.587694" lon="8.220238">
<ele>321.2</ele>
<time>2003-05-23T10:51:42Z</time>
<speed>0.8</speed>
</trkpt>
<trkpt lat="47.587652" lon="8.220206">
<ele>320.1</ele>
<time>2003-05-23T10:51:47Z</time>
<speed>0.8</speed>
</trkpt>
<trkpt lat="47.587629" lon="8.220163">
<ele>319.6</ele>
<time>2003-05-23T10:51:52Z</time>
<speed>0.8</speed>
</trkpt>
<trkpt lat="47.587606" lon="8.220133">
<ele>319.3</ele>
<time>2003-05-23T10:51:57Z</time>
<speed>0.3</speed>
</trkpt>
<trkpt lat="47.587588" lon="8.220118">
<ele>318.4</ele>
<time>2003-05-23T10:52:02Z</time>
<speed>0.3</speed>
</trkpt>
<trkpt lat="47.587558" lon="8.220086">
<ele>318.7</ele>
<time>2003-05-23T10:52:07Z</time>
<speed>0.6</speed>
</trkpt>
<trkpt lat="47.587559" lon="8.220072">
<ele>318.6</ele>
<time>2003-05-23T10:52:12Z</time>
<speed>0.0</speed>
</trkpt>
<trkpt lat="47.587554" lon="8.220044">
<ele>319.1</ele>
<time>2003-05-23T10:52:17Z</time>
<speed>0.0</speed>
</trkpt>
<trkpt lat="47.587554" lon="8.220044">
<ele>319.1</ele>
<time>2003-05-23T10:52:22Z</time>
<speed>0.0</speed>
</trkpt>
<trkpt lat="47.587555" lon="8.220031">
<ele>319.0</ele>
<time>2003-05-23T10:52:27Z</time>
<speed>0.0</speed>
</trkpt>
<trkpt lat="47.587555" lon="8.220031">
<ele>319.0</ele>
<time>2003-05-23T10:52:32Z</time>
<speed>0.0</speed>
</trkpt>
<trkpt lat="47.587555" lon="8.220031">
<ele>319.0</ele>
<time>2003-05-23T10:52:37Z</time>
<speed>0.0</speed>
</trkpt>
<trkpt lat="47.587554" lon="8.220044">
<ele>319.1</ele>
<time>2003-05-23T10:52:42Z</time>
<speed>0.0</speed>
</trkpt>
<trkpt lat="47.587561" lon="8.220044">
<ele>319.8</ele>
<time>2003-05-23T10:52:47Z</time>
<speed>0.0</speed>
</trkpt>
<trkpt lat="47.587560" lon="8.220057">
<ele>319.9</ele>
<time>2003-05-23T10:52:52Z</time>
<speed>0.0</speed>
</trkpt>
<trkpt lat="47.587560" lon="8.220057">
<ele>319.9</ele>
<time>2003-05-23T10:52:57Z</time>
<speed>0.3</speed>
</trkpt>
<trkpt lat="47.587547" lon="8.220055">
<ele>319.9</ele>
<time>2003-05-23T10:53:02Z</time>
<speed>0.0</speed>
</trkpt>
<trkpt lat="47.587541" lon="8.220040">
<ele>320.4</ele>
<time>2003-05-23T10:53:07Z</time>
<speed>0.0</speed>
</trkpt>
<trkpt lat="47.587535" lon="8.220038">
<ele>321.1</ele>
<time>2003-05-23T10:53:12Z</time>
<speed>0.0</speed>
</trkpt>
<trkpt lat="47.587535" lon="8.220038">
<ele>321.1</ele>
<time>2003-05-23T10:53:17Z</time>
<speed>0.0</speed>
</trkpt>
<trkpt lat="47.587546" lon="8.220054">
<ele>321.3</ele>
<time>2003-05-23T10:53:22Z</time>
<speed>0.3</speed>
</trkpt>
</trkseg>
</trk>
</gpx>
